<?xml version="1.0" encoding="UTF-8" standalone="no" ?>
<gpx xmlns="http://www.topografix.com/GPX/1/1" xmlns:xsi="http://www.w3.org/2001/XMLSchema-instance" xsi:schemaLocation="http://www.topografix.com/GPX/1/1 http://www.topografix.com/GPX/1/1/gpx.xsd" version="1.1" creator="VisuGPX - https://www.visugpx.com">
  <metadata>
    <name>de pré du lac à cipières via caussol</name>
    <desc><![CDATA[très bien, sortie complète, de tout !
Un peu compliqué sur la fin de trouver le chemin...]]></desc>
  </metadata>
  <trk>
    <name><![CDATA[de pré du lac à cipières via caussol_1]]></name>
    <trkseg>
      <trkpt lat="43.68055" lon="6.97127">
        <ele>413</ele>
        <time>2018-01-02T10:14:44.552Z</time>
      </trkpt>
      <trkpt lat="43.68049" lon="6.97136">
        <ele>413</ele>
        <time>2018-01-02T10:14:48.552Z</time>
      </trkpt>
      <trkpt lat="43.68041" lon="6.97148">
        <ele>413</ele>
        <time>2018-01-02T10:14:55.552Z</time>
      </trkpt>
      <trkpt lat="43.68042" lon="6.97163">
        <ele>413</ele>
        <time>2018-01-02T10:14:59.552Z</time>
      </trkpt>
      <trkpt lat="43.68052" lon="6.97168">
        <ele>414</ele>
        <time>2018-01-02T10:15:03.552Z</time>
      </trkpt>
      <trkpt lat="43.68062" lon="6.97171">
        <ele>414</ele>
        <time>2018-01-02T10:15:07.552Z</time>
      </trkpt>
      <trkpt lat="43.68072" lon="6.97177">
        <ele>414</ele>
        <time>2018-01-02T10:15:11.552Z</time>
      </trkpt>
      <trkpt lat="43.68081" lon="6.97185">
        <ele>414</ele>
        <time>2018-01-02T10:15:15.552Z</time>
      </trkpt>
      <trkpt lat="43.6809" lon="6.97186">
        <ele>414</ele>
        <time>2018-01-02T10:15:18.552Z</time>
      </trkpt>
      <trkpt lat="43.68099" lon="6.97186">
        <ele>414</ele>
        <time>2018-01-02T10:15:21.552Z</time>
      </trkpt>
      <trkpt lat="43.68107" lon="6.97183">
        <ele>414</ele>
        <time>2018-01-02T10:15:24.552Z</time>
      </trkpt>
      <trkpt lat="43.68114" lon="6.97178">
        <ele>414</ele>
        <time>2018-01-02T10:15:27.552Z</time>
      </trkpt>
      <trkpt lat="43.68123" lon="6.97171">
        <ele>414</ele>
        <time>2018-01-02T10:15:31.552Z</time>
      </trkpt>
      <trkpt lat="43.68129" lon="6.97165">
        <ele>417</ele>
        <time>2018-01-02T10:15:34.552Z</time>
      </trkpt>
      <trkpt lat="43.68136" lon="6.97158">
        <ele>417</ele>
        <time>2018-01-02T10:15:38.552Z</time>
      </trkpt>
      <trkpt lat="43.68142" lon="6.97152">
        <ele>417</ele>
        <time>2018-01-02T10:15:41.552Z</time>
      </trkpt>
      <trkpt lat="43.68147" lon="6.97146">
        <ele>417</ele>
        <time>2018-01-02T10:15:44.552Z</time>
      </trkpt>
      <trkpt lat="43.68153" lon="6.97142">
        <ele>418</ele>
        <time>2018-01-02T10:15:47.552Z</time>
      </trkpt>
      <trkpt lat="43.68158" lon="6.97137">
        <ele>418</ele>
        <time>2018-01-02T10:15:50.552Z</time>
      </trkpt>
      <trkpt lat="43.68164" lon="6.97131">
        <ele>418</ele>
        <time>2018-01-02T10:15:53.552Z</time>
      </trkpt>
      <trkpt lat="43.68169" lon="6.97127">
        <ele>426</ele>
        <time>2018-01-02T10:15:56.552Z</time>
      </trkpt>
      <trkpt lat="43.68175" lon="6.97122">
        <ele>426</ele>
        <time>2018-01-02T10:15:59.552Z</time>
      </trkpt>
      <trkpt lat="43.68182" lon="6.97118">
        <ele>427</ele>
        <time>2018-01-02T10:16:02.552Z</time>
      </trkpt>
      <trkpt lat="43.68188" lon="6.97116">
        <ele>428</ele>
        <time>2018-01-02T10:16:05.552Z</time>
      </trkpt>
      <trkpt lat="43.68194" lon="6.97114">
        <ele>428</ele>
        <time>2018-01-02T10:16:08.552Z</time>
      </trkpt>
      <trkpt lat="43.682" lon="6.97114">
        <ele>429</ele>
        <time>2018-01-02T10:16:11.552Z</time>
      </trkpt>
      <trkpt lat="43.68207" lon="6.97116">
        <ele>429</ele>
        <time>2018-01-02T10:16:14.552Z</time>
      </trkpt>
      <trkpt lat="43.68213" lon="6.97119">
        <ele>430</ele>
        <time>2018-01-02T10:16:17.552Z</time>
      </trkpt>
      <trkpt lat="43.68219" lon="6.97125">
        <ele>430</ele>
        <time>2018-01-02T10:16:20.552Z</time>
      </trkpt>
      <trkpt lat="43.68224" lon="6.97133">
        <ele>430</ele>
        <time>2018-01-02T10:16:23.552Z</time>
      </trkpt>
      <trkpt lat="43.68227" lon="6.97142">
        <ele>430</ele>
        <time>2018-01-02T10:16:26.552Z</time>
      </trkpt>
      <trkpt lat="43.6823" lon="6.97152">
        <ele>430</ele>
        <time>2018-01-02T10:16:29.552Z</time>
      </trkpt>
      <trkpt lat="43.68231" lon="6.97161">
        <ele>430</ele>
        <time>2018-01-02T10:16:32.552Z</time>
      </trkpt>
      <trkpt lat="43.68233" lon="6.97169">
        <ele>426</ele>
        <time>2018-01-02T10:16:35.552Z</time>
      </trkpt>
      <trkpt lat="43.68235" lon="6.97177">
        <ele>426</ele>
        <time>2018-01-02T10:16:38.552Z</time>
      </trkpt>
      <trkpt lat="43.68237" lon="6.97185">
        <ele>425</ele>
        <time>2018-01-02T10:16:41.552Z</time>
      </trkpt>
      <trkpt lat="43.68239" lon="6.97193">
        <ele>424</ele>
        <time>2018-01-02T10:16:44.552Z</time>
      </trkpt>
      <trkpt lat="43.68242" lon="6.97201">
        <ele>423</ele>
        <time>2018-01-02T10:16:47.552Z</time>
      </trkpt>
      <trkpt lat="43.68244" lon="6.97209">
        <ele>423</ele>
        <time>2018-01-02T10:16:50.552Z</time>
      </trkpt>
      <trkpt lat="43.68247" lon="6.97217">
        <ele>423</ele>
        <time>2018-01-02T10:16:53.552Z</time>
      </trkpt>
      <trkpt lat="43.6825" lon="6.97224">
        <ele>435</ele>
        <time>2018-01-02T10:16:56.552Z</time>
      </trkpt>
      <trkpt lat="43.68254" lon="6.9723">
        <ele>433</ele>
        <time>2018-01-02T10:16:59.552Z</time>
      </trkpt>
      <trkpt lat="43.68258" lon="6.97236">
        <ele>432</ele>
        <time>2018-01-02T10:17:02.552Z</time>
      </trkpt>
      <trkpt lat="43.68262" lon="6.97243">
        <ele>432</ele>
        <time>2018-01-02T10:17:05.552Z</time>
      </trkpt>
      <trkpt lat="43.68267" lon="6.97249">
        <ele>433</ele>
        <time>2018-01-02T10:17:08.552Z</time>
      </trkpt>
      <trkpt lat="43.68271" lon="6.97254">
        <ele>429</ele>
        <time>2018-01-02T10:17:11.552Z</time>
      </trkpt>
      <trkpt lat="43.68277" lon="6.97258">
        <ele>430</ele>
        <time>2018-01-02T10:17:14.552Z</time>
      </trkpt>
      <trkpt lat="43.68282" lon="6.97263">
        <ele>431</ele>
        <time>2018-01-02T10:17:17.552Z</time>
      </trkpt>
      <trkpt lat="43.68288" lon="6.97267">
        <ele>432</ele>
        <time>2018-01-02T10:17:20.552Z</time>
      </trkpt>
      <trkpt lat="43.68293" lon="6.97272">
        <ele>432</ele>
        <time>2018-01-02T10:17:23.552Z</time>
      </trkpt>
      <trkpt lat="43.68298" lon="6.97276">
        <ele>433</ele>
        <time>2018-01-02T10:17:26.552Z</time>
      </trkpt>
      <trkpt lat="43.68304" lon="6.97281">
        <ele>434</ele>
        <time>2018-01-02T10:17:29.552Z</time>
      </trkpt>
      <trkpt lat="43.68309" lon="6.97285">
        <ele>434</ele>
        <time>2018-01-02T10:17:32.552Z</time>
      </trkpt>
      <trkpt lat="43.68315" lon="6.9729">
        <ele>434</ele>
        <time>2018-01-02T10:17:35.552Z</time>
      </trkpt>
      <trkpt lat="43.68321" lon="6.97295">
        <ele>435</ele>
        <time>2018-01-02T10:17:38.552Z</time>
      </trkpt>
      <trkpt lat="43.68327" lon="6.97299">
        <ele>435</ele>
        <time>2018-01-02T10:17:41.552Z</time>
      </trkpt>
      <trkpt lat="43.68333" lon="6.97304">
        <ele>435</ele>
        <time>2018-01-02T10:17:44.552Z</time>
      </trkpt>
      <trkpt lat="43.68341" lon="6.9731">
        <ele>451</ele>
        <time>2018-01-02T10:17:48.552Z</time>
      </trkpt>
      <trkpt lat="43.68346" lon="6.97316">
        <ele>450</ele>
        <time>2018-01-02T10:17:51.552Z</time>
      </trkpt>
      <trkpt lat="43.68352" lon="6.97325">
        <ele>450</ele>
        <time>2018-01-02T10:17:55.552Z</time>
      </trkpt>
      <trkpt lat="43.68355" lon="6.97332">
        <ele>450</ele>
        <time>2018-01-02T10:17:58.552Z</time>
      </trkpt>
      <trkpt lat="43.68359" lon="6.97342">
        <ele>445</ele>
        <time>2018-01-02T10:18:02.552Z</time>
      </trkpt>
      <trkpt lat="43.68362" lon="6.97349">
        <ele>446</ele>
        <time>2018-01-02T10:18:05.552Z</time>
      </trkpt>
      <trkpt lat="43.68365" lon="6.97357">
        <ele>446</ele>
        <time>2018-01-02T10:18:08.552Z</time>
      </trkpt>
      <trkpt lat="43.68368" lon="6.97365">
        <ele>446</ele>
        <time>2018-01-02T10:18:11.552Z</time>
      </trkpt>
      <trkpt lat="43.6837" lon="6.97373">
        <ele>446</ele>
        <time>2018-01-02T10:18:14.552Z</time>
      </trkpt>
      <trkpt lat="43.68373" lon="6.97382">
        <ele>446</ele>
        <time>2018-01-02T10:18:17.552Z</time>
      </trkpt>
      <trkpt lat="43.68376" lon="6.9739">
        <ele>446</ele>
        <time>2018-01-02T10:18:20.552Z</time>
      </trkpt>
      <trkpt lat="43.6838" lon="6.97398">
        <ele>446</ele>
        <time>2018-01-02T10:18:23.552Z</time>
      </trkpt>
      <trkpt lat="43.68384" lon="6.97405">
        <ele>447</ele>
        <time>2018-01-02T10:18:26.552Z</time>
      </trkpt>
      <trkpt lat="43.68389" lon="6.97412">
        <ele>448</ele>
        <time>2018-01-02T10:18:29.552Z</time>
      </trkpt>
      <trkpt lat="43.68393" lon="6.97418">
        <ele>441</ele>
        <time>2018-01-02T10:18:32.552Z</time>
      </trkpt>
      <trkpt lat="43.68399" lon="6.97424">
        <ele>443</ele>
        <time>2018-01-02T10:18:35.552Z</time>
      </trkpt>
      <trkpt lat="43.68406" lon="6.97431">
        <ele>444</ele>
        <time>2018-01-02T10:18:39.552Z</time>
      </trkpt>
      <trkpt lat="43.68412" lon="6.97435">
        <ele>443</ele>
        <time>2018-01-02T10:18:42.552Z</time>
      </trkpt>
      <trkpt lat="43.6842" lon="6.9744">
        <ele>454</ele>
        <time>2018-01-02T10:18:46.552Z</time>
      </trkpt>
      <trkpt lat="43.68428" lon="6.97444">
        <ele>454</ele>
        <time>2018-01-02T10:18:50.552Z</time>
      </trkpt>
      <trkpt lat="43.68434" lon="6.97447">
        <ele>454</ele>
        <time>2018-01-02T10:18:53.552Z</time>
      </trkpt>
      <trkpt lat="43.6844" lon="6.97451">
        <ele>454</ele>
        <time>2018-01-02T10:18:56.552Z</time>
      </trkpt>
      <trkpt lat="43.68445" lon="6.97455">
        <ele>454</ele>
        <time>2018-01-02T10:18:59.552Z</time>
      </trkpt>
      <trkpt lat="43.68451" lon="6.9746">
        <ele>454</ele>
        <time>2018-01-02T10:19:02.552Z</time>
      </trkpt>
      <trkpt lat="43.68458" lon="6.97466">
        <ele>454</ele>
        <time>2018-01-02T10:19:06.552Z</time>
      </trkpt>
      <trkpt lat="43.68465" lon="6.97472">
        <ele>454</ele>
        <time>2018-01-02T10:19:10.552Z</time>
      </trkpt>
      <trkpt lat="43.68471" lon="6.97476">
        <ele>454</ele>
        <time>2018-01-02T10:19:13.552Z</time>
      </trkpt>
      <trkpt lat="43.68476" lon="6.97481">
        <ele>454</ele>
        <time>2018-01-02T10:19:16.552Z</time>
      </trkpt>
      <trkpt lat="43.68482" lon="6.97485">
        <ele>454</ele>
        <time>2018-01-02T10:19:19.552Z</time>
      </trkpt>
      <trkpt lat="43.68488" lon="6.97488">
        <ele>454</ele>
        <time>2018-01-02T10:19:22.552Z</time>
      </trkpt>
      <trkpt lat="43.68494" lon="6.97489">
        <ele>454</ele>
        <time>2018-01-02T10:19:25.552Z</time>
      </trkpt>
      <trkpt lat="43.685" lon="6.97489">
        <ele>459</ele>
        <time>2018-01-02T10:19:28.552Z</time>
      </trkpt>
      <trkpt lat="43.68506" lon="6.97487">
        <ele>460</ele>
        <time>2018-01-02T10:19:31.552Z</time>
      </trkpt>
      <trkpt lat="43.68512" lon="6.97484">
        <ele>462</ele>
        <time>2018-01-02T10:19:34.552Z</time>
      </trkpt>
      <trkpt lat="43.68519" lon="6.97479">
        <ele>464</ele>
        <time>2018-01-02T10:19:37.552Z</time>
      </trkpt>
      <trkpt lat="43.68523" lon="6.97477">
        <ele>466</ele>
        <time>2018-01-02T10:19:39.552Z</time>
      </trkpt>
      <trkpt lat="43.68528" lon="6.97475">
        <ele>466</ele>
        <time>2018-01-02T10:19:41.552Z</time>
      </trkpt>
      <trkpt lat="43.68533" lon="6.97473">
        <ele>467</ele>
        <time>2018-01-02T10:19:43.552Z</time>
      </trkpt>
      <trkpt lat="43.68537" lon="6.97472">
        <ele>468</ele>
        <time>2018-01-02T10:19:45.552Z</time>
      </trkpt>
      <trkpt lat="43.68544" lon="6.9747">
        <ele>468</ele>
        <time>2018-01-02T10:19:48.552Z</time>
      </trkpt>
      <trkpt lat="43.68549" lon="6.97472">
        <ele>468</ele>
        <time>2018-01-02T10:19:51.552Z</time>
      </trkpt>
      <trkpt lat="43.68556" lon="6.97475">
        <ele>468</ele>
        <time>2018-01-02T10:19:54.552Z</time>
      </trkpt>
      <trkpt lat="43.68562" lon="6.97478">
        <ele>468</ele>
        <time>2018-01-02T10:19:57.552Z</time>
      </trkpt>
      <trkpt lat="43.68569" lon="6.97484">
        <ele>467</ele>
        <time>2018-01-02T10:20:01.552Z</time>
      </trkpt>
      <trkpt lat="43.68574" lon="6.97488">
        <ele>467</ele>
        <time>2018-01-02T10:20:04.552Z</time>
      </trkpt>
      <trkpt lat="43.68581" lon="6.97492">
        <ele>466</ele>
        <time>2018-01-02T10:20:08.552Z</time>
      </trkpt>
      <trkpt lat="43.68587" lon="6.97495">
        <ele>468</ele>
        <time>2018-01-02T10:20:11.552Z</time>
      </trkpt>
      <trkpt lat="43.68594" lon="6.97498">
        <ele>470</ele>
        <time>2018-01-02T10:20:14.552Z</time>
      </trkpt>
      <trkpt lat="43.68601" lon="6.975">
        <ele>463</ele>
        <time>2018-01-02T10:20:17.552Z</time>
      </trkpt>
      <trkpt lat="43.68609" lon="6.97502">
        <ele>463</ele>
        <time>2018-01-02T10:20:21.552Z</time>
      </trkpt>
      <trkpt lat="43.68616" lon="6.97502">
        <ele>463</ele>
        <time>2018-01-02T10:20:24.552Z</time>
      </trkpt>
      <trkpt lat="43.68625" lon="6.97503">
        <ele>464</ele>
        <time>2018-01-02T10:20:28.552Z</time>
      </trkpt>
      <trkpt lat="43.68632" lon="6.97503">
        <ele>465</ele>
        <time>2018-01-02T10:20:31.552Z</time>
      </trkpt>
      <trkpt lat="43.68641" lon="6.97504">
        <ele>467</ele>
        <time>2018-01-02T10:20:35.552Z</time>
      </trkpt>
      <trkpt lat="43.68649" lon="6.97505">
        <ele>469</ele>
        <time>2018-01-02T10:20:38.552Z</time>
      </trkpt>
      <trkpt lat="43.68654" lon="6.97506">
        <ele>470</ele>
        <time>2018-01-02T10:20:40.552Z</time>
      </trkpt>
      <trkpt lat="43.6866" lon="6.97508">
        <ele>471</ele>
        <time>2018-01-02T10:20:43.552Z</time>
      </trkpt>
      <trkpt lat="43.68669" lon="6.97511">
        <ele>473</ele>
        <time>2018-01-02T10:20:47.552Z</time>
      </trkpt>
      <trkpt lat="43.68678" lon="6.97515">
        <ele>472</ele>
        <time>2018-01-02T10:20:51.552Z</time>
      </trkpt>
      <trkpt lat="43.68685" lon="6.97517">
        <ele>471</ele>
        <time>2018-01-02T10:20:54.552Z</time>
      </trkpt>
      <trkpt lat="43.68692" lon="6.97518">
        <ele>471</ele>
        <time>2018-01-02T10:20:57.552Z</time>
      </trkpt>
      <trkpt lat="43.68698" lon="6.97518">
        <ele>470</ele>
        <time>2018-01-02T10:21:00.552Z</time>
      </trkpt>
      <trkpt lat="43.68706" lon="6.97518">
        <ele>470</ele>
        <time>2018-01-02T10:21:04.552Z</time>
      </trkpt>
      <trkpt lat="43.68713" lon="6.97516">
        <ele>471</ele>
        <time>2018-01-02T10:21:07.552Z</time>
      </trkpt>
      <trkpt lat="43.68717" lon="6.97515">
        <ele>471</ele>
        <time>2018-01-02T10:21:09.552Z</time>
      </trkpt>
      <trkpt lat="43.68721" lon="6.97513">
        <ele>471</ele>
        <time>2018-01-02T10:21:11.552Z</time>
      </trkpt>
      <trkpt lat="43.68726" lon="6.9751">
        <ele>472</ele>
        <time>2018-01-02T10:21:13.552Z</time>
      </trkpt>
      <trkpt lat="43.68729" lon="6.97507">
        <ele>472</ele>
        <time>2018-01-02T10:21:15.552Z</time>
      </trkpt>
      <trkpt lat="43.68734" lon="6.97503">
        <ele>474</ele>
        <time>2018-01-02T10:21:18.552Z</time>
      </trkpt>
      <trkpt lat="43.68739" lon="6.97497">
        <ele>482</ele>
        <time>2018-01-02T10:21:21.552Z</time>
      </trkpt>
      <trkpt lat="43.68742" lon="6.97493">
        <ele>482</ele>
        <time>2018-01-02T10:21:23.552Z</time>
      </trkpt>
      <trkpt lat="43.68746" lon="6.97487">
        <ele>483</ele>
        <time>2018-01-02T10:21:26.552Z</time>
      </trkpt>
      <trkpt lat="43.68749" lon="6.97483">
        <ele>484</ele>
        <time>2018-01-02T10:21:28.552Z</time>
      </trkpt>
      <trkpt lat="43.68751" lon="6.97479">
        <ele>482</ele>
        <time>2018-01-02T10:21:30.552Z</time>
      </trkpt>
      <trkpt lat="43.68754" lon="6.97475">
        <ele>483</ele>
        <time>2018-01-02T10:21:32.552Z</time>
      </trkpt>
      <trkpt lat="43.68756" lon="6.97471">
        <ele>484</ele>
        <time>2018-01-02T10:21:34.552Z</time>
      </trkpt>
      <trkpt lat="43.68759" lon="6.97467">
        <ele>484</ele>
        <time>2018-01-02T10:21:36.552Z</time>
      </trkpt>
      <trkpt lat="43.68762" lon="6.97462">
        <ele>485</ele>
        <time>2018-01-02T10:21:38.552Z</time>
      </trkpt>
      <trkpt lat="43.68768" lon="6.97452">
        <ele>486</ele>
        <time>2018-01-02T10:21:43.552Z</time>
      </trkpt>
      <trkpt lat="43.68773" lon="6.97444">
        <ele>487</ele>
        <time>2018-01-02T10:21:47.552Z</time>
      </trkpt>
      <trkpt lat="43.68778" lon="6.97438">
        <ele>488</ele>
        <time>2018-01-02T10:21:50.552Z</time>
      </trkpt>
      <trkpt lat="43.68783" lon="6.97431">
        <ele>488</ele>
        <time>2018-01-02T10:21:54.552Z</time>
      </trkpt>
      <trkpt lat="43.68791" lon="6.97425">
        <ele>488</ele>
        <time>2018-01-02T10:21:58.552Z</time>
      </trkpt>
      <trkpt lat="43.68796" lon="6.9742">
        <ele>487</ele>
        <time>2018-01-02T10:22:01.552Z</time>
      </trkpt>
      <trkpt lat="43.68802" lon="6.97415">
        <ele>498</ele>
        <time>2018-01-02T10:22:04.552Z</time>
      </trkpt>
      <trkpt lat="43.68809" lon="6.97409">
        <ele>497</ele>
        <time>2018-01-02T10:22:08.552Z</time>
      </trkpt>
      <trkpt lat="43.68816" lon="6.97404">
        <ele>496</ele>
        <time>2018-01-02T10:22:12.552Z</time>
      </trkpt>
      <trkpt lat="43.68826" lon="6.974">
        <ele>495</ele>
        <time>2018-01-02T10:22:17.552Z</time>
      </trkpt>
      <trkpt lat="43.68834" lon="6.97397">
        <ele>495</ele>
        <time>2018-01-02T10:22:21.552Z</time>
      </trkpt>
      <trkpt lat="43.68841" lon="6.97395">
        <ele>495</ele>
        <time>2018-01-02T10:22:24.552Z</time>
      </trkpt>
      <trkpt lat="43.68847" lon="6.97394">
        <ele>496</ele>
        <time>2018-01-02T10:22:27.552Z</time>
      </trkpt>
      <trkpt lat="43.68854" lon="6.97393">
        <ele>497</ele>
        <time>2018-01-02T10:22:30.552Z</time>
      </trkpt>
      <trkpt lat="43.6886" lon="6.97393">
        <ele>497</ele>
        <time>2018-01-02T10:22:33.552Z</time>
      </trkpt>
      <trkpt lat="43.68867" lon="6.97394">
        <ele>498</ele>
        <time>2018-01-02T10:22:36.552Z</time>
      </trkpt>
      <trkpt lat="43.68874" lon="6.97394">
        <ele>498</ele>
        <time>2018-01-02T10:22:39.552Z</time>
      </trkpt>
      <trkpt lat="43.68881" lon="6.97394">
        <ele>498</ele>
        <time>2018-01-02T10:22:42.552Z</time>
      </trkpt>
      <trkpt lat="43.68887" lon="6.97395">
        <ele>499</ele>
        <time>2018-01-02T10:22:45.552Z</time>
      </trkpt>
      <trkpt lat="43.68894" lon="6.97397">
        <ele>498</ele>
        <time>2018-01-02T10:22:48.552Z</time>
      </trkpt>
      <trkpt lat="43.68902" lon="6.97399">
        <ele>498</ele>
        <time>2018-01-02T10:22:52.552Z</time>
      </trkpt>
      <trkpt lat="43.68912" lon="6.97401">
        <ele>498</ele>
        <time>2018-01-02T10:22:57.552Z</time>
      </trkpt>
      <trkpt lat="43.68917" lon="6.97402">
        <ele>501</ele>
        <time>2018-01-02T10:22:59.552Z</time>
      </trkpt>
      <trkpt lat="43.68923" lon="6.97403">
        <ele>501</ele>
        <time>2018-01-02T10:23:02.552Z</time>
      </trkpt>
      <trkpt lat="43.6893" lon="6.97404">
        <ele>502</ele>
        <time>2018-01-02T10:23:05.552Z</time>
      </trkpt>
      <trkpt lat="43.68934" lon="6.97405">
        <ele>503</ele>
        <time>2018-01-02T10:23:07.552Z</time>
      </trkpt>
      <trkpt lat="43.68938" lon="6.97406">
        <ele>504</ele>
        <time>2018-01-02T10:23:09.552Z</time>
      </trkpt>
      <trkpt lat="43.68943" lon="6.97407">
        <ele>504</ele>
        <time>2018-01-02T10:23:11.552Z</time>
      </trkpt>
      <trkpt lat="43.68947" lon="6.97408">
        <ele>505</ele>
        <time>2018-01-02T10:23:13.552Z</time>
      </trkpt>
      <trkpt lat="43.68954" lon="6.9741">
        <ele>506</ele>
        <time>2018-01-02T10:23:16.552Z</time>
      </trkpt>
      <trkpt lat="43.6896" lon="6.97411">
        <ele>506</ele>
        <time>2018-01-02T10:23:19.552Z</time>
      </trkpt>
      <trkpt lat="43.68967" lon="6.97412">
        <ele>507</ele>
        <time>2018-01-02T10:23:22.552Z</time>
      </trkpt>
      <trkpt lat="43.68975" lon="6.97413">
        <ele>507</ele>
        <time>2018-01-02T10:23:26.552Z</time>
      </trkpt>
      <trkpt lat="43.68984" lon="6.97414">
        <ele>507</ele>
        <time>2018-01-02T10:23:30.552Z</time>
      </trkpt>
      <trkpt lat="43.68993" lon="6.97416">
        <ele>506</ele>
        <time>2018-01-02T10:23:34.552Z</time>
      </trkpt>
      <trkpt lat="43.69002" lon="6.97417">
        <ele>504</ele>
        <time>2018-01-02T10:23:38.552Z</time>
      </trkpt>
      <trkpt lat="43.69011" lon="6.97418">
        <ele>501</ele>
        <time>2018-01-02T10:23:42.552Z</time>
      </trkpt>
      <trkpt lat="43.6902" lon="6.97419">
        <ele>500</ele>
        <time>2018-01-02T10:23:46.552Z</time>
      </trkpt>
      <trkpt lat="43.69028" lon="6.97421">
        <ele>499</ele>
        <time>2018-01-02T10:23:50.552Z</time>
      </trkpt>
      <trkpt lat="43.69037" lon="6.97422">
        <ele>499</ele>
        <time>2018-01-02T10:23:54.552Z</time>
      </trkpt>
      <trkpt lat="43.69044" lon="6.97423">
        <ele>499</ele>
        <time>2018-01-02T10:23:58.552Z</time>
      </trkpt>
      <trkpt lat="43.69057" lon="6.97422">
        <ele>500</ele>
        <time>2018-01-02T10:24:04.552Z</time>
      </trkpt>
      <trkpt lat="43.69064" lon="6.97421">
        <ele>501</ele>
        <time>2018-01-02T10:24:07.552Z</time>
      </trkpt>
      <trkpt lat="43.69069" lon="6.97419">
        <ele>503</ele>
        <time>2018-01-02T10:24:09.552Z</time>
      </trkpt>
      <trkpt lat="43.69073" lon="6.97418">
        <ele>504</ele>
        <time>2018-01-02T10:24:11.552Z</time>
      </trkpt>
      <trkpt lat="43.69077" lon="6.97416">
        <ele>510</ele>
        <time>2018-01-02T10:24:13.552Z</time>
      </trkpt>
      <trkpt lat="43.69081" lon="6.97413">
        <ele>510</ele>
        <time>2018-01-02T10:24:15.552Z</time>
      </trkpt>
      <trkpt lat="43.69085" lon="6.97411">
        <ele>510</ele>
        <time>2018-01-02T10:24:17.552Z</time>
      </trkpt>
      <trkpt lat="43.69089" lon="6.97409">
        <ele>510</ele>
        <time>2018-01-02T10:24:19.552Z</time>
      </trkpt>
      <trkpt lat="43.69092" lon="6.97406">
        <ele>510</ele>
        <time>2018-01-02T10:24:21.552Z</time>
      </trkpt>
      <trkpt lat="43.69097" lon="6.97401">
        <ele>511</ele>
        <time>2018-01-02T10:24:24.552Z</time>
      </trkpt>
      <trkpt lat="43.69102" lon="6.97395">
        <ele>511</ele>
        <time>2018-01-02T10:24:27.552Z</time>
      </trkpt>
      <trkpt lat="43.69106" lon="6.97388">
        <ele>512</ele>
        <time>2018-01-02T10:24:30.552Z</time>
      </trkpt>
      <trkpt lat="43.69109" lon="6.97382">
        <ele>512</ele>
        <time>2018-01-02T10:24:33.552Z</time>
      </trkpt>
      <trkpt lat="43.69112" lon="6.97374">
        <ele>513</ele>
        <time>2018-01-02T10:24:36.552Z</time>
      </trkpt>
      <trkpt lat="43.69115" lon="6.97369">
        <ele>513</ele>
        <time>2018-01-02T10:24:38.552Z</time>
      </trkpt>
      <trkpt lat="43.69117" lon="6.97363">
        <ele>513</ele>
        <time>2018-01-02T10:24:40.552Z</time>
      </trkpt>
      <trkpt lat="43.69119" lon="6.97358">
        <ele>514</ele>
        <time>2018-01-02T10:24:42.552Z</time>
      </trkpt>
      <trkpt lat="43.6912" lon="6.97352">
        <ele>514</ele>
        <time>2018-01-02T10:24:44.552Z</time>
      </trkpt>
      <trkpt lat="43.69121" lon="6.97347">
        <ele>514</ele>
        <time>2018-01-02T10:24:46.552Z</time>
      </trkpt>
      <trkpt lat="43.69123" lon="6.97341">
        <ele>514</ele>
        <time>2018-01-02T10:24:48.552Z</time>
      </trkpt>
      <trkpt lat="43.69124" lon="6.97335">
        <ele>515</ele>
        <time>2018-01-02T10:24:50.552Z</time>
      </trkpt>
      <trkpt lat="43.69126" lon="6.9733">
        <ele>530</ele>
        <time>2018-01-02T10:24:52.552Z</time>
      </trkpt>
      <trkpt lat="43.69129" lon="6.97323">
        <ele>530</ele>
        <time>2018-01-02T10:24:55.552Z</time>
      </trkpt>
      <trkpt lat="43.69131" lon="6.97317">
        <ele>531</ele>
        <time>2018-01-02T10:24:57.552Z</time>
      </trkpt>
      <trkpt lat="43.69133" lon="6.97313">
        <ele>531</ele>
        <time>2018-01-02T10:24:59.552Z</time>
      </trkpt>
      <trkpt lat="43.69137" lon="6.97305">
        <ele>532</ele>
        <time>2018-01-02T10:25:02.552Z</time>
      </trkpt>
      <trkpt lat="43.69141" lon="6.97296">
        <ele>534</ele>
        <time>2018-01-02T10:25:06.552Z</time>
      </trkpt>
      <trkpt lat="43.69146" lon="6.97289">
        <ele>536</ele>
        <time>2018-01-02T10:25:10.552Z</time>
      </trkpt>
      <trkpt lat="43.69153" lon="6.97282">
        <ele>537</ele>
        <time>2018-01-02T10:25:14.552Z</time>
      </trkpt>
      <trkpt lat="43.69159" lon="6.97277">
        <ele>538</ele>
        <time>2018-01-02T10:25:17.552Z</time>
      </trkpt>
      <trkpt lat="43.69166" lon="6.97272">
        <ele>540</ele>
        <time>2018-01-02T10:25:20.552Z</time>
      </trkpt>
      <trkpt lat="43.69172" lon="6.97268">
        <ele>533</ele>
        <time>2018-01-02T10:25:23.552Z</time>
      </trkpt>
      <trkpt lat="43.6918" lon="6.97265">
        <ele>533</ele>
        <time>2018-01-02T10:25:27.552Z</time>
      </trkpt>
      <trkpt lat="43.69187" lon="6.97262">
        <ele>531</ele>
        <time>2018-01-02T10:25:30.552Z</time>
      </trkpt>
      <trkpt lat="43.69194" lon="6.9726">
        <ele>530</ele>
        <time>2018-01-02T10:25:33.552Z</time>
      </trkpt>
      <trkpt lat="43.69201" lon="6.97259">
        <ele>528</ele>
        <time>2018-01-02T10:25:36.552Z</time>
      </trkpt>
      <trkpt lat="43.69205" lon="6.97257">
        <ele>527</ele>
        <time>2018-01-02T10:25:38.552Z</time>
      </trkpt>
      <trkpt lat="43.6921" lon="6.97256">
        <ele>526</ele>
        <time>2018-01-02T10:25:40.552Z</time>
      </trkpt>
      <trkpt lat="43.69214" lon="6.97254">
        <ele>526</ele>
        <time>2018-01-02T10:25:42.552Z</time>
      </trkpt>
      <trkpt lat="43.69219" lon="6.97253">
        <ele>525</ele>
        <time>2018-01-02T10:25:44.552Z</time>
      </trkpt>
      <trkpt lat="43.69223" lon="6.97252">
        <ele>525</ele>
        <time>2018-01-02T10:25:46.552Z</time>
      </trkpt>
      <trkpt lat="43.69228" lon="6.9725">
        <ele>525</ele>
        <time>2018-01-02T10:25:48.552Z</time>
      </trkpt>
      <trkpt lat="43.69232" lon="6.97248">
        <ele>540</ele>
        <time>2018-01-02T10:25:50.552Z</time>
      </trkpt>
      <trkpt lat="43.69237" lon="6.97246">
        <ele>538</ele>
        <time>2018-01-02T10:25:52.552Z</time>
      </trkpt>
      <trkpt lat="43.69241" lon="6.97244">
        <ele>536</ele>
        <time>2018-01-02T10:25:54.552Z</time>
      </trkpt>
      <trkpt lat="43.69246" lon="6.97242">
        <ele>535</ele>
        <time>2018-01-02T10:25:56.552Z</time>
      </trkpt>
      <trkpt lat="43.6925" lon="6.97239">
        <ele>536</ele>
        <time>2018-01-02T10:25:58.552Z</time>
      </trkpt>
      <trkpt lat="43.69254" lon="6.97236">
        <ele>530</ele>
        <time>2018-01-02T10:26:00.552Z</time>
      </trkpt>
      <trkpt lat="43.69258" lon="6.97233">
        <ele>531</ele>
        <time>2018-01-02T10:26:02.552Z</time>
      </trkpt>
      <trkpt lat="43.69263" lon="6.9723">
        <ele>532</ele>
        <time>2018-01-02T10:26:04.552Z</time>
      </trkpt>
      <trkpt lat="43.69267" lon="6.97225">
        <ele>533</ele>
        <time>2018-01-02T10:26:06.552Z</time>
      </trkpt>
      <trkpt lat="43.69271" lon="6.97222">
        <ele>534</ele>
        <time>2018-01-02T10:26:08.552Z</time>
      </trkpt>
      <trkpt lat="43.69275" lon="6.97217">
        <ele>535</ele>
        <time>2018-01-02T10:26:10.552Z</time>
      </trkpt>
      <trkpt lat="43.69279" lon="6.97213">
        <ele>536</ele>
        <time>2018-01-02T10:26:12.552Z</time>
      </trkpt>
      <trkpt lat="43.69283" lon="6.97209">
        <ele>536</ele>
        <time>2018-01-02T10:26:14.552Z</time>
      </trkpt>
      <trkpt lat="43.69286" lon="6.97205">
        <ele>537</ele>
        <time>2018-01-02T10:26:16.552Z</time>
      </trkpt>
      <trkpt lat="43.6929" lon="6.97201">
        <ele>537</ele>
        <time>2018-01-02T10:26:18.552Z</time>
      </trkpt>
      <trkpt lat="43.69294" lon="6.97197">
        <ele>538</ele>
        <time>2018-01-02T10:26:20.552Z</time>
      </trkpt>
      <trkpt lat="43.69298" lon="6.97193">
        <ele>538</ele>
        <time>2018-01-02T10:26:22.552Z</time>
      </trkpt>
      <trkpt lat="43.69301" lon="6.97189">
        <ele>538</ele>
        <time>2018-01-02T10:26:24.552Z</time>
      </trkpt>
      <trkpt lat="43.69307" lon="6.97184">
        <ele>539</ele>
        <time>2018-01-02T10:26:27.552Z</time>
      </trkpt>
      <trkpt lat="43.69311" lon="6.97181">
        <ele>539</ele>
        <time>2018-01-02T10:26:29.552Z</time>
      </trkpt>
      <trkpt lat="43.69314" lon="6.97177">
        <ele>540</ele>
        <time>2018-01-02T10:26:31.552Z</time>
      </trkpt>
      <trkpt lat="43.6932" lon="6.97172">
        <ele>541</ele>
        <time>2018-01-02T10:26:34.552Z</time>
      </trkpt>
      <trkpt lat="43.69326" lon="6.97168">
        <ele>542</ele>
        <time>2018-01-02T10:26:37.552Z</time>
      </trkpt>
      <trkpt lat="43.69332" lon="6.97165">
        <ele>546</ele>
        <time>2018-01-02T10:26:40.552Z</time>
      </trkpt>
      <trkpt lat="43.69338" lon="6.97162">
        <ele>545</ele>
        <time>2018-01-02T10:26:43.552Z</time>
      </trkpt>
      <trkpt lat="43.69344" lon="6.9716">
        <ele>546</ele>
        <time>2018-01-02T10:26:46.552Z</time>
      </trkpt>
      <trkpt lat="43.69351" lon="6.97159">
        <ele>546</ele>
        <time>2018-01-02T10:26:49.552Z</time>
      </trkpt>
      <trkpt lat="43.69358" lon="6.97158">
        <ele>546</ele>
        <time>2018-01-02T10:26:52.552Z</time>
      </trkpt>
      <trkpt lat="43.69364" lon="6.97157">
        <ele>546</ele>
        <time>2018-01-02T10:26:55.552Z</time>
      </trkpt>
      <trkpt lat="43.6937" lon="6.97157">
        <ele>545</ele>
        <time>2018-01-02T10:26:58.552Z</time>
      </trkpt>
      <trkpt lat="43.69377" lon="6.97155">
        <ele>545</ele>
        <time>2018-01-02T10:27:01.552Z</time>
      </trkpt>
      <trkpt lat="43.69381" lon="6.97154">
        <ele>544</ele>
        <time>2018-01-02T10:27:03.552Z</time>
      </trkpt>
      <trkpt lat="43.69385" lon="6.97153">
        <ele>543</ele>
        <time>2018-01-02T10:27:05.552Z</time>
      </trkpt>
      <trkpt lat="43.69388" lon="6.97151">
        <ele>543</ele>
        <time>2018-01-02T10:27:07.552Z</time>
      </trkpt>
      <trkpt lat="43.69392" lon="6.97148">
        <ele>543</ele>
        <time>2018-01-02T10:27:09.552Z</time>
      </trkpt>
      <trkpt lat="43.69396" lon="6.97145">
        <ele>542</ele>
        <time>2018-01-02T10:27:11.552Z</time>
      </trkpt>
      <trkpt lat="43.69399" lon="6.97142">
        <ele>543</ele>
        <time>2018-01-02T10:27:13.552Z</time>
      </trkpt>
      <trkpt lat="43.69403" lon="6.97139">
        <ele>543</ele>
        <time>2018-01-02T10:27:15.552Z</time>
      </trkpt>
      <trkpt lat="43.69408" lon="6.97134">
        <ele>544</ele>
        <time>2018-01-02T10:27:18.552Z</time>
      </trkpt>
      <trkpt lat="43.69412" lon="6.97128">
        <ele>546</ele>
        <time>2018-01-02T10:27:21.552Z</time>
      </trkpt>
      <trkpt lat="43.69417" lon="6.97122">
        <ele>535</ele>
        <time>2018-01-02T10:27:24.552Z</time>
      </trkpt>
      <trkpt lat="43.69421" lon="6.97116">
        <ele>537</ele>
        <time>2018-01-02T10:27:27.552Z</time>
      </trkpt>
      <trkpt lat="43.69426" lon="6.97111">
        <ele>538</ele>
        <time>2018-01-02T10:27:30.552Z</time>
      </trkpt>
      <trkpt lat="43.69431" lon="6.97105">
        <ele>539</ele>
        <time>2018-01-02T10:27:33.552Z</time>
      </trkpt>
      <trkpt lat="43.69435" lon="6.97099">
        <ele>540</ele>
        <time>2018-01-02T10:27:36.552Z</time>
      </trkpt>
      <trkpt lat="43.6944" lon="6.97094">
        <ele>540</ele>
        <time>2018-01-02T10:27:39.552Z</time>
      </trkpt>
      <trkpt lat="43.69445" lon="6.97089">
        <ele>539</ele>
        <time>2018-01-02T10:27:42.552Z</time>
      </trkpt>
      <trkpt lat="43.69455" lon="6.97084">
        <ele>537</ele>
        <time>2018-01-02T10:27:47.552Z</time>
      </trkpt>
      <trkpt lat="43.69464" lon="6.97083">
        <ele>551</ele>
        <time>2018-01-02T10:27:51.552Z</time>
      </trkpt>
      <trkpt lat="43.69473" lon="6.97082">
        <ele>549</ele>
        <time>2018-01-02T10:27:55.552Z</time>
      </trkpt>
      <trkpt lat="43.69482" lon="6.97081">
        <ele>546</ele>
        <time>2018-01-02T10:27:59.552Z</time>
      </trkpt>
      <trkpt lat="43.6949" lon="6.97078">
        <ele>543</ele>
        <time>2018-01-02T10:28:03.552Z</time>
      </trkpt>
      <trkpt lat="43.69496" lon="6.97075">
        <ele>542</ele>
        <time>2018-01-02T10:28:06.552Z</time>
      </trkpt>
      <trkpt lat="43.69501" lon="6.97071">
        <ele>534</ele>
        <time>2018-01-02T10:28:09.552Z</time>
      </trkpt>
      <trkpt lat="43.69507" lon="6.97065">
        <ele>534</ele>
        <time>2018-01-02T10:28:12.552Z</time>
      </trkpt>
      <trkpt lat="43.69512" lon="6.9706">
        <ele>534</ele>
        <time>2018-01-02T10:28:15.552Z</time>
      </trkpt>
      <trkpt lat="43.69518" lon="6.97051">
        <ele>534</ele>
        <time>2018-01-02T10:28:19.552Z</time>
      </trkpt>
      <trkpt lat="43.69522" lon="6.97044">
        <ele>534</ele>
        <time>2018-01-02T10:28:22.552Z</time>
      </trkpt>
      <trkpt lat="43.69525" lon="6.97039">
        <ele>534</ele>
        <time>2018-01-02T10:28:24.552Z</time>
      </trkpt>
      <trkpt lat="43.69527" lon="6.97034">
        <ele>535</ele>
        <time>2018-01-02T10:28:26.552Z</time>
      </trkpt>
      <trkpt lat="43.69528" lon="6.97029">
        <ele>536</ele>
        <time>2018-01-02T10:28:28.552Z</time>
      </trkpt>
      <trkpt lat="43.6953" lon="6.97021">
        <ele>537</ele>
        <time>2018-01-02T10:28:31.552Z</time>
      </trkpt>
      <trkpt lat="43.6953" lon="6.97016">
        <ele>538</ele>
        <time>2018-01-02T10:28:33.552Z</time>
      </trkpt>
      <trkpt lat="43.69531" lon="6.9701">
        <ele>538</ele>
        <time>2018-01-02T10:28:35.552Z</time>
      </trkpt>
      <trkpt lat="43.69532" lon="6.97004">
        <ele>539</ele>
        <time>2018-01-02T10:28:37.552Z</time>
      </trkpt>
      <trkpt lat="43.69532" lon="6.96998">
        <ele>553</ele>
        <time>2018-01-02T10:28:39.552Z</time>
      </trkpt>
      <trkpt lat="43.69533" lon="6.96992">
        <ele>553</ele>
        <time>2018-01-02T10:28:41.552Z</time>
      </trkpt>
      <trkpt lat="43.69534" lon="6.96986">
        <ele>553</ele>
        <time>2018-01-02T10:28:43.552Z</time>
      </trkpt>
      <trkpt lat="43.69534" lon="6.96981">
        <ele>553</ele>
        <time>2018-01-02T10:28:45.552Z</time>
      </trkpt>
      <trkpt lat="43.69535" lon="6.96975">
        <ele>553</ele>
        <time>2018-01-02T10:28:47.552Z</time>
      </trkpt>
      <trkpt lat="43.69536" lon="6.9697">
        <ele>553</ele>
        <time>2018-01-02T10:28:49.552Z</time>
      </trkpt>
      <trkpt lat="43.69537" lon="6.96965">
        <ele>554</ele>
        <time>2018-01-02T10:28:51.552Z</time>
      </trkpt>
      <trkpt lat="43.69539" lon="6.9696">
        <ele>554</ele>
        <time>2018-01-02T10:28:53.552Z</time>
      </trkpt>
      <trkpt lat="43.6954" lon="6.96955">
        <ele>554</ele>
        <time>2018-01-02T10:28:55.552Z</time>
      </trkpt>
      <trkpt lat="43.69542" lon="6.9695">
        <ele>554</ele>
        <time>2018-01-02T10:28:57.552Z</time>
      </trkpt>
      <trkpt lat="43.69545" lon="6.96946">
        <ele>554</ele>
        <time>2018-01-02T10:28:59.552Z</time>
      </trkpt>
      <trkpt lat="43.69548" lon="6.96942">
        <ele>555</ele>
        <time>2018-01-02T10:29:01.552Z</time>
      </trkpt>
      <trkpt lat="43.6955" lon="6.96938">
        <ele>555</ele>
        <time>2018-01-02T10:29:03.552Z</time>
      </trkpt>
      <trkpt lat="43.69554" lon="6.96934">
        <ele>555</ele>
        <time>2018-01-02T10:29:05.552Z</time>
      </trkpt>
      <trkpt lat="43.69557" lon="6.9693">
        <ele>555</ele>
        <time>2018-01-02T10:29:07.552Z</time>
      </trkpt>
      <trkpt lat="43.6956" lon="6.96926">
        <ele>555</ele>
        <time>2018-01-02T10:29:09.552Z</time>
      </trkpt>
      <trkpt lat="43.69564" lon="6.96922">
        <ele>555</ele>
        <time>2018-01-02T10:29:11.552Z</time>
      </trkpt>
      <trkpt lat="43.69567" lon="6.96919">
        <ele>556</ele>
        <time>2018-01-02T10:29:13.552Z</time>
      </trkpt>
      <trkpt lat="43.6957" lon="6.96914">
        <ele>562</ele>
        <time>2018-01-02T10:29:15.552Z</time>
      </trkpt>
      <trkpt lat="43.69573" lon="6.96911">
        <ele>561</ele>
        <time>2018-01-02T10:29:17.552Z</time>
      </trkpt>
      <trkpt lat="43.69576" lon="6.96907">
        <ele>561</ele>
        <time>2018-01-02T10:29:19.552Z</time>
      </trkpt>
      <trkpt lat="43.69579" lon="6.96903">
        <ele>562</ele>
        <time>2018-01-02T10:29:21.552Z</time>
      </trkpt>
      <trkpt lat="43.69583" lon="6.96899">
        <ele>563</ele>
        <time>2018-01-02T10:29:23.552Z</time>
      </trkpt>
      <trkpt lat="43.69586" lon="6.96895">
        <ele>556</ele>
        <time>2018-01-02T10:29:25.552Z</time>
      </trkpt>
      <trkpt lat="43.6959" lon="6.96892">
        <ele>556</ele>
        <time>2018-01-02T10:29:27.552Z</time>
      </trkpt>
      <trkpt lat="43.69593" lon="6.96888">
        <ele>556</ele>
        <time>2018-01-02T10:29:29.552Z</time>
      </trkpt>
      <trkpt lat="43.69596" lon="6.96883">
        <ele>556</ele>
        <time>2018-01-02T10:29:31.552Z</time>
      </trkpt>
      <trkpt lat="43.69599" lon="6.96879">
        <ele>556</ele>
        <time>2018-01-02T10:29:33.552Z</time>
      </trkpt>
      <trkpt lat="43.69602" lon="6.96875">
        <ele>556</ele>
        <time>2018-01-02T10:29:35.552Z</time>
      </trkpt>
      <trkpt lat="43.69605" lon="6.9687">
        <ele>557</ele>
        <time>2018-01-02T10:29:37.552Z</time>
      </trkpt>
      <trkpt lat="43.69608" lon="6.96865">
        <ele>557</ele>
        <time>2018-01-02T10:29:39.552Z</time>
      </trkpt>
      <trkpt lat="43.6961" lon="6.96861">
        <ele>558</ele>
        <time>2018-01-02T10:29:41.552Z</time>
      </trkpt>
      <trkpt lat="43.69612" lon="6.96856">
        <ele>558</ele>
        <time>2018-01-02T10:29:43.552Z</time>
      </trkpt>
      <trkpt lat="43.69613" lon="6.9685">
        <ele>559</ele>
        <time>2018-01-02T10:29:45.552Z</time>
      </trkpt>
      <trkpt lat="43.69615" lon="6.96845">
        <ele>559</ele>
        <time>2018-01-02T10:29:47.552Z</time>
      </trkpt>
      <trkpt lat="43.69616" lon="6.96839">
        <ele>560</ele>
        <time>2018-01-02T10:29:49.552Z</time>
      </trkpt>
      <trkpt lat="43.69617" lon="6.96834">
        <ele>560</ele>
        <time>2018-01-02T10:29:51.552Z</time>
      </trkpt>
      <trkpt lat="43.69617" lon="6.96828">
        <ele>570</ele>
        <time>2018-01-02T10:29:53.552Z</time>
      </trkpt>
      <trkpt lat="43.69617" lon="6.96816">
        <ele>570</ele>
        <time>2018-01-02T10:29:57.552Z</time>
      </trkpt>
      <trkpt lat="43.69617" lon="6.96804">
        <ele>570</ele>
        <time>2018-01-02T10:30:01.552Z</time>
      </trkpt>
      <trkpt lat="43.69616" lon="6.96798">
        <ele>571</ele>
        <time>2018-01-02T10:30:03.552Z</time>
      </trkpt>
      <trkpt lat="43.69615" lon="6.96792">
        <ele>571</ele>
        <time>2018-01-02T10:30:05.552Z</time>
      </trkpt>
      <trkpt lat="43.69614" lon="6.96786">
        <ele>571</ele>
        <time>2018-01-02T10:30:07.552Z</time>
      </trkpt>
      <trkpt lat="43.69614" lon="6.9678">
        <ele>571</ele>
        <time>2018-01-02T10:30:09.552Z</time>
      </trkpt>
      <trkpt lat="43.69613" lon="6.96774">
        <ele>571</ele>
        <time>2018-01-02T10:30:11.552Z</time>
      </trkpt>
      <trkpt lat="43.69612" lon="6.96768">
        <ele>571</ele>
        <time>2018-01-02T10:30:13.552Z</time>
      </trkpt>
      <trkpt lat="43.69612" lon="6.96762">
        <ele>572</ele>
        <time>2018-01-02T10:30:15.552Z</time>
      </trkpt>
      <trkpt lat="43.69612" lon="6.96756">
        <ele>572</ele>
        <time>2018-01-02T10:30:17.552Z</time>
      </trkpt>
      <trkpt lat="43.69612" lon="6.9675">
        <ele>572</ele>
        <time>2018-01-02T10:30:19.552Z</time>
      </trkpt>
      <trkpt lat="43.69612" lon="6.96745">
        <ele>575</ele>
        <time>2018-01-02T10:30:21.552Z</time>
      </trkpt>
      <trkpt lat="43.69613" lon="6.96739">
        <ele>575</ele>
        <time>2018-01-02T10:30:23.552Z</time>
      </trkpt>
      <trkpt lat="43.69615" lon="6.96733">
        <ele>575</ele>
        <time>2018-01-02T10:30:25.552Z</time>
      </trkpt>
      <trkpt lat="43.69616" lon="6.96727">
        <ele>575</ele>
        <time>2018-01-02T10:30:27.552Z</time>
      </trkpt>
      <trkpt lat="43.69618" lon="6.96721">
        <ele>575</ele>
        <time>2018-01-02T10:30:29.552Z</time>
      </trkpt>
      <trkpt lat="43.6962" lon="6.96716">
        <ele>575</ele>
        <time>2018-01-02T10:30:31.552Z</time>
      </trkpt>
      <trkpt lat="43.69623" lon="6.96711">
        <ele>576</ele>
        <time>2018-01-02T10:30:33.552Z</time>
      </trkpt>
      <trkpt lat="43.69626" lon="6.96706">
        <ele>576</ele>
        <time>2018-01-02T10:30:35.552Z</time>
      </trkpt>
      <trkpt lat="43.69629" lon="6.96702">
        <ele>576</ele>
        <time>2018-01-02T10:30:37.552Z</time>
      </trkpt>
      <trkpt lat="43.69632" lon="6.96698">
        <ele>576</ele>
        <time>2018-01-02T10:30:39.552Z</time>
      </trkpt>
      <trkpt lat="43.69635" lon="6.96695">
        <ele>576</ele>
        <time>2018-01-02T10:30:41.552Z</time>
      </trkpt>
      <trkpt lat="43.69638" lon="6.96691">
        <ele>577</ele>
        <time>2018-01-02T10:30:43.552Z</time>
      </trkpt>
      <trkpt lat="43.69642" lon="6.96689">
        <ele>577</ele>
        <time>2018-01-02T10:30:45.552Z</time>
      </trkpt>
      <trkpt lat="43.69645" lon="6.96686">
        <ele>577</ele>
        <time>2018-01-02T10:30:47.552Z</time>
      </trkpt>
      <trkpt lat="43.69649" lon="6.96684">
        <ele>577</ele>
        <time>2018-01-02T10:30:49.552Z</time>
      </trkpt>
      <trkpt lat="43.69652" lon="6.96682">
        <ele>578</ele>
        <time>2018-01-02T10:30:51.552Z</time>
      </trkpt>
      <trkpt lat="43.69656" lon="6.96681">
        <ele>578</ele>
        <time>2018-01-02T10:30:53.552Z</time>
      </trkpt>
      <trkpt lat="43.6966" lon="6.9668">
        <ele>578</ele>
        <time>2018-01-02T10:30:55.552Z</time>
      </trkpt>
      <trkpt lat="43.69664" lon="6.9668">
        <ele>578</ele>
        <time>2018-01-02T10:30:57.552Z</time>
      </trkpt>
      <trkpt lat="43.69669" lon="6.9668">
        <ele>582</ele>
        <time>2018-01-02T10:30:59.552Z</time>
      </trkpt>
      <trkpt lat="43.69671" lon="6.96681">
        <ele>582</ele>
        <time>2018-01-02T10:31:00.552Z</time>
      </trkpt>
      <trkpt lat="43.69676" lon="6.96682">
        <ele>582</ele>
        <time>2018-01-02T10:31:02.552Z</time>
      </trkpt>
      <trkpt lat="43.6968" lon="6.96683">
        <ele>582</ele>
        <time>2018-01-02T10:31:04.552Z</time>
      </trkpt>
      <trkpt lat="43.69684" lon="6.96684">
        <ele>583</ele>
        <time>2018-01-02T10:31:06.552Z</time>
      </trkpt>
      <trkpt lat="43.69689" lon="6.96687">
        <ele>583</ele>
        <time>2018-01-02T10:31:08.552Z</time>
      </trkpt>
      <trkpt lat="43.69693" lon="6.96689">
        <ele>583</ele>
        <time>2018-01-02T10:31:10.552Z</time>
      </trkpt>
      <trkpt lat="43.69695" lon="6.96691">
        <ele>584</ele>
        <time>2018-01-02T10:31:11.552Z</time>
      </trkpt>
      <trkpt lat="43.69699" lon="6.96694">
        <ele>584</ele>
        <time>2018-01-02T10:31:13.552Z</time>
      </trkpt>
      <trkpt lat="43.69704" lon="6.96697">
        <ele>584</ele>
        <time>2018-01-02T10:31:15.552Z</time>
      </trkpt>
      <trkpt lat="43.69706" lon="6.96699">
        <ele>584</ele>
        <time>2018-01-02T10:31:16.552Z</time>
      </trkpt>
      <trkpt lat="43.69708" lon="6.96701">
        <ele>584</ele>
        <time>2018-01-02T10:31:17.552Z</time>
      </trkpt>
      <trkpt lat="43.6971" lon="6.96703">
        <ele>585</ele>
        <time>2018-01-02T10:31:18.552Z</time>
      </trkpt>
      <trkpt lat="43.69714" lon="6.96706">
        <ele>585</ele>
        <time>2018-01-02T10:31:20.552Z</time>
      </trkpt>
      <trkpt lat="43.69718" lon="6.96709">
        <ele>585</ele>
        <time>2018-01-02T10:31:22.552Z</time>
      </trkpt>
      <trkpt lat="43.69721" lon="6.96712">
        <ele>585</ele>
        <time>2018-01-02T10:31:24.552Z</time>
      </trkpt>
      <trkpt lat="43.69725" lon="6.96715">
        <ele>585</ele>
        <time>2018-01-02T10:31:26.552Z</time>
      </trkpt>
      <trkpt lat="43.69729" lon="6.96719">
        <ele>585</ele>
        <time>2018-01-02T10:31:28.552Z</time>
      </trkpt>
      <trkpt lat="43.69733" lon="6.96722">
        <ele>585</ele>
        <time>2018-01-02T10:31:30.552Z</time>
      </trkpt>
      <trkpt lat="43.69737" lon="6.96726">
        <ele>586</ele>
        <time>2018-01-02T10:31:32.552Z</time>
      </trkpt>
      <trkpt lat="43.69741" lon="6.96729">
        <ele>586</ele>
        <time>2018-01-02T10:31:34.552Z</time>
      </trkpt>
      <trkpt lat="43.69745" lon="6.96732">
        <ele>586</ele>
        <time>2018-01-02T10:31:36.552Z</time>
      </trkpt>
      <trkpt lat="43.69749" lon="6.96735">
        <ele>586</ele>
        <time>2018-01-02T10:31:38.552Z</time>
      </trkpt>
      <trkpt lat="43.69753" lon="6.96738">
        <ele>590</ele>
        <time>2018-01-02T10:31:40.552Z</time>
      </trkpt>
      <trkpt lat="43.69757" lon="6.96742">
        <ele>590</ele>
        <time>2018-01-02T10:31:42.552Z</time>
      </trkpt>
      <trkpt lat="43.69762" lon="6.96745">
        <ele>591</ele>
        <time>2018-01-02T10:31:44.552Z</time>
      </trkpt>
      <trkpt lat="43.69766" lon="6.96748">
        <ele>591</ele>
        <time>2018-01-02T10:31:46.552Z</time>
      </trkpt>
      <trkpt lat="43.6977" lon="6.96752">
        <ele>582</ele>
        <time>2018-01-02T10:31:48.552Z</time>
      </trkpt>
      <trkpt lat="43.69774" lon="6.96755">
        <ele>582</ele>
        <time>2018-01-02T10:31:50.552Z</time>
      </trkpt>
      <trkpt lat="43.69778" lon="6.96759">
        <ele>581</ele>
        <time>2018-01-02T10:31:52.552Z</time>
      </trkpt>
      <trkpt lat="43.69782" lon="6.96762">
        <ele>581</ele>
        <time>2018-01-02T10:31:54.552Z</time>
      </trkpt>
      <trkpt lat="43.69787" lon="6.96765">
        <ele>580</ele>
        <time>2018-01-02T10:31:56.552Z</time>
      </trkpt>
      <trkpt lat="43.69791" lon="6.96768">
        <ele>580</ele>
        <time>2018-01-02T10:31:58.552Z</time>
      </trkpt>
      <trkpt lat="43.69795" lon="6.9677">
        <ele>580</ele>
        <time>2018-01-02T10:32:00.552Z</time>
      </trkpt>
      <trkpt lat="43.698" lon="6.96772">
        <ele>580</ele>
        <time>2018-01-02T10:32:02.552Z</time>
      </trkpt>
      <trkpt lat="43.69804" lon="6.96774">
        <ele>580</ele>
        <time>2018-01-02T10:32:04.552Z</time>
      </trkpt>
      <trkpt lat="43.69809" lon="6.96775">
        <ele>580</ele>
        <time>2018-01-02T10:32:06.552Z</time>
      </trkpt>
      <trkpt lat="43.69814" lon="6.96775">
        <ele>581</ele>
        <time>2018-01-02T10:32:08.552Z</time>
      </trkpt>
      <trkpt lat="43.69819" lon="6.96775">
        <ele>581</ele>
        <time>2018-01-02T10:32:10.552Z</time>
      </trkpt>
      <trkpt lat="43.69824" lon="6.96774">
        <ele>582</ele>
        <time>2018-01-02T10:32:12.552Z</time>
      </trkpt>
      <trkpt lat="43.69828" lon="6.96773">
        <ele>582</ele>
        <time>2018-01-02T10:32:14.552Z</time>
      </trkpt>
      <trkpt lat="43.69833" lon="6.96772">
        <ele>583</ele>
        <time>2018-01-02T10:32:16.552Z</time>
      </trkpt>
      <trkpt lat="43.69838" lon="6.9677">
        <ele>584</ele>
        <time>2018-01-02T10:32:18.552Z</time>
      </trkpt>
      <trkpt lat="43.69842" lon="6.96768">
        <ele>584</ele>
        <time>2018-01-02T10:32:20.552Z</time>
      </trkpt>
      <trkpt lat="43.69847" lon="6.96766">
        <ele>584</ele>
        <time>2018-01-02T10:32:22.552Z</time>
      </trkpt>
      <trkpt lat="43.69851" lon="6.96764">
        <ele>584</ele>
        <time>2018-01-02T10:32:24.552Z</time>
      </trkpt>
      <trkpt lat="43.69856" lon="6.96762">
        <ele>583</ele>
        <time>2018-01-02T10:32:26.552Z</time>
      </trkpt>
      <trkpt lat="43.69861" lon="6.9676">
        <ele>583</ele>
        <time>2018-01-02T10:32:28.552Z</time>
      </trkpt>
      <trkpt lat="43.69865" lon="6.96759">
        <ele>583</ele>
        <time>2018-01-02T10:32:30.552Z</time>
      </trkpt>
      <trkpt lat="43.6987" lon="6.96758">
        <ele>582</ele>
        <time>2018-01-02T10:32:32.552Z</time>
      </trkpt>
      <trkpt lat="43.69875" lon="6.96758">
        <ele>582</ele>
        <time>2018-01-02T10:32:34.552Z</time>
      </trkpt>
      <trkpt lat="43.6988" lon="6.96757">
        <ele>583</ele>
        <time>2018-01-02T10:32:36.552Z</time>
      </trkpt>
      <trkpt lat="43.69885" lon="6.96757">
        <ele>583</ele>
        <time>2018-01-02T10:32:38.552Z</time>
      </trkpt>
      <trkpt lat="43.69889" lon="6.96756">
        <ele>584</ele>
        <time>2018-01-02T10:32:40.552Z</time>
      </trkpt>
      <trkpt lat="43.69894" lon="6.96756">
        <ele>585</ele>
        <time>2018-01-02T10:32:42.552Z</time>
      </trkpt>
      <trkpt lat="43.69899" lon="6.96756">
        <ele>586</ele>
        <time>2018-01-02T10:32:44.552Z</time>
      </trkpt>
      <trkpt lat="43.69903" lon="6.96754">
        <ele>588</ele>
        <time>2018-01-02T10:32:46.552Z</time>
      </trkpt>
      <trkpt lat="43.69907" lon="6.96752">
        <ele>590</ele>
        <time>2018-01-02T10:32:48.552Z</time>
      </trkpt>
      <trkpt lat="43.69911" lon="6.9675">
        <ele>593</ele>
        <time>2018-01-02T10:32:50.552Z</time>
      </trkpt>
      <trkpt lat="43.69915" lon="6.96747">
        <ele>598</ele>
        <time>2018-01-02T10:32:52.552Z</time>
      </trkpt>
      <trkpt lat="43.69919" lon="6.96745">
        <ele>599</ele>
        <time>2018-01-02T10:32:54.552Z</time>
      </trkpt>
      <trkpt lat="43.69924" lon="6.96743">
        <ele>599</ele>
        <time>2018-01-02T10:32:56.552Z</time>
      </trkpt>
      <trkpt lat="43.69928" lon="6.9674">
        <ele>600</ele>
        <time>2018-01-02T10:32:58.552Z</time>
      </trkpt>
      <trkpt lat="43.69932" lon="6.96737">
        <ele>601</ele>
        <time>2018-01-02T10:33:00.552Z</time>
      </trkpt>
      <trkpt lat="43.69936" lon="6.96734">
        <ele>601</ele>
        <time>2018-01-02T10:33:02.552Z</time>
      </trkpt>
      <trkpt lat="43.6994" lon="6.96732">
        <ele>602</ele>
        <time>2018-01-02T10:33:04.552Z</time>
      </trkpt>
      <trkpt lat="43.69944" lon="6.96731">
        <ele>602</ele>
        <time>2018-01-02T10:33:06.552Z</time>
      </trkpt>
      <trkpt lat="43.69949" lon="6.9673">
        <ele>602</ele>
        <time>2018-01-02T10:33:08.552Z</time>
      </trkpt>
      <trkpt lat="43.69955" lon="6.96729">
        <ele>601</ele>
        <time>2018-01-02T10:33:11.552Z</time>
      </trkpt>
      <trkpt lat="43.6996" lon="6.96729">
        <ele>601</ele>
        <time>2018-01-02T10:33:13.552Z</time>
      </trkpt>
      <trkpt lat="43.69965" lon="6.96729">
        <ele>601</ele>
        <time>2018-01-02T10:33:15.552Z</time>
      </trkpt>
      <trkpt lat="43.6997" lon="6.96728">
        <ele>600</ele>
        <time>2018-01-02T10:33:17.552Z</time>
      </trkpt>
      <trkpt lat="43.69975" lon="6.96728">
        <ele>599</ele>
        <time>2018-01-02T10:33:19.552Z</time>
      </trkpt>
      <trkpt lat="43.6998" lon="6.96727">
        <ele>599</ele>
        <time>2018-01-02T10:33:21.552Z</time>
      </trkpt>
      <trkpt lat="43.69985" lon="6.96726">
        <ele>598</ele>
        <time>2018-01-02T10:33:23.552Z</time>
      </trkpt>
      <trkpt lat="43.6999" lon="6.96724">
        <ele>598</ele>
        <time>2018-01-02T10:33:25.552Z</time>
      </trkpt>
      <trkpt lat="43.69994" lon="6.96722">
        <ele>599</ele>
        <time>2018-01-02T10:33:27.552Z</time>
      </trkpt>
      <trkpt lat="43.69999" lon="6.9672">
        <ele>599</ele>
        <time>2018-01-02T10:33:29.552Z</time>
      </trkpt>
      <trkpt lat="43.70004" lon="6.96717">
        <ele>586</ele>
        <time>2018-01-02T10:33:31.552Z</time>
      </trkpt>
      <trkpt lat="43.70008" lon="6.96714">
        <ele>586</ele>
        <time>2018-01-02T10:33:33.552Z</time>
      </trkpt>
      <trkpt lat="43.70012" lon="6.96711">
        <ele>587</ele>
        <time>2018-01-02T10:33:35.552Z</time>
      </trkpt>
      <trkpt lat="43.70016" lon="6.96708">
        <ele>587</ele>
        <time>2018-01-02T10:33:37.552Z</time>
      </trkpt>
      <trkpt lat="43.7002" lon="6.96704">
        <ele>587</ele>
        <time>2018-01-02T10:33:39.552Z</time>
      </trkpt>
      <trkpt lat="43.70025" lon="6.96701">
        <ele>587</ele>
        <time>2018-01-02T10:33:41.552Z</time>
      </trkpt>
      <trkpt lat="43.70029" lon="6.96697">
        <ele>587</ele>
        <time>2018-01-02T10:33:43.552Z</time>
      </trkpt>
      <trkpt lat="43.70033" lon="6.96694">
        <ele>587</ele>
        <time>2018-01-02T10:33:45.552Z</time>
      </trkpt>
      <trkpt lat="43.70037" lon="6.96691">
        <ele>587</ele>
        <time>2018-01-02T10:33:47.552Z</time>
      </trkpt>
      <trkpt lat="43.7004" lon="6.96687">
        <ele>586</ele>
        <time>2018-01-02T10:33:49.552Z</time>
      </trkpt>
      <trkpt lat="43.70044" lon="6.96684">
        <ele>586</ele>
        <time>2018-01-02T10:33:51.552Z</time>
      </trkpt>
      <trkpt lat="43.70048" lon="6.9668">
        <ele>586</ele>
        <time>2018-01-02T10:33:53.552Z</time>
      </trkpt>
      <trkpt lat="43.70052" lon="6.96676">
        <ele>585</ele>
        <time>2018-01-02T10:33:55.552Z</time>
      </trkpt>
      <trkpt lat="43.70055" lon="6.96672">
        <ele>585</ele>
        <time>2018-01-02T10:33:57.552Z</time>
      </trkpt>
      <trkpt lat="43.70059" lon="6.96668">
        <ele>585</ele>
        <time>2018-01-02T10:33:59.552Z</time>
      </trkpt>
      <trkpt lat="43.70063" lon="6.96664">
        <ele>601</ele>
        <time>2018-01-02T10:34:01.552Z</time>
      </trkpt>
      <trkpt lat="43.70066" lon="6.96659">
        <ele>600</ele>
        <time>2018-01-02T10:34:03.552Z</time>
      </trkpt>
      <trkpt lat="43.70069" lon="6.96654">
        <ele>600</ele>
        <time>2018-01-02T10:34:05.552Z</time>
      </trkpt>
      <trkpt lat="43.70072" lon="6.96649">
        <ele>601</ele>
        <time>2018-01-02T10:34:07.552Z</time>
      </trkpt>
      <trkpt lat="43.70075" lon="6.96643">
        <ele>602</ele>
        <time>2018-01-02T10:34:09.552Z</time>
      </trkpt>
      <trkpt lat="43.70077" lon="6.96638">
        <ele>604</ele>
        <time>2018-01-02T10:34:11.552Z</time>
      </trkpt>
      <trkpt lat="43.70081" lon="6.96629">
        <ele>607</ele>
        <time>2018-01-02T10:34:14.552Z</time>
      </trkpt>
      <trkpt lat="43.70084" lon="6.9662">
        <ele>589</ele>
        <time>2018-01-02T10:34:17.552Z</time>
      </trkpt>
      <trkpt lat="43.70087" lon="6.96611">
        <ele>592</ele>
        <time>2018-01-02T10:34:20.552Z</time>
      </trkpt>
      <trkpt lat="43.7009" lon="6.96601">
        <ele>597</ele>
        <time>2018-01-02T10:34:23.552Z</time>
      </trkpt>
      <trkpt lat="43.70092" lon="6.9659">
        <ele>603</ele>
        <time>2018-01-02T10:34:26.552Z</time>
      </trkpt>
      <trkpt lat="43.70096" lon="6.96578">
        <ele>609</ele>
        <time>2018-01-02T10:34:29.552Z</time>
      </trkpt>
      <trkpt lat="43.70098" lon="6.9657">
        <ele>607</ele>
        <time>2018-01-02T10:34:31.552Z</time>
      </trkpt>
      <trkpt lat="43.70101" lon="6.96557">
        <ele>606</ele>
        <time>2018-01-02T10:34:34.552Z</time>
      </trkpt>
      <trkpt lat="43.70102" lon="6.96548">
        <ele>606</ele>
        <time>2018-01-02T10:34:36.552Z</time>
      </trkpt>
      <trkpt lat="43.70104" lon="6.96539">
        <ele>606</ele>
        <time>2018-01-02T10:34:38.552Z</time>
      </trkpt>
      <trkpt lat="43.70106" lon="6.96526">
        <ele>607</ele>
        <time>2018-01-02T10:34:41.552Z</time>
      </trkpt>
      <trkpt lat="43.70109" lon="6.96513">
        <ele>608</ele>
        <time>2018-01-02T10:34:44.552Z</time>
      </trkpt>
      <trkpt lat="43.7011" lon="6.96509">
        <ele>608</ele>
        <time>2018-01-02T10:34:45.552Z</time>
      </trkpt>
      <trkpt lat="43.7011" lon="6.96505">
        <ele>608</ele>
        <time>2018-01-02T10:34:46.552Z</time>
      </trkpt>
      <trkpt lat="43.70111" lon="6.965">
        <ele>608</ele>
        <time>2018-01-02T10:34:47.552Z</time>
      </trkpt>
      <trkpt lat="43.70111" lon="6.96496">
        <ele>613</ele>
        <time>2018-01-02T10:34:48.552Z</time>
      </trkpt>
      <trkpt lat="43.70112" lon="6.96492">
        <ele>613</ele>
        <time>2018-01-02T10:34:49.552Z</time>
      </trkpt>
      <trkpt lat="43.70112" lon="6.96488">
        <ele>613</ele>
        <time>2018-01-02T10:34:50.552Z</time>
      </trkpt>
      <trkpt lat="43.70113" lon="6.96483">
        <ele>613</ele>
        <time>2018-01-02T10:34:51.552Z</time>
      </trkpt>
      <trkpt lat="43.70114" lon="6.96479">
        <ele>613</ele>
        <time>2018-01-02T10:34:52.552Z</time>
      </trkpt>
      <trkpt lat="43.70114" lon="6.96474">
        <ele>613</ele>
        <time>2018-01-02T10:34:53.552Z</time>
      </trkpt>
      <trkpt lat="43.70114" lon="6.9647">
        <ele>613</ele>
        <time>2018-01-02T10:34:54.552Z</time>
      </trkpt>
      <trkpt lat="43.70115" lon="6.96465">
        <ele>613</ele>
        <time>2018-01-02T10:34:55.552Z</time>
      </trkpt>
      <trkpt lat="43.70115" lon="6.96461">
        <ele>613</ele>
        <time>2018-01-02T10:34:56.552Z</time>
      </trkpt>
      <trkpt lat="43.70115" lon="6.96456">
        <ele>613</ele>
        <time>2018-01-02T10:34:57.552Z</time>
      </trkpt>
      <trkpt lat="43.70116" lon="6.96452">
        <ele>614</ele>
        <time>2018-01-02T10:34:58.552Z</time>
      </trkpt>
      <trkpt lat="43.70116" lon="6.96443">
        <ele>614</ele>
        <time>2018-01-02T10:35:00.552Z</time>
      </trkpt>
      <trkpt lat="43.70116" lon="6.96434">
        <ele>615</ele>
        <time>2018-01-02T10:35:02.552Z</time>
      </trkpt>
      <trkpt lat="43.70116" lon="6.96424">
        <ele>615</ele>
        <time>2018-01-02T10:35:04.552Z</time>
      </trkpt>
      <trkpt lat="43.70116" lon="6.96419">
        <ele>615</ele>
        <time>2018-01-02T10:35:05.552Z</time>
      </trkpt>
      <trkpt lat="43.70116" lon="6.96415">
        <ele>618</ele>
        <time>2018-01-02T10:35:06.552Z</time>
      </trkpt>
      <trkpt lat="43.70116" lon="6.9641">
        <ele>618</ele>
        <time>2018-01-02T10:35:07.552Z</time>
      </trkpt>
      <trkpt lat="43.70116" lon="6.96405">
        <ele>618</ele>
        <time>2018-01-02T10:35:08.552Z</time>
      </trkpt>
      <trkpt lat="43.70116" lon="6.96387">
        <ele>617</ele>
        <time>2018-01-02T10:35:12.552Z</time>
      </trkpt>
      <trkpt lat="43.70115" lon="6.96378">
        <ele>617</ele>
        <time>2018-01-02T10:35:14.552Z</time>
      </trkpt>
      <trkpt lat="43.70115" lon="6.96373">
        <ele>617</ele>
        <time>2018-01-02T10:35:15.552Z</time>
      </trkpt>
      <trkpt lat="43.70115" lon="6.96368">
        <ele>617</ele>
        <time>2018-01-02T10:35:16.552Z</time>
      </trkpt>
      <trkpt lat="43.70115" lon="6.96364">
        <ele>617</ele>
        <time>2018-01-02T10:35:17.552Z</time>
      </trkpt>
      <trkpt lat="43.70114" lon="6.9636">
        <ele>617</ele>
        <time>2018-01-02T10:35:18.552Z</time>
      </trkpt>
      <trkpt lat="43.70114" lon="6.96355">
        <ele>617</ele>
        <time>2018-01-02T10:35:19.552Z</time>
      </trkpt>
      <trkpt lat="43.70113" lon="6.96351">
        <ele>617</ele>
        <time>2018-01-02T10:35:20.552Z</time>
      </trkpt>
      <trkpt lat="43.70113" lon="6.96346">
        <ele>618</ele>
        <time>2018-01-02T10:35:21.552Z</time>
      </trkpt>
      <trkpt lat="43.70112" lon="6.96342">
        <ele>618</ele>
        <time>2018-01-02T10:35:22.552Z</time>
      </trkpt>
      <trkpt lat="43.70111" lon="6.96337">
        <ele>618</ele>
        <time>2018-01-02T10:35:23.552Z</time>
      </trkpt>
      <trkpt lat="43.7011" lon="6.96328">
        <ele>619</ele>
        <time>2018-01-02T10:35:25.552Z</time>
      </trkpt>
      <trkpt lat="43.70107" lon="6.9632">
        <ele>619</ele>
        <time>2018-01-02T10:35:27.552Z</time>
      </trkpt>
      <trkpt lat="43.70105" lon="6.96311">
        <ele>619</ele>
        <time>2018-01-02T10:35:29.552Z</time>
      </trkpt>
      <trkpt lat="43.70102" lon="6.96303">
        <ele>619</ele>
        <time>2018-01-02T10:35:31.552Z</time>
      </trkpt>
      <trkpt lat="43.70099" lon="6.96295">
        <ele>620</ele>
        <time>2018-01-02T10:35:33.552Z</time>
      </trkpt>
      <trkpt lat="43.70097" lon="6.96291">
        <ele>620</ele>
        <time>2018-01-02T10:35:34.552Z</time>
      </trkpt>
      <trkpt lat="43.70093" lon="6.96283">
        <ele>620</ele>
        <time>2018-01-02T10:35:36.552Z</time>
      </trkpt>
      <trkpt lat="43.7009" lon="6.96276">
        <ele>620</ele>
        <time>2018-01-02T10:35:38.552Z</time>
      </trkpt>
      <trkpt lat="43.70086" lon="6.96269">
        <ele>620</ele>
        <time>2018-01-02T10:35:40.552Z</time>
      </trkpt>
      <trkpt lat="43.70081" lon="6.96263">
        <ele>624</ele>
        <time>2018-01-02T10:35:42.552Z</time>
      </trkpt>
      <trkpt lat="43.70079" lon="6.96259">
        <ele>623</ele>
        <time>2018-01-02T10:35:43.552Z</time>
      </trkpt>
      <trkpt lat="43.70077" lon="6.96256">
        <ele>623</ele>
        <time>2018-01-02T10:35:44.552Z</time>
      </trkpt>
      <trkpt lat="43.70074" lon="6.96253">
        <ele>623</ele>
        <time>2018-01-02T10:35:45.552Z</time>
      </trkpt>
      <trkpt lat="43.70072" lon="6.9625">
        <ele>623</ele>
        <time>2018-01-02T10:35:46.552Z</time>
      </trkpt>
      <trkpt lat="43.7007" lon="6.96246">
        <ele>624</ele>
        <time>2018-01-02T10:35:47.552Z</time>
      </trkpt>
      <trkpt lat="43.70068" lon="6.96243">
        <ele>624</ele>
        <time>2018-01-02T10:35:48.552Z</time>
      </trkpt>
      <trkpt lat="43.70065" lon="6.9624">
        <ele>624</ele>
        <time>2018-01-02T10:35:49.552Z</time>
      </trkpt>
      <trkpt lat="43.70063" lon="6.96236">
        <ele>625</ele>
        <time>2018-01-02T10:35:50.552Z</time>
      </trkpt>
      <trkpt lat="43.7006" lon="6.96233">
        <ele>625</ele>
        <time>2018-01-02T10:35:51.552Z</time>
      </trkpt>
      <trkpt lat="43.70058" lon="6.9623">
        <ele>625</ele>
        <time>2018-01-02T10:35:52.552Z</time>
      </trkpt>
      <trkpt lat="43.70055" lon="6.96226">
        <ele>626</ele>
        <time>2018-01-02T10:35:53.552Z</time>
      </trkpt>
      <trkpt lat="43.70053" lon="6.96223">
        <ele>626</ele>
        <time>2018-01-02T10:35:54.552Z</time>
      </trkpt>
      <trkpt lat="43.70051" lon="6.9622">
        <ele>626</ele>
        <time>2018-01-02T10:35:55.552Z</time>
      </trkpt>
      <trkpt lat="43.70048" lon="6.96216">
        <ele>626</ele>
        <time>2018-01-02T10:35:56.552Z</time>
      </trkpt>
      <trkpt lat="43.70046" lon="6.96213">
        <ele>626</ele>
        <time>2018-01-02T10:35:57.552Z</time>
      </trkpt>
      <trkpt lat="43.70044" lon="6.96209">
        <ele>626</ele>
        <time>2018-01-02T10:35:58.552Z</time>
      </trkpt>
      <trkpt lat="43.70041" lon="6.96206">
        <ele>627</ele>
        <time>2018-01-02T10:35:59.552Z</time>
      </trkpt>
      <trkpt lat="43.70039" lon="6.96203">
        <ele>627</ele>
        <time>2018-01-02T10:36:00.552Z</time>
      </trkpt>
      <trkpt lat="43.70036" lon="6.962">
        <ele>627</ele>
        <time>2018-01-02T10:36:01.552Z</time>
      </trkpt>
      <trkpt lat="43.70034" lon="6.96197">
        <ele>627</ele>
        <time>2018-01-02T10:36:02.552Z</time>
      </trkpt>
      <trkpt lat="43.70031" lon="6.96193">
        <ele>627</ele>
        <time>2018-01-02T10:36:03.552Z</time>
      </trkpt>
      <trkpt lat="43.70029" lon="6.9619">
        <ele>627</ele>
        <time>2018-01-02T10:36:04.552Z</time>
      </trkpt>
      <trkpt lat="43.70027" lon="6.96187">
        <ele>627</ele>
        <time>2018-01-02T10:36:05.552Z</time>
      </trkpt>
      <trkpt lat="43.70024" lon="6.96183">
        <ele>627</ele>
        <time>2018-01-02T10:36:06.552Z</time>
      </trkpt>
      <trkpt lat="43.70019" lon="6.96176">
        <ele>627</ele>
        <time>2018-01-02T10:36:08.552Z</time>
      </trkpt>
      <trkpt lat="43.70015" lon="6.96169">
        <ele>626</ele>
        <time>2018-01-02T10:36:10.552Z</time>
      </trkpt>
      <trkpt lat="43.70013" lon="6.96165">
        <ele>628</ele>
        <time>2018-01-02T10:36:11.552Z</time>
      </trkpt>
      <trkpt lat="43.70012" lon="6.96161">
        <ele>628</ele>
        <time>2018-01-02T10:36:12.552Z</time>
      </trkpt>
      <trkpt lat="43.70011" lon="6.96156">
        <ele>629</ele>
        <time>2018-01-02T10:36:13.552Z</time>
      </trkpt>
      <trkpt lat="43.7001" lon="6.96151">
        <ele>629</ele>
        <time>2018-01-02T10:36:14.552Z</time>
      </trkpt>
      <trkpt lat="43.7001" lon="6.96145">
        <ele>629</ele>
        <time>2018-01-02T10:36:15.552Z</time>
      </trkpt>
      <trkpt lat="43.7001" lon="6.9614">
        <ele>630</ele>
        <time>2018-01-02T10:36:16.552Z</time>
      </trkpt>
      <trkpt lat="43.70011" lon="6.96135">
        <ele>630</ele>
        <time>2018-01-02T10:36:17.552Z</time>
      </trkpt>
      <trkpt lat="43.70013" lon="6.96131">
        <ele>631</ele>
        <time>2018-01-02T10:36:18.552Z</time>
      </trkpt>
      <trkpt lat="43.70014" lon="6.96127">
        <ele>631</ele>
        <time>2018-01-02T10:36:19.552Z</time>
      </trkpt>
      <trkpt lat="43.70019" lon="6.9612">
        <ele>631</ele>
        <time>2018-01-02T10:36:21.552Z</time>
      </trkpt>
      <trkpt lat="43.70022" lon="6.96117">
        <ele>632</ele>
        <time>2018-01-02T10:36:22.552Z</time>
      </trkpt>
      <trkpt lat="43.70026" lon="6.96115">
        <ele>632</ele>
        <time>2018-01-02T10:36:23.552Z</time>
      </trkpt>
      <trkpt lat="43.70029" lon="6.96114">
        <ele>632</ele>
        <time>2018-01-02T10:36:24.552Z</time>
      </trkpt>
      <trkpt lat="43.70035" lon="6.96113">
        <ele>633</ele>
        <time>2018-01-02T10:36:26.552Z</time>
      </trkpt>
      <trkpt lat="43.70042" lon="6.96114">
        <ele>633</ele>
        <time>2018-01-02T10:36:28.552Z</time>
      </trkpt>
      <trkpt lat="43.70045" lon="6.96116">
        <ele>633</ele>
        <time>2018-01-02T10:36:29.552Z</time>
      </trkpt>
      <trkpt lat="43.70051" lon="6.9612">
        <ele>633</ele>
        <time>2018-01-02T10:36:31.552Z</time>
      </trkpt>
      <trkpt lat="43.70055" lon="6.96123">
        <ele>633</ele>
        <time>2018-01-02T10:36:32.552Z</time>
      </trkpt>
      <trkpt lat="43.70061" lon="6.96127">
        <ele>633</ele>
        <time>2018-01-02T10:36:34.552Z</time>
      </trkpt>
      <trkpt lat="43.70067" lon="6.96132">
        <ele>633</ele>
        <time>2018-01-02T10:36:36.552Z</time>
      </trkpt>
      <trkpt lat="43.70074" lon="6.96137">
        <ele>632</ele>
        <time>2018-01-02T10:36:38.552Z</time>
      </trkpt>
      <trkpt lat="43.70081" lon="6.96142">
        <ele>632</ele>
        <time>2018-01-02T10:36:40.552Z</time>
      </trkpt>
      <trkpt lat="43.70088" lon="6.96147">
        <ele>638</ele>
        <time>2018-01-02T10:36:42.552Z</time>
      </trkpt>
      <trkpt lat="43.70096" lon="6.96152">
        <ele>638</ele>
        <time>2018-01-02T10:36:44.552Z</time>
      </trkpt>
      <trkpt lat="43.70103" lon="6.96157">
        <ele>639</ele>
        <time>2018-01-02T10:36:46.552Z</time>
      </trkpt>
      <trkpt lat="43.7011" lon="6.96162">
        <ele>640</ele>
        <time>2018-01-02T10:36:48.552Z</time>
      </trkpt>
      <trkpt lat="43.70117" lon="6.96167">
        <ele>631</ele>
        <time>2018-01-02T10:36:50.552Z</time>
      </trkpt>
      <trkpt lat="43.70125" lon="6.96172">
        <ele>631</ele>
        <time>2018-01-02T10:36:52.552Z</time>
      </trkpt>
      <trkpt lat="43.70132" lon="6.96177">
        <ele>632</ele>
        <time>2018-01-02T10:36:54.552Z</time>
      </trkpt>
      <trkpt lat="43.70139" lon="6.96182">
        <ele>633</ele>
        <time>2018-01-02T10:36:56.552Z</time>
      </trkpt>
      <trkpt lat="43.70147" lon="6.96187">
        <ele>633</ele>
        <time>2018-01-02T10:36:58.552Z</time>
      </trkpt>
      <trkpt lat="43.70153" lon="6.96193">
        <ele>633</ele>
        <time>2018-01-02T10:37:00.552Z</time>
      </trkpt>
      <trkpt lat="43.7016" lon="6.96198">
        <ele>632</ele>
        <time>2018-01-02T10:37:02.552Z</time>
      </trkpt>
      <trkpt lat="43.70167" lon="6.96203">
        <ele>643</ele>
        <time>2018-01-02T10:37:04.552Z</time>
      </trkpt>
      <trkpt lat="43.70174" lon="6.96209">
        <ele>643</ele>
        <time>2018-01-02T10:37:06.552Z</time>
      </trkpt>
      <trkpt lat="43.7018" lon="6.96215">
        <ele>642</ele>
        <time>2018-01-02T10:37:08.552Z</time>
      </trkpt>
      <trkpt lat="43.70187" lon="6.96221">
        <ele>642</ele>
        <time>2018-01-02T10:37:10.552Z</time>
      </trkpt>
      <trkpt lat="43.70193" lon="6.96228">
        <ele>642</ele>
        <time>2018-01-02T10:37:12.552Z</time>
      </trkpt>
      <trkpt lat="43.702" lon="6.96235">
        <ele>643</ele>
        <time>2018-01-02T10:37:14.552Z</time>
      </trkpt>
      <trkpt lat="43.70206" lon="6.96243">
        <ele>644</ele>
        <time>2018-01-02T10:37:16.552Z</time>
      </trkpt>
      <trkpt lat="43.70211" lon="6.96251">
        <ele>634</ele>
        <time>2018-01-02T10:37:18.552Z</time>
      </trkpt>
      <trkpt lat="43.70216" lon="6.9626">
        <ele>635</ele>
        <time>2018-01-02T10:37:20.552Z</time>
      </trkpt>
      <trkpt lat="43.7022" lon="6.9627">
        <ele>635</ele>
        <time>2018-01-02T10:37:22.552Z</time>
      </trkpt>
      <trkpt lat="43.70225" lon="6.96279">
        <ele>635</ele>
        <time>2018-01-02T10:37:24.552Z</time>
      </trkpt>
      <trkpt lat="43.7023" lon="6.96288">
        <ele>634</ele>
        <time>2018-01-02T10:37:26.552Z</time>
      </trkpt>
      <trkpt lat="43.70234" lon="6.96297">
        <ele>634</ele>
        <time>2018-01-02T10:37:28.552Z</time>
      </trkpt>
      <trkpt lat="43.70238" lon="6.96306">
        <ele>634</ele>
        <time>2018-01-02T10:37:30.552Z</time>
      </trkpt>
      <trkpt lat="43.70242" lon="6.96314">
        <ele>634</ele>
        <time>2018-01-02T10:37:32.552Z</time>
      </trkpt>
      <trkpt lat="43.70246" lon="6.96323">
        <ele>634</ele>
        <time>2018-01-02T10:37:34.552Z</time>
      </trkpt>
      <trkpt lat="43.7025" lon="6.96332">
        <ele>636</ele>
        <time>2018-01-02T10:37:36.552Z</time>
      </trkpt>
      <trkpt lat="43.70254" lon="6.96341">
        <ele>641</ele>
        <time>2018-01-02T10:37:38.552Z</time>
      </trkpt>
      <trkpt lat="43.70258" lon="6.9635">
        <ele>644</ele>
        <time>2018-01-02T10:37:40.552Z</time>
      </trkpt>
      <trkpt lat="43.70262" lon="6.96358">
        <ele>646</ele>
        <time>2018-01-02T10:37:42.552Z</time>
      </trkpt>
      <trkpt lat="43.70266" lon="6.96368">
        <ele>647</ele>
        <time>2018-01-02T10:37:44.552Z</time>
      </trkpt>
      <trkpt lat="43.7027" lon="6.96377">
        <ele>647</ele>
        <time>2018-01-02T10:37:46.552Z</time>
      </trkpt>
      <trkpt lat="43.70274" lon="6.96387">
        <ele>646</ele>
        <time>2018-01-02T10:37:48.552Z</time>
      </trkpt>
      <trkpt lat="43.70279" lon="6.96397">
        <ele>646</ele>
        <time>2018-01-02T10:37:50.552Z</time>
      </trkpt>
      <trkpt lat="43.70282" lon="6.96407">
        <ele>646</ele>
        <time>2018-01-02T10:37:52.552Z</time>
      </trkpt>
      <trkpt lat="43.70285" lon="6.96418">
        <ele>639</ele>
        <time>2018-01-02T10:37:54.552Z</time>
      </trkpt>
      <trkpt lat="43.70288" lon="6.96428">
        <ele>640</ele>
        <time>2018-01-02T10:37:56.552Z</time>
      </trkpt>
      <trkpt lat="43.7029" lon="6.96439">
        <ele>641</ele>
        <time>2018-01-02T10:37:58.552Z</time>
      </trkpt>
      <trkpt lat="43.70292" lon="6.9645">
        <ele>641</ele>
        <time>2018-01-02T10:38:00.552Z</time>
      </trkpt>
      <trkpt lat="43.70294" lon="6.9646">
        <ele>641</ele>
        <time>2018-01-02T10:38:02.552Z</time>
      </trkpt>
      <trkpt lat="43.70295" lon="6.96471">
        <ele>641</ele>
        <time>2018-01-02T10:38:04.552Z</time>
      </trkpt>
      <trkpt lat="43.70297" lon="6.96481">
        <ele>641</ele>
        <time>2018-01-02T10:38:06.552Z</time>
      </trkpt>
      <trkpt lat="43.70299" lon="6.96492">
        <ele>642</ele>
        <time>2018-01-02T10:38:08.552Z</time>
      </trkpt>
      <trkpt lat="43.70301" lon="6.96502">
        <ele>636</ele>
        <time>2018-01-02T10:38:10.552Z</time>
      </trkpt>
      <trkpt lat="43.70303" lon="6.96512">
        <ele>636</ele>
        <time>2018-01-02T10:38:12.552Z</time>
      </trkpt>
      <trkpt lat="43.70304" lon="6.96523">
        <ele>635</ele>
        <time>2018-01-02T10:38:14.552Z</time>
      </trkpt>
      <trkpt lat="43.70306" lon="6.96534">
        <ele>634</ele>
        <time>2018-01-02T10:38:16.552Z</time>
      </trkpt>
      <trkpt lat="43.70308" lon="6.96545">
        <ele>634</ele>
        <time>2018-01-02T10:38:18.552Z</time>
      </trkpt>
      <trkpt lat="43.7031" lon="6.96556">
        <ele>634</ele>
        <time>2018-01-02T10:38:20.552Z</time>
      </trkpt>
      <trkpt lat="43.70312" lon="6.96568">
        <ele>636</ele>
        <time>2018-01-02T10:38:22.552Z</time>
      </trkpt>
      <trkpt lat="43.70314" lon="6.96578">
        <ele>638</ele>
        <time>2018-01-02T10:38:24.552Z</time>
      </trkpt>
      <trkpt lat="43.70316" lon="6.96589">
        <ele>633</ele>
        <time>2018-01-02T10:38:26.552Z</time>
      </trkpt>
      <trkpt lat="43.70319" lon="6.96599">
        <ele>631</ele>
        <time>2018-01-02T10:38:28.552Z</time>
      </trkpt>
      <trkpt lat="43.7032" lon="6.9661">
        <ele>628</ele>
        <time>2018-01-02T10:38:30.552Z</time>
      </trkpt>
      <trkpt lat="43.70322" lon="6.96621">
        <ele>627</ele>
        <time>2018-01-02T10:38:32.552Z</time>
      </trkpt>
      <trkpt lat="43.70324" lon="6.96632">
        <ele>627</ele>
        <time>2018-01-02T10:38:34.552Z</time>
      </trkpt>
      <trkpt lat="43.70326" lon="6.96643">
        <ele>628</ele>
        <time>2018-01-02T10:38:36.552Z</time>
      </trkpt>
      <trkpt lat="43.70328" lon="6.96654">
        <ele>633</ele>
        <time>2018-01-02T10:38:38.552Z</time>
      </trkpt>
      <trkpt lat="43.70331" lon="6.96665">
        <ele>640</ele>
        <time>2018-01-02T10:38:40.552Z</time>
      </trkpt>
      <trkpt lat="43.70332" lon="6.96676">
        <ele>633</ele>
        <time>2018-01-02T10:38:42.552Z</time>
      </trkpt>
      <trkpt lat="43.70334" lon="6.96687">
        <ele>653</ele>
        <time>2018-01-02T10:38:44.552Z</time>
      </trkpt>
      <trkpt lat="43.70335" lon="6.96698">
        <ele>655</ele>
        <time>2018-01-02T10:38:46.552Z</time>
      </trkpt>
      <trkpt lat="43.70337" lon="6.96708">
        <ele>655</ele>
        <time>2018-01-02T10:38:48.552Z</time>
      </trkpt>
      <trkpt lat="43.70339" lon="6.96719">
        <ele>655</ele>
        <time>2018-01-02T10:38:50.552Z</time>
      </trkpt>
      <trkpt lat="43.70341" lon="6.96729">
        <ele>652</ele>
        <time>2018-01-02T10:38:52.552Z</time>
      </trkpt>
      <trkpt lat="43.70343" lon="6.96739">
        <ele>649</ele>
        <time>2018-01-02T10:38:54.552Z</time>
      </trkpt>
      <trkpt lat="43.70345" lon="6.9675">
        <ele>648</ele>
        <time>2018-01-02T10:38:56.552Z</time>
      </trkpt>
      <trkpt lat="43.70346" lon="6.96761">
        <ele>648</ele>
        <time>2018-01-02T10:38:58.552Z</time>
      </trkpt>
      <trkpt lat="43.70346" lon="6.96766">
        <ele>649</ele>
        <time>2018-01-02T10:38:59.552Z</time>
      </trkpt>
      <trkpt lat="43.70346" lon="6.96777">
        <ele>651</ele>
        <time>2018-01-02T10:39:01.552Z</time>
      </trkpt>
      <trkpt lat="43.70346" lon="6.96783">
        <ele>651</ele>
        <time>2018-01-02T10:39:02.552Z</time>
      </trkpt>
      <trkpt lat="43.70347" lon="6.96788">
        <ele>651</ele>
        <time>2018-01-02T10:39:03.552Z</time>
      </trkpt>
      <trkpt lat="43.70347" lon="6.96793">
        <ele>651</ele>
        <time>2018-01-02T10:39:04.552Z</time>
      </trkpt>
      <trkpt lat="43.70347" lon="6.96799">
        <ele>651</ele>
        <time>2018-01-02T10:39:05.552Z</time>
      </trkpt>
      <trkpt lat="43.70347" lon="6.96804">
        <ele>650</ele>
        <time>2018-01-02T10:39:06.552Z</time>
      </trkpt>
      <trkpt lat="43.70348" lon="6.9681">
        <ele>649</ele>
        <time>2018-01-02T10:39:07.552Z</time>
      </trkpt>
      <trkpt lat="43.70349" lon="6.9682">
        <ele>647</ele>
        <time>2018-01-02T10:39:09.552Z</time>
      </trkpt>
      <trkpt lat="43.70349" lon="6.96826">
        <ele>646</ele>
        <time>2018-01-02T10:39:10.552Z</time>
      </trkpt>
      <trkpt lat="43.7035" lon="6.96831">
        <ele>645</ele>
        <time>2018-01-02T10:39:11.552Z</time>
      </trkpt>
      <trkpt lat="43.7035" lon="6.96836">
        <ele>643</ele>
        <time>2018-01-02T10:39:12.552Z</time>
      </trkpt>
      <trkpt lat="43.70351" lon="6.96841">
        <ele>644</ele>
        <time>2018-01-02T10:39:13.552Z</time>
      </trkpt>
      <trkpt lat="43.70352" lon="6.96847">
        <ele>645</ele>
        <time>2018-01-02T10:39:14.552Z</time>
      </trkpt>
      <trkpt lat="43.70352" lon="6.96852">
        <ele>645</ele>
        <time>2018-01-02T10:39:15.552Z</time>
      </trkpt>
      <trkpt lat="43.70353" lon="6.96857">
        <ele>646</ele>
        <time>2018-01-02T10:39:16.552Z</time>
      </trkpt>
      <trkpt lat="43.70354" lon="6.96862">
        <ele>647</ele>
        <time>2018-01-02T10:39:17.552Z</time>
      </trkpt>
      <trkpt lat="43.70355" lon="6.96867">
        <ele>647</ele>
        <time>2018-01-02T10:39:18.552Z</time>
      </trkpt>
      <trkpt lat="43.70355" lon="6.96873">
        <ele>647</ele>
        <time>2018-01-02T10:39:19.552Z</time>
      </trkpt>
      <trkpt lat="43.70356" lon="6.96878">
        <ele>647</ele>
        <time>2018-01-02T10:39:20.552Z</time>
      </trkpt>
      <trkpt lat="43.70357" lon="6.96883">
        <ele>647</ele>
        <time>2018-01-02T10:39:21.552Z</time>
      </trkpt>
      <trkpt lat="43.70358" lon="6.96888">
        <ele>647</ele>
        <time>2018-01-02T10:39:22.552Z</time>
      </trkpt>
      <trkpt lat="43.70359" lon="6.96899">
        <ele>646</ele>
        <time>2018-01-02T10:39:24.552Z</time>
      </trkpt>
      <trkpt lat="43.7036" lon="6.96909">
        <ele>645</ele>
        <time>2018-01-02T10:39:26.552Z</time>
      </trkpt>
      <trkpt lat="43.70361" lon="6.96919">
        <ele>642</ele>
        <time>2018-01-02T10:39:28.552Z</time>
      </trkpt>
      <trkpt lat="43.70363" lon="6.96929">
        <ele>643</ele>
        <time>2018-01-02T10:39:30.552Z</time>
      </trkpt>
      <trkpt lat="43.70364" lon="6.96934">
        <ele>643</ele>
        <time>2018-01-02T10:39:31.552Z</time>
      </trkpt>
      <trkpt lat="43.70364" lon="6.96939">
        <ele>643</ele>
        <time>2018-01-02T10:39:32.552Z</time>
      </trkpt>
      <trkpt lat="43.70366" lon="6.96949">
        <ele>644</ele>
        <time>2018-01-02T10:39:34.552Z</time>
      </trkpt>
      <trkpt lat="43.70367" lon="6.96959">
        <ele>644</ele>
        <time>2018-01-02T10:39:36.552Z</time>
      </trkpt>
      <trkpt lat="43.70369" lon="6.96969">
        <ele>643</ele>
        <time>2018-01-02T10:39:38.552Z</time>
      </trkpt>
      <trkpt lat="43.7037" lon="6.96979">
        <ele>643</ele>
        <time>2018-01-02T10:39:40.552Z</time>
      </trkpt>
      <trkpt lat="43.70371" lon="6.96984">
        <ele>643</ele>
        <time>2018-01-02T10:39:41.552Z</time>
      </trkpt>
      <trkpt lat="43.70372" lon="6.96989">
        <ele>643</ele>
        <time>2018-01-02T10:39:42.552Z</time>
      </trkpt>
      <trkpt lat="43.70372" lon="6.96995">
        <ele>643</ele>
        <time>2018-01-02T10:39:43.552Z</time>
      </trkpt>
      <trkpt lat="43.70373" lon="6.97">
        <ele>643</ele>
        <time>2018-01-02T10:39:44.552Z</time>
      </trkpt>
      <trkpt lat="43.70374" lon="6.97005">
        <ele>639</ele>
        <time>2018-01-02T10:39:45.552Z</time>
      </trkpt>
      <trkpt lat="43.70375" lon="6.9701">
        <ele>639</ele>
        <time>2018-01-02T10:39:46.552Z</time>
      </trkpt>
      <trkpt lat="43.70377" lon="6.97014">
        <ele>639</ele>
        <time>2018-01-02T10:39:47.552Z</time>
      </trkpt>
      <trkpt lat="43.70378" lon="6.97019">
        <ele>640</ele>
        <time>2018-01-02T10:39:48.552Z</time>
      </trkpt>
      <trkpt lat="43.7038" lon="6.97024">
        <ele>640</ele>
        <time>2018-01-02T10:39:49.552Z</time>
      </trkpt>
      <trkpt lat="43.70382" lon="6.97029">
        <ele>640</ele>
        <time>2018-01-02T10:39:50.552Z</time>
      </trkpt>
      <trkpt lat="43.70384" lon="6.97034">
        <ele>640</ele>
        <time>2018-01-02T10:39:51.552Z</time>
      </trkpt>
      <trkpt lat="43.70386" lon="6.97039">
        <ele>640</ele>
        <time>2018-01-02T10:39:52.552Z</time>
      </trkpt>
      <trkpt lat="43.70389" lon="6.97043">
        <ele>640</ele>
        <time>2018-01-02T10:39:53.552Z</time>
      </trkpt>
      <trkpt lat="43.70392" lon="6.97047">
        <ele>640</ele>
        <time>2018-01-02T10:39:54.552Z</time>
      </trkpt>
      <trkpt lat="43.70395" lon="6.97051">
        <ele>641</ele>
        <time>2018-01-02T10:39:55.552Z</time>
      </trkpt>
      <trkpt lat="43.70398" lon="6.97055">
        <ele>641</ele>
        <time>2018-01-02T10:39:56.552Z</time>
      </trkpt>
      <trkpt lat="43.70401" lon="6.97059">
        <ele>642</ele>
        <time>2018-01-02T10:39:57.552Z</time>
      </trkpt>
      <trkpt lat="43.70408" lon="6.97066">
        <ele>643</ele>
        <time>2018-01-02T10:39:59.552Z</time>
      </trkpt>
      <trkpt lat="43.70414" lon="6.97073">
        <ele>645</ele>
        <time>2018-01-02T10:40:01.552Z</time>
      </trkpt>
      <trkpt lat="43.70421" lon="6.9708">
        <ele>652</ele>
        <time>2018-01-02T10:40:03.552Z</time>
      </trkpt>
      <trkpt lat="43.70427" lon="6.97087">
        <ele>650</ele>
        <time>2018-01-02T10:40:05.552Z</time>
      </trkpt>
      <trkpt lat="43.70433" lon="6.97094">
        <ele>651</ele>
        <time>2018-01-02T10:40:07.552Z</time>
      </trkpt>
      <trkpt lat="43.70439" lon="6.97101">
        <ele>652</ele>
        <time>2018-01-02T10:40:09.552Z</time>
      </trkpt>
      <trkpt lat="43.70446" lon="6.97108">
        <ele>652</ele>
        <time>2018-01-02T10:40:11.552Z</time>
      </trkpt>
      <trkpt lat="43.70453" lon="6.97115">
        <ele>653</ele>
        <time>2018-01-02T10:40:13.552Z</time>
      </trkpt>
      <trkpt lat="43.70459" lon="6.97121">
        <ele>653</ele>
        <time>2018-01-02T10:40:15.552Z</time>
      </trkpt>
      <trkpt lat="43.70466" lon="6.97127">
        <ele>653</ele>
        <time>2018-01-02T10:40:17.552Z</time>
      </trkpt>
      <trkpt lat="43.70473" lon="6.97133">
        <ele>653</ele>
        <time>2018-01-02T10:40:19.552Z</time>
      </trkpt>
      <trkpt lat="43.7048" lon="6.97139">
        <ele>653</ele>
        <time>2018-01-02T10:40:21.552Z</time>
      </trkpt>
      <trkpt lat="43.70486" lon="6.97144">
        <ele>654</ele>
        <time>2018-01-02T10:40:23.552Z</time>
      </trkpt>
      <trkpt lat="43.70493" lon="6.97149">
        <ele>654</ele>
        <time>2018-01-02T10:40:25.552Z</time>
      </trkpt>
      <trkpt lat="43.705" lon="6.97153">
        <ele>654</ele>
        <time>2018-01-02T10:40:27.552Z</time>
      </trkpt>
      <trkpt lat="43.70507" lon="6.97157">
        <ele>658</ele>
        <time>2018-01-02T10:40:29.552Z</time>
      </trkpt>
      <trkpt lat="43.70515" lon="6.9716">
        <ele>659</ele>
        <time>2018-01-02T10:40:31.552Z</time>
      </trkpt>
      <trkpt lat="43.70522" lon="6.97164">
        <ele>660</ele>
        <time>2018-01-02T10:40:33.552Z</time>
      </trkpt>
      <trkpt lat="43.7053" lon="6.97166">
        <ele>661</ele>
        <time>2018-01-02T10:40:35.552Z</time>
      </trkpt>
      <trkpt lat="43.70537" lon="6.97168">
        <ele>652</ele>
        <time>2018-01-02T10:40:37.552Z</time>
      </trkpt>
      <trkpt lat="43.70547" lon="6.97171">
        <ele>652</ele>
        <time>2018-01-02T10:40:40.552Z</time>
      </trkpt>
      <trkpt lat="43.70555" lon="6.97172">
        <ele>653</ele>
        <time>2018-01-02T10:40:42.552Z</time>
      </trkpt>
      <trkpt lat="43.70563" lon="6.97173">
        <ele>654</ele>
        <time>2018-01-02T10:40:44.552Z</time>
      </trkpt>
      <trkpt lat="43.70571" lon="6.97173">
        <ele>656</ele>
        <time>2018-01-02T10:40:46.552Z</time>
      </trkpt>
      <trkpt lat="43.70579" lon="6.97173">
        <ele>658</ele>
        <time>2018-01-02T10:40:48.552Z</time>
      </trkpt>
      <trkpt lat="43.70588" lon="6.97172">
        <ele>659</ele>
        <time>2018-01-02T10:40:50.552Z</time>
      </trkpt>
      <trkpt lat="43.70596" lon="6.97173">
        <ele>659</ele>
        <time>2018-01-02T10:40:52.552Z</time>
      </trkpt>
      <trkpt lat="43.70603" lon="6.97173">
        <ele>658</ele>
        <time>2018-01-02T10:40:54.552Z</time>
      </trkpt>
      <trkpt lat="43.70611" lon="6.97173">
        <ele>658</ele>
        <time>2018-01-02T10:40:56.552Z</time>
      </trkpt>
      <trkpt lat="43.70619" lon="6.97174">
        <ele>658</ele>
        <time>2018-01-02T10:40:58.552Z</time>
      </trkpt>
      <trkpt lat="43.70627" lon="6.97174">
        <ele>658</ele>
        <time>2018-01-02T10:41:00.552Z</time>
      </trkpt>
      <trkpt lat="43.70631" lon="6.97175">
        <ele>658</ele>
        <time>2018-01-02T10:41:01.552Z</time>
      </trkpt>
      <trkpt lat="43.70638" lon="6.97177">
        <ele>658</ele>
        <time>2018-01-02T10:41:03.552Z</time>
      </trkpt>
      <trkpt lat="43.70646" lon="6.97179">
        <ele>659</ele>
        <time>2018-01-02T10:41:05.552Z</time>
      </trkpt>
      <trkpt lat="43.70654" lon="6.97181">
        <ele>660</ele>
        <time>2018-01-02T10:41:07.552Z</time>
      </trkpt>
      <trkpt lat="43.70662" lon="6.97184">
        <ele>660</ele>
        <time>2018-01-02T10:41:09.552Z</time>
      </trkpt>
      <trkpt lat="43.70669" lon="6.97186">
        <ele>664</ele>
        <time>2018-01-02T10:41:11.552Z</time>
      </trkpt>
      <trkpt lat="43.70677" lon="6.97189">
        <ele>664</ele>
        <time>2018-01-02T10:41:13.552Z</time>
      </trkpt>
      <trkpt lat="43.70684" lon="6.97192">
        <ele>664</ele>
        <time>2018-01-02T10:41:15.552Z</time>
      </trkpt>
      <trkpt lat="43.70691" lon="6.97196">
        <ele>664</ele>
        <time>2018-01-02T10:41:17.552Z</time>
      </trkpt>
      <trkpt lat="43.70698" lon="6.972">
        <ele>664</ele>
        <time>2018-01-02T10:41:19.552Z</time>
      </trkpt>
      <trkpt lat="43.70704" lon="6.97205">
        <ele>664</ele>
        <time>2018-01-02T10:41:21.552Z</time>
      </trkpt>
      <trkpt lat="43.7071" lon="6.97211">
        <ele>664</ele>
        <time>2018-01-02T10:41:23.552Z</time>
      </trkpt>
      <trkpt lat="43.70717" lon="6.97217">
        <ele>665</ele>
        <time>2018-01-02T10:41:25.552Z</time>
      </trkpt>
      <trkpt lat="43.70723" lon="6.97224">
        <ele>665</ele>
        <time>2018-01-02T10:41:27.552Z</time>
      </trkpt>
      <trkpt lat="43.70728" lon="6.97231">
        <ele>665</ele>
        <time>2018-01-02T10:41:29.552Z</time>
      </trkpt>
      <trkpt lat="43.70733" lon="6.97238">
        <ele>665</ele>
        <time>2018-01-02T10:41:31.552Z</time>
      </trkpt>
      <trkpt lat="43.70738" lon="6.97246">
        <ele>665</ele>
        <time>2018-01-02T10:41:33.552Z</time>
      </trkpt>
      <trkpt lat="43.70743" lon="6.97255">
        <ele>663</ele>
        <time>2018-01-02T10:41:35.552Z</time>
      </trkpt>
      <trkpt lat="43.70747" lon="6.97264">
        <ele>661</ele>
        <time>2018-01-02T10:41:37.552Z</time>
      </trkpt>
      <trkpt lat="43.70751" lon="6.97274">
        <ele>668</ele>
        <time>2018-01-02T10:41:39.552Z</time>
      </trkpt>
      <trkpt lat="43.70754" lon="6.97284">
        <ele>669</ele>
        <time>2018-01-02T10:41:41.552Z</time>
      </trkpt>
      <trkpt lat="43.70757" lon="6.97293">
        <ele>669</ele>
        <time>2018-01-02T10:41:43.552Z</time>
      </trkpt>
      <trkpt lat="43.7076" lon="6.97302">
        <ele>668</ele>
        <time>2018-01-02T10:41:45.552Z</time>
      </trkpt>
      <trkpt lat="43.70763" lon="6.9731">
        <ele>668</ele>
        <time>2018-01-02T10:41:47.552Z</time>
      </trkpt>
      <trkpt lat="43.70765" lon="6.97318">
        <ele>667</ele>
        <time>2018-01-02T10:41:49.552Z</time>
      </trkpt>
      <trkpt lat="43.70767" lon="6.97326">
        <ele>667</ele>
        <time>2018-01-02T10:41:51.552Z</time>
      </trkpt>
      <trkpt lat="43.70769" lon="6.97334">
        <ele>665</ele>
        <time>2018-01-02T10:41:53.552Z</time>
      </trkpt>
      <trkpt lat="43.70772" lon="6.9734">
        <ele>666</ele>
        <time>2018-01-02T10:41:55.552Z</time>
      </trkpt>
      <trkpt lat="43.70775" lon="6.97349">
        <ele>667</ele>
        <time>2018-01-02T10:41:58.552Z</time>
      </trkpt>
      <trkpt lat="43.70778" lon="6.97358">
        <ele>667</ele>
        <time>2018-01-02T10:42:02.552Z</time>
      </trkpt>
      <trkpt lat="43.7078" lon="6.97365">
        <ele>668</ele>
        <time>2018-01-02T10:42:05.552Z</time>
      </trkpt>
      <trkpt lat="43.70779" lon="6.97372">
        <ele>668</ele>
        <time>2018-01-02T10:42:08.552Z</time>
      </trkpt>
      <trkpt lat="43.70781" lon="6.97378">
        <ele>668</ele>
        <time>2018-01-02T10:42:11.552Z</time>
      </trkpt>
      <trkpt lat="43.70783" lon="6.97382">
        <ele>668</ele>
        <time>2018-01-02T10:42:14.552Z</time>
      </trkpt>
      <trkpt lat="43.70788" lon="6.97383">
        <ele>668</ele>
        <time>2018-01-02T10:42:17.552Z</time>
      </trkpt>
      <trkpt lat="43.70791" lon="6.97386">
        <ele>669</ele>
        <time>2018-01-02T10:43:08.552Z</time>
      </trkpt>
      <trkpt lat="43.70791" lon="6.9738">
        <ele>669</ele>
        <time>2018-01-02T10:43:15.552Z</time>
      </trkpt>
      <trkpt lat="43.70793" lon="6.97374">
        <ele>669</ele>
        <time>2018-01-02T10:43:20.552Z</time>
      </trkpt>
      <trkpt lat="43.70794" lon="6.97367">
        <ele>669</ele>
        <time>2018-01-02T10:43:24.552Z</time>
      </trkpt>
      <trkpt lat="43.70794" lon="6.97359">
        <ele>669</ele>
        <time>2018-01-02T10:43:29.552Z</time>
      </trkpt>
      <trkpt lat="43.70794" lon="6.97354">
        <ele>669</ele>
        <time>2018-01-02T10:43:37.552Z</time>
      </trkpt>
      <trkpt lat="43.70793" lon="6.9735">
        <ele>669</ele>
        <time>2018-01-02T10:43:51.552Z</time>
      </trkpt>
      <trkpt lat="43.70795" lon="6.97344">
        <ele>669</ele>
        <time>2018-01-02T10:44:03.552Z</time>
      </trkpt>
      <trkpt lat="43.70796" lon="6.97338">
        <ele>669</ele>
        <time>2018-01-02T10:44:06.552Z</time>
      </trkpt>
      <trkpt lat="43.70797" lon="6.97332">
        <ele>671</ele>
        <time>2018-01-02T10:44:09.552Z</time>
      </trkpt>
      <trkpt lat="43.70799" lon="6.97326">
        <ele>671</ele>
        <time>2018-01-02T10:44:12.552Z</time>
      </trkpt>
      <trkpt lat="43.708" lon="6.9732">
        <ele>672</ele>
        <time>2018-01-02T10:44:15.552Z</time>
      </trkpt>
      <trkpt lat="43.70802" lon="6.97315">
        <ele>672</ele>
        <time>2018-01-02T10:44:18.552Z</time>
      </trkpt>
      <trkpt lat="43.70804" lon="6.97309">
        <ele>672</ele>
        <time>2018-01-02T10:44:21.552Z</time>
      </trkpt>
      <trkpt lat="43.70805" lon="6.97303">
        <ele>672</ele>
        <time>2018-01-02T10:44:24.552Z</time>
      </trkpt>
      <trkpt lat="43.70807" lon="6.97298">
        <ele>673</ele>
        <time>2018-01-02T10:44:27.552Z</time>
      </trkpt>
      <trkpt lat="43.70809" lon="6.97292">
        <ele>673</ele>
        <time>2018-01-02T10:44:30.552Z</time>
      </trkpt>
      <trkpt lat="43.70811" lon="6.97287">
        <ele>673</ele>
        <time>2018-01-02T10:44:33.552Z</time>
      </trkpt>
      <trkpt lat="43.70813" lon="6.97283">
        <ele>674</ele>
        <time>2018-01-02T10:44:36.552Z</time>
      </trkpt>
      <trkpt lat="43.70816" lon="6.97278">
        <ele>674</ele>
        <time>2018-01-02T10:44:39.552Z</time>
      </trkpt>
      <trkpt lat="43.70817" lon="6.97275">
        <ele>674</ele>
        <time>2018-01-02T10:44:41.552Z</time>
      </trkpt>
      <trkpt lat="43.70819" lon="6.97271">
        <ele>675</ele>
        <time>2018-01-02T10:44:43.552Z</time>
      </trkpt>
      <trkpt lat="43.70822" lon="6.97267">
        <ele>676</ele>
        <time>2018-01-02T10:44:46.552Z</time>
      </trkpt>
      <trkpt lat="43.70824" lon="6.97264">
        <ele>676</ele>
        <time>2018-01-02T10:44:48.552Z</time>
      </trkpt>
      <trkpt lat="43.70825" lon="6.9726">
        <ele>677</ele>
        <time>2018-01-02T10:44:50.552Z</time>
      </trkpt>
      <trkpt lat="43.70827" lon="6.97257">
        <ele>678</ele>
        <time>2018-01-02T10:44:52.552Z</time>
      </trkpt>
      <trkpt lat="43.70829" lon="6.97254">
        <ele>679</ele>
        <time>2018-01-02T10:44:54.552Z</time>
      </trkpt>
      <trkpt lat="43.70831" lon="6.97251">
        <ele>680</ele>
        <time>2018-01-02T10:44:56.552Z</time>
      </trkpt>
      <trkpt lat="43.70834" lon="6.97249">
        <ele>681</ele>
        <time>2018-01-02T10:44:58.552Z</time>
      </trkpt>
      <trkpt lat="43.70836" lon="6.97246">
        <ele>682</ele>
        <time>2018-01-02T10:45:00.552Z</time>
      </trkpt>
      <trkpt lat="43.70838" lon="6.97243">
        <ele>683</ele>
        <time>2018-01-02T10:45:02.552Z</time>
      </trkpt>
      <trkpt lat="43.7084" lon="6.97241">
        <ele>683</ele>
        <time>2018-01-02T10:45:04.552Z</time>
      </trkpt>
      <trkpt lat="43.70842" lon="6.97238">
        <ele>684</ele>
        <time>2018-01-02T10:45:06.552Z</time>
      </trkpt>
      <trkpt lat="43.70844" lon="6.97235">
        <ele>684</ele>
        <time>2018-01-02T10:45:08.552Z</time>
      </trkpt>
      <trkpt lat="43.70847" lon="6.97233">
        <ele>684</ele>
        <time>2018-01-02T10:45:10.552Z</time>
      </trkpt>
      <trkpt lat="43.70849" lon="6.97231">
        <ele>685</ele>
        <time>2018-01-02T10:45:12.552Z</time>
      </trkpt>
      <trkpt lat="43.70851" lon="6.97228">
        <ele>685</ele>
        <time>2018-01-02T10:45:14.552Z</time>
      </trkpt>
      <trkpt lat="43.70854" lon="6.97226">
        <ele>685</ele>
        <time>2018-01-02T10:45:16.552Z</time>
      </trkpt>
      <trkpt lat="43.70856" lon="6.97224">
        <ele>685</ele>
        <time>2018-01-02T10:45:18.552Z</time>
      </trkpt>
      <trkpt lat="43.70858" lon="6.97221">
        <ele>685</ele>
        <time>2018-01-02T10:45:20.552Z</time>
      </trkpt>
      <trkpt lat="43.7086" lon="6.97219">
        <ele>686</ele>
        <time>2018-01-02T10:45:22.552Z</time>
      </trkpt>
      <trkpt lat="43.70863" lon="6.97216">
        <ele>686</ele>
        <time>2018-01-02T10:45:24.552Z</time>
      </trkpt>
      <trkpt lat="43.70865" lon="6.97214">
        <ele>686</ele>
        <time>2018-01-02T10:45:26.552Z</time>
      </trkpt>
      <trkpt lat="43.70868" lon="6.97211">
        <ele>686</ele>
        <time>2018-01-02T10:45:28.552Z</time>
      </trkpt>
      <trkpt lat="43.7087" lon="6.97208">
        <ele>686</ele>
        <time>2018-01-02T10:45:30.552Z</time>
      </trkpt>
      <trkpt lat="43.70873" lon="6.97205">
        <ele>687</ele>
        <time>2018-01-02T10:45:32.552Z</time>
      </trkpt>
      <trkpt lat="43.70875" lon="6.97202">
        <ele>687</ele>
        <time>2018-01-02T10:45:34.552Z</time>
      </trkpt>
      <trkpt lat="43.70878" lon="6.972">
        <ele>687</ele>
        <time>2018-01-02T10:45:36.552Z</time>
      </trkpt>
      <trkpt lat="43.7088" lon="6.97196">
        <ele>687</ele>
        <time>2018-01-02T10:45:38.552Z</time>
      </trkpt>
      <trkpt lat="43.70881" lon="6.97193">
        <ele>687</ele>
        <time>2018-01-02T10:45:40.552Z</time>
      </trkpt>
      <trkpt lat="43.70883" lon="6.97189">
        <ele>687</ele>
        <time>2018-01-02T10:45:42.552Z</time>
      </trkpt>
      <trkpt lat="43.70885" lon="6.97184">
        <ele>688</ele>
        <time>2018-01-02T10:45:44.552Z</time>
      </trkpt>
      <trkpt lat="43.70886" lon="6.9718">
        <ele>688</ele>
        <time>2018-01-02T10:45:46.552Z</time>
      </trkpt>
      <trkpt lat="43.70887" lon="6.97175">
        <ele>688</ele>
        <time>2018-01-02T10:45:49.552Z</time>
      </trkpt>
      <trkpt lat="43.7089" lon="6.97168">
        <ele>688</ele>
        <time>2018-01-02T10:45:53.552Z</time>
      </trkpt>
      <trkpt lat="43.70892" lon="6.97163">
        <ele>692</ele>
        <time>2018-01-02T10:45:56.552Z</time>
      </trkpt>
      <trkpt lat="43.70893" lon="6.97157">
        <ele>692</ele>
        <time>2018-01-02T10:45:59.552Z</time>
      </trkpt>
      <trkpt lat="43.70894" lon="6.97151">
        <ele>692</ele>
        <time>2018-01-02T10:46:02.552Z</time>
      </trkpt>
      <trkpt lat="43.70896" lon="6.97145">
        <ele>693</ele>
        <time>2018-01-02T10:46:05.552Z</time>
      </trkpt>
      <trkpt lat="43.70899" lon="6.97139">
        <ele>693</ele>
        <time>2018-01-02T10:46:08.552Z</time>
      </trkpt>
      <trkpt lat="43.70903" lon="6.97131">
        <ele>693</ele>
        <time>2018-01-02T10:46:13.552Z</time>
      </trkpt>
      <trkpt lat="43.70905" lon="6.97124">
        <ele>694</ele>
        <time>2018-01-02T10:46:17.552Z</time>
      </trkpt>
      <trkpt lat="43.70908" lon="6.9712">
        <ele>694</ele>
        <time>2018-01-02T10:46:20.552Z</time>
      </trkpt>
      <trkpt lat="43.70912" lon="6.97114">
        <ele>694</ele>
        <time>2018-01-02T10:46:25.552Z</time>
      </trkpt>
      <trkpt lat="43.70915" lon="6.97117">
        <ele>694</ele>
        <time>2018-01-02T10:46:52.552Z</time>
      </trkpt>
      <trkpt lat="43.70915" lon="6.97112">
        <ele>695</ele>
        <time>2018-01-02T10:47:18.552Z</time>
      </trkpt>
      <trkpt lat="43.70917" lon="6.97105">
        <ele>695</ele>
        <time>2018-01-02T10:47:43.552Z</time>
      </trkpt>
      <trkpt lat="43.7092" lon="6.97098">
        <ele>696</ele>
        <time>2018-01-02T10:47:47.552Z</time>
      </trkpt>
      <trkpt lat="43.70922" lon="6.97092">
        <ele>696</ele>
        <time>2018-01-02T10:47:50.552Z</time>
      </trkpt>
      <trkpt lat="43.70925" lon="6.97085">
        <ele>696</ele>
        <time>2018-01-02T10:47:53.552Z</time>
      </trkpt>
      <trkpt lat="43.70927" lon="6.97079">
        <ele>699</ele>
        <time>2018-01-02T10:47:56.552Z</time>
      </trkpt>
      <trkpt lat="43.70929" lon="6.97075">
        <ele>699</ele>
        <time>2018-01-02T10:47:58.552Z</time>
      </trkpt>
      <trkpt lat="43.70931" lon="6.9707">
        <ele>700</ele>
        <time>2018-01-02T10:48:00.552Z</time>
      </trkpt>
      <trkpt lat="43.70933" lon="6.97066">
        <ele>700</ele>
        <time>2018-01-02T10:48:02.552Z</time>
      </trkpt>
      <trkpt lat="43.70935" lon="6.97061">
        <ele>700</ele>
        <time>2018-01-02T10:48:04.552Z</time>
      </trkpt>
      <trkpt lat="43.70937" lon="6.97057">
        <ele>700</ele>
        <time>2018-01-02T10:48:06.552Z</time>
      </trkpt>
      <trkpt lat="43.70939" lon="6.97051">
        <ele>701</ele>
        <time>2018-01-02T10:48:09.552Z</time>
      </trkpt>
      <trkpt lat="43.70941" lon="6.97046">
        <ele>701</ele>
        <time>2018-01-02T10:48:11.552Z</time>
      </trkpt>
      <trkpt lat="43.70943" lon="6.97042">
        <ele>701</ele>
        <time>2018-01-02T10:48:13.552Z</time>
      </trkpt>
      <trkpt lat="43.70945" lon="6.97037">
        <ele>701</ele>
        <time>2018-01-02T10:48:15.552Z</time>
      </trkpt>
      <trkpt lat="43.70947" lon="6.97034">
        <ele>702</ele>
        <time>2018-01-02T10:48:17.552Z</time>
      </trkpt>
      <trkpt lat="43.70949" lon="6.97029">
        <ele>702</ele>
        <time>2018-01-02T10:48:19.552Z</time>
      </trkpt>
      <trkpt lat="43.70951" lon="6.97023">
        <ele>702</ele>
        <time>2018-01-02T10:48:22.552Z</time>
      </trkpt>
      <trkpt lat="43.70953" lon="6.97014">
        <ele>702</ele>
        <time>2018-01-02T10:48:26.552Z</time>
      </trkpt>
      <trkpt lat="43.70955" lon="6.97005">
        <ele>702</ele>
        <time>2018-01-02T10:48:30.552Z</time>
      </trkpt>
      <trkpt lat="43.70957" lon="6.96999">
        <ele>708</ele>
        <time>2018-01-02T10:48:33.552Z</time>
      </trkpt>
      <trkpt lat="43.70959" lon="6.96992">
        <ele>708</ele>
        <time>2018-01-02T10:48:36.552Z</time>
      </trkpt>
      <trkpt lat="43.7096" lon="6.96985">
        <ele>708</ele>
        <time>2018-01-02T10:48:39.552Z</time>
      </trkpt>
      <trkpt lat="43.7096" lon="6.96978">
        <ele>709</ele>
        <time>2018-01-02T10:48:42.552Z</time>
      </trkpt>
      <trkpt lat="43.7096" lon="6.96964">
        <ele>709</ele>
        <time>2018-01-02T10:48:48.552Z</time>
      </trkpt>
      <trkpt lat="43.70961" lon="6.96956">
        <ele>710</ele>
        <time>2018-01-02T10:48:51.552Z</time>
      </trkpt>
      <trkpt lat="43.7096" lon="6.96949">
        <ele>710</ele>
        <time>2018-01-02T10:48:54.552Z</time>
      </trkpt>
      <trkpt lat="43.70961" lon="6.96942">
        <ele>711</ele>
        <time>2018-01-02T10:48:57.552Z</time>
      </trkpt>
      <trkpt lat="43.70961" lon="6.96935">
        <ele>711</ele>
        <time>2018-01-02T10:49:00.552Z</time>
      </trkpt>
      <trkpt lat="43.70963" lon="6.96928">
        <ele>711</ele>
        <time>2018-01-02T10:49:03.552Z</time>
      </trkpt>
      <trkpt lat="43.70964" lon="6.96921">
        <ele>711</ele>
        <time>2018-01-02T10:49:06.552Z</time>
      </trkpt>
      <trkpt lat="43.70966" lon="6.96912">
        <ele>717</ele>
        <time>2018-01-02T10:49:09.552Z</time>
      </trkpt>
      <trkpt lat="43.70969" lon="6.96905">
        <ele>718</ele>
        <time>2018-01-02T10:49:12.552Z</time>
      </trkpt>
      <trkpt lat="43.70974" lon="6.96901">
        <ele>718</ele>
        <time>2018-01-02T10:49:14.552Z</time>
      </trkpt>
      <trkpt lat="43.70979" lon="6.96901">
        <ele>717</ele>
        <time>2018-01-02T10:49:16.552Z</time>
      </trkpt>
      <trkpt lat="43.70985" lon="6.96905">
        <ele>716</ele>
        <time>2018-01-02T10:49:18.552Z</time>
      </trkpt>
      <trkpt lat="43.70989" lon="6.96912">
        <ele>715</ele>
        <time>2018-01-02T10:49:21.552Z</time>
      </trkpt>
      <trkpt lat="43.70992" lon="6.96919">
        <ele>712</ele>
        <time>2018-01-02T10:49:24.552Z</time>
      </trkpt>
      <trkpt lat="43.70995" lon="6.96926">
        <ele>712</ele>
        <time>2018-01-02T10:49:27.552Z</time>
      </trkpt>
      <trkpt lat="43.70997" lon="6.96931">
        <ele>711</ele>
        <time>2018-01-02T10:49:29.552Z</time>
      </trkpt>
      <trkpt lat="43.70999" lon="6.96936">
        <ele>711</ele>
        <time>2018-01-02T10:49:31.552Z</time>
      </trkpt>
      <trkpt lat="43.71002" lon="6.96944">
        <ele>713</ele>
        <time>2018-01-02T10:49:34.552Z</time>
      </trkpt>
      <trkpt lat="43.71005" lon="6.96951">
        <ele>713</ele>
        <time>2018-01-02T10:49:37.552Z</time>
      </trkpt>
      <trkpt lat="43.71008" lon="6.96958">
        <ele>713</ele>
        <time>2018-01-02T10:49:40.552Z</time>
      </trkpt>
      <trkpt lat="43.71011" lon="6.96962">
        <ele>713</ele>
        <time>2018-01-02T10:49:42.552Z</time>
      </trkpt>
      <trkpt lat="43.71014" lon="6.96968">
        <ele>712</ele>
        <time>2018-01-02T10:49:45.552Z</time>
      </trkpt>
      <trkpt lat="43.71016" lon="6.96972">
        <ele>712</ele>
        <time>2018-01-02T10:49:47.552Z</time>
      </trkpt>
      <trkpt lat="43.71021" lon="6.96978">
        <ele>712</ele>
        <time>2018-01-02T10:49:50.552Z</time>
      </trkpt>
      <trkpt lat="43.71027" lon="6.96982">
        <ele>712</ele>
        <time>2018-01-02T10:49:53.552Z</time>
      </trkpt>
      <trkpt lat="43.71032" lon="6.96984">
        <ele>713</ele>
        <time>2018-01-02T10:49:56.552Z</time>
      </trkpt>
      <trkpt lat="43.71038" lon="6.96987">
        <ele>713</ele>
        <time>2018-01-02T10:49:59.552Z</time>
      </trkpt>
      <trkpt lat="43.71043" lon="6.96989">
        <ele>714</ele>
        <time>2018-01-02T10:50:02.552Z</time>
      </trkpt>
      <trkpt lat="43.71047" lon="6.9699">
        <ele>714</ele>
        <time>2018-01-02T10:50:04.552Z</time>
      </trkpt>
      <trkpt lat="43.71051" lon="6.96991">
        <ele>714</ele>
        <time>2018-01-02T10:50:06.552Z</time>
      </trkpt>
      <trkpt lat="43.71057" lon="6.96993">
        <ele>715</ele>
        <time>2018-01-02T10:50:09.552Z</time>
      </trkpt>
      <trkpt lat="43.71063" lon="6.96996">
        <ele>715</ele>
        <time>2018-01-02T10:50:12.552Z</time>
      </trkpt>
      <trkpt lat="43.71069" lon="6.96998">
        <ele>716</ele>
        <time>2018-01-02T10:50:15.552Z</time>
      </trkpt>
      <trkpt lat="43.71074" lon="6.97001">
        <ele>713</ele>
        <time>2018-01-02T10:50:18.552Z</time>
      </trkpt>
      <trkpt lat="43.7108" lon="6.97004">
        <ele>715</ele>
        <time>2018-01-02T10:50:21.552Z</time>
      </trkpt>
      <trkpt lat="43.71085" lon="6.97007">
        <ele>717</ele>
        <time>2018-01-02T10:50:24.552Z</time>
      </trkpt>
      <trkpt lat="43.71091" lon="6.97009">
        <ele>717</ele>
        <time>2018-01-02T10:50:27.552Z</time>
      </trkpt>
      <trkpt lat="43.71096" lon="6.9701">
        <ele>717</ele>
        <time>2018-01-02T10:50:30.552Z</time>
      </trkpt>
      <trkpt lat="43.71101" lon="6.97012">
        <ele>717</ele>
        <time>2018-01-02T10:50:33.552Z</time>
      </trkpt>
      <trkpt lat="43.71107" lon="6.97014">
        <ele>717</ele>
        <time>2018-01-02T10:50:36.552Z</time>
      </trkpt>
      <trkpt lat="43.71112" lon="6.97014">
        <ele>717</ele>
        <time>2018-01-02T10:50:39.552Z</time>
      </trkpt>
      <trkpt lat="43.71118" lon="6.97015">
        <ele>718</ele>
        <time>2018-01-02T10:50:42.552Z</time>
      </trkpt>
      <trkpt lat="43.71123" lon="6.97017">
        <ele>718</ele>
        <time>2018-01-02T10:50:45.552Z</time>
      </trkpt>
      <trkpt lat="43.71131" lon="6.97019">
        <ele>719</ele>
        <time>2018-01-02T10:50:49.552Z</time>
      </trkpt>
      <trkpt lat="43.71137" lon="6.97022">
        <ele>719</ele>
        <time>2018-01-02T10:50:53.552Z</time>
      </trkpt>
      <trkpt lat="43.71143" lon="6.97023">
        <ele>720</ele>
        <time>2018-01-02T10:50:56.552Z</time>
      </trkpt>
      <trkpt lat="43.71149" lon="6.97025">
        <ele>720</ele>
        <time>2018-01-02T10:50:59.552Z</time>
      </trkpt>
      <trkpt lat="43.71156" lon="6.97027">
        <ele>720</ele>
        <time>2018-01-02T10:51:02.552Z</time>
      </trkpt>
      <trkpt lat="43.71162" lon="6.97029">
        <ele>720</ele>
        <time>2018-01-02T10:51:05.552Z</time>
      </trkpt>
      <trkpt lat="43.71167" lon="6.97032">
        <ele>726</ele>
        <time>2018-01-02T10:51:08.552Z</time>
      </trkpt>
      <trkpt lat="43.71174" lon="6.97033">
        <ele>726</ele>
        <time>2018-01-02T10:51:11.552Z</time>
      </trkpt>
      <trkpt lat="43.71179" lon="6.97036">
        <ele>726</ele>
        <time>2018-01-02T10:51:14.552Z</time>
      </trkpt>
      <trkpt lat="43.71184" lon="6.97038">
        <ele>726</ele>
        <time>2018-01-02T10:51:17.552Z</time>
      </trkpt>
      <trkpt lat="43.71189" lon="6.97039">
        <ele>726</ele>
        <time>2018-01-02T10:51:20.552Z</time>
      </trkpt>
      <trkpt lat="43.71195" lon="6.97041">
        <ele>727</ele>
        <time>2018-01-02T10:51:23.552Z</time>
      </trkpt>
      <trkpt lat="43.712" lon="6.97044">
        <ele>727</ele>
        <time>2018-01-02T10:51:26.552Z</time>
      </trkpt>
      <trkpt lat="43.71206" lon="6.97046">
        <ele>727</ele>
        <time>2018-01-02T10:51:29.552Z</time>
      </trkpt>
      <trkpt lat="43.7121" lon="6.97047">
        <ele>727</ele>
        <time>2018-01-02T10:51:31.552Z</time>
      </trkpt>
      <trkpt lat="43.71214" lon="6.97048">
        <ele>727</ele>
        <time>2018-01-02T10:51:33.552Z</time>
      </trkpt>
      <trkpt lat="43.71221" lon="6.97049">
        <ele>728</ele>
        <time>2018-01-02T10:51:36.552Z</time>
      </trkpt>
      <trkpt lat="43.71225" lon="6.97049">
        <ele>728</ele>
        <time>2018-01-02T10:51:38.552Z</time>
      </trkpt>
      <trkpt lat="43.71231" lon="6.97048">
        <ele>728</ele>
        <time>2018-01-02T10:51:41.552Z</time>
      </trkpt>
      <trkpt lat="43.71237" lon="6.97049">
        <ele>728</ele>
        <time>2018-01-02T10:51:44.552Z</time>
      </trkpt>
      <trkpt lat="43.71243" lon="6.9705">
        <ele>728</ele>
        <time>2018-01-02T10:51:47.552Z</time>
      </trkpt>
      <trkpt lat="43.71249" lon="6.9705">
        <ele>728</ele>
        <time>2018-01-02T10:51:50.552Z</time>
      </trkpt>
      <trkpt lat="43.71254" lon="6.97051">
        <ele>735</ele>
        <time>2018-01-02T10:51:53.552Z</time>
      </trkpt>
      <trkpt lat="43.7126" lon="6.97054">
        <ele>735</ele>
        <time>2018-01-02T10:51:57.552Z</time>
      </trkpt>
      <trkpt lat="43.71266" lon="6.97055">
        <ele>735</ele>
        <time>2018-01-02T10:52:00.552Z</time>
      </trkpt>
      <trkpt lat="43.71271" lon="6.97057">
        <ele>735</ele>
        <time>2018-01-02T10:52:03.552Z</time>
      </trkpt>
      <trkpt lat="43.71278" lon="6.97058">
        <ele>736</ele>
        <time>2018-01-02T10:52:06.552Z</time>
      </trkpt>
      <trkpt lat="43.71283" lon="6.9706">
        <ele>736</ele>
        <time>2018-01-02T10:52:09.552Z</time>
      </trkpt>
      <trkpt lat="43.71288" lon="6.97063">
        <ele>736</ele>
        <time>2018-01-02T10:52:12.552Z</time>
      </trkpt>
      <trkpt lat="43.71295" lon="6.97067">
        <ele>737</ele>
        <time>2018-01-02T10:52:16.552Z</time>
      </trkpt>
      <trkpt lat="43.713" lon="6.97071">
        <ele>737</ele>
        <time>2018-01-02T10:52:19.552Z</time>
      </trkpt>
      <trkpt lat="43.71306" lon="6.97076">
        <ele>737</ele>
        <time>2018-01-02T10:52:23.552Z</time>
      </trkpt>
      <trkpt lat="43.71312" lon="6.9708">
        <ele>737</ele>
        <time>2018-01-02T10:52:26.552Z</time>
      </trkpt>
      <trkpt lat="43.71319" lon="6.97084">
        <ele>730</ele>
        <time>2018-01-02T10:52:29.552Z</time>
      </trkpt>
      <trkpt lat="43.71326" lon="6.97087">
        <ele>732</ele>
        <time>2018-01-02T10:52:32.552Z</time>
      </trkpt>
      <trkpt lat="43.71332" lon="6.97092">
        <ele>732</ele>
        <time>2018-01-02T10:52:35.552Z</time>
      </trkpt>
      <trkpt lat="43.71337" lon="6.97097">
        <ele>736</ele>
        <time>2018-01-02T10:52:38.552Z</time>
      </trkpt>
      <trkpt lat="43.71343" lon="6.97102">
        <ele>735</ele>
        <time>2018-01-02T10:52:41.552Z</time>
      </trkpt>
      <trkpt lat="43.71348" lon="6.97107">
        <ele>735</ele>
        <time>2018-01-02T10:52:44.552Z</time>
      </trkpt>
      <trkpt lat="43.71353" lon="6.97113">
        <ele>735</ele>
        <time>2018-01-02T10:52:47.552Z</time>
      </trkpt>
      <trkpt lat="43.71358" lon="6.97118">
        <ele>735</ele>
        <time>2018-01-02T10:52:50.552Z</time>
      </trkpt>
      <trkpt lat="43.71364" lon="6.97122">
        <ele>735</ele>
        <time>2018-01-02T10:52:53.552Z</time>
      </trkpt>
      <trkpt lat="43.71369" lon="6.97125">
        <ele>735</ele>
        <time>2018-01-02T10:52:55.552Z</time>
      </trkpt>
      <trkpt lat="43.71373" lon="6.97129">
        <ele>735</ele>
        <time>2018-01-02T10:52:57.552Z</time>
      </trkpt>
      <trkpt lat="43.71376" lon="6.97132">
        <ele>735</ele>
        <time>2018-01-02T10:52:59.552Z</time>
      </trkpt>
      <trkpt lat="43.71381" lon="6.97136">
        <ele>736</ele>
        <time>2018-01-02T10:53:01.552Z</time>
      </trkpt>
      <trkpt lat="43.71385" lon="6.9714">
        <ele>736</ele>
        <time>2018-01-02T10:53:03.552Z</time>
      </trkpt>
      <trkpt lat="43.71388" lon="6.97143">
        <ele>736</ele>
        <time>2018-01-02T10:53:05.552Z</time>
      </trkpt>
      <trkpt lat="43.71392" lon="6.97147">
        <ele>736</ele>
        <time>2018-01-02T10:53:07.552Z</time>
      </trkpt>
      <trkpt lat="43.71397" lon="6.97154">
        <ele>736</ele>
        <time>2018-01-02T10:53:10.552Z</time>
      </trkpt>
      <trkpt lat="43.71402" lon="6.97159">
        <ele>737</ele>
        <time>2018-01-02T10:53:13.552Z</time>
      </trkpt>
      <trkpt lat="43.71407" lon="6.97165">
        <ele>737</ele>
        <time>2018-01-02T10:53:16.552Z</time>
      </trkpt>
      <trkpt lat="43.71411" lon="6.97172">
        <ele>733</ele>
        <time>2018-01-02T10:53:19.552Z</time>
      </trkpt>
      <trkpt lat="43.71416" lon="6.97178">
        <ele>732</ele>
        <time>2018-01-02T10:53:22.552Z</time>
      </trkpt>
      <trkpt lat="43.71421" lon="6.97184">
        <ele>737</ele>
        <time>2018-01-02T10:53:25.552Z</time>
      </trkpt>
      <trkpt lat="43.71426" lon="6.97188">
        <ele>737</ele>
        <time>2018-01-02T10:53:28.552Z</time>
      </trkpt>
      <trkpt lat="43.71431" lon="6.97192">
        <ele>737</ele>
        <time>2018-01-02T10:53:31.552Z</time>
      </trkpt>
      <trkpt lat="43.71437" lon="6.97197">
        <ele>737</ele>
        <time>2018-01-02T10:53:34.552Z</time>
      </trkpt>
      <trkpt lat="43.71444" lon="6.97201">
        <ele>737</ele>
        <time>2018-01-02T10:53:37.552Z</time>
      </trkpt>
      <trkpt lat="43.71449" lon="6.97205">
        <ele>737</ele>
        <time>2018-01-02T10:53:40.552Z</time>
      </trkpt>
      <trkpt lat="43.71453" lon="6.97209">
        <ele>737</ele>
        <time>2018-01-02T10:53:42.552Z</time>
      </trkpt>
      <trkpt lat="43.71456" lon="6.97211">
        <ele>737</ele>
        <time>2018-01-02T10:53:44.552Z</time>
      </trkpt>
      <trkpt lat="43.7146" lon="6.97213">
        <ele>737</ele>
        <time>2018-01-02T10:53:46.552Z</time>
      </trkpt>
      <trkpt lat="43.71464" lon="6.97211">
        <ele>738</ele>
        <time>2018-01-02T10:53:48.552Z</time>
      </trkpt>
      <trkpt lat="43.71466" lon="6.97205">
        <ele>738</ele>
        <time>2018-01-02T10:53:51.552Z</time>
      </trkpt>
      <trkpt lat="43.71462" lon="6.97198">
        <ele>739</ele>
        <time>2018-01-02T10:53:54.552Z</time>
      </trkpt>
      <trkpt lat="43.71459" lon="6.97194">
        <ele>739</ele>
        <time>2018-01-02T10:53:56.552Z</time>
      </trkpt>
      <trkpt lat="43.71456" lon="6.9719">
        <ele>739</ele>
        <time>2018-01-02T10:53:58.552Z</time>
      </trkpt>
      <trkpt lat="43.71453" lon="6.97186">
        <ele>739</ele>
        <time>2018-01-02T10:54:00.552Z</time>
      </trkpt>
      <trkpt lat="43.7145" lon="6.97183">
        <ele>739</ele>
        <time>2018-01-02T10:54:02.552Z</time>
      </trkpt>
      <trkpt lat="43.71448" lon="6.9718">
        <ele>739</ele>
        <time>2018-01-02T10:54:04.552Z</time>
      </trkpt>
      <trkpt lat="43.71442" lon="6.97173">
        <ele>739</ele>
        <time>2018-01-02T10:54:08.552Z</time>
      </trkpt>
      <trkpt lat="43.71437" lon="6.97167">
        <ele>739</ele>
        <time>2018-01-02T10:54:12.552Z</time>
      </trkpt>
      <trkpt lat="43.71435" lon="6.97163">
        <ele>745</ele>
        <time>2018-01-02T10:54:14.552Z</time>
      </trkpt>
      <trkpt lat="43.71433" lon="6.97159">
        <ele>745</ele>
        <time>2018-01-02T10:54:16.552Z</time>
      </trkpt>
      <trkpt lat="43.71431" lon="6.97154">
        <ele>745</ele>
        <time>2018-01-02T10:54:18.552Z</time>
      </trkpt>
      <trkpt lat="43.71428" lon="6.9715">
        <ele>746</ele>
        <time>2018-01-02T10:54:20.552Z</time>
      </trkpt>
      <trkpt lat="43.71426" lon="6.97145">
        <ele>746</ele>
        <time>2018-01-02T10:54:22.552Z</time>
      </trkpt>
      <trkpt lat="43.71424" lon="6.97141">
        <ele>747</ele>
        <time>2018-01-02T10:54:24.552Z</time>
      </trkpt>
      <trkpt lat="43.71421" lon="6.97136">
        <ele>748</ele>
        <time>2018-01-02T10:54:26.552Z</time>
      </trkpt>
      <trkpt lat="43.71419" lon="6.97131">
        <ele>748</ele>
        <time>2018-01-02T10:54:28.552Z</time>
      </trkpt>
      <trkpt lat="43.71417" lon="6.97127">
        <ele>739</ele>
        <time>2018-01-02T10:54:30.552Z</time>
      </trkpt>
      <trkpt lat="43.71414" lon="6.97122">
        <ele>740</ele>
        <time>2018-01-02T10:54:32.552Z</time>
      </trkpt>
      <trkpt lat="43.71412" lon="6.97118">
        <ele>740</ele>
        <time>2018-01-02T10:54:34.552Z</time>
      </trkpt>
      <trkpt lat="43.7141" lon="6.97114">
        <ele>741</ele>
        <time>2018-01-02T10:54:36.552Z</time>
      </trkpt>
      <trkpt lat="43.71407" lon="6.97109">
        <ele>741</ele>
        <time>2018-01-02T10:54:38.552Z</time>
      </trkpt>
      <trkpt lat="43.71405" lon="6.97105">
        <ele>742</ele>
        <time>2018-01-02T10:54:40.552Z</time>
      </trkpt>
      <trkpt lat="43.71402" lon="6.97101">
        <ele>743</ele>
        <time>2018-01-02T10:54:42.552Z</time>
      </trkpt>
      <trkpt lat="43.714" lon="6.97097">
        <ele>743</ele>
        <time>2018-01-02T10:54:44.552Z</time>
      </trkpt>
      <trkpt lat="43.71397" lon="6.97093">
        <ele>743</ele>
        <time>2018-01-02T10:54:46.552Z</time>
      </trkpt>
      <trkpt lat="43.71394" lon="6.97089">
        <ele>742</ele>
        <time>2018-01-02T10:54:48.552Z</time>
      </trkpt>
      <trkpt lat="43.71391" lon="6.97086">
        <ele>742</ele>
        <time>2018-01-02T10:54:50.552Z</time>
      </trkpt>
      <trkpt lat="43.71388" lon="6.97082">
        <ele>750</ele>
        <time>2018-01-02T10:54:52.552Z</time>
      </trkpt>
      <trkpt lat="43.71385" lon="6.97078">
        <ele>750</ele>
        <time>2018-01-02T10:54:54.552Z</time>
      </trkpt>
      <trkpt lat="43.71382" lon="6.97074">
        <ele>750</ele>
        <time>2018-01-02T10:54:56.552Z</time>
      </trkpt>
      <trkpt lat="43.71379" lon="6.9707">
        <ele>750</ele>
        <time>2018-01-02T10:54:58.552Z</time>
      </trkpt>
      <trkpt lat="43.71376" lon="6.97066">
        <ele>750</ele>
        <time>2018-01-02T10:55:00.552Z</time>
      </trkpt>
      <trkpt lat="43.71373" lon="6.97061">
        <ele>750</ele>
        <time>2018-01-02T10:55:02.552Z</time>
      </trkpt>
      <trkpt lat="43.71371" lon="6.97056">
        <ele>750</ele>
        <time>2018-01-02T10:55:04.552Z</time>
      </trkpt>
      <trkpt lat="43.71368" lon="6.97052">
        <ele>750</ele>
        <time>2018-01-02T10:55:06.552Z</time>
      </trkpt>
      <trkpt lat="43.71364" lon="6.97044">
        <ele>751</ele>
        <time>2018-01-02T10:55:09.552Z</time>
      </trkpt>
      <trkpt lat="43.7136" lon="6.97038">
        <ele>751</ele>
        <time>2018-01-02T10:55:12.552Z</time>
      </trkpt>
      <trkpt lat="43.71358" lon="6.97034">
        <ele>751</ele>
        <time>2018-01-02T10:55:14.552Z</time>
      </trkpt>
      <trkpt lat="43.71355" lon="6.97029">
        <ele>751</ele>
        <time>2018-01-02T10:55:16.552Z</time>
      </trkpt>
      <trkpt lat="43.71353" lon="6.97024">
        <ele>752</ele>
        <time>2018-01-02T10:55:18.552Z</time>
      </trkpt>
      <trkpt lat="43.71351" lon="6.9702">
        <ele>752</ele>
        <time>2018-01-02T10:55:20.552Z</time>
      </trkpt>
      <trkpt lat="43.71348" lon="6.97016">
        <ele>752</ele>
        <time>2018-01-02T10:55:22.552Z</time>
      </trkpt>
      <trkpt lat="43.71346" lon="6.97011">
        <ele>752</ele>
        <time>2018-01-02T10:55:24.552Z</time>
      </trkpt>
      <trkpt lat="43.71344" lon="6.97007">
        <ele>753</ele>
        <time>2018-01-02T10:55:26.552Z</time>
      </trkpt>
      <trkpt lat="43.71342" lon="6.97003">
        <ele>753</ele>
        <time>2018-01-02T10:55:28.552Z</time>
      </trkpt>
      <trkpt lat="43.71339" lon="6.96998">
        <ele>755</ele>
        <time>2018-01-02T10:55:30.552Z</time>
      </trkpt>
      <trkpt lat="43.71337" lon="6.96994">
        <ele>756</ele>
        <time>2018-01-02T10:55:32.552Z</time>
      </trkpt>
      <trkpt lat="43.71335" lon="6.9699">
        <ele>756</ele>
        <time>2018-01-02T10:55:34.552Z</time>
      </trkpt>
      <trkpt lat="43.71332" lon="6.96987">
        <ele>753</ele>
        <time>2018-01-02T10:55:36.552Z</time>
      </trkpt>
      <trkpt lat="43.71326" lon="6.96981">
        <ele>753</ele>
        <time>2018-01-02T10:55:40.552Z</time>
      </trkpt>
      <trkpt lat="43.71322" lon="6.96975">
        <ele>753</ele>
        <time>2018-01-02T10:55:43.552Z</time>
      </trkpt>
      <trkpt lat="43.7132" lon="6.96972">
        <ele>753</ele>
        <time>2018-01-02T10:55:45.552Z</time>
      </trkpt>
      <trkpt lat="43.71317" lon="6.96968">
        <ele>753</ele>
        <time>2018-01-02T10:55:47.552Z</time>
      </trkpt>
      <trkpt lat="43.71315" lon="6.96964">
        <ele>753</ele>
        <time>2018-01-02T10:55:49.552Z</time>
      </trkpt>
      <trkpt lat="43.71313" lon="6.9696">
        <ele>753</ele>
        <time>2018-01-02T10:55:51.552Z</time>
      </trkpt>
      <trkpt lat="43.71311" lon="6.96955">
        <ele>753</ele>
        <time>2018-01-02T10:55:53.552Z</time>
      </trkpt>
      <trkpt lat="43.71309" lon="6.9695">
        <ele>754</ele>
        <time>2018-01-02T10:55:55.552Z</time>
      </trkpt>
      <trkpt lat="43.71308" lon="6.96944">
        <ele>754</ele>
        <time>2018-01-02T10:55:57.552Z</time>
      </trkpt>
      <trkpt lat="43.71307" lon="6.96939">
        <ele>754</ele>
        <time>2018-01-02T10:55:59.552Z</time>
      </trkpt>
      <trkpt lat="43.71306" lon="6.96934">
        <ele>754</ele>
        <time>2018-01-02T10:56:01.552Z</time>
      </trkpt>
      <trkpt lat="43.71304" lon="6.96929">
        <ele>755</ele>
        <time>2018-01-02T10:56:03.552Z</time>
      </trkpt>
      <trkpt lat="43.71303" lon="6.96924">
        <ele>755</ele>
        <time>2018-01-02T10:56:05.552Z</time>
      </trkpt>
      <trkpt lat="43.71301" lon="6.96918">
        <ele>755</ele>
        <time>2018-01-02T10:56:07.552Z</time>
      </trkpt>
      <trkpt lat="43.713" lon="6.96913">
        <ele>759</ele>
        <time>2018-01-02T10:56:09.552Z</time>
      </trkpt>
      <trkpt lat="43.71299" lon="6.96908">
        <ele>759</ele>
        <time>2018-01-02T10:56:11.552Z</time>
      </trkpt>
      <trkpt lat="43.71298" lon="6.96904">
        <ele>759</ele>
        <time>2018-01-02T10:56:13.552Z</time>
      </trkpt>
      <trkpt lat="43.71297" lon="6.96898">
        <ele>760</ele>
        <time>2018-01-02T10:56:15.552Z</time>
      </trkpt>
      <trkpt lat="43.71296" lon="6.96893">
        <ele>760</ele>
        <time>2018-01-02T10:56:17.552Z</time>
      </trkpt>
      <trkpt lat="43.71295" lon="6.96887">
        <ele>760</ele>
        <time>2018-01-02T10:56:19.552Z</time>
      </trkpt>
      <trkpt lat="43.71295" lon="6.96882">
        <ele>760</ele>
        <time>2018-01-02T10:56:21.552Z</time>
      </trkpt>
      <trkpt lat="43.71294" lon="6.96877">
        <ele>760</ele>
        <time>2018-01-02T10:56:23.552Z</time>
      </trkpt>
      <trkpt lat="43.71293" lon="6.96871">
        <ele>760</ele>
        <time>2018-01-02T10:56:25.552Z</time>
      </trkpt>
      <trkpt lat="43.71292" lon="6.96866">
        <ele>760</ele>
        <time>2018-01-02T10:56:27.552Z</time>
      </trkpt>
      <trkpt lat="43.7129" lon="6.96861">
        <ele>760</ele>
        <time>2018-01-02T10:56:29.552Z</time>
      </trkpt>
      <trkpt lat="43.71289" lon="6.96856">
        <ele>761</ele>
        <time>2018-01-02T10:56:31.552Z</time>
      </trkpt>
      <trkpt lat="43.71287" lon="6.96851">
        <ele>761</ele>
        <time>2018-01-02T10:56:33.552Z</time>
      </trkpt>
      <trkpt lat="43.71286" lon="6.96846">
        <ele>761</ele>
        <time>2018-01-02T10:56:35.552Z</time>
      </trkpt>
      <trkpt lat="43.71284" lon="6.96841">
        <ele>761</ele>
        <time>2018-01-02T10:56:37.552Z</time>
      </trkpt>
      <trkpt lat="43.71283" lon="6.96836">
        <ele>761</ele>
        <time>2018-01-02T10:56:39.552Z</time>
      </trkpt>
      <trkpt lat="43.71281" lon="6.9683">
        <ele>764</ele>
        <time>2018-01-02T10:56:41.552Z</time>
      </trkpt>
      <trkpt lat="43.7128" lon="6.96825">
        <ele>764</ele>
        <time>2018-01-02T10:56:43.552Z</time>
      </trkpt>
      <trkpt lat="43.71278" lon="6.96819">
        <ele>765</ele>
        <time>2018-01-02T10:56:45.552Z</time>
      </trkpt>
      <trkpt lat="43.71276" lon="6.96814">
        <ele>765</ele>
        <time>2018-01-02T10:56:47.552Z</time>
      </trkpt>
      <trkpt lat="43.71275" lon="6.96808">
        <ele>765</ele>
        <time>2018-01-02T10:56:49.552Z</time>
      </trkpt>
      <trkpt lat="43.71273" lon="6.96803">
        <ele>765</ele>
        <time>2018-01-02T10:56:51.552Z</time>
      </trkpt>
      <trkpt lat="43.71277" lon="6.96807">
        <ele>765</ele>
        <time>2018-01-02T10:57:01.552Z</time>
      </trkpt>
      <trkpt lat="43.71281" lon="6.96803">
        <ele>765</ele>
        <time>2018-01-02T10:57:06.552Z</time>
      </trkpt>
      <trkpt lat="43.71285" lon="6.96798">
        <ele>766</ele>
        <time>2018-01-02T10:57:09.552Z</time>
      </trkpt>
      <trkpt lat="43.71288" lon="6.96793">
        <ele>766</ele>
        <time>2018-01-02T10:57:12.552Z</time>
      </trkpt>
      <trkpt lat="43.71291" lon="6.9679">
        <ele>767</ele>
        <time>2018-01-02T10:57:15.552Z</time>
      </trkpt>
      <trkpt lat="43.71295" lon="6.96785">
        <ele>767</ele>
        <time>2018-01-02T10:57:18.552Z</time>
      </trkpt>
      <trkpt lat="43.71298" lon="6.96782">
        <ele>767</ele>
        <time>2018-01-02T10:57:20.552Z</time>
      </trkpt>
      <trkpt lat="43.71301" lon="6.96779">
        <ele>768</ele>
        <time>2018-01-02T10:57:22.552Z</time>
      </trkpt>
      <trkpt lat="43.71304" lon="6.96775">
        <ele>768</ele>
        <time>2018-01-02T10:57:24.552Z</time>
      </trkpt>
      <trkpt lat="43.71307" lon="6.96771">
        <ele>768</ele>
        <time>2018-01-02T10:57:26.552Z</time>
      </trkpt>
      <trkpt lat="43.71309" lon="6.96768">
        <ele>769</ele>
        <time>2018-01-02T10:57:28.552Z</time>
      </trkpt>
      <trkpt lat="43.71312" lon="6.96763">
        <ele>769</ele>
        <time>2018-01-02T10:57:31.552Z</time>
      </trkpt>
      <trkpt lat="43.71316" lon="6.96757">
        <ele>770</ele>
        <time>2018-01-02T10:57:34.552Z</time>
      </trkpt>
      <trkpt lat="43.7132" lon="6.96753">
        <ele>771</ele>
        <time>2018-01-02T10:57:37.552Z</time>
      </trkpt>
      <trkpt lat="43.71324" lon="6.96751">
        <ele>772</ele>
        <time>2018-01-02T10:57:39.552Z</time>
      </trkpt>
      <trkpt lat="43.71327" lon="6.96747">
        <ele>773</ele>
        <time>2018-01-02T10:57:42.552Z</time>
      </trkpt>
      <trkpt lat="43.71331" lon="6.96742">
        <ele>773</ele>
        <time>2018-01-02T10:57:45.552Z</time>
      </trkpt>
      <trkpt lat="43.71335" lon="6.96738">
        <ele>776</ele>
        <time>2018-01-02T10:57:48.552Z</time>
      </trkpt>
      <trkpt lat="43.71338" lon="6.96732">
        <ele>776</ele>
        <time>2018-01-02T10:57:51.552Z</time>
      </trkpt>
      <trkpt lat="43.71342" lon="6.96728">
        <ele>777</ele>
        <time>2018-01-02T10:57:54.552Z</time>
      </trkpt>
      <trkpt lat="43.71345" lon="6.96724">
        <ele>777</ele>
        <time>2018-01-02T10:57:57.552Z</time>
      </trkpt>
      <trkpt lat="43.71348" lon="6.9672">
        <ele>777</ele>
        <time>2018-01-02T10:58:00.552Z</time>
      </trkpt>
      <trkpt lat="43.71351" lon="6.96718">
        <ele>778</ele>
        <time>2018-01-02T10:58:03.552Z</time>
      </trkpt>
      <trkpt lat="43.71355" lon="6.96721">
        <ele>778</ele>
        <time>2018-01-02T10:58:07.552Z</time>
      </trkpt>
      <trkpt lat="43.71359" lon="6.96723">
        <ele>778</ele>
        <time>2018-01-02T10:58:11.552Z</time>
      </trkpt>
      <trkpt lat="43.71363" lon="6.96725">
        <ele>778</ele>
        <time>2018-01-02T10:58:15.552Z</time>
      </trkpt>
      <trkpt lat="43.71368" lon="6.96724">
        <ele>778</ele>
        <time>2018-01-02T10:58:19.552Z</time>
      </trkpt>
      <trkpt lat="43.71372" lon="6.96723">
        <ele>778</ele>
        <time>2018-01-02T10:58:22.552Z</time>
      </trkpt>
      <trkpt lat="43.71376" lon="6.9672">
        <ele>779</ele>
        <time>2018-01-02T10:58:26.552Z</time>
      </trkpt>
      <trkpt lat="43.71379" lon="6.96718">
        <ele>779</ele>
        <time>2018-01-02T10:58:29.552Z</time>
      </trkpt>
      <trkpt lat="43.71382" lon="6.96717">
        <ele>779</ele>
        <time>2018-01-02T10:58:32.552Z</time>
      </trkpt>
      <trkpt lat="43.71385" lon="6.96715">
        <ele>779</ele>
        <time>2018-01-02T10:58:35.552Z</time>
      </trkpt>
      <trkpt lat="43.71389" lon="6.96715">
        <ele>779</ele>
        <time>2018-01-02T10:58:38.552Z</time>
      </trkpt>
      <trkpt lat="43.71393" lon="6.96714">
        <ele>779</ele>
        <time>2018-01-02T10:58:41.552Z</time>
      </trkpt>
      <trkpt lat="43.71396" lon="6.96713">
        <ele>780</ele>
        <time>2018-01-02T10:58:44.552Z</time>
      </trkpt>
      <trkpt lat="43.714" lon="6.96712">
        <ele>780</ele>
        <time>2018-01-02T10:58:47.552Z</time>
      </trkpt>
      <trkpt lat="43.71404" lon="6.9671">
        <ele>780</ele>
        <time>2018-01-02T10:58:50.552Z</time>
      </trkpt>
      <trkpt lat="43.71407" lon="6.96708">
        <ele>780</ele>
        <time>2018-01-02T10:58:53.552Z</time>
      </trkpt>
      <trkpt lat="43.7141" lon="6.96707">
        <ele>780</ele>
        <time>2018-01-02T10:58:56.552Z</time>
      </trkpt>
      <trkpt lat="43.71414" lon="6.96705">
        <ele>780</ele>
        <time>2018-01-02T10:58:59.552Z</time>
      </trkpt>
      <trkpt lat="43.71417" lon="6.96703">
        <ele>780</ele>
        <time>2018-01-02T10:59:02.552Z</time>
      </trkpt>
      <trkpt lat="43.7142" lon="6.96702">
        <ele>784</ele>
        <time>2018-01-02T10:59:05.552Z</time>
      </trkpt>
      <trkpt lat="43.71423" lon="6.96699">
        <ele>784</ele>
        <time>2018-01-02T10:59:08.552Z</time>
      </trkpt>
      <trkpt lat="43.71425" lon="6.96697">
        <ele>784</ele>
        <time>2018-01-02T10:59:10.552Z</time>
      </trkpt>
      <trkpt lat="43.71429" lon="6.96696">
        <ele>784</ele>
        <time>2018-01-02T10:59:13.552Z</time>
      </trkpt>
      <trkpt lat="43.71433" lon="6.96696">
        <ele>785</ele>
        <time>2018-01-02T10:59:16.552Z</time>
      </trkpt>
      <trkpt lat="43.71436" lon="6.96696">
        <ele>785</ele>
        <time>2018-01-02T10:59:18.552Z</time>
      </trkpt>
      <trkpt lat="43.7144" lon="6.96698">
        <ele>785</ele>
        <time>2018-01-02T10:59:21.552Z</time>
      </trkpt>
      <trkpt lat="43.71444" lon="6.96701">
        <ele>785</ele>
        <time>2018-01-02T10:59:24.552Z</time>
      </trkpt>
      <trkpt lat="43.71447" lon="6.96704">
        <ele>785</ele>
        <time>2018-01-02T10:59:27.552Z</time>
      </trkpt>
      <trkpt lat="43.71451" lon="6.96707">
        <ele>785</ele>
        <time>2018-01-02T10:59:30.552Z</time>
      </trkpt>
      <trkpt lat="43.71454" lon="6.96712">
        <ele>785</ele>
        <time>2018-01-02T10:59:33.552Z</time>
      </trkpt>
      <trkpt lat="43.71457" lon="6.96716">
        <ele>785</ele>
        <time>2018-01-02T10:59:36.552Z</time>
      </trkpt>
      <trkpt lat="43.71461" lon="6.96722">
        <ele>785</ele>
        <time>2018-01-02T10:59:39.552Z</time>
      </trkpt>
      <trkpt lat="43.71465" lon="6.96728">
        <ele>785</ele>
        <time>2018-01-02T10:59:42.552Z</time>
      </trkpt>
      <trkpt lat="43.7147" lon="6.96737">
        <ele>785</ele>
        <time>2018-01-02T10:59:47.552Z</time>
      </trkpt>
      <trkpt lat="43.71477" lon="6.96744">
        <ele>785</ele>
        <time>2018-01-02T10:59:52.552Z</time>
      </trkpt>
      <trkpt lat="43.71481" lon="6.96746">
        <ele>785</ele>
        <time>2018-01-02T10:59:55.552Z</time>
      </trkpt>
      <trkpt lat="43.71485" lon="6.96747">
        <ele>785</ele>
        <time>2018-01-02T10:59:58.552Z</time>
      </trkpt>
      <trkpt lat="43.7149" lon="6.96749">
        <ele>786</ele>
        <time>2018-01-02T11:00:01.552Z</time>
      </trkpt>
      <trkpt lat="43.71494" lon="6.96751">
        <ele>785</ele>
        <time>2018-01-02T11:00:04.552Z</time>
      </trkpt>
      <trkpt lat="43.71498" lon="6.96754">
        <ele>785</ele>
        <time>2018-01-02T11:00:07.552Z</time>
      </trkpt>
      <trkpt lat="43.71503" lon="6.96756">
        <ele>785</ele>
        <time>2018-01-02T11:00:10.552Z</time>
      </trkpt>
      <trkpt lat="43.71508" lon="6.96758">
        <ele>784</ele>
        <time>2018-01-02T11:00:13.552Z</time>
      </trkpt>
      <trkpt lat="43.71514" lon="6.96758">
        <ele>784</ele>
        <time>2018-01-02T11:00:16.552Z</time>
      </trkpt>
      <trkpt lat="43.71521" lon="6.96757">
        <ele>783</ele>
        <time>2018-01-02T11:00:19.552Z</time>
      </trkpt>
      <trkpt lat="43.71527" lon="6.96757">
        <ele>783</ele>
        <time>2018-01-02T11:00:21.552Z</time>
      </trkpt>
      <trkpt lat="43.71533" lon="6.96755">
        <ele>782</ele>
        <time>2018-01-02T11:00:23.552Z</time>
      </trkpt>
      <trkpt lat="43.71539" lon="6.96752">
        <ele>782</ele>
        <time>2018-01-02T11:00:25.552Z</time>
      </trkpt>
      <trkpt lat="43.71543" lon="6.9675">
        <ele>782</ele>
        <time>2018-01-02T11:00:26.552Z</time>
      </trkpt>
      <trkpt lat="43.71549" lon="6.96748">
        <ele>782</ele>
        <time>2018-01-02T11:00:28.552Z</time>
      </trkpt>
      <trkpt lat="43.71555" lon="6.96743">
        <ele>782</ele>
        <time>2018-01-02T11:00:30.552Z</time>
      </trkpt>
      <trkpt lat="43.71558" lon="6.9674">
        <ele>781</ele>
        <time>2018-01-02T11:00:31.552Z</time>
      </trkpt>
      <trkpt lat="43.71562" lon="6.96737">
        <ele>781</ele>
        <time>2018-01-02T11:00:32.552Z</time>
      </trkpt>
      <trkpt lat="43.71565" lon="6.96732">
        <ele>781</ele>
        <time>2018-01-02T11:00:33.552Z</time>
      </trkpt>
      <trkpt lat="43.71569" lon="6.96727">
        <ele>781</ele>
        <time>2018-01-02T11:00:34.552Z</time>
      </trkpt>
      <trkpt lat="43.71572" lon="6.96721">
        <ele>781</ele>
        <time>2018-01-02T11:00:35.552Z</time>
      </trkpt>
      <trkpt lat="43.71575" lon="6.96714">
        <ele>781</ele>
        <time>2018-01-02T11:00:36.552Z</time>
      </trkpt>
      <trkpt lat="43.71578" lon="6.96707">
        <ele>781</ele>
        <time>2018-01-02T11:00:37.552Z</time>
      </trkpt>
      <trkpt lat="43.71581" lon="6.96699">
        <ele>781</ele>
        <time>2018-01-02T11:00:38.552Z</time>
      </trkpt>
      <trkpt lat="43.71585" lon="6.9669">
        <ele>777</ele>
        <time>2018-01-02T11:00:39.552Z</time>
      </trkpt>
      <trkpt lat="43.71588" lon="6.96682">
        <ele>778</ele>
        <time>2018-01-02T11:00:40.552Z</time>
      </trkpt>
      <trkpt lat="43.71591" lon="6.96673">
        <ele>778</ele>
        <time>2018-01-02T11:00:41.552Z</time>
      </trkpt>
      <trkpt lat="43.71594" lon="6.96664">
        <ele>779</ele>
        <time>2018-01-02T11:00:42.552Z</time>
      </trkpt>
      <trkpt lat="43.71598" lon="6.96656">
        <ele>779</ele>
        <time>2018-01-02T11:00:43.552Z</time>
      </trkpt>
      <trkpt lat="43.71602" lon="6.96647">
        <ele>779</ele>
        <time>2018-01-02T11:00:44.552Z</time>
      </trkpt>
      <trkpt lat="43.71605" lon="6.96639">
        <ele>779</ele>
        <time>2018-01-02T11:00:45.552Z</time>
      </trkpt>
      <trkpt lat="43.71613" lon="6.96623">
        <ele>779</ele>
        <time>2018-01-02T11:00:47.552Z</time>
      </trkpt>
      <trkpt lat="43.7162" lon="6.96607">
        <ele>780</ele>
        <time>2018-01-02T11:00:49.552Z</time>
      </trkpt>
      <trkpt lat="43.71627" lon="6.96593">
        <ele>779</ele>
        <time>2018-01-02T11:00:51.552Z</time>
      </trkpt>
      <trkpt lat="43.71633" lon="6.9658">
        <ele>782</ele>
        <time>2018-01-02T11:00:53.552Z</time>
      </trkpt>
      <trkpt lat="43.71639" lon="6.96569">
        <ele>782</ele>
        <time>2018-01-02T11:00:55.552Z</time>
      </trkpt>
      <trkpt lat="43.71645" lon="6.96559">
        <ele>782</ele>
        <time>2018-01-02T11:00:57.552Z</time>
      </trkpt>
      <trkpt lat="43.71651" lon="6.96552">
        <ele>782</ele>
        <time>2018-01-02T11:00:59.552Z</time>
      </trkpt>
      <trkpt lat="43.71657" lon="6.96546">
        <ele>782</ele>
        <time>2018-01-02T11:01:01.552Z</time>
      </trkpt>
      <trkpt lat="43.71663" lon="6.96541">
        <ele>782</ele>
        <time>2018-01-02T11:01:03.552Z</time>
      </trkpt>
      <trkpt lat="43.71669" lon="6.96537">
        <ele>777</ele>
        <time>2018-01-02T11:01:05.552Z</time>
      </trkpt>
      <trkpt lat="43.7168" lon="6.96533">
        <ele>777</ele>
        <time>2018-01-02T11:01:09.552Z</time>
      </trkpt>
      <trkpt lat="43.71687" lon="6.96528">
        <ele>777</ele>
        <time>2018-01-02T11:01:12.552Z</time>
      </trkpt>
      <trkpt lat="43.71693" lon="6.9652">
        <ele>777</ele>
        <time>2018-01-02T11:01:15.552Z</time>
      </trkpt>
      <trkpt lat="43.71697" lon="6.96513">
        <ele>777</ele>
        <time>2018-01-02T11:01:17.552Z</time>
      </trkpt>
      <trkpt lat="43.71701" lon="6.96507">
        <ele>776</ele>
        <time>2018-01-02T11:01:19.552Z</time>
      </trkpt>
      <trkpt lat="43.71705" lon="6.96499">
        <ele>779</ele>
        <time>2018-01-02T11:01:21.552Z</time>
      </trkpt>
      <trkpt lat="43.71708" lon="6.9649">
        <ele>779</ele>
        <time>2018-01-02T11:01:23.552Z</time>
      </trkpt>
      <trkpt lat="43.71711" lon="6.96481">
        <ele>779</ele>
        <time>2018-01-02T11:01:25.552Z</time>
      </trkpt>
      <trkpt lat="43.71714" lon="6.96473">
        <ele>779</ele>
        <time>2018-01-02T11:01:27.552Z</time>
      </trkpt>
      <trkpt lat="43.71722" lon="6.96462">
        <ele>779</ele>
        <time>2018-01-02T11:01:30.552Z</time>
      </trkpt>
      <trkpt lat="43.71727" lon="6.96457">
        <ele>779</ele>
        <time>2018-01-02T11:01:32.552Z</time>
      </trkpt>
      <trkpt lat="43.71733" lon="6.96452">
        <ele>778</ele>
        <time>2018-01-02T11:01:34.552Z</time>
      </trkpt>
      <trkpt lat="43.7174" lon="6.96446">
        <ele>778</ele>
        <time>2018-01-02T11:01:36.552Z</time>
      </trkpt>
      <trkpt lat="43.71746" lon="6.9644">
        <ele>777</ele>
        <time>2018-01-02T11:01:38.552Z</time>
      </trkpt>
      <trkpt lat="43.71757" lon="6.9643">
        <ele>770</ele>
        <time>2018-01-02T11:01:41.552Z</time>
      </trkpt>
      <trkpt lat="43.71763" lon="6.96422">
        <ele>770</ele>
        <time>2018-01-02T11:01:43.552Z</time>
      </trkpt>
      <trkpt lat="43.7177" lon="6.96412">
        <ele>769</ele>
        <time>2018-01-02T11:01:45.552Z</time>
      </trkpt>
      <trkpt lat="43.71776" lon="6.964">
        <ele>767</ele>
        <time>2018-01-02T11:01:47.552Z</time>
      </trkpt>
      <trkpt lat="43.71782" lon="6.96386">
        <ele>766</ele>
        <time>2018-01-02T11:01:49.552Z</time>
      </trkpt>
      <trkpt lat="43.71785" lon="6.96378">
        <ele>766</ele>
        <time>2018-01-02T11:01:50.552Z</time>
      </trkpt>
      <trkpt lat="43.71787" lon="6.96369">
        <ele>766</ele>
        <time>2018-01-02T11:01:51.552Z</time>
      </trkpt>
      <trkpt lat="43.71789" lon="6.9636">
        <ele>766</ele>
        <time>2018-01-02T11:01:52.552Z</time>
      </trkpt>
      <trkpt lat="43.71791" lon="6.9635">
        <ele>766</ele>
        <time>2018-01-02T11:01:53.552Z</time>
      </trkpt>
      <trkpt lat="43.71794" lon="6.96341">
        <ele>765</ele>
        <time>2018-01-02T11:01:54.552Z</time>
      </trkpt>
      <trkpt lat="43.71796" lon="6.96331">
        <ele>767</ele>
        <time>2018-01-02T11:01:55.552Z</time>
      </trkpt>
      <trkpt lat="43.71797" lon="6.96322">
        <ele>767</ele>
        <time>2018-01-02T11:01:56.552Z</time>
      </trkpt>
      <trkpt lat="43.71799" lon="6.96313">
        <ele>767</ele>
        <time>2018-01-02T11:01:57.552Z</time>
      </trkpt>
      <trkpt lat="43.71801" lon="6.96303">
        <ele>767</ele>
        <time>2018-01-02T11:01:58.552Z</time>
      </trkpt>
      <trkpt lat="43.71802" lon="6.96294">
        <ele>767</ele>
        <time>2018-01-02T11:01:59.552Z</time>
      </trkpt>
      <trkpt lat="43.71804" lon="6.96285">
        <ele>767</ele>
        <time>2018-01-02T11:02:00.552Z</time>
      </trkpt>
      <trkpt lat="43.71805" lon="6.96276">
        <ele>767</ele>
        <time>2018-01-02T11:02:01.552Z</time>
      </trkpt>
      <trkpt lat="43.71807" lon="6.96268">
        <ele>767</ele>
        <time>2018-01-02T11:02:02.552Z</time>
      </trkpt>
      <trkpt lat="43.71811" lon="6.96253">
        <ele>766</ele>
        <time>2018-01-02T11:02:04.552Z</time>
      </trkpt>
      <trkpt lat="43.71817" lon="6.96241">
        <ele>770</ele>
        <time>2018-01-02T11:02:06.552Z</time>
      </trkpt>
      <trkpt lat="43.71827" lon="6.96234">
        <ele>770</ele>
        <time>2018-01-02T11:02:09.552Z</time>
      </trkpt>
      <trkpt lat="43.71836" lon="6.96227">
        <ele>766</ele>
        <time>2018-01-02T11:02:12.552Z</time>
      </trkpt>
      <trkpt lat="43.71843" lon="6.96215">
        <ele>767</ele>
        <time>2018-01-02T11:02:15.552Z</time>
      </trkpt>
      <trkpt lat="43.71848" lon="6.96205">
        <ele>768</ele>
        <time>2018-01-02T11:02:17.552Z</time>
      </trkpt>
      <trkpt lat="43.71853" lon="6.96197">
        <ele>769</ele>
        <time>2018-01-02T11:02:19.552Z</time>
      </trkpt>
      <trkpt lat="43.71859" lon="6.96192">
        <ele>769</ele>
        <time>2018-01-02T11:02:21.552Z</time>
      </trkpt>
      <trkpt lat="43.71871" lon="6.96189">
        <ele>768</ele>
        <time>2018-01-02T11:02:24.552Z</time>
      </trkpt>
      <trkpt lat="43.71884" lon="6.96187">
        <ele>768</ele>
        <time>2018-01-02T11:02:27.552Z</time>
      </trkpt>
      <trkpt lat="43.71898" lon="6.96185">
        <ele>768</ele>
        <time>2018-01-02T11:02:30.552Z</time>
      </trkpt>
      <trkpt lat="43.71912" lon="6.96181">
        <ele>768</ele>
        <time>2018-01-02T11:02:33.552Z</time>
      </trkpt>
      <trkpt lat="43.71921" lon="6.96178">
        <ele>768</ele>
        <time>2018-01-02T11:02:35.552Z</time>
      </trkpt>
      <trkpt lat="43.7193" lon="6.96176">
        <ele>768</ele>
        <time>2018-01-02T11:02:37.552Z</time>
      </trkpt>
      <trkpt lat="43.71943" lon="6.96173">
        <ele>767</ele>
        <time>2018-01-02T11:02:40.552Z</time>
      </trkpt>
      <trkpt lat="43.7195" lon="6.96173">
        <ele>767</ele>
        <time>2018-01-02T11:02:42.552Z</time>
      </trkpt>
      <trkpt lat="43.71961" lon="6.96175">
        <ele>767</ele>
        <time>2018-01-02T11:02:45.552Z</time>
      </trkpt>
      <trkpt lat="43.7197" lon="6.96182">
        <ele>768</ele>
        <time>2018-01-02T11:02:49.552Z</time>
      </trkpt>
      <trkpt lat="43.71976" lon="6.96189">
        <ele>767</ele>
        <time>2018-01-02T11:02:52.552Z</time>
      </trkpt>
      <trkpt lat="43.71986" lon="6.96196">
        <ele>767</ele>
        <time>2018-01-02T11:02:57.552Z</time>
      </trkpt>
      <trkpt lat="43.71998" lon="6.96201">
        <ele>767</ele>
        <time>2018-01-02T11:03:02.552Z</time>
      </trkpt>
      <trkpt lat="43.72006" lon="6.96208">
        <ele>771</ele>
        <time>2018-01-02T11:03:07.552Z</time>
      </trkpt>
      <trkpt lat="43.72009" lon="6.96222">
        <ele>769</ele>
        <time>2018-01-02T11:03:11.552Z</time>
      </trkpt>
      <trkpt lat="43.72011" lon="6.96234">
        <ele>767</ele>
        <time>2018-01-02T11:03:14.552Z</time>
      </trkpt>
      <trkpt lat="43.7201" lon="6.96247">
        <ele>764</ele>
        <time>2018-01-02T11:03:17.552Z</time>
      </trkpt>
      <trkpt lat="43.72011" lon="6.96257">
        <ele>760</ele>
        <time>2018-01-02T11:03:19.552Z</time>
      </trkpt>
      <trkpt lat="43.72014" lon="6.96268">
        <ele>760</ele>
        <time>2018-01-02T11:03:21.552Z</time>
      </trkpt>
      <trkpt lat="43.72018" lon="6.9628">
        <ele>760</ele>
        <time>2018-01-02T11:03:23.552Z</time>
      </trkpt>
      <trkpt lat="43.72023" lon="6.96294">
        <ele>759</ele>
        <time>2018-01-02T11:03:25.552Z</time>
      </trkpt>
      <trkpt lat="43.72027" lon="6.96311">
        <ele>758</ele>
        <time>2018-01-02T11:03:27.552Z</time>
      </trkpt>
      <trkpt lat="43.72029" lon="6.96329">
        <ele>757</ele>
        <time>2018-01-02T11:03:29.552Z</time>
      </trkpt>
      <trkpt lat="43.7203" lon="6.96349">
        <ele>751</ele>
        <time>2018-01-02T11:03:31.552Z</time>
      </trkpt>
      <trkpt lat="43.72034" lon="6.96369">
        <ele>751</ele>
        <time>2018-01-02T11:03:33.552Z</time>
      </trkpt>
      <trkpt lat="43.72039" lon="6.96388">
        <ele>751</ele>
        <time>2018-01-02T11:03:35.552Z</time>
      </trkpt>
      <trkpt lat="43.72042" lon="6.96397">
        <ele>751</ele>
        <time>2018-01-02T11:03:36.552Z</time>
      </trkpt>
      <trkpt lat="43.72045" lon="6.96406">
        <ele>751</ele>
        <time>2018-01-02T11:03:37.552Z</time>
      </trkpt>
      <trkpt lat="43.72051" lon="6.96422">
        <ele>749</ele>
        <time>2018-01-02T11:03:39.552Z</time>
      </trkpt>
      <trkpt lat="43.72053" lon="6.96436">
        <ele>749</ele>
        <time>2018-01-02T11:03:41.552Z</time>
      </trkpt>
      <trkpt lat="43.72055" lon="6.96449">
        <ele>749</ele>
        <time>2018-01-02T11:03:43.552Z</time>
      </trkpt>
      <trkpt lat="43.72055" lon="6.96459">
        <ele>748</ele>
        <time>2018-01-02T11:03:45.552Z</time>
      </trkpt>
      <trkpt lat="43.72056" lon="6.96469">
        <ele>748</ele>
        <time>2018-01-02T11:03:47.552Z</time>
      </trkpt>
      <trkpt lat="43.72056" lon="6.96479">
        <ele>748</ele>
        <time>2018-01-02T11:03:49.552Z</time>
      </trkpt>
      <trkpt lat="43.72057" lon="6.9649">
        <ele>749</ele>
        <time>2018-01-02T11:03:51.552Z</time>
      </trkpt>
      <trkpt lat="43.72058" lon="6.96504">
        <ele>748</ele>
        <time>2018-01-02T11:03:54.552Z</time>
      </trkpt>
      <trkpt lat="43.72059" lon="6.96513">
        <ele>748</ele>
        <time>2018-01-02T11:03:56.552Z</time>
      </trkpt>
      <trkpt lat="43.7206" lon="6.96524">
        <ele>747</ele>
        <time>2018-01-02T11:03:59.552Z</time>
      </trkpt>
      <trkpt lat="43.72062" lon="6.96535">
        <ele>747</ele>
        <time>2018-01-02T11:04:02.552Z</time>
      </trkpt>
      <trkpt lat="43.72065" lon="6.96544">
        <ele>747</ele>
        <time>2018-01-02T11:04:05.552Z</time>
      </trkpt>
      <trkpt lat="43.72069" lon="6.96551">
        <ele>748</ele>
        <time>2018-01-02T11:04:08.552Z</time>
      </trkpt>
      <trkpt lat="43.72075" lon="6.96556">
        <ele>749</ele>
        <time>2018-01-02T11:04:11.552Z</time>
      </trkpt>
      <trkpt lat="43.72081" lon="6.96558">
        <ele>749</ele>
        <time>2018-01-02T11:04:14.552Z</time>
      </trkpt>
      <trkpt lat="43.72089" lon="6.96556">
        <ele>757</ele>
        <time>2018-01-02T11:04:18.552Z</time>
      </trkpt>
      <trkpt lat="43.72099" lon="6.96552">
        <ele>757</ele>
        <time>2018-01-02T11:04:22.552Z</time>
      </trkpt>
      <trkpt lat="43.72107" lon="6.9655">
        <ele>757</ele>
        <time>2018-01-02T11:04:25.552Z</time>
      </trkpt>
      <trkpt lat="43.72115" lon="6.96548">
        <ele>757</ele>
        <time>2018-01-02T11:04:28.552Z</time>
      </trkpt>
      <trkpt lat="43.72123" lon="6.96545">
        <ele>757</ele>
        <time>2018-01-02T11:04:31.552Z</time>
      </trkpt>
      <trkpt lat="43.72131" lon="6.9654">
        <ele>757</ele>
        <time>2018-01-02T11:04:34.552Z</time>
      </trkpt>
      <trkpt lat="43.7214" lon="6.96533">
        <ele>757</ele>
        <time>2018-01-02T11:04:37.552Z</time>
      </trkpt>
      <trkpt lat="43.72145" lon="6.96528">
        <ele>758</ele>
        <time>2018-01-02T11:04:39.552Z</time>
      </trkpt>
      <trkpt lat="43.72151" lon="6.96523">
        <ele>758</ele>
        <time>2018-01-02T11:04:41.552Z</time>
      </trkpt>
      <trkpt lat="43.72158" lon="6.96517">
        <ele>758</ele>
        <time>2018-01-02T11:04:43.552Z</time>
      </trkpt>
      <trkpt lat="43.72165" lon="6.9651">
        <ele>759</ele>
        <time>2018-01-02T11:04:45.552Z</time>
      </trkpt>
      <trkpt lat="43.72169" lon="6.96507">
        <ele>760</ele>
        <time>2018-01-02T11:04:46.552Z</time>
      </trkpt>
      <trkpt lat="43.72173" lon="6.96504">
        <ele>760</ele>
        <time>2018-01-02T11:04:47.552Z</time>
      </trkpt>
      <trkpt lat="43.72177" lon="6.96501">
        <ele>760</ele>
        <time>2018-01-02T11:04:48.552Z</time>
      </trkpt>
      <trkpt lat="43.72185" lon="6.96496">
        <ele>762</ele>
        <time>2018-01-02T11:04:50.552Z</time>
      </trkpt>
      <trkpt lat="43.72192" lon="6.96494">
        <ele>762</ele>
        <time>2018-01-02T11:04:52.552Z</time>
      </trkpt>
      <trkpt lat="43.72204" lon="6.96495">
        <ele>762</ele>
        <time>2018-01-02T11:04:56.552Z</time>
      </trkpt>
      <trkpt lat="43.7221" lon="6.96497">
        <ele>762</ele>
        <time>2018-01-02T11:05:02.552Z</time>
      </trkpt>
      <trkpt lat="43.72211" lon="6.96507">
        <ele>761</ele>
        <time>2018-01-02T11:05:15.552Z</time>
      </trkpt>
      <trkpt lat="43.72214" lon="6.96516">
        <ele>761</ele>
        <time>2018-01-02T11:05:18.552Z</time>
      </trkpt>
      <trkpt lat="43.72216" lon="6.96524">
        <ele>761</ele>
        <time>2018-01-02T11:05:20.552Z</time>
      </trkpt>
      <trkpt lat="43.72218" lon="6.96531">
        <ele>761</ele>
        <time>2018-01-02T11:05:22.552Z</time>
      </trkpt>
      <trkpt lat="43.7222" lon="6.96538">
        <ele>761</ele>
        <time>2018-01-02T11:05:24.552Z</time>
      </trkpt>
      <trkpt lat="43.72222" lon="6.96544">
        <ele>761</ele>
        <time>2018-01-02T11:05:26.552Z</time>
      </trkpt>
      <trkpt lat="43.72224" lon="6.96552">
        <ele>761</ele>
        <time>2018-01-02T11:05:28.552Z</time>
      </trkpt>
      <trkpt lat="43.72226" lon="6.96559">
        <ele>761</ele>
        <time>2018-01-02T11:05:30.552Z</time>
      </trkpt>
      <trkpt lat="43.72228" lon="6.96566">
        <ele>761</ele>
        <time>2018-01-02T11:05:32.552Z</time>
      </trkpt>
      <trkpt lat="43.72229" lon="6.96574">
        <ele>761</ele>
        <time>2018-01-02T11:05:34.552Z</time>
      </trkpt>
      <trkpt lat="43.72232" lon="6.9658">
        <ele>761</ele>
        <time>2018-01-02T11:05:36.552Z</time>
      </trkpt>
      <trkpt lat="43.72233" lon="6.96588">
        <ele>761</ele>
        <time>2018-01-02T11:05:38.552Z</time>
      </trkpt>
      <trkpt lat="43.72235" lon="6.96595">
        <ele>761</ele>
        <time>2018-01-02T11:05:40.552Z</time>
      </trkpt>
      <trkpt lat="43.72236" lon="6.96605">
        <ele>760</ele>
        <time>2018-01-02T11:05:43.552Z</time>
      </trkpt>
      <trkpt lat="43.72236" lon="6.96615">
        <ele>760</ele>
        <time>2018-01-02T11:05:46.552Z</time>
      </trkpt>
      <trkpt lat="43.72233" lon="6.96625">
        <ele>760</ele>
        <time>2018-01-02T11:05:50.552Z</time>
      </trkpt>
      <trkpt lat="43.72229" lon="6.96634">
        <ele>760</ele>
        <time>2018-01-02T11:05:54.552Z</time>
      </trkpt>
      <trkpt lat="43.72227" lon="6.96644">
        <ele>760</ele>
        <time>2018-01-02T11:05:58.552Z</time>
      </trkpt>
      <trkpt lat="43.72226" lon="6.96649">
        <ele>760</ele>
        <time>2018-01-02T11:06:00.552Z</time>
      </trkpt>
      <trkpt lat="43.72225" lon="6.96654">
        <ele>760</ele>
        <time>2018-01-02T11:06:02.552Z</time>
      </trkpt>
      <trkpt lat="43.72226" lon="6.9666">
        <ele>760</ele>
        <time>2018-01-02T11:06:04.552Z</time>
      </trkpt>
      <trkpt lat="43.72226" lon="6.96665">
        <ele>760</ele>
        <time>2018-01-02T11:06:06.552Z</time>
      </trkpt>
      <trkpt lat="43.72227" lon="6.9667">
        <ele>758</ele>
        <time>2018-01-02T11:06:08.552Z</time>
      </trkpt>
      <trkpt lat="43.72228" lon="6.96679">
        <ele>757</ele>
        <time>2018-01-02T11:06:11.552Z</time>
      </trkpt>
      <trkpt lat="43.72229" lon="6.96685">
        <ele>757</ele>
        <time>2018-01-02T11:06:13.552Z</time>
      </trkpt>
      <trkpt lat="43.72232" lon="6.96692">
        <ele>757</ele>
        <time>2018-01-02T11:06:15.552Z</time>
      </trkpt>
      <trkpt lat="43.72234" lon="6.96699">
        <ele>757</ele>
        <time>2018-01-02T11:06:17.552Z</time>
      </trkpt>
      <trkpt lat="43.72235" lon="6.96706">
        <ele>757</ele>
        <time>2018-01-02T11:06:19.552Z</time>
      </trkpt>
      <trkpt lat="43.72236" lon="6.96714">
        <ele>757</ele>
        <time>2018-01-02T11:06:21.552Z</time>
      </trkpt>
      <trkpt lat="43.72238" lon="6.96721">
        <ele>757</ele>
        <time>2018-01-02T11:06:23.552Z</time>
      </trkpt>
      <trkpt lat="43.72239" lon="6.96728">
        <ele>758</ele>
        <time>2018-01-02T11:06:25.552Z</time>
      </trkpt>
      <trkpt lat="43.7224" lon="6.96736">
        <ele>760</ele>
        <time>2018-01-02T11:06:27.552Z</time>
      </trkpt>
      <trkpt lat="43.72242" lon="6.96743">
        <ele>762</ele>
        <time>2018-01-02T11:06:29.552Z</time>
      </trkpt>
      <trkpt lat="43.72244" lon="6.96749">
        <ele>764</ele>
        <time>2018-01-02T11:06:31.552Z</time>
      </trkpt>
      <trkpt lat="43.72245" lon="6.96756">
        <ele>763</ele>
        <time>2018-01-02T11:06:33.552Z</time>
      </trkpt>
      <trkpt lat="43.72246" lon="6.96763">
        <ele>761</ele>
        <time>2018-01-02T11:06:35.552Z</time>
      </trkpt>
      <trkpt lat="43.72248" lon="6.96769">
        <ele>759</ele>
        <time>2018-01-02T11:06:37.552Z</time>
      </trkpt>
      <trkpt lat="43.72248" lon="6.96775">
        <ele>758</ele>
        <time>2018-01-02T11:06:39.552Z</time>
      </trkpt>
      <trkpt lat="43.72249" lon="6.96781">
        <ele>757</ele>
        <time>2018-01-02T11:06:41.552Z</time>
      </trkpt>
      <trkpt lat="43.7225" lon="6.96786">
        <ele>776</ele>
        <time>2018-01-02T11:06:43.552Z</time>
      </trkpt>
      <trkpt lat="43.72251" lon="6.9679">
        <ele>776</ele>
        <time>2018-01-02T11:06:45.552Z</time>
      </trkpt>
      <trkpt lat="43.72252" lon="6.96796">
        <ele>777</ele>
        <time>2018-01-02T11:06:49.552Z</time>
      </trkpt>
      <trkpt lat="43.72252" lon="6.96791">
        <ele>776</ele>
        <time>2018-01-02T11:06:53.552Z</time>
      </trkpt>
      <trkpt lat="43.72252" lon="6.9678">
        <ele>776</ele>
        <time>2018-01-02T11:06:58.552Z</time>
      </trkpt>
      <trkpt lat="43.72252" lon="6.96772">
        <ele>775</ele>
        <time>2018-01-02T11:07:02.552Z</time>
      </trkpt>
      <trkpt lat="43.72252" lon="6.96768">
        <ele>774</ele>
        <time>2018-01-02T11:07:04.552Z</time>
      </trkpt>
      <trkpt lat="43.72252" lon="6.96764">
        <ele>773</ele>
        <time>2018-01-02T11:07:06.552Z</time>
      </trkpt>
      <trkpt lat="43.72252" lon="6.96753">
        <ele>769</ele>
        <time>2018-01-02T11:07:12.552Z</time>
      </trkpt>
      <trkpt lat="43.72252" lon="6.96747">
        <ele>769</ele>
        <time>2018-01-02T11:07:15.552Z</time>
      </trkpt>
      <trkpt lat="43.72253" lon="6.96741">
        <ele>770</ele>
        <time>2018-01-02T11:07:18.552Z</time>
      </trkpt>
      <trkpt lat="43.72254" lon="6.96737">
        <ele>771</ele>
        <time>2018-01-02T11:07:20.552Z</time>
      </trkpt>
      <trkpt lat="43.72255" lon="6.96727">
        <ele>772</ele>
        <time>2018-01-02T11:07:25.552Z</time>
      </trkpt>
      <trkpt lat="43.72259" lon="6.96722">
        <ele>772</ele>
        <time>2018-01-02T11:07:28.552Z</time>
      </trkpt>
      <trkpt lat="43.72265" lon="6.9672">
        <ele>772</ele>
        <time>2018-01-02T11:07:32.552Z</time>
      </trkpt>
      <trkpt lat="43.72272" lon="6.96719">
        <ele>773</ele>
        <time>2018-01-02T11:07:37.552Z</time>
      </trkpt>
      <trkpt lat="43.72278" lon="6.96717">
        <ele>774</ele>
        <time>2018-01-02T11:07:42.552Z</time>
      </trkpt>
      <trkpt lat="43.72283" lon="6.96716">
        <ele>774</ele>
        <time>2018-01-02T11:07:45.552Z</time>
      </trkpt>
      <trkpt lat="43.7229" lon="6.96715">
        <ele>775</ele>
        <time>2018-01-02T11:07:49.552Z</time>
      </trkpt>
      <trkpt lat="43.72295" lon="6.96712">
        <ele>775</ele>
        <time>2018-01-02T11:07:52.552Z</time>
      </trkpt>
      <trkpt lat="43.72301" lon="6.9671">
        <ele>775</ele>
        <time>2018-01-02T11:07:55.552Z</time>
      </trkpt>
      <trkpt lat="43.72306" lon="6.96709">
        <ele>776</ele>
        <time>2018-01-02T11:07:58.552Z</time>
      </trkpt>
      <trkpt lat="43.72311" lon="6.96708">
        <ele>776</ele>
        <time>2018-01-02T11:08:01.552Z</time>
      </trkpt>
      <trkpt lat="43.72315" lon="6.96708">
        <ele>776</ele>
        <time>2018-01-02T11:08:03.552Z</time>
      </trkpt>
      <trkpt lat="43.72319" lon="6.96707">
        <ele>777</ele>
        <time>2018-01-02T11:08:05.552Z</time>
      </trkpt>
      <trkpt lat="43.72322" lon="6.96708">
        <ele>777</ele>
        <time>2018-01-02T11:08:07.552Z</time>
      </trkpt>
      <trkpt lat="43.72327" lon="6.96709">
        <ele>777</ele>
        <time>2018-01-02T11:08:10.552Z</time>
      </trkpt>
      <trkpt lat="43.72331" lon="6.96709">
        <ele>777</ele>
        <time>2018-01-02T11:08:12.552Z</time>
      </trkpt>
      <trkpt lat="43.72336" lon="6.96711">
        <ele>786</ele>
        <time>2018-01-02T11:08:15.552Z</time>
      </trkpt>
      <trkpt lat="43.72341" lon="6.96712">
        <ele>786</ele>
        <time>2018-01-02T11:08:18.552Z</time>
      </trkpt>
      <trkpt lat="43.72344" lon="6.96712">
        <ele>786</ele>
        <time>2018-01-02T11:08:20.552Z</time>
      </trkpt>
      <trkpt lat="43.72354" lon="6.9671">
        <ele>786</ele>
        <time>2018-01-02T11:08:26.552Z</time>
      </trkpt>
      <trkpt lat="43.72357" lon="6.96707">
        <ele>786</ele>
        <time>2018-01-02T11:08:28.552Z</time>
      </trkpt>
      <trkpt lat="43.7236" lon="6.96701">
        <ele>786</ele>
        <time>2018-01-02T11:08:31.552Z</time>
      </trkpt>
      <trkpt lat="43.72363" lon="6.96693">
        <ele>786</ele>
        <time>2018-01-02T11:08:34.552Z</time>
      </trkpt>
      <trkpt lat="43.72363" lon="6.96686">
        <ele>785</ele>
        <time>2018-01-02T11:08:36.552Z</time>
      </trkpt>
      <trkpt lat="43.72366" lon="6.96681">
        <ele>785</ele>
        <time>2018-01-02T11:08:38.552Z</time>
      </trkpt>
      <trkpt lat="43.72369" lon="6.96676">
        <ele>786</ele>
        <time>2018-01-02T11:08:40.552Z</time>
      </trkpt>
      <trkpt lat="43.72372" lon="6.96669">
        <ele>786</ele>
        <time>2018-01-02T11:08:43.552Z</time>
      </trkpt>
      <trkpt lat="43.72374" lon="6.96663">
        <ele>784</ele>
        <time>2018-01-02T11:08:45.552Z</time>
      </trkpt>
      <trkpt lat="43.72375" lon="6.96658">
        <ele>784</ele>
        <time>2018-01-02T11:08:47.552Z</time>
      </trkpt>
      <trkpt lat="43.72377" lon="6.96652">
        <ele>784</ele>
        <time>2018-01-02T11:08:49.552Z</time>
      </trkpt>
      <trkpt lat="43.72378" lon="6.96647">
        <ele>784</ele>
        <time>2018-01-02T11:08:51.552Z</time>
      </trkpt>
      <trkpt lat="43.72379" lon="6.96642">
        <ele>784</ele>
        <time>2018-01-02T11:08:53.552Z</time>
      </trkpt>
      <trkpt lat="43.72379" lon="6.96637">
        <ele>784</ele>
        <time>2018-01-02T11:08:55.552Z</time>
      </trkpt>
      <trkpt lat="43.72379" lon="6.96631">
        <ele>784</ele>
        <time>2018-01-02T11:08:58.552Z</time>
      </trkpt>
      <trkpt lat="43.7238" lon="6.96624">
        <ele>784</ele>
        <time>2018-01-02T11:09:01.552Z</time>
      </trkpt>
      <trkpt lat="43.72382" lon="6.96618">
        <ele>784</ele>
        <time>2018-01-02T11:09:04.552Z</time>
      </trkpt>
      <trkpt lat="43.72385" lon="6.9661">
        <ele>784</ele>
        <time>2018-01-02T11:09:09.552Z</time>
      </trkpt>
      <trkpt lat="43.7239" lon="6.96608">
        <ele>785</ele>
        <time>2018-01-02T11:09:13.552Z</time>
      </trkpt>
      <trkpt lat="43.72395" lon="6.96607">
        <ele>785</ele>
        <time>2018-01-02T11:09:17.552Z</time>
      </trkpt>
      <trkpt lat="43.72402" lon="6.96605">
        <ele>786</ele>
        <time>2018-01-02T11:09:22.552Z</time>
      </trkpt>
      <trkpt lat="43.72409" lon="6.96606">
        <ele>786</ele>
        <time>2018-01-02T11:09:28.552Z</time>
      </trkpt>
      <trkpt lat="43.72416" lon="6.96609">
        <ele>787</ele>
        <time>2018-01-02T11:09:34.552Z</time>
      </trkpt>
      <trkpt lat="43.72423" lon="6.96612">
        <ele>798</ele>
        <time>2018-01-02T11:09:40.552Z</time>
      </trkpt>
      <trkpt lat="43.72426" lon="6.9662">
        <ele>799</ele>
        <time>2018-01-02T11:09:45.552Z</time>
      </trkpt>
      <trkpt lat="43.72429" lon="6.96629">
        <ele>800</ele>
        <time>2018-01-02T11:09:51.552Z</time>
      </trkpt>
      <trkpt lat="43.7243" lon="6.96635">
        <ele>800</ele>
        <time>2018-01-02T11:09:54.552Z</time>
      </trkpt>
      <trkpt lat="43.72431" lon="6.96639">
        <ele>800</ele>
        <time>2018-01-02T11:09:57.552Z</time>
      </trkpt>
      <trkpt lat="43.72431" lon="6.96645">
        <ele>799</ele>
        <time>2018-01-02T11:10:00.552Z</time>
      </trkpt>
      <trkpt lat="43.72431" lon="6.96649">
        <ele>799</ele>
        <time>2018-01-02T11:10:03.552Z</time>
      </trkpt>
      <trkpt lat="43.72432" lon="6.96655">
        <ele>799</ele>
        <time>2018-01-02T11:10:07.552Z</time>
      </trkpt>
      <trkpt lat="43.72433" lon="6.9666">
        <ele>798</ele>
        <time>2018-01-02T11:10:10.552Z</time>
      </trkpt>
      <trkpt lat="43.72435" lon="6.96669">
        <ele>799</ele>
        <time>2018-01-02T11:10:16.552Z</time>
      </trkpt>
      <trkpt lat="43.72439" lon="6.96677">
        <ele>800</ele>
        <time>2018-01-02T11:10:22.552Z</time>
      </trkpt>
      <trkpt lat="43.72443" lon="6.96684">
        <ele>801</ele>
        <time>2018-01-02T11:10:28.552Z</time>
      </trkpt>
      <trkpt lat="43.72449" lon="6.9669">
        <ele>802</ele>
        <time>2018-01-02T11:10:35.552Z</time>
      </trkpt>
      <trkpt lat="43.72455" lon="6.96695">
        <ele>803</ele>
        <time>2018-01-02T11:10:41.552Z</time>
      </trkpt>
      <trkpt lat="43.72461" lon="6.96701">
        <ele>804</ele>
        <time>2018-01-02T11:10:47.552Z</time>
      </trkpt>
      <trkpt lat="43.72465" lon="6.96705">
        <ele>804</ele>
        <time>2018-01-02T11:10:51.552Z</time>
      </trkpt>
      <trkpt lat="43.72467" lon="6.9671">
        <ele>804</ele>
        <time>2018-01-02T11:10:55.552Z</time>
      </trkpt>
      <trkpt lat="43.72471" lon="6.96715">
        <ele>805</ele>
        <time>2018-01-02T11:11:05.552Z</time>
      </trkpt>
      <trkpt lat="43.72475" lon="6.96717">
        <ele>805</ele>
        <time>2018-01-02T11:11:12.552Z</time>
      </trkpt>
      <trkpt lat="43.72479" lon="6.96719">
        <ele>806</ele>
        <time>2018-01-02T11:11:22.552Z</time>
      </trkpt>
      <trkpt lat="43.72482" lon="6.96723">
        <ele>806</ele>
        <time>2018-01-02T11:11:29.552Z</time>
      </trkpt>
      <trkpt lat="43.72482" lon="6.96729">
        <ele>806</ele>
        <time>2018-01-02T11:11:35.552Z</time>
      </trkpt>
      <trkpt lat="43.72484" lon="6.96736">
        <ele>807</ele>
        <time>2018-01-02T11:11:42.552Z</time>
      </trkpt>
      <trkpt lat="43.72486" lon="6.96745">
        <ele>807</ele>
        <time>2018-01-02T11:11:49.552Z</time>
      </trkpt>
      <trkpt lat="43.72487" lon="6.96752">
        <ele>806</ele>
        <time>2018-01-02T11:11:55.552Z</time>
      </trkpt>
      <trkpt lat="43.72489" lon="6.9676">
        <ele>806</ele>
        <time>2018-01-02T11:12:01.552Z</time>
      </trkpt>
      <trkpt lat="43.72492" lon="6.96766">
        <ele>806</ele>
        <time>2018-01-02T11:12:07.552Z</time>
      </trkpt>
      <trkpt lat="43.72497" lon="6.9677">
        <ele>805</ele>
        <time>2018-01-02T11:12:13.552Z</time>
      </trkpt>
      <trkpt lat="43.72499" lon="6.96765">
        <ele>806</ele>
        <time>2018-01-02T11:12:19.552Z</time>
      </trkpt>
      <trkpt lat="43.72498" lon="6.96759">
        <ele>808</ele>
        <time>2018-01-02T11:12:25.552Z</time>
      </trkpt>
      <trkpt lat="43.72499" lon="6.96753">
        <ele>809</ele>
        <time>2018-01-02T11:12:29.552Z</time>
      </trkpt>
      <trkpt lat="43.725" lon="6.96749">
        <ele>811</ele>
        <time>2018-01-02T11:12:33.552Z</time>
      </trkpt>
      <trkpt lat="43.72504" lon="6.96751">
        <ele>812</ele>
        <time>2018-01-02T11:12:39.552Z</time>
      </trkpt>
      <trkpt lat="43.72508" lon="6.96754">
        <ele>813</ele>
        <time>2018-01-02T11:12:48.552Z</time>
      </trkpt>
      <trkpt lat="43.72512" lon="6.96757">
        <ele>814</ele>
        <time>2018-01-02T11:12:52.552Z</time>
      </trkpt>
      <trkpt lat="43.72515" lon="6.96761">
        <ele>815</ele>
        <time>2018-01-02T11:12:55.552Z</time>
      </trkpt>
      <trkpt lat="43.72518" lon="6.96764">
        <ele>815</ele>
        <time>2018-01-02T11:12:58.552Z</time>
      </trkpt>
      <trkpt lat="43.72526" lon="6.96771">
        <ele>816</ele>
        <time>2018-01-02T11:13:05.552Z</time>
      </trkpt>
      <trkpt lat="43.72532" lon="6.96778">
        <ele>817</ele>
        <time>2018-01-02T11:13:20.552Z</time>
      </trkpt>
      <trkpt lat="43.7254" lon="6.96783">
        <ele>818</ele>
        <time>2018-01-02T11:13:32.552Z</time>
      </trkpt>
      <trkpt lat="43.72546" lon="6.96788">
        <ele>818</ele>
        <time>2018-01-02T11:13:40.552Z</time>
      </trkpt>
      <trkpt lat="43.72553" lon="6.96794">
        <ele>819</ele>
        <time>2018-01-02T11:13:50.552Z</time>
      </trkpt>
      <trkpt lat="43.72561" lon="6.96799">
        <ele>820</ele>
        <time>2018-01-02T11:14:00.552Z</time>
      </trkpt>
      <trkpt lat="43.72568" lon="6.96804">
        <ele>820</ele>
        <time>2018-01-02T11:14:08.552Z</time>
      </trkpt>
      <trkpt lat="43.72575" lon="6.96811">
        <ele>821</ele>
        <time>2018-01-02T11:14:19.552Z</time>
      </trkpt>
      <trkpt lat="43.72581" lon="6.96817">
        <ele>822</ele>
        <time>2018-01-02T11:14:24.552Z</time>
      </trkpt>
      <trkpt lat="43.72587" lon="6.96826">
        <ele>828</ele>
        <time>2018-01-02T11:14:31.552Z</time>
      </trkpt>
      <trkpt lat="43.72591" lon="6.96831">
        <ele>828</ele>
        <time>2018-01-02T11:14:35.552Z</time>
      </trkpt>
      <trkpt lat="43.72598" lon="6.96837">
        <ele>829</ele>
        <time>2018-01-02T11:14:41.552Z</time>
      </trkpt>
      <trkpt lat="43.72605" lon="6.96842">
        <ele>830</ele>
        <time>2018-01-02T11:14:47.552Z</time>
      </trkpt>
      <trkpt lat="43.72612" lon="6.96848">
        <ele>831</ele>
        <time>2018-01-02T11:14:53.552Z</time>
      </trkpt>
      <trkpt lat="43.72619" lon="6.96853">
        <ele>832</ele>
        <time>2018-01-02T11:14:59.552Z</time>
      </trkpt>
      <trkpt lat="43.72625" lon="6.96859">
        <ele>833</ele>
        <time>2018-01-02T11:15:05.552Z</time>
      </trkpt>
      <trkpt lat="43.7263" lon="6.96863">
        <ele>833</ele>
        <time>2018-01-02T11:15:11.552Z</time>
      </trkpt>
      <trkpt lat="43.72638" lon="6.96863">
        <ele>834</ele>
        <time>2018-01-02T11:15:17.552Z</time>
      </trkpt>
      <trkpt lat="43.72643" lon="6.96857">
        <ele>834</ele>
        <time>2018-01-02T11:15:22.552Z</time>
      </trkpt>
      <trkpt lat="43.72647" lon="6.96852">
        <ele>835</ele>
        <time>2018-01-02T11:15:27.552Z</time>
      </trkpt>
      <trkpt lat="43.72653" lon="6.9685">
        <ele>835</ele>
        <time>2018-01-02T11:15:32.552Z</time>
      </trkpt>
      <trkpt lat="43.7266" lon="6.96848">
        <ele>836</ele>
        <time>2018-01-02T11:15:37.552Z</time>
      </trkpt>
      <trkpt lat="43.72664" lon="6.96845">
        <ele>836</ele>
        <time>2018-01-02T11:15:40.552Z</time>
      </trkpt>
      <trkpt lat="43.72668" lon="6.96842">
        <ele>841</ele>
        <time>2018-01-02T11:15:43.552Z</time>
      </trkpt>
      <trkpt lat="43.72673" lon="6.96839">
        <ele>841</ele>
        <time>2018-01-02T11:15:47.552Z</time>
      </trkpt>
      <trkpt lat="43.72679" lon="6.96837">
        <ele>843</ele>
        <time>2018-01-02T11:15:52.552Z</time>
      </trkpt>
      <trkpt lat="43.72685" lon="6.96837">
        <ele>844</ele>
        <time>2018-01-02T11:15:56.552Z</time>
      </trkpt>
      <trkpt lat="43.7269" lon="6.96831">
        <ele>844</ele>
        <time>2018-01-02T11:16:01.552Z</time>
      </trkpt>
      <trkpt lat="43.72695" lon="6.96823">
        <ele>845</ele>
        <time>2018-01-02T11:16:06.552Z</time>
      </trkpt>
      <trkpt lat="43.727" lon="6.96822">
        <ele>846</ele>
        <time>2018-01-02T11:16:10.552Z</time>
      </trkpt>
      <trkpt lat="43.72706" lon="6.96826">
        <ele>847</ele>
        <time>2018-01-02T11:16:15.552Z</time>
      </trkpt>
      <trkpt lat="43.72708" lon="6.96833">
        <ele>848</ele>
        <time>2018-01-02T11:16:20.552Z</time>
      </trkpt>
      <trkpt lat="43.72707" lon="6.96842">
        <ele>848</ele>
        <time>2018-01-02T11:16:26.552Z</time>
      </trkpt>
      <trkpt lat="43.72709" lon="6.96852">
        <ele>848</ele>
        <time>2018-01-02T11:18:36.552Z</time>
      </trkpt>
      <trkpt lat="43.72709" lon="6.96863">
        <ele>849</ele>
        <time>2018-01-02T11:18:42.552Z</time>
      </trkpt>
      <trkpt lat="43.72713" lon="6.96872">
        <ele>849</ele>
        <time>2018-01-02T11:18:48.552Z</time>
      </trkpt>
      <trkpt lat="43.72716" lon="6.96879">
        <ele>850</ele>
        <time>2018-01-02T11:18:53.552Z</time>
      </trkpt>
      <trkpt lat="43.72717" lon="6.96886">
        <ele>850</ele>
        <time>2018-01-02T11:18:57.552Z</time>
      </trkpt>
      <trkpt lat="43.72716" lon="6.96894">
        <ele>850</ele>
        <time>2018-01-02T11:19:02.552Z</time>
      </trkpt>
      <trkpt lat="43.7272" lon="6.96902">
        <ele>851</ele>
        <time>2018-01-02T11:19:08.552Z</time>
      </trkpt>
      <trkpt lat="43.72727" lon="6.96908">
        <ele>852</ele>
        <time>2018-01-02T11:19:14.552Z</time>
      </trkpt>
      <trkpt lat="43.72733" lon="6.96913">
        <ele>853</ele>
        <time>2018-01-02T11:19:20.552Z</time>
      </trkpt>
      <trkpt lat="43.72741" lon="6.96918">
        <ele>855</ele>
        <time>2018-01-02T11:19:27.552Z</time>
      </trkpt>
      <trkpt lat="43.72747" lon="6.96925">
        <ele>855</ele>
        <time>2018-01-02T11:19:34.552Z</time>
      </trkpt>
      <trkpt lat="43.72751" lon="6.96933">
        <ele>865</ele>
        <time>2018-01-02T11:19:41.552Z</time>
      </trkpt>
      <trkpt lat="43.72753" lon="6.96942">
        <ele>867</ele>
        <time>2018-01-02T11:19:47.552Z</time>
      </trkpt>
      <trkpt lat="43.72754" lon="6.96949">
        <ele>868</ele>
        <time>2018-01-02T11:19:51.552Z</time>
      </trkpt>
      <trkpt lat="43.72754" lon="6.96959">
        <ele>869</ele>
        <time>2018-01-02T11:19:57.552Z</time>
      </trkpt>
      <trkpt lat="43.72753" lon="6.96968">
        <ele>869</ele>
        <time>2018-01-02T11:20:02.552Z</time>
      </trkpt>
      <trkpt lat="43.72751" lon="6.96975">
        <ele>868</ele>
        <time>2018-01-02T11:20:06.552Z</time>
      </trkpt>
      <trkpt lat="43.72747" lon="6.96984">
        <ele>857</ele>
        <time>2018-01-02T11:20:42.552Z</time>
      </trkpt>
      <trkpt lat="43.72744" lon="6.96996">
        <ele>858</ele>
        <time>2018-01-02T11:20:48.552Z</time>
      </trkpt>
      <trkpt lat="43.72749" lon="6.97004">
        <ele>860</ele>
        <time>2018-01-02T11:20:55.552Z</time>
      </trkpt>
      <trkpt lat="43.72754" lon="6.9701">
        <ele>867</ele>
        <time>2018-01-02T11:21:01.552Z</time>
      </trkpt>
      <trkpt lat="43.7276" lon="6.97016">
        <ele>870</ele>
        <time>2018-01-02T11:21:07.552Z</time>
      </trkpt>
      <trkpt lat="43.72763" lon="6.97014">
        <ele>870</ele>
        <time>2018-01-02T11:21:10.552Z</time>
      </trkpt>
      <trkpt lat="43.7277" lon="6.97012">
        <ele>871</ele>
        <time>2018-01-02T11:21:15.552Z</time>
      </trkpt>
      <trkpt lat="43.72773" lon="6.97008">
        <ele>872</ele>
        <time>2018-01-02T11:21:18.552Z</time>
      </trkpt>
      <trkpt lat="43.72779" lon="6.97006">
        <ele>873</ele>
        <time>2018-01-02T11:21:23.552Z</time>
      </trkpt>
      <trkpt lat="43.72782" lon="6.97016">
        <ele>875</ele>
        <time>2018-01-02T11:21:34.552Z</time>
      </trkpt>
      <trkpt lat="43.72783" lon="6.97028">
        <ele>876</ele>
        <time>2018-01-02T11:21:43.552Z</time>
      </trkpt>
      <trkpt lat="43.72783" lon="6.97042">
        <ele>876</ele>
        <time>2018-01-02T11:21:54.552Z</time>
      </trkpt>
      <trkpt lat="43.72784" lon="6.97054">
        <ele>877</ele>
        <time>2018-01-02T11:22:04.552Z</time>
      </trkpt>
      <trkpt lat="43.72785" lon="6.97068">
        <ele>877</ele>
        <time>2018-01-02T11:22:17.552Z</time>
      </trkpt>
      <trkpt lat="43.72785" lon="6.9708">
        <ele>877</ele>
        <time>2018-01-02T11:22:27.552Z</time>
      </trkpt>
      <trkpt lat="43.72785" lon="6.97094">
        <ele>881</ele>
        <time>2018-01-02T11:22:38.552Z</time>
      </trkpt>
      <trkpt lat="43.72786" lon="6.97105">
        <ele>882</ele>
        <time>2018-01-02T11:22:46.552Z</time>
      </trkpt>
      <trkpt lat="43.72786" lon="6.97119">
        <ele>883</ele>
        <time>2018-01-02T11:22:58.552Z</time>
      </trkpt>
      <trkpt lat="43.72788" lon="6.97131">
        <ele>883</ele>
        <time>2018-01-02T11:23:08.552Z</time>
      </trkpt>
      <trkpt lat="43.72788" lon="6.97142">
        <ele>884</ele>
        <time>2018-01-02T11:23:16.552Z</time>
      </trkpt>
      <trkpt lat="43.72788" lon="6.97156">
        <ele>884</ele>
        <time>2018-01-02T11:23:27.552Z</time>
      </trkpt>
      <trkpt lat="43.72788" lon="6.9717">
        <ele>890</ele>
        <time>2018-01-02T11:23:37.552Z</time>
      </trkpt>
      <trkpt lat="43.7279" lon="6.9718">
        <ele>891</ele>
        <time>2018-01-02T11:23:45.552Z</time>
      </trkpt>
      <trkpt lat="43.7279" lon="6.97194">
        <ele>891</ele>
        <time>2018-01-02T11:23:55.552Z</time>
      </trkpt>
      <trkpt lat="43.72792" lon="6.97208">
        <ele>892</ele>
        <time>2018-01-02T11:24:06.552Z</time>
      </trkpt>
      <trkpt lat="43.7279" lon="6.9723">
        <ele>893</ele>
        <time>2018-01-02T11:24:27.552Z</time>
      </trkpt>
      <trkpt lat="43.72789" lon="6.9724">
        <ele>893</ele>
        <time>2018-01-02T11:24:32.552Z</time>
      </trkpt>
      <trkpt lat="43.72788" lon="6.9725">
        <ele>896</ele>
        <time>2018-01-02T11:24:37.552Z</time>
      </trkpt>
      <trkpt lat="43.72786" lon="6.97259">
        <ele>899</ele>
        <time>2018-01-02T11:24:42.552Z</time>
      </trkpt>
      <trkpt lat="43.72785" lon="6.97268">
        <ele>900</ele>
        <time>2018-01-02T11:24:47.552Z</time>
      </trkpt>
      <trkpt lat="43.72783" lon="6.97276">
        <ele>900</ele>
        <time>2018-01-02T11:24:52.552Z</time>
      </trkpt>
      <trkpt lat="43.7278" lon="6.97284">
        <ele>900</ele>
        <time>2018-01-02T11:24:57.552Z</time>
      </trkpt>
      <trkpt lat="43.72778" lon="6.97293">
        <ele>900</ele>
        <time>2018-01-02T11:25:02.552Z</time>
      </trkpt>
      <trkpt lat="43.72779" lon="6.97302">
        <ele>901</ele>
        <time>2018-01-02T11:25:07.552Z</time>
      </trkpt>
      <trkpt lat="43.72778" lon="6.97312">
        <ele>901</ele>
        <time>2018-01-02T11:25:13.552Z</time>
      </trkpt>
      <trkpt lat="43.72777" lon="6.97322">
        <ele>900</ele>
        <time>2018-01-02T11:25:19.552Z</time>
      </trkpt>
      <trkpt lat="43.72775" lon="6.97331">
        <ele>900</ele>
        <time>2018-01-02T11:25:25.552Z</time>
      </trkpt>
      <trkpt lat="43.72775" lon="6.9734">
        <ele>907</ele>
        <time>2018-01-02T11:25:31.552Z</time>
      </trkpt>
      <trkpt lat="43.72775" lon="6.97349">
        <ele>909</ele>
        <time>2018-01-02T11:25:37.552Z</time>
      </trkpt>
      <trkpt lat="43.72774" lon="6.97358">
        <ele>910</ele>
        <time>2018-01-02T11:25:43.552Z</time>
      </trkpt>
      <trkpt lat="43.72774" lon="6.97367">
        <ele>911</ele>
        <time>2018-01-02T11:25:49.552Z</time>
      </trkpt>
      <trkpt lat="43.72772" lon="6.97376">
        <ele>912</ele>
        <time>2018-01-02T11:25:56.552Z</time>
      </trkpt>
      <trkpt lat="43.72772" lon="6.97386">
        <ele>913</ele>
        <time>2018-01-02T11:26:03.552Z</time>
      </trkpt>
      <trkpt lat="43.72771" lon="6.97396">
        <ele>912</ele>
        <time>2018-01-02T11:26:14.552Z</time>
      </trkpt>
      <trkpt lat="43.72769" lon="6.97404">
        <ele>911</ele>
        <time>2018-01-02T11:26:21.552Z</time>
      </trkpt>
      <trkpt lat="43.72764" lon="6.97412">
        <ele>909</ele>
        <time>2018-01-02T11:26:29.552Z</time>
      </trkpt>
      <trkpt lat="43.72761" lon="6.97422">
        <ele>913</ele>
        <time>2018-01-02T11:26:39.552Z</time>
      </trkpt>
      <trkpt lat="43.7276" lon="6.97428">
        <ele>915</ele>
        <time>2018-01-02T11:26:48.552Z</time>
      </trkpt>
      <trkpt lat="43.72764" lon="6.97425">
        <ele>917</ele>
        <time>2018-01-02T11:26:56.552Z</time>
      </trkpt>
      <trkpt lat="43.72769" lon="6.97421">
        <ele>919</ele>
        <time>2018-01-02T11:27:03.552Z</time>
      </trkpt>
      <trkpt lat="43.72774" lon="6.97418">
        <ele>921</ele>
        <time>2018-01-02T11:27:10.552Z</time>
      </trkpt>
      <trkpt lat="43.72779" lon="6.97416">
        <ele>915</ele>
        <time>2018-01-02T11:27:17.552Z</time>
      </trkpt>
      <trkpt lat="43.72784" lon="6.97413">
        <ele>916</ele>
        <time>2018-01-02T11:27:23.552Z</time>
      </trkpt>
      <trkpt lat="43.72787" lon="6.97403">
        <ele>917</ele>
        <time>2018-01-02T11:27:31.552Z</time>
      </trkpt>
      <trkpt lat="43.72789" lon="6.97396">
        <ele>918</ele>
        <time>2018-01-02T11:27:36.552Z</time>
      </trkpt>
      <trkpt lat="43.72791" lon="6.97391">
        <ele>918</ele>
        <time>2018-01-02T11:27:40.552Z</time>
      </trkpt>
      <trkpt lat="43.72795" lon="6.97386">
        <ele>919</ele>
        <time>2018-01-02T11:27:45.552Z</time>
      </trkpt>
      <trkpt lat="43.72799" lon="6.97378">
        <ele>919</ele>
        <time>2018-01-02T11:27:52.552Z</time>
      </trkpt>
      <trkpt lat="43.72804" lon="6.97373">
        <ele>920</ele>
        <time>2018-01-02T11:28:00.552Z</time>
      </trkpt>
      <trkpt lat="43.7281" lon="6.97366">
        <ele>920</ele>
        <time>2018-01-02T11:28:09.552Z</time>
      </trkpt>
      <trkpt lat="43.72814" lon="6.9736">
        <ele>921</ele>
        <time>2018-01-02T11:28:16.552Z</time>
      </trkpt>
      <trkpt lat="43.72817" lon="6.97354">
        <ele>921</ele>
        <time>2018-01-02T11:28:22.552Z</time>
      </trkpt>
      <trkpt lat="43.72821" lon="6.97347">
        <ele>922</ele>
        <time>2018-01-02T11:28:29.552Z</time>
      </trkpt>
      <trkpt lat="43.72827" lon="6.9734">
        <ele>925</ele>
        <time>2018-01-02T11:28:39.552Z</time>
      </trkpt>
      <trkpt lat="43.7283" lon="6.97329">
        <ele>923</ele>
        <time>2018-01-02T11:28:52.552Z</time>
      </trkpt>
      <trkpt lat="43.72833" lon="6.97321">
        <ele>919</ele>
        <time>2018-01-02T11:28:57.552Z</time>
      </trkpt>
      <trkpt lat="43.72837" lon="6.97314">
        <ele>937</ele>
        <time>2018-01-02T11:29:02.552Z</time>
      </trkpt>
      <trkpt lat="43.72839" lon="6.9731">
        <ele>938</ele>
        <time>2018-01-02T11:29:05.552Z</time>
      </trkpt>
      <trkpt lat="43.72844" lon="6.97303">
        <ele>940</ele>
        <time>2018-01-02T11:29:11.552Z</time>
      </trkpt>
      <trkpt lat="43.72848" lon="6.97295">
        <ele>940</ele>
        <time>2018-01-02T11:29:17.552Z</time>
      </trkpt>
      <trkpt lat="43.72851" lon="6.97292">
        <ele>941</ele>
        <time>2018-01-02T11:29:20.552Z</time>
      </trkpt>
      <trkpt lat="43.72854" lon="6.97288">
        <ele>941</ele>
        <time>2018-01-02T11:29:24.552Z</time>
      </trkpt>
      <trkpt lat="43.72857" lon="6.97284">
        <ele>941</ele>
        <time>2018-01-02T11:29:28.552Z</time>
      </trkpt>
      <trkpt lat="43.72861" lon="6.97275">
        <ele>941</ele>
        <time>2018-01-02T11:29:34.552Z</time>
      </trkpt>
      <trkpt lat="43.72865" lon="6.97267">
        <ele>941</ele>
        <time>2018-01-02T11:29:40.552Z</time>
      </trkpt>
      <trkpt lat="43.72869" lon="6.97258">
        <ele>942</ele>
        <time>2018-01-02T11:29:46.552Z</time>
      </trkpt>
      <trkpt lat="43.72873" lon="6.97252">
        <ele>944</ele>
        <time>2018-01-02T11:29:51.552Z</time>
      </trkpt>
      <trkpt lat="43.72875" lon="6.97256">
        <ele>945</ele>
        <time>2018-01-02T11:29:56.552Z</time>
      </trkpt>
      <trkpt lat="43.72874" lon="6.97263">
        <ele>945</ele>
        <time>2018-01-02T11:30:04.552Z</time>
      </trkpt>
      <trkpt lat="43.72871" lon="6.97272">
        <ele>944</ele>
        <time>2018-01-02T11:30:14.552Z</time>
      </trkpt>
      <trkpt lat="43.72869" lon="6.97278">
        <ele>944</ele>
        <time>2018-01-02T11:30:21.552Z</time>
      </trkpt>
      <trkpt lat="43.72866" lon="6.97289">
        <ele>945</ele>
        <time>2018-01-02T11:30:32.552Z</time>
      </trkpt>
      <trkpt lat="43.72864" lon="6.973">
        <ele>945</ele>
        <time>2018-01-02T11:30:43.552Z</time>
      </trkpt>
      <trkpt lat="43.72868" lon="6.973">
        <ele>946</ele>
        <time>2018-01-02T11:31:29.552Z</time>
      </trkpt>
      <trkpt lat="43.72874" lon="6.97293">
        <ele>947</ele>
        <time>2018-01-02T11:31:39.552Z</time>
      </trkpt>
      <trkpt lat="43.72877" lon="6.97291">
        <ele>948</ele>
        <time>2018-01-02T11:31:44.552Z</time>
      </trkpt>
      <trkpt lat="43.7288" lon="6.97287">
        <ele>949</ele>
        <time>2018-01-02T11:31:50.552Z</time>
      </trkpt>
      <trkpt lat="43.72883" lon="6.97283">
        <ele>949</ele>
        <time>2018-01-02T11:31:57.552Z</time>
      </trkpt>
      <trkpt lat="43.72885" lon="6.97279">
        <ele>949</ele>
        <time>2018-01-02T11:32:01.552Z</time>
      </trkpt>
      <trkpt lat="43.72889" lon="6.97272">
        <ele>951</ele>
        <time>2018-01-02T11:32:12.552Z</time>
      </trkpt>
      <trkpt lat="43.72894" lon="6.97262">
        <ele>953</ele>
        <time>2018-01-02T11:32:25.552Z</time>
      </trkpt>
      <trkpt lat="43.72896" lon="6.97272">
        <ele>953</ele>
        <time>2018-01-02T11:32:44.552Z</time>
      </trkpt>
      <trkpt lat="43.72895" lon="6.97281">
        <ele>952</ele>
        <time>2018-01-02T11:32:52.552Z</time>
      </trkpt>
      <trkpt lat="43.72894" lon="6.9729">
        <ele>953</ele>
        <time>2018-01-02T11:33:00.552Z</time>
      </trkpt>
      <trkpt lat="43.72894" lon="6.97297">
        <ele>954</ele>
        <time>2018-01-02T11:33:07.552Z</time>
      </trkpt>
      <trkpt lat="43.72893" lon="6.97306">
        <ele>955</ele>
        <time>2018-01-02T11:33:14.552Z</time>
      </trkpt>
      <trkpt lat="43.72891" lon="6.97314">
        <ele>956</ele>
        <time>2018-01-02T11:33:21.552Z</time>
      </trkpt>
      <trkpt lat="43.72888" lon="6.97322">
        <ele>956</ele>
        <time>2018-01-02T11:33:28.552Z</time>
      </trkpt>
      <trkpt lat="43.72886" lon="6.9733">
        <ele>956</ele>
        <time>2018-01-02T11:33:35.552Z</time>
      </trkpt>
      <trkpt lat="43.72884" lon="6.97334">
        <ele>966</ele>
        <time>2018-01-02T11:33:39.552Z</time>
      </trkpt>
      <trkpt lat="43.72882" lon="6.97338">
        <ele>965</ele>
        <time>2018-01-02T11:33:43.552Z</time>
      </trkpt>
      <trkpt lat="43.72881" lon="6.97343">
        <ele>965</ele>
        <time>2018-01-02T11:33:47.552Z</time>
      </trkpt>
      <trkpt lat="43.72879" lon="6.97348">
        <ele>964</ele>
        <time>2018-01-02T11:33:51.552Z</time>
      </trkpt>
      <trkpt lat="43.7288" lon="6.97353">
        <ele>965</ele>
        <time>2018-01-02T11:33:57.552Z</time>
      </trkpt>
      <trkpt lat="43.72884" lon="6.97349">
        <ele>966</ele>
        <time>2018-01-02T11:34:04.552Z</time>
      </trkpt>
      <trkpt lat="43.72887" lon="6.97344">
        <ele>967</ele>
        <time>2018-01-02T11:34:10.552Z</time>
      </trkpt>
      <trkpt lat="43.7289" lon="6.9734">
        <ele>969</ele>
        <time>2018-01-02T11:34:14.552Z</time>
      </trkpt>
      <trkpt lat="43.72892" lon="6.97336">
        <ele>969</ele>
        <time>2018-01-02T11:34:18.552Z</time>
      </trkpt>
      <trkpt lat="43.72895" lon="6.97332">
        <ele>961</ele>
        <time>2018-01-02T11:34:22.552Z</time>
      </trkpt>
      <trkpt lat="43.72897" lon="6.97329">
        <ele>962</ele>
        <time>2018-01-02T11:34:26.552Z</time>
      </trkpt>
      <trkpt lat="43.729" lon="6.97325">
        <ele>963</ele>
        <time>2018-01-02T11:34:30.552Z</time>
      </trkpt>
      <trkpt lat="43.72902" lon="6.97321">
        <ele>963</ele>
        <time>2018-01-02T11:34:34.552Z</time>
      </trkpt>
      <trkpt lat="43.72905" lon="6.97316">
        <ele>962</ele>
        <time>2018-01-02T11:34:39.552Z</time>
      </trkpt>
      <trkpt lat="43.72907" lon="6.9731">
        <ele>961</ele>
        <time>2018-01-02T11:34:46.552Z</time>
      </trkpt>
      <trkpt lat="43.7291" lon="6.97304">
        <ele>959</ele>
        <time>2018-01-02T11:34:52.552Z</time>
      </trkpt>
      <trkpt lat="43.72912" lon="6.97297">
        <ele>958</ele>
        <time>2018-01-02T11:34:58.552Z</time>
      </trkpt>
      <trkpt lat="43.72915" lon="6.97292">
        <ele>957</ele>
        <time>2018-01-02T11:35:03.552Z</time>
      </trkpt>
      <trkpt lat="43.72917" lon="6.97288">
        <ele>985</ele>
        <time>2018-01-02T11:35:07.552Z</time>
      </trkpt>
      <trkpt lat="43.72921" lon="6.97284">
        <ele>985</ele>
        <time>2018-01-02T11:35:12.552Z</time>
      </trkpt>
      <trkpt lat="43.72923" lon="6.9728">
        <ele>984</ele>
        <time>2018-01-02T11:35:16.552Z</time>
      </trkpt>
      <trkpt lat="43.72924" lon="6.97275">
        <ele>983</ele>
        <time>2018-01-02T11:35:20.552Z</time>
      </trkpt>
      <trkpt lat="43.72927" lon="6.97271">
        <ele>982</ele>
        <time>2018-01-02T11:35:24.552Z</time>
      </trkpt>
      <trkpt lat="43.72929" lon="6.97266">
        <ele>981</ele>
        <time>2018-01-02T11:35:28.552Z</time>
      </trkpt>
      <trkpt lat="43.72931" lon="6.97261">
        <ele>980</ele>
        <time>2018-01-02T11:35:32.552Z</time>
      </trkpt>
      <trkpt lat="43.72932" lon="6.97252">
        <ele>978</ele>
        <time>2018-01-02T11:35:40.552Z</time>
      </trkpt>
      <trkpt lat="43.72937" lon="6.97242">
        <ele>978</ele>
        <time>2018-01-02T11:35:51.552Z</time>
      </trkpt>
      <trkpt lat="43.72939" lon="6.97248">
        <ele>978</ele>
        <time>2018-01-02T11:35:57.552Z</time>
      </trkpt>
      <trkpt lat="43.72937" lon="6.97259">
        <ele>982</ele>
        <time>2018-01-02T11:36:05.552Z</time>
      </trkpt>
      <trkpt lat="43.72937" lon="6.97264">
        <ele>983</ele>
        <time>2018-01-02T11:36:09.552Z</time>
      </trkpt>
      <trkpt lat="43.72936" lon="6.9727">
        <ele>984</ele>
        <time>2018-01-02T11:36:13.552Z</time>
      </trkpt>
      <trkpt lat="43.72936" lon="6.97275">
        <ele>985</ele>
        <time>2018-01-02T11:36:17.552Z</time>
      </trkpt>
      <trkpt lat="43.72935" lon="6.97281">
        <ele>987</ele>
        <time>2018-01-02T11:36:22.552Z</time>
      </trkpt>
      <trkpt lat="43.72935" lon="6.97287">
        <ele>987</ele>
        <time>2018-01-02T11:36:27.552Z</time>
      </trkpt>
      <trkpt lat="43.72934" lon="6.97295">
        <ele>988</ele>
        <time>2018-01-02T11:36:33.552Z</time>
      </trkpt>
      <trkpt lat="43.72934" lon="6.97302">
        <ele>989</ele>
        <time>2018-01-02T11:36:40.552Z</time>
      </trkpt>
      <trkpt lat="43.72937" lon="6.97303">
        <ele>989</ele>
        <time>2018-01-02T11:36:51.552Z</time>
      </trkpt>
      <trkpt lat="43.72939" lon="6.97298">
        <ele>989</ele>
        <time>2018-01-02T11:36:56.552Z</time>
      </trkpt>
      <trkpt lat="43.72941" lon="6.97294">
        <ele>990</ele>
        <time>2018-01-02T11:37:01.552Z</time>
      </trkpt>
      <trkpt lat="43.72943" lon="6.97288">
        <ele>989</ele>
        <time>2018-01-02T11:37:07.552Z</time>
      </trkpt>
      <trkpt lat="43.72947" lon="6.97283">
        <ele>990</ele>
        <time>2018-01-02T11:37:14.552Z</time>
      </trkpt>
      <trkpt lat="43.72949" lon="6.97275">
        <ele>989</ele>
        <time>2018-01-02T11:37:21.552Z</time>
      </trkpt>
      <trkpt lat="43.72952" lon="6.97269">
        <ele>989</ele>
        <time>2018-01-02T11:37:29.552Z</time>
      </trkpt>
      <trkpt lat="43.72955" lon="6.97261">
        <ele>990</ele>
        <time>2018-01-02T11:37:38.552Z</time>
      </trkpt>
      <trkpt lat="43.72956" lon="6.97256">
        <ele>990</ele>
        <time>2018-01-02T11:37:42.552Z</time>
      </trkpt>
      <trkpt lat="43.72959" lon="6.97262">
        <ele>991</ele>
        <time>2018-01-02T11:37:52.552Z</time>
      </trkpt>
      <trkpt lat="43.72958" lon="6.97271">
        <ele>992</ele>
        <time>2018-01-02T11:38:00.552Z</time>
      </trkpt>
      <trkpt lat="43.72957" lon="6.97278">
        <ele>992</ele>
        <time>2018-01-02T11:38:06.552Z</time>
      </trkpt>
      <trkpt lat="43.72957" lon="6.97287">
        <ele>992</ele>
        <time>2018-01-02T11:38:14.552Z</time>
      </trkpt>
      <trkpt lat="43.72961" lon="6.97283">
        <ele>993</ele>
        <time>2018-01-02T11:38:22.552Z</time>
      </trkpt>
      <trkpt lat="43.72963" lon="6.97277">
        <ele>993</ele>
        <time>2018-01-02T11:38:29.552Z</time>
      </trkpt>
      <trkpt lat="43.72966" lon="6.97271">
        <ele>994</ele>
        <time>2018-01-02T11:38:37.552Z</time>
      </trkpt>
      <trkpt lat="43.72969" lon="6.97266">
        <ele>995</ele>
        <time>2018-01-02T11:38:45.552Z</time>
      </trkpt>
      <trkpt lat="43.72971" lon="6.9726">
        <ele>995</ele>
        <time>2018-01-02T11:38:51.552Z</time>
      </trkpt>
      <trkpt lat="43.72974" lon="6.97255">
        <ele>996</ele>
        <time>2018-01-02T11:38:57.552Z</time>
      </trkpt>
      <trkpt lat="43.72975" lon="6.97251">
        <ele>997</ele>
        <time>2018-01-02T11:39:01.552Z</time>
      </trkpt>
      <trkpt lat="43.72977" lon="6.97246">
        <ele>994</ele>
        <time>2018-01-02T11:39:06.552Z</time>
      </trkpt>
      <trkpt lat="43.72979" lon="6.97241">
        <ele>994</ele>
        <time>2018-01-02T11:39:11.552Z</time>
      </trkpt>
      <trkpt lat="43.72981" lon="6.97235">
        <ele>994</ele>
        <time>2018-01-02T11:39:18.552Z</time>
      </trkpt>
      <trkpt lat="43.72985" lon="6.97227">
        <ele>994</ele>
        <time>2018-01-02T11:39:29.552Z</time>
      </trkpt>
      <trkpt lat="43.72988" lon="6.97218">
        <ele>994</ele>
        <time>2018-01-02T11:39:40.552Z</time>
      </trkpt>
      <trkpt lat="43.72989" lon="6.97208">
        <ele>994</ele>
        <time>2018-01-02T11:39:51.552Z</time>
      </trkpt>
      <trkpt lat="43.7299" lon="6.97204">
        <ele>994</ele>
        <time>2018-01-02T11:39:55.552Z</time>
      </trkpt>
      <trkpt lat="43.72992" lon="6.97199">
        <ele>995</ele>
        <time>2018-01-02T11:40:14.552Z</time>
      </trkpt>
      <trkpt lat="43.72996" lon="6.97188">
        <ele>998</ele>
        <time>2018-01-02T11:40:34.552Z</time>
      </trkpt>
      <trkpt lat="43.72998" lon="6.97176">
        <ele>1004</ele>
        <time>2018-01-02T11:40:50.552Z</time>
      </trkpt>
      <trkpt lat="43.72997" lon="6.97168">
        <ele>1009</ele>
        <time>2018-01-02T11:41:01.552Z</time>
      </trkpt>
      <trkpt lat="43.73001" lon="6.97162">
        <ele>1014</ele>
        <time>2018-01-02T11:41:14.552Z</time>
      </trkpt>
      <trkpt lat="43.73004" lon="6.97155">
        <ele>1017</ele>
        <time>2018-01-02T11:41:24.552Z</time>
      </trkpt>
      <trkpt lat="43.73006" lon="6.97147">
        <ele>1019</ele>
        <time>2018-01-02T11:41:38.552Z</time>
      </trkpt>
      <trkpt lat="43.73005" lon="6.97139">
        <ele>1021</ele>
        <time>2018-01-02T11:41:50.552Z</time>
      </trkpt>
      <trkpt lat="43.73009" lon="6.9713">
        <ele>1022</ele>
        <time>2018-01-02T11:42:05.552Z</time>
      </trkpt>
      <trkpt lat="43.73016" lon="6.9713">
        <ele>1022</ele>
        <time>2018-01-02T11:42:23.552Z</time>
      </trkpt>
      <trkpt lat="43.73021" lon="6.97138">
        <ele>1022</ele>
        <time>2018-01-02T11:43:04.552Z</time>
      </trkpt>
      <trkpt lat="43.7303" lon="6.97141">
        <ele>1023</ele>
        <time>2018-01-02T11:47:06.552Z</time>
      </trkpt>
      <trkpt lat="43.73038" lon="6.97145">
        <ele>1024</ele>
        <time>2018-01-02T11:47:12.552Z</time>
      </trkpt>
      <trkpt lat="43.73046" lon="6.9715">
        <ele>1025</ele>
        <time>2018-01-02T11:47:16.552Z</time>
      </trkpt>
      <trkpt lat="43.73054" lon="6.97153">
        <ele>1025</ele>
        <time>2018-01-02T11:47:19.552Z</time>
      </trkpt>
      <trkpt lat="43.73062" lon="6.97156">
        <ele>1026</ele>
        <time>2018-01-02T11:47:22.552Z</time>
      </trkpt>
      <trkpt lat="43.73071" lon="6.9716">
        <ele>1028</ele>
        <time>2018-01-02T11:47:26.552Z</time>
      </trkpt>
      <trkpt lat="43.73081" lon="6.97164">
        <ele>1029</ele>
        <time>2018-01-02T11:47:30.552Z</time>
      </trkpt>
      <trkpt lat="43.73091" lon="6.97168">
        <ele>1030</ele>
        <time>2018-01-02T11:47:34.552Z</time>
      </trkpt>
      <trkpt lat="43.731" lon="6.97172">
        <ele>1031</ele>
        <time>2018-01-02T11:47:37.552Z</time>
      </trkpt>
      <trkpt lat="43.73109" lon="6.97176">
        <ele>1031</ele>
        <time>2018-01-02T11:47:40.552Z</time>
      </trkpt>
      <trkpt lat="43.73118" lon="6.9718">
        <ele>1031</ele>
        <time>2018-01-02T11:47:43.552Z</time>
      </trkpt>
      <trkpt lat="43.73128" lon="6.97184">
        <ele>1032</ele>
        <time>2018-01-02T11:47:46.552Z</time>
      </trkpt>
      <trkpt lat="43.73136" lon="6.97186">
        <ele>1032</ele>
        <time>2018-01-02T11:47:49.552Z</time>
      </trkpt>
      <trkpt lat="43.73144" lon="6.97188">
        <ele>1032</ele>
        <time>2018-01-02T11:47:52.552Z</time>
      </trkpt>
      <trkpt lat="43.73152" lon="6.97193">
        <ele>1032</ele>
        <time>2018-01-02T11:47:56.552Z</time>
      </trkpt>
      <trkpt lat="43.73159" lon="6.97196">
        <ele>1032</ele>
        <time>2018-01-02T11:47:59.552Z</time>
      </trkpt>
      <trkpt lat="43.73166" lon="6.97199">
        <ele>1032</ele>
        <time>2018-01-02T11:48:02.552Z</time>
      </trkpt>
      <trkpt lat="43.73174" lon="6.97202">
        <ele>1033</ele>
        <time>2018-01-02T11:48:05.552Z</time>
      </trkpt>
      <trkpt lat="43.7318" lon="6.97206">
        <ele>1033</ele>
        <time>2018-01-02T11:48:08.552Z</time>
      </trkpt>
      <trkpt lat="43.73187" lon="6.97208">
        <ele>1033</ele>
        <time>2018-01-02T11:48:11.552Z</time>
      </trkpt>
      <trkpt lat="43.73193" lon="6.97211">
        <ele>1033</ele>
        <time>2018-01-02T11:48:14.552Z</time>
      </trkpt>
      <trkpt lat="43.73202" lon="6.97216">
        <ele>1033</ele>
        <time>2018-01-02T11:48:18.552Z</time>
      </trkpt>
      <trkpt lat="43.73211" lon="6.9722">
        <ele>1033</ele>
        <time>2018-01-02T11:48:22.552Z</time>
      </trkpt>
      <trkpt lat="43.73219" lon="6.97223">
        <ele>1032</ele>
        <time>2018-01-02T11:48:26.552Z</time>
      </trkpt>
      <trkpt lat="43.73227" lon="6.97226">
        <ele>1032</ele>
        <time>2018-01-02T11:48:29.552Z</time>
      </trkpt>
      <trkpt lat="43.73234" lon="6.97228">
        <ele>1032</ele>
        <time>2018-01-02T11:48:32.552Z</time>
      </trkpt>
      <trkpt lat="43.73242" lon="6.97232">
        <ele>1032</ele>
        <time>2018-01-02T11:48:35.552Z</time>
      </trkpt>
      <trkpt lat="43.73252" lon="6.97236">
        <ele>1031</ele>
        <time>2018-01-02T11:48:38.552Z</time>
      </trkpt>
      <trkpt lat="43.73259" lon="6.9724">
        <ele>1031</ele>
        <time>2018-01-02T11:48:40.552Z</time>
      </trkpt>
      <trkpt lat="43.73267" lon="6.97245">
        <ele>1031</ele>
        <time>2018-01-02T11:48:42.552Z</time>
      </trkpt>
      <trkpt lat="43.73276" lon="6.97248">
        <ele>1031</ele>
        <time>2018-01-02T11:48:44.552Z</time>
      </trkpt>
      <trkpt lat="43.73287" lon="6.97252">
        <ele>1029</ele>
        <time>2018-01-02T11:48:47.552Z</time>
      </trkpt>
      <trkpt lat="43.73298" lon="6.97256">
        <ele>1028</ele>
        <time>2018-01-02T11:48:50.552Z</time>
      </trkpt>
      <trkpt lat="43.73311" lon="6.97262">
        <ele>1028</ele>
        <time>2018-01-02T11:48:53.552Z</time>
      </trkpt>
      <trkpt lat="43.73322" lon="6.97266">
        <ele>1028</ele>
        <time>2018-01-02T11:48:55.552Z</time>
      </trkpt>
      <trkpt lat="43.73333" lon="6.97271">
        <ele>1028</ele>
        <time>2018-01-02T11:48:57.552Z</time>
      </trkpt>
      <trkpt lat="43.73344" lon="6.97276">
        <ele>1027</ele>
        <time>2018-01-02T11:48:59.552Z</time>
      </trkpt>
      <trkpt lat="43.73353" lon="6.9728">
        <ele>1027</ele>
        <time>2018-01-02T11:49:01.552Z</time>
      </trkpt>
      <trkpt lat="43.73364" lon="6.97285">
        <ele>1027</ele>
        <time>2018-01-02T11:49:04.552Z</time>
      </trkpt>
      <trkpt lat="43.73373" lon="6.9729">
        <ele>1027</ele>
        <time>2018-01-02T11:49:07.552Z</time>
      </trkpt>
      <trkpt lat="43.73382" lon="6.97294">
        <ele>1026</ele>
        <time>2018-01-02T11:49:10.552Z</time>
      </trkpt>
      <trkpt lat="43.7339" lon="6.97298">
        <ele>1026</ele>
        <time>2018-01-02T11:49:13.552Z</time>
      </trkpt>
      <trkpt lat="43.734" lon="6.97302">
        <ele>1026</ele>
        <time>2018-01-02T11:49:16.552Z</time>
      </trkpt>
      <trkpt lat="43.73409" lon="6.97305">
        <ele>1026</ele>
        <time>2018-01-02T11:49:19.552Z</time>
      </trkpt>
      <trkpt lat="43.73417" lon="6.97308">
        <ele>1027</ele>
        <time>2018-01-02T11:49:22.552Z</time>
      </trkpt>
      <trkpt lat="43.73426" lon="6.97313">
        <ele>1027</ele>
        <time>2018-01-02T11:49:25.552Z</time>
      </trkpt>
      <trkpt lat="43.73435" lon="6.97317">
        <ele>1027</ele>
        <time>2018-01-02T11:49:28.552Z</time>
      </trkpt>
      <trkpt lat="43.73445" lon="6.97322">
        <ele>1027</ele>
        <time>2018-01-02T11:49:31.552Z</time>
      </trkpt>
      <trkpt lat="43.73455" lon="6.97326">
        <ele>1027</ele>
        <time>2018-01-02T11:49:34.552Z</time>
      </trkpt>
      <trkpt lat="43.73466" lon="6.9733">
        <ele>1027</ele>
        <time>2018-01-02T11:49:37.552Z</time>
      </trkpt>
      <trkpt lat="43.73476" lon="6.97336">
        <ele>1025</ele>
        <time>2018-01-02T11:49:41.552Z</time>
      </trkpt>
      <trkpt lat="43.73486" lon="6.97339">
        <ele>1025</ele>
        <time>2018-01-02T11:49:44.552Z</time>
      </trkpt>
      <trkpt lat="43.73496" lon="6.97344">
        <ele>1025</ele>
        <time>2018-01-02T11:49:47.552Z</time>
      </trkpt>
      <trkpt lat="43.73506" lon="6.97348">
        <ele>1026</ele>
        <time>2018-01-02T11:49:50.552Z</time>
      </trkpt>
      <trkpt lat="43.73517" lon="6.97353">
        <ele>1027</ele>
        <time>2018-01-02T11:49:54.552Z</time>
      </trkpt>
      <trkpt lat="43.73524" lon="6.97359">
        <ele>1027</ele>
        <time>2018-01-02T11:49:57.552Z</time>
      </trkpt>
      <trkpt lat="43.73526" lon="6.97369">
        <ele>1028</ele>
        <time>2018-01-02T11:50:01.552Z</time>
      </trkpt>
      <trkpt lat="43.73529" lon="6.97379">
        <ele>1028</ele>
        <time>2018-01-02T11:50:05.552Z</time>
      </trkpt>
      <trkpt lat="43.73532" lon="6.97388">
        <ele>1028</ele>
        <time>2018-01-02T11:50:09.552Z</time>
      </trkpt>
      <trkpt lat="43.73537" lon="6.97399">
        <ele>1028</ele>
        <time>2018-01-02T11:50:15.552Z</time>
      </trkpt>
      <trkpt lat="43.7354" lon="6.97409">
        <ele>1028</ele>
        <time>2018-01-02T11:50:20.552Z</time>
      </trkpt>
      <trkpt lat="43.73544" lon="6.9742">
        <ele>1027</ele>
        <time>2018-01-02T11:50:26.552Z</time>
      </trkpt>
      <trkpt lat="43.73551" lon="6.97428">
        <ele>1028</ele>
        <time>2018-01-02T11:50:39.552Z</time>
      </trkpt>
      <trkpt lat="43.73558" lon="6.97436">
        <ele>1028</ele>
        <time>2018-01-02T11:50:47.552Z</time>
      </trkpt>
      <trkpt lat="43.73563" lon="6.97443">
        <ele>1028</ele>
        <time>2018-01-02T11:50:54.552Z</time>
      </trkpt>
      <trkpt lat="43.73569" lon="6.97449">
        <ele>1027</ele>
        <time>2018-01-02T11:51:01.552Z</time>
      </trkpt>
      <trkpt lat="43.73578" lon="6.97453">
        <ele>1027</ele>
        <time>2018-01-02T11:52:10.552Z</time>
      </trkpt>
      <trkpt lat="43.73586" lon="6.97456">
        <ele>1030</ele>
        <time>2018-01-02T11:52:14.552Z</time>
      </trkpt>
      <trkpt lat="43.7359" lon="6.97458">
        <ele>1030</ele>
        <time>2018-01-02T11:52:16.552Z</time>
      </trkpt>
      <trkpt lat="43.73599" lon="6.97462">
        <ele>1030</ele>
        <time>2018-01-02T11:52:20.552Z</time>
      </trkpt>
      <trkpt lat="43.73606" lon="6.97465">
        <ele>1030</ele>
        <time>2018-01-02T11:52:23.552Z</time>
      </trkpt>
      <trkpt lat="43.73616" lon="6.97468">
        <ele>1030</ele>
        <time>2018-01-02T11:52:26.552Z</time>
      </trkpt>
      <trkpt lat="43.73626" lon="6.9747">
        <ele>1030</ele>
        <time>2018-01-02T11:52:29.552Z</time>
      </trkpt>
      <trkpt lat="43.73637" lon="6.9747">
        <ele>1031</ele>
        <time>2018-01-02T11:52:33.552Z</time>
      </trkpt>
      <trkpt lat="43.73648" lon="6.97467">
        <ele>1031</ele>
        <time>2018-01-02T11:52:38.552Z</time>
      </trkpt>
      <trkpt lat="43.7366" lon="6.97463">
        <ele>1031</ele>
        <time>2018-01-02T11:52:42.552Z</time>
      </trkpt>
      <trkpt lat="43.73671" lon="6.97461">
        <ele>1033</ele>
        <time>2018-01-02T11:52:46.552Z</time>
      </trkpt>
      <trkpt lat="43.73683" lon="6.97456">
        <ele>1033</ele>
        <time>2018-01-02T11:52:50.552Z</time>
      </trkpt>
      <trkpt lat="43.73693" lon="6.97453">
        <ele>1033</ele>
        <time>2018-01-02T11:52:53.552Z</time>
      </trkpt>
      <trkpt lat="43.73704" lon="6.97449">
        <ele>1034</ele>
        <time>2018-01-02T11:52:57.552Z</time>
      </trkpt>
      <trkpt lat="43.73715" lon="6.97446">
        <ele>1034</ele>
        <time>2018-01-02T11:53:01.552Z</time>
      </trkpt>
      <trkpt lat="43.73725" lon="6.97445">
        <ele>1034</ele>
        <time>2018-01-02T11:53:06.552Z</time>
      </trkpt>
      <trkpt lat="43.73736" lon="6.97441">
        <ele>1034</ele>
        <time>2018-01-02T11:53:11.552Z</time>
      </trkpt>
      <trkpt lat="43.73747" lon="6.97439">
        <ele>1035</ele>
        <time>2018-01-02T11:53:17.552Z</time>
      </trkpt>
      <trkpt lat="43.73758" lon="6.97437">
        <ele>1034</ele>
        <time>2018-01-02T11:53:23.552Z</time>
      </trkpt>
      <trkpt lat="43.7377" lon="6.97435">
        <ele>1033</ele>
        <time>2018-01-02T11:53:27.552Z</time>
      </trkpt>
      <trkpt lat="43.73781" lon="6.97432">
        <ele>1033</ele>
        <time>2018-01-02T11:53:31.552Z</time>
      </trkpt>
      <trkpt lat="43.73791" lon="6.97428">
        <ele>1032</ele>
        <time>2018-01-02T11:53:34.552Z</time>
      </trkpt>
      <trkpt lat="43.73803" lon="6.97421">
        <ele>1032</ele>
        <time>2018-01-02T11:53:38.552Z</time>
      </trkpt>
      <trkpt lat="43.73814" lon="6.97414">
        <ele>1036</ele>
        <time>2018-01-02T11:53:42.552Z</time>
      </trkpt>
      <trkpt lat="43.73823" lon="6.97408">
        <ele>1035</ele>
        <time>2018-01-02T11:53:45.552Z</time>
      </trkpt>
      <trkpt lat="43.73831" lon="6.97398">
        <ele>1036</ele>
        <time>2018-01-02T11:53:48.552Z</time>
      </trkpt>
      <trkpt lat="43.73839" lon="6.97389">
        <ele>1037</ele>
        <time>2018-01-02T11:53:51.552Z</time>
      </trkpt>
      <trkpt lat="43.7385" lon="6.97382">
        <ele>1039</ele>
        <time>2018-01-02T11:53:54.552Z</time>
      </trkpt>
      <trkpt lat="43.73862" lon="6.97379">
        <ele>1039</ele>
        <time>2018-01-02T11:53:57.552Z</time>
      </trkpt>
      <trkpt lat="43.73873" lon="6.97382">
        <ele>1039</ele>
        <time>2018-01-02T11:54:00.552Z</time>
      </trkpt>
      <trkpt lat="43.73883" lon="6.97387">
        <ele>1039</ele>
        <time>2018-01-02T11:54:03.552Z</time>
      </trkpt>
      <trkpt lat="43.7389" lon="6.97397">
        <ele>1039</ele>
        <time>2018-01-02T11:54:10.552Z</time>
      </trkpt>
      <trkpt lat="43.73897" lon="6.9739">
        <ele>1040</ele>
        <time>2018-01-02T11:54:18.552Z</time>
      </trkpt>
      <trkpt lat="43.73901" lon="6.97382">
        <ele>1040</ele>
        <time>2018-01-02T11:54:23.552Z</time>
      </trkpt>
      <trkpt lat="43.73905" lon="6.9737">
        <ele>1041</ele>
        <time>2018-01-02T11:54:30.552Z</time>
      </trkpt>
      <trkpt lat="43.73912" lon="6.97362">
        <ele>1042</ele>
        <time>2018-01-02T11:54:36.552Z</time>
      </trkpt>
      <trkpt lat="43.73921" lon="6.97359">
        <ele>1049</ele>
        <time>2018-01-02T11:54:42.552Z</time>
      </trkpt>
      <trkpt lat="43.73937" lon="6.9736">
        <ele>1050</ele>
        <time>2018-01-02T11:54:52.552Z</time>
      </trkpt>
      <trkpt lat="43.7394" lon="6.97367">
        <ele>1051</ele>
        <time>2018-01-02T11:54:57.552Z</time>
      </trkpt>
      <trkpt lat="43.73942" lon="6.97376">
        <ele>1050</ele>
        <time>2018-01-02T11:55:02.552Z</time>
      </trkpt>
      <trkpt lat="43.73945" lon="6.97383">
        <ele>1050</ele>
        <time>2018-01-02T11:55:11.552Z</time>
      </trkpt>
      <trkpt lat="43.73948" lon="6.9739">
        <ele>1050</ele>
        <time>2018-01-02T11:55:19.552Z</time>
      </trkpt>
      <trkpt lat="43.7395" lon="6.97398">
        <ele>1050</ele>
        <time>2018-01-02T11:55:28.552Z</time>
      </trkpt>
      <trkpt lat="43.73955" lon="6.97405">
        <ele>1051</ele>
        <time>2018-01-02T11:55:37.552Z</time>
      </trkpt>
      <trkpt lat="43.73959" lon="6.97414">
        <ele>1052</ele>
        <time>2018-01-02T11:55:48.552Z</time>
      </trkpt>
      <trkpt lat="43.73964" lon="6.97424">
        <ele>1051</ele>
        <time>2018-01-02T11:56:01.552Z</time>
      </trkpt>
      <trkpt lat="43.73967" lon="6.97435">
        <ele>1051</ele>
        <time>2018-01-02T11:56:11.552Z</time>
      </trkpt>
      <trkpt lat="43.73972" lon="6.97444">
        <ele>1051</ele>
        <time>2018-01-02T11:56:19.552Z</time>
      </trkpt>
      <trkpt lat="43.73975" lon="6.97451">
        <ele>1052</ele>
        <time>2018-01-02T11:56:25.552Z</time>
      </trkpt>
      <trkpt lat="43.73977" lon="6.97461">
        <ele>1052</ele>
        <time>2018-01-02T11:56:34.552Z</time>
      </trkpt>
      <trkpt lat="43.73978" lon="6.9747">
        <ele>1052</ele>
        <time>2018-01-02T11:56:42.552Z</time>
      </trkpt>
      <trkpt lat="43.73982" lon="6.97477">
        <ele>1053</ele>
        <time>2018-01-02T11:56:50.552Z</time>
      </trkpt>
      <trkpt lat="43.73984" lon="6.97487">
        <ele>1054</ele>
        <time>2018-01-02T11:57:00.552Z</time>
      </trkpt>
      <trkpt lat="43.73987" lon="6.97495">
        <ele>1055</ele>
        <time>2018-01-02T11:57:07.552Z</time>
      </trkpt>
      <trkpt lat="43.73989" lon="6.97504">
        <ele>1055</ele>
        <time>2018-01-02T11:57:16.552Z</time>
      </trkpt>
      <trkpt lat="43.73991" lon="6.97513">
        <ele>1054</ele>
        <time>2018-01-02T11:57:25.552Z</time>
      </trkpt>
      <trkpt lat="43.73994" lon="6.97526">
        <ele>1053</ele>
        <time>2018-01-02T11:57:35.552Z</time>
      </trkpt>
      <trkpt lat="43.73998" lon="6.97535">
        <ele>1052</ele>
        <time>2018-01-02T11:57:42.552Z</time>
      </trkpt>
      <trkpt lat="43.74003" lon="6.97546">
        <ele>1064</ele>
        <time>2018-01-02T11:57:51.552Z</time>
      </trkpt>
      <trkpt lat="43.74007" lon="6.97556">
        <ele>1064</ele>
        <time>2018-01-02T11:57:57.552Z</time>
      </trkpt>
      <trkpt lat="43.7401" lon="6.97566">
        <ele>1063</ele>
        <time>2018-01-02T11:58:02.552Z</time>
      </trkpt>
      <trkpt lat="43.74013" lon="6.97574">
        <ele>1062</ele>
        <time>2018-01-02T11:58:07.552Z</time>
      </trkpt>
      <trkpt lat="43.74018" lon="6.97583">
        <ele>1063</ele>
        <time>2018-01-02T11:58:12.552Z</time>
      </trkpt>
      <trkpt lat="43.74022" lon="6.97592">
        <ele>1062</ele>
        <time>2018-01-02T11:58:16.552Z</time>
      </trkpt>
      <trkpt lat="43.74027" lon="6.97599">
        <ele>1063</ele>
        <time>2018-01-02T11:58:20.552Z</time>
      </trkpt>
      <trkpt lat="43.74033" lon="6.97607">
        <ele>1063</ele>
        <time>2018-01-02T11:58:24.552Z</time>
      </trkpt>
      <trkpt lat="43.74037" lon="6.97615">
        <ele>1063</ele>
        <time>2018-01-02T11:58:28.552Z</time>
      </trkpt>
      <trkpt lat="43.74043" lon="6.97623">
        <ele>1064</ele>
        <time>2018-01-02T11:58:33.552Z</time>
      </trkpt>
      <trkpt lat="43.7405" lon="6.97631">
        <ele>1064</ele>
        <time>2018-01-02T11:58:39.552Z</time>
      </trkpt>
      <trkpt lat="43.74056" lon="6.9764">
        <ele>1064</ele>
        <time>2018-01-02T11:58:45.552Z</time>
      </trkpt>
      <trkpt lat="43.74062" lon="6.97649">
        <ele>1065</ele>
        <time>2018-01-02T11:58:51.552Z</time>
      </trkpt>
      <trkpt lat="43.74068" lon="6.97659">
        <ele>1066</ele>
        <time>2018-01-02T11:58:57.552Z</time>
      </trkpt>
      <trkpt lat="43.74072" lon="6.97668">
        <ele>1064</ele>
        <time>2018-01-02T11:59:02.552Z</time>
      </trkpt>
      <trkpt lat="43.74078" lon="6.97676">
        <ele>1064</ele>
        <time>2018-01-02T11:59:07.552Z</time>
      </trkpt>
      <trkpt lat="43.74084" lon="6.97684">
        <ele>1069</ele>
        <time>2018-01-02T11:59:12.552Z</time>
      </trkpt>
      <trkpt lat="43.74091" lon="6.97691">
        <ele>1070</ele>
        <time>2018-01-02T11:59:18.552Z</time>
      </trkpt>
      <trkpt lat="43.74097" lon="6.97691">
        <ele>1070</ele>
        <time>2018-01-02T11:59:23.552Z</time>
      </trkpt>
      <trkpt lat="43.74099" lon="6.97684">
        <ele>1070</ele>
        <time>2018-01-02T11:59:31.552Z</time>
      </trkpt>
      <trkpt lat="43.74099" lon="6.97676">
        <ele>1070</ele>
        <time>2018-01-02T11:59:38.552Z</time>
      </trkpt>
      <trkpt lat="43.74099" lon="6.97668">
        <ele>1070</ele>
        <time>2018-01-02T11:59:45.552Z</time>
      </trkpt>
      <trkpt lat="43.74102" lon="6.97662">
        <ele>1073</ele>
        <time>2018-01-02T11:59:53.552Z</time>
      </trkpt>
      <trkpt lat="43.74105" lon="6.97656">
        <ele>1074</ele>
        <time>2018-01-02T12:00:03.552Z</time>
      </trkpt>
      <trkpt lat="43.74106" lon="6.97648">
        <ele>1075</ele>
        <time>2018-01-02T12:00:09.552Z</time>
      </trkpt>
      <trkpt lat="43.74109" lon="6.97641">
        <ele>1076</ele>
        <time>2018-01-02T12:00:15.552Z</time>
      </trkpt>
      <trkpt lat="43.74115" lon="6.97632">
        <ele>1077</ele>
        <time>2018-01-02T12:00:24.552Z</time>
      </trkpt>
      <trkpt lat="43.74117" lon="6.97628">
        <ele>1077</ele>
        <time>2018-01-02T12:00:31.552Z</time>
      </trkpt>
      <trkpt lat="43.74121" lon="6.97617">
        <ele>1078</ele>
        <time>2018-01-02T12:00:39.552Z</time>
      </trkpt>
      <trkpt lat="43.74124" lon="6.97607">
        <ele>1078</ele>
        <time>2018-01-02T12:00:44.552Z</time>
      </trkpt>
      <trkpt lat="43.74126" lon="6.97598">
        <ele>1079</ele>
        <time>2018-01-02T12:00:49.552Z</time>
      </trkpt>
      <trkpt lat="43.74126" lon="6.97587">
        <ele>1079</ele>
        <time>2018-01-02T12:00:53.552Z</time>
      </trkpt>
      <trkpt lat="43.74126" lon="6.97581">
        <ele>1082</ele>
        <time>2018-01-02T12:00:55.552Z</time>
      </trkpt>
      <trkpt lat="43.74126" lon="6.97576">
        <ele>1082</ele>
        <time>2018-01-02T12:00:57.552Z</time>
      </trkpt>
      <trkpt lat="43.74126" lon="6.9757">
        <ele>1082</ele>
        <time>2018-01-02T12:00:59.552Z</time>
      </trkpt>
      <trkpt lat="43.74127" lon="6.97563">
        <ele>1082</ele>
        <time>2018-01-02T12:01:02.552Z</time>
      </trkpt>
      <trkpt lat="43.7413" lon="6.97557">
        <ele>1082</ele>
        <time>2018-01-02T12:01:05.552Z</time>
      </trkpt>
      <trkpt lat="43.74133" lon="6.9755">
        <ele>1083</ele>
        <time>2018-01-02T12:01:08.552Z</time>
      </trkpt>
      <trkpt lat="43.74133" lon="6.97543">
        <ele>1083</ele>
        <time>2018-01-02T12:01:11.552Z</time>
      </trkpt>
      <trkpt lat="43.74134" lon="6.97535">
        <ele>1083</ele>
        <time>2018-01-02T12:01:14.552Z</time>
      </trkpt>
      <trkpt lat="43.74135" lon="6.97528">
        <ele>1083</ele>
        <time>2018-01-02T12:01:17.552Z</time>
      </trkpt>
      <trkpt lat="43.74139" lon="6.97525">
        <ele>1083</ele>
        <time>2018-01-02T12:01:20.552Z</time>
      </trkpt>
      <trkpt lat="43.74144" lon="6.97523">
        <ele>1084</ele>
        <time>2018-01-02T12:01:24.552Z</time>
      </trkpt>
      <trkpt lat="43.74145" lon="6.97517">
        <ele>1084</ele>
        <time>2018-01-02T12:01:27.552Z</time>
      </trkpt>
      <trkpt lat="43.74146" lon="6.97511">
        <ele>1085</ele>
        <time>2018-01-02T12:01:30.552Z</time>
      </trkpt>
      <trkpt lat="43.74148" lon="6.97505">
        <ele>1085</ele>
        <time>2018-01-02T12:01:33.552Z</time>
      </trkpt>
      <trkpt lat="43.74152" lon="6.975">
        <ele>1086</ele>
        <time>2018-01-02T12:01:36.552Z</time>
      </trkpt>
      <trkpt lat="43.74156" lon="6.97494">
        <ele>1088</ele>
        <time>2018-01-02T12:01:41.552Z</time>
      </trkpt>
      <trkpt lat="43.74158" lon="6.97487">
        <ele>1088</ele>
        <time>2018-01-02T12:01:44.552Z</time>
      </trkpt>
      <trkpt lat="43.7416" lon="6.97481">
        <ele>1088</ele>
        <time>2018-01-02T12:01:49.552Z</time>
      </trkpt>
      <trkpt lat="43.74163" lon="6.97476">
        <ele>1088</ele>
        <time>2018-01-02T12:01:51.552Z</time>
      </trkpt>
      <trkpt lat="43.74166" lon="6.97469">
        <ele>1088</ele>
        <time>2018-01-02T12:01:54.552Z</time>
      </trkpt>
      <trkpt lat="43.7417" lon="6.97462">
        <ele>1092</ele>
        <time>2018-01-02T12:01:57.552Z</time>
      </trkpt>
      <trkpt lat="43.74174" lon="6.97457">
        <ele>1092</ele>
        <time>2018-01-02T12:02:00.552Z</time>
      </trkpt>
      <trkpt lat="43.7418" lon="6.97447">
        <ele>1092</ele>
        <time>2018-01-02T12:02:06.552Z</time>
      </trkpt>
      <trkpt lat="43.7418" lon="6.97438">
        <ele>1093</ele>
        <time>2018-01-02T12:02:10.552Z</time>
      </trkpt>
      <trkpt lat="43.74182" lon="6.97426">
        <ele>1093</ele>
        <time>2018-01-02T12:02:15.552Z</time>
      </trkpt>
      <trkpt lat="43.74188" lon="6.97416">
        <ele>1096</ele>
        <time>2018-01-02T12:02:21.552Z</time>
      </trkpt>
      <trkpt lat="43.74193" lon="6.97408">
        <ele>1096</ele>
        <time>2018-01-02T12:02:27.552Z</time>
      </trkpt>
      <trkpt lat="43.74195" lon="6.97401">
        <ele>1096</ele>
        <time>2018-01-02T12:02:37.552Z</time>
      </trkpt>
      <trkpt lat="43.74196" lon="6.97392">
        <ele>1097</ele>
        <time>2018-01-02T12:02:48.552Z</time>
      </trkpt>
      <trkpt lat="43.74197" lon="6.97383">
        <ele>1097</ele>
        <time>2018-01-02T12:03:00.552Z</time>
      </trkpt>
      <trkpt lat="43.742" lon="6.9737">
        <ele>1097</ele>
        <time>2018-01-02T12:03:12.552Z</time>
      </trkpt>
      <trkpt lat="43.74203" lon="6.97363">
        <ele>1098</ele>
        <time>2018-01-02T12:03:21.552Z</time>
      </trkpt>
      <trkpt lat="43.74205" lon="6.97355">
        <ele>1098</ele>
        <time>2018-01-02T12:03:28.552Z</time>
      </trkpt>
      <trkpt lat="43.74206" lon="6.97347">
        <ele>1098</ele>
        <time>2018-01-02T12:03:34.552Z</time>
      </trkpt>
      <trkpt lat="43.74212" lon="6.97337">
        <ele>1099</ele>
        <time>2018-01-02T12:03:47.552Z</time>
      </trkpt>
      <trkpt lat="43.74216" lon="6.97331">
        <ele>1099</ele>
        <time>2018-01-02T12:03:51.552Z</time>
      </trkpt>
      <trkpt lat="43.74218" lon="6.97324">
        <ele>1099</ele>
        <time>2018-01-02T12:03:55.552Z</time>
      </trkpt>
      <trkpt lat="43.74221" lon="6.97317">
        <ele>1099</ele>
        <time>2018-01-02T12:03:59.552Z</time>
      </trkpt>
      <trkpt lat="43.74226" lon="6.97309">
        <ele>1099</ele>
        <time>2018-01-02T12:04:03.552Z</time>
      </trkpt>
      <trkpt lat="43.7423" lon="6.97301">
        <ele>1099</ele>
        <time>2018-01-02T12:04:07.552Z</time>
      </trkpt>
      <trkpt lat="43.74234" lon="6.97295">
        <ele>1099</ele>
        <time>2018-01-02T12:04:10.552Z</time>
      </trkpt>
      <trkpt lat="43.74239" lon="6.97286">
        <ele>1099</ele>
        <time>2018-01-02T12:04:15.552Z</time>
      </trkpt>
      <trkpt lat="43.74244" lon="6.97283">
        <ele>1099</ele>
        <time>2018-01-02T12:04:18.552Z</time>
      </trkpt>
      <trkpt lat="43.74249" lon="6.97279">
        <ele>1100</ele>
        <time>2018-01-02T12:04:21.552Z</time>
      </trkpt>
      <trkpt lat="43.74257" lon="6.97274">
        <ele>1103</ele>
        <time>2018-01-02T12:04:27.552Z</time>
      </trkpt>
      <trkpt lat="43.74267" lon="6.97269">
        <ele>1103</ele>
        <time>2018-01-02T12:04:37.552Z</time>
      </trkpt>
      <trkpt lat="43.74275" lon="6.9726">
        <ele>1103</ele>
        <time>2018-01-02T12:04:42.552Z</time>
      </trkpt>
      <trkpt lat="43.74278" lon="6.97249">
        <ele>1106</ele>
        <time>2018-01-02T12:04:47.552Z</time>
      </trkpt>
      <trkpt lat="43.74278" lon="6.9724">
        <ele>1106</ele>
        <time>2018-01-02T12:04:51.552Z</time>
      </trkpt>
      <trkpt lat="43.74281" lon="6.97227">
        <ele>1107</ele>
        <time>2018-01-02T12:04:58.552Z</time>
      </trkpt>
      <trkpt lat="43.74283" lon="6.97219">
        <ele>1108</ele>
        <time>2018-01-02T12:05:03.552Z</time>
      </trkpt>
      <trkpt lat="43.74284" lon="6.97212">
        <ele>1108</ele>
        <time>2018-01-02T12:05:09.552Z</time>
      </trkpt>
      <trkpt lat="43.74285" lon="6.97204">
        <ele>1109</ele>
        <time>2018-01-02T12:05:17.552Z</time>
      </trkpt>
      <trkpt lat="43.74286" lon="6.97194">
        <ele>1110</ele>
        <time>2018-01-02T12:05:30.552Z</time>
      </trkpt>
      <trkpt lat="43.74288" lon="6.97186">
        <ele>1110</ele>
        <time>2018-01-02T12:05:38.552Z</time>
      </trkpt>
      <trkpt lat="43.7429" lon="6.97179">
        <ele>1111</ele>
        <time>2018-01-02T12:05:48.552Z</time>
      </trkpt>
      <trkpt lat="43.7429" lon="6.97171">
        <ele>1111</ele>
        <time>2018-01-02T12:05:54.552Z</time>
      </trkpt>
      <trkpt lat="43.74291" lon="6.97163">
        <ele>1120</ele>
        <time>2018-01-02T12:06:03.552Z</time>
      </trkpt>
      <trkpt lat="43.74292" lon="6.97156">
        <ele>1120</ele>
        <time>2018-01-02T12:06:14.552Z</time>
      </trkpt>
      <trkpt lat="43.74292" lon="6.97148">
        <ele>1121</ele>
        <time>2018-01-02T12:06:25.552Z</time>
      </trkpt>
      <trkpt lat="43.74294" lon="6.97142">
        <ele>1121</ele>
        <time>2018-01-02T12:06:35.552Z</time>
      </trkpt>
      <trkpt lat="43.74297" lon="6.97136">
        <ele>1122</ele>
        <time>2018-01-02T12:06:45.552Z</time>
      </trkpt>
      <trkpt lat="43.74299" lon="6.9713">
        <ele>1123</ele>
        <time>2018-01-02T12:06:56.552Z</time>
      </trkpt>
      <trkpt lat="43.74296" lon="6.97125">
        <ele>1123</ele>
        <time>2018-01-02T12:07:09.552Z</time>
      </trkpt>
      <trkpt lat="43.74298" lon="6.97118">
        <ele>1124</ele>
        <time>2018-01-02T12:07:21.552Z</time>
      </trkpt>
      <trkpt lat="43.74299" lon="6.9711">
        <ele>1125</ele>
        <time>2018-01-02T12:07:42.552Z</time>
      </trkpt>
      <trkpt lat="43.74301" lon="6.97097">
        <ele>1126</ele>
        <time>2018-01-02T12:08:02.552Z</time>
      </trkpt>
      <trkpt lat="43.743" lon="6.97086">
        <ele>1127</ele>
        <time>2018-01-02T12:08:18.552Z</time>
      </trkpt>
      <trkpt lat="43.74301" lon="6.97078">
        <ele>1138</ele>
        <time>2018-01-02T12:08:28.552Z</time>
      </trkpt>
      <trkpt lat="43.74301" lon="6.97067">
        <ele>1139</ele>
        <time>2018-01-02T12:08:43.552Z</time>
      </trkpt>
      <trkpt lat="43.74299" lon="6.97055">
        <ele>1140</ele>
        <time>2018-01-02T12:09:01.552Z</time>
      </trkpt>
      <trkpt lat="43.74297" lon="6.97047">
        <ele>1141</ele>
        <time>2018-01-02T12:09:13.552Z</time>
      </trkpt>
      <trkpt lat="43.74295" lon="6.97037">
        <ele>1142</ele>
        <time>2018-01-02T12:09:22.552Z</time>
      </trkpt>
      <trkpt lat="43.74298" lon="6.9703">
        <ele>1142</ele>
        <time>2018-01-02T12:09:29.552Z</time>
      </trkpt>
      <trkpt lat="43.743" lon="6.97022">
        <ele>1143</ele>
        <time>2018-01-02T12:09:36.552Z</time>
      </trkpt>
      <trkpt lat="43.743" lon="6.97014">
        <ele>1144</ele>
        <time>2018-01-02T12:09:45.552Z</time>
      </trkpt>
      <trkpt lat="43.74302" lon="6.97007">
        <ele>1145</ele>
        <time>2018-01-02T12:09:53.552Z</time>
      </trkpt>
      <trkpt lat="43.74303" lon="6.97">
        <ele>1155</ele>
        <time>2018-01-02T12:10:05.552Z</time>
      </trkpt>
      <trkpt lat="43.74301" lon="6.96989">
        <ele>1156</ele>
        <time>2018-01-02T12:10:21.552Z</time>
      </trkpt>
      <trkpt lat="43.74302" lon="6.96978">
        <ele>1157</ele>
        <time>2018-01-02T12:10:31.552Z</time>
      </trkpt>
      <trkpt lat="43.74305" lon="6.96967">
        <ele>1158</ele>
        <time>2018-01-02T12:10:41.552Z</time>
      </trkpt>
      <trkpt lat="43.74306" lon="6.96959">
        <ele>1159</ele>
        <time>2018-01-02T12:10:49.552Z</time>
      </trkpt>
      <trkpt lat="43.74305" lon="6.96945">
        <ele>1160</ele>
        <time>2018-01-02T12:11:05.552Z</time>
      </trkpt>
      <trkpt lat="43.74305" lon="6.96934">
        <ele>1161</ele>
        <time>2018-01-02T12:11:15.552Z</time>
      </trkpt>
      <trkpt lat="43.74302" lon="6.96925">
        <ele>1162</ele>
        <time>2018-01-02T12:11:25.552Z</time>
      </trkpt>
      <trkpt lat="43.743" lon="6.96915">
        <ele>1171</ele>
        <time>2018-01-02T12:11:35.552Z</time>
      </trkpt>
      <trkpt lat="43.74295" lon="6.96903">
        <ele>1171</ele>
        <time>2018-01-02T12:11:50.552Z</time>
      </trkpt>
      <trkpt lat="43.74293" lon="6.96893">
        <ele>1172</ele>
        <time>2018-01-02T12:12:00.552Z</time>
      </trkpt>
      <trkpt lat="43.74293" lon="6.96884">
        <ele>1172</ele>
        <time>2018-01-02T12:12:09.552Z</time>
      </trkpt>
      <trkpt lat="43.74295" lon="6.96876">
        <ele>1173</ele>
        <time>2018-01-02T12:12:18.552Z</time>
      </trkpt>
      <trkpt lat="43.74295" lon="6.96867">
        <ele>1173</ele>
        <time>2018-01-02T12:12:29.552Z</time>
      </trkpt>
      <trkpt lat="43.74299" lon="6.96859">
        <ele>1174</ele>
        <time>2018-01-02T12:12:38.552Z</time>
      </trkpt>
      <trkpt lat="43.74301" lon="6.96851">
        <ele>1175</ele>
        <time>2018-01-02T12:12:48.552Z</time>
      </trkpt>
      <trkpt lat="43.74304" lon="6.96845">
        <ele>1175</ele>
        <time>2018-01-02T12:12:54.552Z</time>
      </trkpt>
      <trkpt lat="43.74306" lon="6.96838">
        <ele>1176</ele>
        <time>2018-01-02T12:13:02.552Z</time>
      </trkpt>
      <trkpt lat="43.74309" lon="6.96831">
        <ele>1182</ele>
        <time>2018-01-02T12:13:09.552Z</time>
      </trkpt>
      <trkpt lat="43.74307" lon="6.96818">
        <ele>1182</ele>
        <time>2018-01-02T12:13:22.552Z</time>
      </trkpt>
      <trkpt lat="43.74309" lon="6.96807">
        <ele>1183</ele>
        <time>2018-01-02T12:13:31.552Z</time>
      </trkpt>
      <trkpt lat="43.74308" lon="6.96795">
        <ele>1184</ele>
        <time>2018-01-02T12:13:43.552Z</time>
      </trkpt>
      <trkpt lat="43.74312" lon="6.96785">
        <ele>1184</ele>
        <time>2018-01-02T12:13:53.552Z</time>
      </trkpt>
      <trkpt lat="43.74313" lon="6.9678">
        <ele>1185</ele>
        <time>2018-01-02T12:13:57.552Z</time>
      </trkpt>
      <trkpt lat="43.74314" lon="6.96776">
        <ele>1185</ele>
        <time>2018-01-02T12:14:00.552Z</time>
      </trkpt>
      <trkpt lat="43.74316" lon="6.96769">
        <ele>1186</ele>
        <time>2018-01-02T12:14:06.552Z</time>
      </trkpt>
      <trkpt lat="43.74317" lon="6.96761">
        <ele>1187</ele>
        <time>2018-01-02T12:14:12.552Z</time>
      </trkpt>
      <trkpt lat="43.74317" lon="6.96755">
        <ele>1187</ele>
        <time>2018-01-02T12:14:17.552Z</time>
      </trkpt>
      <trkpt lat="43.74317" lon="6.96749">
        <ele>1191</ele>
        <time>2018-01-02T12:14:22.552Z</time>
      </trkpt>
      <trkpt lat="43.74317" lon="6.96744">
        <ele>1191</ele>
        <time>2018-01-02T12:14:26.552Z</time>
      </trkpt>
      <trkpt lat="43.74316" lon="6.96737">
        <ele>1192</ele>
        <time>2018-01-02T12:14:31.552Z</time>
      </trkpt>
      <trkpt lat="43.74316" lon="6.96729">
        <ele>1192</ele>
        <time>2018-01-02T12:14:37.552Z</time>
      </trkpt>
      <trkpt lat="43.74316" lon="6.96719">
        <ele>1192</ele>
        <time>2018-01-02T12:14:44.552Z</time>
      </trkpt>
      <trkpt lat="43.74317" lon="6.96713">
        <ele>1193</ele>
        <time>2018-01-02T12:14:53.552Z</time>
      </trkpt>
      <trkpt lat="43.74317" lon="6.96707">
        <ele>1193</ele>
        <time>2018-01-02T12:14:58.552Z</time>
      </trkpt>
      <trkpt lat="43.74316" lon="6.96701">
        <ele>1193</ele>
        <time>2018-01-02T12:15:02.552Z</time>
      </trkpt>
      <trkpt lat="43.74316" lon="6.96695">
        <ele>1194</ele>
        <time>2018-01-02T12:15:06.552Z</time>
      </trkpt>
      <trkpt lat="43.74316" lon="6.96688">
        <ele>1195</ele>
        <time>2018-01-02T12:15:11.552Z</time>
      </trkpt>
      <trkpt lat="43.74316" lon="6.96681">
        <ele>1195</ele>
        <time>2018-01-02T12:15:16.552Z</time>
      </trkpt>
      <trkpt lat="43.74316" lon="6.96672">
        <ele>1196</ele>
        <time>2018-01-02T12:15:23.552Z</time>
      </trkpt>
      <trkpt lat="43.74312" lon="6.9667">
        <ele>1195</ele>
        <time>2018-01-02T12:15:59.552Z</time>
      </trkpt>
      <trkpt lat="43.74306" lon="6.96669">
        <ele>1195</ele>
        <time>2018-01-02T12:16:32.552Z</time>
      </trkpt>
      <trkpt lat="43.74313" lon="6.96673">
        <ele>1195</ele>
        <time>2018-01-02T12:16:59.552Z</time>
      </trkpt>
      <trkpt lat="43.74317" lon="6.96671">
        <ele>1196</ele>
        <time>2018-01-02T12:20:38.552Z</time>
      </trkpt>
      <trkpt lat="43.7432" lon="6.96666">
        <ele>1198</ele>
        <time>2018-01-02T12:20:53.552Z</time>
      </trkpt>
      <trkpt lat="43.74321" lon="6.96659">
        <ele>1198</ele>
        <time>2018-01-02T12:20:58.552Z</time>
      </trkpt>
      <trkpt lat="43.74322" lon="6.9665">
        <ele>1198</ele>
        <time>2018-01-02T12:21:02.552Z</time>
      </trkpt>
      <trkpt lat="43.74324" lon="6.96643">
        <ele>1198</ele>
        <time>2018-01-02T12:21:05.552Z</time>
      </trkpt>
      <trkpt lat="43.74325" lon="6.96636">
        <ele>1198</ele>
        <time>2018-01-02T12:21:08.552Z</time>
      </trkpt>
      <trkpt lat="43.74326" lon="6.96629">
        <ele>1198</ele>
        <time>2018-01-02T12:21:11.552Z</time>
      </trkpt>
      <trkpt lat="43.74329" lon="6.96621">
        <ele>1198</ele>
        <time>2018-01-02T12:21:15.552Z</time>
      </trkpt>
      <trkpt lat="43.74332" lon="6.96612">
        <ele>1199</ele>
        <time>2018-01-02T12:21:20.552Z</time>
      </trkpt>
      <trkpt lat="43.74335" lon="6.96605">
        <ele>1203</ele>
        <time>2018-01-02T12:21:24.552Z</time>
      </trkpt>
      <trkpt lat="43.74338" lon="6.96599">
        <ele>1203</ele>
        <time>2018-01-02T12:21:28.552Z</time>
      </trkpt>
      <trkpt lat="43.74341" lon="6.96592">
        <ele>1203</ele>
        <time>2018-01-02T12:21:32.552Z</time>
      </trkpt>
      <trkpt lat="43.74344" lon="6.96585">
        <ele>1203</ele>
        <time>2018-01-02T12:21:36.552Z</time>
      </trkpt>
      <trkpt lat="43.74346" lon="6.96575">
        <ele>1206</ele>
        <time>2018-01-02T12:21:41.552Z</time>
      </trkpt>
      <trkpt lat="43.74347" lon="6.96568">
        <ele>1207</ele>
        <time>2018-01-02T12:21:44.552Z</time>
      </trkpt>
      <trkpt lat="43.74349" lon="6.9656">
        <ele>1207</ele>
        <time>2018-01-02T12:21:48.552Z</time>
      </trkpt>
      <trkpt lat="43.74352" lon="6.96552">
        <ele>1208</ele>
        <time>2018-01-02T12:21:53.552Z</time>
      </trkpt>
      <trkpt lat="43.74355" lon="6.96544">
        <ele>1208</ele>
        <time>2018-01-02T12:21:58.552Z</time>
      </trkpt>
      <trkpt lat="43.74358" lon="6.96535">
        <ele>1209</ele>
        <time>2018-01-02T12:22:03.552Z</time>
      </trkpt>
      <trkpt lat="43.74361" lon="6.96528">
        <ele>1209</ele>
        <time>2018-01-02T12:22:08.552Z</time>
      </trkpt>
      <trkpt lat="43.74364" lon="6.96521">
        <ele>1209</ele>
        <time>2018-01-02T12:22:12.552Z</time>
      </trkpt>
      <trkpt lat="43.74366" lon="6.96516">
        <ele>1209</ele>
        <time>2018-01-02T12:22:16.552Z</time>
      </trkpt>
      <trkpt lat="43.74367" lon="6.96509">
        <ele>1209</ele>
        <time>2018-01-02T12:22:19.552Z</time>
      </trkpt>
      <trkpt lat="43.74371" lon="6.96498">
        <ele>1211</ele>
        <time>2018-01-02T12:22:25.552Z</time>
      </trkpt>
      <trkpt lat="43.74373" lon="6.9649">
        <ele>1212</ele>
        <time>2018-01-02T12:22:30.552Z</time>
      </trkpt>
      <trkpt lat="43.74376" lon="6.96485">
        <ele>1212</ele>
        <time>2018-01-02T12:22:34.552Z</time>
      </trkpt>
      <trkpt lat="43.74378" lon="6.96478">
        <ele>1212</ele>
        <time>2018-01-02T12:22:38.552Z</time>
      </trkpt>
      <trkpt lat="43.74379" lon="6.96471">
        <ele>1212</ele>
        <time>2018-01-02T12:22:42.552Z</time>
      </trkpt>
      <trkpt lat="43.74382" lon="6.96465">
        <ele>1212</ele>
        <time>2018-01-02T12:22:46.552Z</time>
      </trkpt>
      <trkpt lat="43.74384" lon="6.96459">
        <ele>1212</ele>
        <time>2018-01-02T12:22:50.552Z</time>
      </trkpt>
      <trkpt lat="43.74386" lon="6.96453">
        <ele>1213</ele>
        <time>2018-01-02T12:22:54.552Z</time>
      </trkpt>
      <trkpt lat="43.74389" lon="6.96445">
        <ele>1213</ele>
        <time>2018-01-02T12:22:58.552Z</time>
      </trkpt>
      <trkpt lat="43.74393" lon="6.96438">
        <ele>1213</ele>
        <time>2018-01-02T12:23:02.552Z</time>
      </trkpt>
      <trkpt lat="43.74397" lon="6.96429">
        <ele>1214</ele>
        <time>2018-01-02T12:23:07.552Z</time>
      </trkpt>
      <trkpt lat="43.744" lon="6.96421">
        <ele>1215</ele>
        <time>2018-01-02T12:23:11.552Z</time>
      </trkpt>
      <trkpt lat="43.74405" lon="6.96411">
        <ele>1214</ele>
        <time>2018-01-02T12:23:16.552Z</time>
      </trkpt>
      <trkpt lat="43.74409" lon="6.96405">
        <ele>1214</ele>
        <time>2018-01-02T12:23:19.552Z</time>
      </trkpt>
      <trkpt lat="43.74411" lon="6.96399">
        <ele>1213</ele>
        <time>2018-01-02T12:23:22.552Z</time>
      </trkpt>
      <trkpt lat="43.74414" lon="6.96392">
        <ele>1213</ele>
        <time>2018-01-02T12:23:25.552Z</time>
      </trkpt>
      <trkpt lat="43.74417" lon="6.96386">
        <ele>1216</ele>
        <time>2018-01-02T12:23:27.552Z</time>
      </trkpt>
      <trkpt lat="43.74422" lon="6.96378">
        <ele>1216</ele>
        <time>2018-01-02T12:23:30.552Z</time>
      </trkpt>
      <trkpt lat="43.74426" lon="6.96371">
        <ele>1216</ele>
        <time>2018-01-02T12:23:33.552Z</time>
      </trkpt>
      <trkpt lat="43.74429" lon="6.96366">
        <ele>1216</ele>
        <time>2018-01-02T12:23:35.552Z</time>
      </trkpt>
      <trkpt lat="43.74432" lon="6.96361">
        <ele>1215</ele>
        <time>2018-01-02T12:23:37.552Z</time>
      </trkpt>
      <trkpt lat="43.74435" lon="6.96355">
        <ele>1215</ele>
        <time>2018-01-02T12:23:39.552Z</time>
      </trkpt>
      <trkpt lat="43.74438" lon="6.96349">
        <ele>1215</ele>
        <time>2018-01-02T12:23:41.552Z</time>
      </trkpt>
      <trkpt lat="43.74443" lon="6.96341">
        <ele>1215</ele>
        <time>2018-01-02T12:23:44.552Z</time>
      </trkpt>
      <trkpt lat="43.74447" lon="6.96329">
        <ele>1214</ele>
        <time>2018-01-02T12:23:47.552Z</time>
      </trkpt>
      <trkpt lat="43.7445" lon="6.9632">
        <ele>1214</ele>
        <time>2018-01-02T12:23:49.552Z</time>
      </trkpt>
      <trkpt lat="43.74453" lon="6.9631">
        <ele>1214</ele>
        <time>2018-01-02T12:23:52.552Z</time>
      </trkpt>
      <trkpt lat="43.74458" lon="6.96301">
        <ele>1214</ele>
        <time>2018-01-02T12:23:55.552Z</time>
      </trkpt>
      <trkpt lat="43.74461" lon="6.96292">
        <ele>1215</ele>
        <time>2018-01-02T12:23:58.552Z</time>
      </trkpt>
      <trkpt lat="43.74463" lon="6.96286">
        <ele>1215</ele>
        <time>2018-01-02T12:24:00.552Z</time>
      </trkpt>
      <trkpt lat="43.74465" lon="6.96281">
        <ele>1215</ele>
        <time>2018-01-02T12:24:02.552Z</time>
      </trkpt>
      <trkpt lat="43.74468" lon="6.96275">
        <ele>1215</ele>
        <time>2018-01-02T12:24:05.552Z</time>
      </trkpt>
      <trkpt lat="43.74471" lon="6.96265">
        <ele>1215</ele>
        <time>2018-01-02T12:24:10.552Z</time>
      </trkpt>
      <trkpt lat="43.74475" lon="6.96263">
        <ele>1216</ele>
        <time>2018-01-02T12:24:19.552Z</time>
      </trkpt>
      <trkpt lat="43.74476" lon="6.96258">
        <ele>1216</ele>
        <time>2018-01-02T12:24:26.552Z</time>
      </trkpt>
      <trkpt lat="43.74477" lon="6.96249">
        <ele>1217</ele>
        <time>2018-01-02T12:24:37.552Z</time>
      </trkpt>
      <trkpt lat="43.74476" lon="6.96242">
        <ele>1217</ele>
        <time>2018-01-02T12:24:44.552Z</time>
      </trkpt>
      <trkpt lat="43.74472" lon="6.96238">
        <ele>1217</ele>
        <time>2018-01-02T12:24:57.552Z</time>
      </trkpt>
      <trkpt lat="43.74471" lon="6.96231">
        <ele>1217</ele>
        <time>2018-01-02T12:25:01.552Z</time>
      </trkpt>
      <trkpt lat="43.74469" lon="6.96224">
        <ele>1217</ele>
        <time>2018-01-02T12:25:05.552Z</time>
      </trkpt>
      <trkpt lat="43.7447" lon="6.96217">
        <ele>1217</ele>
        <time>2018-01-02T12:25:09.552Z</time>
      </trkpt>
      <trkpt lat="43.74471" lon="6.96207">
        <ele>1218</ele>
        <time>2018-01-02T12:25:15.552Z</time>
      </trkpt>
      <trkpt lat="43.74471" lon="6.96199">
        <ele>1218</ele>
        <time>2018-01-02T12:25:19.552Z</time>
      </trkpt>
      <trkpt lat="43.74472" lon="6.96192">
        <ele>1218</ele>
        <time>2018-01-02T12:25:23.552Z</time>
      </trkpt>
      <trkpt lat="43.74472" lon="6.96185">
        <ele>1219</ele>
        <time>2018-01-02T12:25:28.552Z</time>
      </trkpt>
      <trkpt lat="43.74472" lon="6.96175">
        <ele>1219</ele>
        <time>2018-01-02T12:25:34.552Z</time>
      </trkpt>
      <trkpt lat="43.74472" lon="6.96165">
        <ele>1222</ele>
        <time>2018-01-02T12:25:40.552Z</time>
      </trkpt>
      <trkpt lat="43.74472" lon="6.96158">
        <ele>1222</ele>
        <time>2018-01-02T12:25:44.552Z</time>
      </trkpt>
      <trkpt lat="43.74472" lon="6.96151">
        <ele>1222</ele>
        <time>2018-01-02T12:25:49.552Z</time>
      </trkpt>
      <trkpt lat="43.74472" lon="6.96144">
        <ele>1222</ele>
        <time>2018-01-02T12:25:53.552Z</time>
      </trkpt>
      <trkpt lat="43.74471" lon="6.96139">
        <ele>1223</ele>
        <time>2018-01-02T12:25:56.552Z</time>
      </trkpt>
      <trkpt lat="43.74471" lon="6.96132">
        <ele>1223</ele>
        <time>2018-01-02T12:26:01.552Z</time>
      </trkpt>
      <trkpt lat="43.74472" lon="6.96125">
        <ele>1223</ele>
        <time>2018-01-02T12:26:25.552Z</time>
      </trkpt>
      <trkpt lat="43.7447" lon="6.96119">
        <ele>1223</ele>
        <time>2018-01-02T12:26:30.552Z</time>
      </trkpt>
      <trkpt lat="43.74468" lon="6.96109">
        <ele>1223</ele>
        <time>2018-01-02T12:26:35.552Z</time>
      </trkpt>
      <trkpt lat="43.7447" lon="6.96098">
        <ele>1224</ele>
        <time>2018-01-02T12:26:40.552Z</time>
      </trkpt>
      <trkpt lat="43.7447" lon="6.96087">
        <ele>1225</ele>
        <time>2018-01-02T12:26:45.552Z</time>
      </trkpt>
      <trkpt lat="43.7447" lon="6.96081">
        <ele>1227</ele>
        <time>2018-01-02T12:26:49.552Z</time>
      </trkpt>
      <trkpt lat="43.74469" lon="6.96074">
        <ele>1227</ele>
        <time>2018-01-02T12:26:53.552Z</time>
      </trkpt>
      <trkpt lat="43.74469" lon="6.96068">
        <ele>1227</ele>
        <time>2018-01-02T12:26:57.552Z</time>
      </trkpt>
      <trkpt lat="43.74468" lon="6.96062">
        <ele>1227</ele>
        <time>2018-01-02T12:27:00.552Z</time>
      </trkpt>
      <trkpt lat="43.74469" lon="6.96058">
        <ele>1227</ele>
        <time>2018-01-02T12:27:04.552Z</time>
      </trkpt>
      <trkpt lat="43.74472" lon="6.96051">
        <ele>1228</ele>
        <time>2018-01-02T12:27:13.552Z</time>
      </trkpt>
      <trkpt lat="43.74475" lon="6.96045">
        <ele>1228</ele>
        <time>2018-01-02T12:27:18.552Z</time>
      </trkpt>
      <trkpt lat="43.74476" lon="6.96039">
        <ele>1228</ele>
        <time>2018-01-02T12:27:24.552Z</time>
      </trkpt>
      <trkpt lat="43.74477" lon="6.96033">
        <ele>1229</ele>
        <time>2018-01-02T12:27:31.552Z</time>
      </trkpt>
      <trkpt lat="43.74476" lon="6.96027">
        <ele>1229</ele>
        <time>2018-01-02T12:27:36.552Z</time>
      </trkpt>
      <trkpt lat="43.74475" lon="6.96018">
        <ele>1229</ele>
        <time>2018-01-02T12:27:48.552Z</time>
      </trkpt>
      <trkpt lat="43.74475" lon="6.9601">
        <ele>1230</ele>
        <time>2018-01-02T12:27:52.552Z</time>
      </trkpt>
      <trkpt lat="43.74475" lon="6.96005">
        <ele>1230</ele>
        <time>2018-01-02T12:27:55.552Z</time>
      </trkpt>
      <trkpt lat="43.74473" lon="6.95992">
        <ele>1231</ele>
        <time>2018-01-02T12:28:02.552Z</time>
      </trkpt>
      <trkpt lat="43.74472" lon="6.95987">
        <ele>1231</ele>
        <time>2018-01-02T12:28:05.552Z</time>
      </trkpt>
      <trkpt lat="43.7447" lon="6.9598">
        <ele>1230</ele>
        <time>2018-01-02T12:28:08.552Z</time>
      </trkpt>
      <trkpt lat="43.74469" lon="6.95958">
        <ele>1230</ele>
        <time>2018-01-02T12:28:20.552Z</time>
      </trkpt>
      <trkpt lat="43.74468" lon="6.95954">
        <ele>1230</ele>
        <time>2018-01-02T12:28:22.552Z</time>
      </trkpt>
      <trkpt lat="43.74464" lon="6.9595">
        <ele>1229</ele>
        <time>2018-01-02T12:28:25.552Z</time>
      </trkpt>
      <trkpt lat="43.74459" lon="6.95947">
        <ele>1229</ele>
        <time>2018-01-02T12:28:30.552Z</time>
      </trkpt>
      <trkpt lat="43.74458" lon="6.95939">
        <ele>1228</ele>
        <time>2018-01-02T12:28:34.552Z</time>
      </trkpt>
      <trkpt lat="43.74455" lon="6.95931">
        <ele>1228</ele>
        <time>2018-01-02T12:28:39.552Z</time>
      </trkpt>
      <trkpt lat="43.74454" lon="6.95927">
        <ele>1228</ele>
        <time>2018-01-02T12:28:41.552Z</time>
      </trkpt>
      <trkpt lat="43.74455" lon="6.9592">
        <ele>1228</ele>
        <time>2018-01-02T12:28:44.552Z</time>
      </trkpt>
      <trkpt lat="43.74456" lon="6.95911">
        <ele>1225</ele>
        <time>2018-01-02T12:28:48.552Z</time>
      </trkpt>
      <trkpt lat="43.74456" lon="6.95902">
        <ele>1225</ele>
        <time>2018-01-02T12:28:53.552Z</time>
      </trkpt>
      <trkpt lat="43.74458" lon="6.95893">
        <ele>1225</ele>
        <time>2018-01-02T12:28:58.552Z</time>
      </trkpt>
      <trkpt lat="43.7446" lon="6.95884">
        <ele>1225</ele>
        <time>2018-01-02T12:29:03.552Z</time>
      </trkpt>
      <trkpt lat="43.74462" lon="6.95879">
        <ele>1225</ele>
        <time>2018-01-02T12:29:06.552Z</time>
      </trkpt>
      <trkpt lat="43.74464" lon="6.95875">
        <ele>1225</ele>
        <time>2018-01-02T12:29:09.552Z</time>
      </trkpt>
      <trkpt lat="43.74467" lon="6.95872">
        <ele>1226</ele>
        <time>2018-01-02T12:29:12.552Z</time>
      </trkpt>
      <trkpt lat="43.74472" lon="6.95862">
        <ele>1226</ele>
        <time>2018-01-02T12:29:18.552Z</time>
      </trkpt>
      <trkpt lat="43.74475" lon="6.95853">
        <ele>1227</ele>
        <time>2018-01-02T12:29:23.552Z</time>
      </trkpt>
      <trkpt lat="43.7448" lon="6.95847">
        <ele>1228</ele>
        <time>2018-01-02T12:29:27.552Z</time>
      </trkpt>
      <trkpt lat="43.74484" lon="6.95844">
        <ele>1229</ele>
        <time>2018-01-02T12:29:30.552Z</time>
      </trkpt>
      <trkpt lat="43.74489" lon="6.9584">
        <ele>1231</ele>
        <time>2018-01-02T12:29:34.552Z</time>
      </trkpt>
      <trkpt lat="43.74496" lon="6.9584">
        <ele>1233</ele>
        <time>2018-01-02T12:29:42.552Z</time>
      </trkpt>
      <trkpt lat="43.74502" lon="6.95841">
        <ele>1238</ele>
        <time>2018-01-02T12:29:51.552Z</time>
      </trkpt>
      <trkpt lat="43.74508" lon="6.95842">
        <ele>1239</ele>
        <time>2018-01-02T12:30:01.552Z</time>
      </trkpt>
      <trkpt lat="43.74511" lon="6.95841">
        <ele>1240</ele>
        <time>2018-01-02T12:30:06.552Z</time>
      </trkpt>
      <trkpt lat="43.74516" lon="6.95838">
        <ele>1240</ele>
        <time>2018-01-02T12:30:13.552Z</time>
      </trkpt>
      <trkpt lat="43.74521" lon="6.9583">
        <ele>1236</ele>
        <time>2018-01-02T12:30:24.552Z</time>
      </trkpt>
      <trkpt lat="43.74523" lon="6.95827">
        <ele>1236</ele>
        <time>2018-01-02T12:30:28.552Z</time>
      </trkpt>
      <trkpt lat="43.74526" lon="6.95823">
        <ele>1236</ele>
        <time>2018-01-02T12:30:32.552Z</time>
      </trkpt>
      <trkpt lat="43.74529" lon="6.95818">
        <ele>1236</ele>
        <time>2018-01-02T12:30:36.552Z</time>
      </trkpt>
      <trkpt lat="43.74531" lon="6.95814">
        <ele>1236</ele>
        <time>2018-01-02T12:30:39.552Z</time>
      </trkpt>
      <trkpt lat="43.74534" lon="6.95811">
        <ele>1236</ele>
        <time>2018-01-02T12:30:42.552Z</time>
      </trkpt>
      <trkpt lat="43.74538" lon="6.9581">
        <ele>1236</ele>
        <time>2018-01-02T12:30:46.552Z</time>
      </trkpt>
      <trkpt lat="43.74541" lon="6.95813">
        <ele>1237</ele>
        <time>2018-01-02T12:30:50.552Z</time>
      </trkpt>
      <trkpt lat="43.74544" lon="6.95815">
        <ele>1238</ele>
        <time>2018-01-02T12:30:54.552Z</time>
      </trkpt>
      <trkpt lat="43.74548" lon="6.95818">
        <ele>1238</ele>
        <time>2018-01-02T12:30:57.552Z</time>
      </trkpt>
      <trkpt lat="43.74552" lon="6.9582">
        <ele>1239</ele>
        <time>2018-01-02T12:31:00.552Z</time>
      </trkpt>
      <trkpt lat="43.74556" lon="6.95823">
        <ele>1240</ele>
        <time>2018-01-02T12:31:04.552Z</time>
      </trkpt>
      <trkpt lat="43.74559" lon="6.95823">
        <ele>1241</ele>
        <time>2018-01-02T12:31:08.552Z</time>
      </trkpt>
      <trkpt lat="43.74563" lon="6.95822">
        <ele>1241</ele>
        <time>2018-01-02T12:31:11.552Z</time>
      </trkpt>
      <trkpt lat="43.74567" lon="6.95821">
        <ele>1242</ele>
        <time>2018-01-02T12:31:13.552Z</time>
      </trkpt>
      <trkpt lat="43.74571" lon="6.95822">
        <ele>1243</ele>
        <time>2018-01-02T12:31:15.552Z</time>
      </trkpt>
      <trkpt lat="43.74575" lon="6.95823">
        <ele>1244</ele>
        <time>2018-01-02T12:31:18.552Z</time>
      </trkpt>
      <trkpt lat="43.74578" lon="6.95822">
        <ele>1244</ele>
        <time>2018-01-02T12:31:21.552Z</time>
      </trkpt>
      <trkpt lat="43.74582" lon="6.95818">
        <ele>1244</ele>
        <time>2018-01-02T12:31:23.552Z</time>
      </trkpt>
      <trkpt lat="43.74586" lon="6.95815">
        <ele>1250</ele>
        <time>2018-01-02T12:31:25.552Z</time>
      </trkpt>
      <trkpt lat="43.74592" lon="6.95814">
        <ele>1250</ele>
        <time>2018-01-02T12:31:28.552Z</time>
      </trkpt>
      <trkpt lat="43.74597" lon="6.95812">
        <ele>1250</ele>
        <time>2018-01-02T12:31:31.552Z</time>
      </trkpt>
      <trkpt lat="43.74601" lon="6.95812">
        <ele>1251</ele>
        <time>2018-01-02T12:31:34.552Z</time>
      </trkpt>
      <trkpt lat="43.74605" lon="6.95809">
        <ele>1251</ele>
        <time>2018-01-02T12:31:37.552Z</time>
      </trkpt>
      <trkpt lat="43.74608" lon="6.95806">
        <ele>1251</ele>
        <time>2018-01-02T12:31:39.552Z</time>
      </trkpt>
      <trkpt lat="43.74612" lon="6.95803">
        <ele>1251</ele>
        <time>2018-01-02T12:31:42.552Z</time>
      </trkpt>
      <trkpt lat="43.74616" lon="6.95805">
        <ele>1251</ele>
        <time>2018-01-02T12:31:45.552Z</time>
      </trkpt>
      <trkpt lat="43.74621" lon="6.95806">
        <ele>1252</ele>
        <time>2018-01-02T12:31:49.552Z</time>
      </trkpt>
      <trkpt lat="43.74626" lon="6.95805">
        <ele>1252</ele>
        <time>2018-01-02T12:31:53.552Z</time>
      </trkpt>
      <trkpt lat="43.74633" lon="6.95802">
        <ele>1252</ele>
        <time>2018-01-02T12:31:58.552Z</time>
      </trkpt>
      <trkpt lat="43.74638" lon="6.95799">
        <ele>1253</ele>
        <time>2018-01-02T12:32:03.552Z</time>
      </trkpt>
      <trkpt lat="43.74641" lon="6.95795">
        <ele>1253</ele>
        <time>2018-01-02T12:32:06.552Z</time>
      </trkpt>
      <trkpt lat="43.74645" lon="6.9579">
        <ele>1253</ele>
        <time>2018-01-02T12:32:10.552Z</time>
      </trkpt>
      <trkpt lat="43.74647" lon="6.95783">
        <ele>1253</ele>
        <time>2018-01-02T12:32:14.552Z</time>
      </trkpt>
      <trkpt lat="43.7465" lon="6.95778">
        <ele>1254</ele>
        <time>2018-01-02T12:32:18.552Z</time>
      </trkpt>
      <trkpt lat="43.74651" lon="6.95772">
        <ele>1254</ele>
        <time>2018-01-02T12:32:21.552Z</time>
      </trkpt>
      <trkpt lat="43.74652" lon="6.95766">
        <ele>1254</ele>
        <time>2018-01-02T12:32:24.552Z</time>
      </trkpt>
      <trkpt lat="43.74655" lon="6.9576">
        <ele>1255</ele>
        <time>2018-01-02T12:32:28.552Z</time>
      </trkpt>
      <trkpt lat="43.74658" lon="6.95757">
        <ele>1256</ele>
        <time>2018-01-02T12:32:31.552Z</time>
      </trkpt>
      <trkpt lat="43.7466" lon="6.95751">
        <ele>1257</ele>
        <time>2018-01-02T12:32:35.552Z</time>
      </trkpt>
      <trkpt lat="43.74662" lon="6.95746">
        <ele>1256</ele>
        <time>2018-01-02T12:32:38.552Z</time>
      </trkpt>
      <trkpt lat="43.74665" lon="6.95743">
        <ele>1256</ele>
        <time>2018-01-02T12:32:41.552Z</time>
      </trkpt>
      <trkpt lat="43.74668" lon="6.95739">
        <ele>1261</ele>
        <time>2018-01-02T12:32:44.552Z</time>
      </trkpt>
      <trkpt lat="43.74672" lon="6.95735">
        <ele>1262</ele>
        <time>2018-01-02T12:32:48.552Z</time>
      </trkpt>
      <trkpt lat="43.74676" lon="6.95733">
        <ele>1263</ele>
        <time>2018-01-02T12:32:51.552Z</time>
      </trkpt>
      <trkpt lat="43.7468" lon="6.9573">
        <ele>1263</ele>
        <time>2018-01-02T12:32:55.552Z</time>
      </trkpt>
      <trkpt lat="43.74682" lon="6.95727">
        <ele>1263</ele>
        <time>2018-01-02T12:32:58.552Z</time>
      </trkpt>
      <trkpt lat="43.74685" lon="6.95723">
        <ele>1264</ele>
        <time>2018-01-02T12:33:06.552Z</time>
      </trkpt>
      <trkpt lat="43.74688" lon="6.95721">
        <ele>1264</ele>
        <time>2018-01-02T12:33:11.552Z</time>
      </trkpt>
      <trkpt lat="43.74692" lon="6.95719">
        <ele>1264</ele>
        <time>2018-01-02T12:33:17.552Z</time>
      </trkpt>
      <trkpt lat="43.74696" lon="6.95718">
        <ele>1265</ele>
        <time>2018-01-02T12:33:21.552Z</time>
      </trkpt>
      <trkpt lat="43.747" lon="6.95716">
        <ele>1265</ele>
        <time>2018-01-02T12:33:26.552Z</time>
      </trkpt>
      <trkpt lat="43.74702" lon="6.95713">
        <ele>1265</ele>
        <time>2018-01-02T12:33:30.552Z</time>
      </trkpt>
      <trkpt lat="43.74706" lon="6.9571">
        <ele>1266</ele>
        <time>2018-01-02T12:33:35.552Z</time>
      </trkpt>
      <trkpt lat="43.74709" lon="6.95708">
        <ele>1266</ele>
        <time>2018-01-02T12:33:41.552Z</time>
      </trkpt>
      <trkpt lat="43.74712" lon="6.95707">
        <ele>1266</ele>
        <time>2018-01-02T12:33:46.552Z</time>
      </trkpt>
      <trkpt lat="43.74716" lon="6.95707">
        <ele>1267</ele>
        <time>2018-01-02T12:33:50.552Z</time>
      </trkpt>
      <trkpt lat="43.74721" lon="6.95706">
        <ele>1267</ele>
        <time>2018-01-02T12:33:55.552Z</time>
      </trkpt>
      <trkpt lat="43.74725" lon="6.95706">
        <ele>1267</ele>
        <time>2018-01-02T12:34:01.552Z</time>
      </trkpt>
      <trkpt lat="43.7473" lon="6.95705">
        <ele>1268</ele>
        <time>2018-01-02T12:34:06.552Z</time>
      </trkpt>
      <trkpt lat="43.74734" lon="6.95702">
        <ele>1268</ele>
        <time>2018-01-02T12:34:13.552Z</time>
      </trkpt>
      <trkpt lat="43.74738" lon="6.95696">
        <ele>1269</ele>
        <time>2018-01-02T12:34:24.552Z</time>
      </trkpt>
      <trkpt lat="43.7474" lon="6.95689">
        <ele>1270</ele>
        <time>2018-01-02T12:34:30.552Z</time>
      </trkpt>
      <trkpt lat="43.74742" lon="6.95684">
        <ele>1271</ele>
        <time>2018-01-02T12:34:37.552Z</time>
      </trkpt>
      <trkpt lat="43.74744" lon="6.95679">
        <ele>1272</ele>
        <time>2018-01-02T12:34:43.552Z</time>
      </trkpt>
      <trkpt lat="43.74747" lon="6.95675">
        <ele>1274</ele>
        <time>2018-01-02T12:34:48.552Z</time>
      </trkpt>
      <trkpt lat="43.74748" lon="6.9567">
        <ele>1275</ele>
        <time>2018-01-02T12:34:53.552Z</time>
      </trkpt>
      <trkpt lat="43.7475" lon="6.95664">
        <ele>1276</ele>
        <time>2018-01-02T12:34:59.552Z</time>
      </trkpt>
      <trkpt lat="43.74752" lon="6.95659">
        <ele>1278</ele>
        <time>2018-01-02T12:35:05.552Z</time>
      </trkpt>
      <trkpt lat="43.74754" lon="6.95653">
        <ele>1278</ele>
        <time>2018-01-02T12:35:12.552Z</time>
      </trkpt>
      <trkpt lat="43.74758" lon="6.95649">
        <ele>1278</ele>
        <time>2018-01-02T12:35:18.552Z</time>
      </trkpt>
      <trkpt lat="43.7476" lon="6.95642">
        <ele>1278</ele>
        <time>2018-01-02T12:35:29.552Z</time>
      </trkpt>
      <trkpt lat="43.74763" lon="6.95638">
        <ele>1278</ele>
        <time>2018-01-02T12:35:38.552Z</time>
      </trkpt>
      <trkpt lat="43.74768" lon="6.95634">
        <ele>1278</ele>
        <time>2018-01-02T12:35:43.552Z</time>
      </trkpt>
      <trkpt lat="43.74773" lon="6.95632">
        <ele>1279</ele>
        <time>2018-01-02T12:35:53.552Z</time>
      </trkpt>
      <trkpt lat="43.74775" lon="6.95625">
        <ele>1279</ele>
        <time>2018-01-02T12:35:57.552Z</time>
      </trkpt>
      <trkpt lat="43.74778" lon="6.95618">
        <ele>1279</ele>
        <time>2018-01-02T12:36:02.552Z</time>
      </trkpt>
      <trkpt lat="43.74779" lon="6.9561">
        <ele>1279</ele>
        <time>2018-01-02T12:36:06.552Z</time>
      </trkpt>
      <trkpt lat="43.74782" lon="6.95605">
        <ele>1279</ele>
        <time>2018-01-02T12:36:10.552Z</time>
      </trkpt>
      <trkpt lat="43.74789" lon="6.956">
        <ele>1279</ele>
        <time>2018-01-02T12:36:15.552Z</time>
      </trkpt>
      <trkpt lat="43.74792" lon="6.95595">
        <ele>1280</ele>
        <time>2018-01-02T12:36:18.552Z</time>
      </trkpt>
      <trkpt lat="43.74794" lon="6.9559">
        <ele>1280</ele>
        <time>2018-01-02T12:36:21.552Z</time>
      </trkpt>
      <trkpt lat="43.74797" lon="6.95585">
        <ele>1280</ele>
        <time>2018-01-02T12:36:24.552Z</time>
      </trkpt>
      <trkpt lat="43.748" lon="6.95581">
        <ele>1278</ele>
        <time>2018-01-02T12:36:27.552Z</time>
      </trkpt>
      <trkpt lat="43.74802" lon="6.95577">
        <ele>1278</ele>
        <time>2018-01-02T12:36:30.552Z</time>
      </trkpt>
      <trkpt lat="43.74804" lon="6.95571">
        <ele>1278</ele>
        <time>2018-01-02T12:36:34.552Z</time>
      </trkpt>
      <trkpt lat="43.74806" lon="6.95565">
        <ele>1278</ele>
        <time>2018-01-02T12:36:37.552Z</time>
      </trkpt>
      <trkpt lat="43.74808" lon="6.95561">
        <ele>1277</ele>
        <time>2018-01-02T12:36:39.552Z</time>
      </trkpt>
      <trkpt lat="43.7481" lon="6.95556">
        <ele>1277</ele>
        <time>2018-01-02T12:36:41.552Z</time>
      </trkpt>
      <trkpt lat="43.74812" lon="6.95551">
        <ele>1277</ele>
        <time>2018-01-02T12:36:43.552Z</time>
      </trkpt>
      <trkpt lat="43.74814" lon="6.95544">
        <ele>1277</ele>
        <time>2018-01-02T12:36:46.552Z</time>
      </trkpt>
      <trkpt lat="43.74816" lon="6.95534">
        <ele>1277</ele>
        <time>2018-01-02T12:36:50.552Z</time>
      </trkpt>
      <trkpt lat="43.7482" lon="6.95526">
        <ele>1277</ele>
        <time>2018-01-02T12:36:53.552Z</time>
      </trkpt>
      <trkpt lat="43.74824" lon="6.95519">
        <ele>1278</ele>
        <time>2018-01-02T12:36:56.552Z</time>
      </trkpt>
      <trkpt lat="43.74826" lon="6.95515">
        <ele>1279</ele>
        <time>2018-01-02T12:36:58.552Z</time>
      </trkpt>
      <trkpt lat="43.74828" lon="6.95511">
        <ele>1279</ele>
        <time>2018-01-02T12:37:00.552Z</time>
      </trkpt>
      <trkpt lat="43.74835" lon="6.95503">
        <ele>1284</ele>
        <time>2018-01-02T12:37:05.552Z</time>
      </trkpt>
      <trkpt lat="43.74839" lon="6.955">
        <ele>1284</ele>
        <time>2018-01-02T12:37:08.552Z</time>
      </trkpt>
      <trkpt lat="43.74846" lon="6.95493">
        <ele>1285</ele>
        <time>2018-01-02T12:37:13.552Z</time>
      </trkpt>
      <trkpt lat="43.74849" lon="6.95489">
        <ele>1285</ele>
        <time>2018-01-02T12:37:16.552Z</time>
      </trkpt>
      <trkpt lat="43.74853" lon="6.95485">
        <ele>1285</ele>
        <time>2018-01-02T12:37:19.552Z</time>
      </trkpt>
      <trkpt lat="43.74856" lon="6.95481">
        <ele>1286</ele>
        <time>2018-01-02T12:37:22.552Z</time>
      </trkpt>
      <trkpt lat="43.74858" lon="6.95477">
        <ele>1286</ele>
        <time>2018-01-02T12:37:25.552Z</time>
      </trkpt>
      <trkpt lat="43.74861" lon="6.95472">
        <ele>1286</ele>
        <time>2018-01-02T12:37:28.552Z</time>
      </trkpt>
      <trkpt lat="43.74864" lon="6.95467">
        <ele>1286</ele>
        <time>2018-01-02T12:37:31.552Z</time>
      </trkpt>
      <trkpt lat="43.74867" lon="6.95462">
        <ele>1286</ele>
        <time>2018-01-02T12:37:34.552Z</time>
      </trkpt>
      <trkpt lat="43.74869" lon="6.95459">
        <ele>1286</ele>
        <time>2018-01-02T12:37:36.552Z</time>
      </trkpt>
      <trkpt lat="43.74871" lon="6.95456">
        <ele>1286</ele>
        <time>2018-01-02T12:37:38.552Z</time>
      </trkpt>
      <trkpt lat="43.74874" lon="6.95452">
        <ele>1287</ele>
        <time>2018-01-02T12:37:41.552Z</time>
      </trkpt>
      <trkpt lat="43.74877" lon="6.95449">
        <ele>1287</ele>
        <time>2018-01-02T12:37:44.552Z</time>
      </trkpt>
      <trkpt lat="43.7488" lon="6.95445">
        <ele>1287</ele>
        <time>2018-01-02T12:37:47.552Z</time>
      </trkpt>
      <trkpt lat="43.74883" lon="6.95441">
        <ele>1288</ele>
        <time>2018-01-02T12:37:50.552Z</time>
      </trkpt>
      <trkpt lat="43.74885" lon="6.95435">
        <ele>1288</ele>
        <time>2018-01-02T12:37:57.552Z</time>
      </trkpt>
      <trkpt lat="43.74886" lon="6.95428">
        <ele>1289</ele>
        <time>2018-01-02T12:38:00.552Z</time>
      </trkpt>
      <trkpt lat="43.74887" lon="6.95422">
        <ele>1289</ele>
        <time>2018-01-02T12:38:03.552Z</time>
      </trkpt>
      <trkpt lat="43.74888" lon="6.95416">
        <ele>1287</ele>
        <time>2018-01-02T12:38:06.552Z</time>
      </trkpt>
      <trkpt lat="43.7489" lon="6.95411">
        <ele>1288</ele>
        <time>2018-01-02T12:38:09.552Z</time>
      </trkpt>
      <trkpt lat="43.74892" lon="6.95406">
        <ele>1288</ele>
        <time>2018-01-02T12:38:13.552Z</time>
      </trkpt>
      <trkpt lat="43.74892" lon="6.954">
        <ele>1287</ele>
        <time>2018-01-02T12:38:16.552Z</time>
      </trkpt>
      <trkpt lat="43.74892" lon="6.95394">
        <ele>1287</ele>
        <time>2018-01-02T12:38:19.552Z</time>
      </trkpt>
      <trkpt lat="43.74893" lon="6.95388">
        <ele>1287</ele>
        <time>2018-01-02T12:38:22.552Z</time>
      </trkpt>
      <trkpt lat="43.74894" lon="6.95383">
        <ele>1286</ele>
        <time>2018-01-02T12:38:25.552Z</time>
      </trkpt>
      <trkpt lat="43.74895" lon="6.95378">
        <ele>1286</ele>
        <time>2018-01-02T12:38:28.552Z</time>
      </trkpt>
      <trkpt lat="43.74898" lon="6.95374">
        <ele>1287</ele>
        <time>2018-01-02T12:38:33.552Z</time>
      </trkpt>
      <trkpt lat="43.74901" lon="6.95369">
        <ele>1287</ele>
        <time>2018-01-02T12:38:36.552Z</time>
      </trkpt>
      <trkpt lat="43.74903" lon="6.95365">
        <ele>1288</ele>
        <time>2018-01-02T12:38:39.552Z</time>
      </trkpt>
      <trkpt lat="43.74907" lon="6.95361">
        <ele>1288</ele>
        <time>2018-01-02T12:38:46.552Z</time>
      </trkpt>
      <trkpt lat="43.7491" lon="6.95358">
        <ele>1289</ele>
        <time>2018-01-02T12:38:50.552Z</time>
      </trkpt>
      <trkpt lat="43.74913" lon="6.95355">
        <ele>1290</ele>
        <time>2018-01-02T12:38:54.552Z</time>
      </trkpt>
      <trkpt lat="43.74916" lon="6.95351">
        <ele>1291</ele>
        <time>2018-01-02T12:38:59.552Z</time>
      </trkpt>
      <trkpt lat="43.74919" lon="6.95347">
        <ele>1300</ele>
        <time>2018-01-02T12:39:04.552Z</time>
      </trkpt>
      <trkpt lat="43.74919" lon="6.95343">
        <ele>1299</ele>
        <time>2018-01-02T12:39:53.552Z</time>
      </trkpt>
      <trkpt lat="43.74924" lon="6.95339">
        <ele>1299</ele>
        <time>2018-01-02T12:40:04.552Z</time>
      </trkpt>
      <trkpt lat="43.74926" lon="6.95337">
        <ele>1299</ele>
        <time>2018-01-02T12:40:06.552Z</time>
      </trkpt>
      <trkpt lat="43.7493" lon="6.95336">
        <ele>1300</ele>
        <time>2018-01-02T12:40:08.552Z</time>
      </trkpt>
      <trkpt lat="43.74933" lon="6.95334">
        <ele>1300</ele>
        <time>2018-01-02T12:40:10.552Z</time>
      </trkpt>
      <trkpt lat="43.74936" lon="6.95332">
        <ele>1301</ele>
        <time>2018-01-02T12:40:12.552Z</time>
      </trkpt>
      <trkpt lat="43.74939" lon="6.95329">
        <ele>1302</ele>
        <time>2018-01-02T12:40:15.552Z</time>
      </trkpt>
      <trkpt lat="43.74942" lon="6.95327">
        <ele>1302</ele>
        <time>2018-01-02T12:40:18.552Z</time>
      </trkpt>
      <trkpt lat="43.74945" lon="6.95322">
        <ele>1302</ele>
        <time>2018-01-02T12:40:21.552Z</time>
      </trkpt>
      <trkpt lat="43.74945" lon="6.95319">
        <ele>1303</ele>
        <time>2018-01-02T12:40:23.552Z</time>
      </trkpt>
      <trkpt lat="43.74946" lon="6.95314">
        <ele>1303</ele>
        <time>2018-01-02T12:40:25.552Z</time>
      </trkpt>
      <trkpt lat="43.7495" lon="6.95311">
        <ele>1303</ele>
        <time>2018-01-02T12:40:28.552Z</time>
      </trkpt>
      <trkpt lat="43.74953" lon="6.95306">
        <ele>1303</ele>
        <time>2018-01-02T12:40:31.552Z</time>
      </trkpt>
      <trkpt lat="43.74956" lon="6.95301">
        <ele>1304</ele>
        <time>2018-01-02T12:40:34.552Z</time>
      </trkpt>
      <trkpt lat="43.74959" lon="6.95296">
        <ele>1304</ele>
        <time>2018-01-02T12:40:37.552Z</time>
      </trkpt>
      <trkpt lat="43.74961" lon="6.95289">
        <ele>1304</ele>
        <time>2018-01-02T12:40:40.552Z</time>
      </trkpt>
      <trkpt lat="43.74961" lon="6.95285">
        <ele>1304</ele>
        <time>2018-01-02T12:40:42.552Z</time>
      </trkpt>
      <trkpt lat="43.74961" lon="6.9528">
        <ele>1304</ele>
        <time>2018-01-02T12:40:44.552Z</time>
      </trkpt>
      <trkpt lat="43.74962" lon="6.95275">
        <ele>1305</ele>
        <time>2018-01-02T12:40:46.552Z</time>
      </trkpt>
      <trkpt lat="43.74963" lon="6.95271">
        <ele>1305</ele>
        <time>2018-01-02T12:40:48.552Z</time>
      </trkpt>
      <trkpt lat="43.74965" lon="6.95266">
        <ele>1305</ele>
        <time>2018-01-02T12:40:51.552Z</time>
      </trkpt>
      <trkpt lat="43.74967" lon="6.95261">
        <ele>1305</ele>
        <time>2018-01-02T12:40:54.552Z</time>
      </trkpt>
      <trkpt lat="43.74968" lon="6.95255">
        <ele>1306</ele>
        <time>2018-01-02T12:41:03.552Z</time>
      </trkpt>
      <trkpt lat="43.74967" lon="6.9525">
        <ele>1306</ele>
        <time>2018-01-02T12:41:07.552Z</time>
      </trkpt>
      <trkpt lat="43.74966" lon="6.95244">
        <ele>1305</ele>
        <time>2018-01-02T12:41:13.552Z</time>
      </trkpt>
      <trkpt lat="43.74964" lon="6.95236">
        <ele>1304</ele>
        <time>2018-01-02T12:41:19.552Z</time>
      </trkpt>
      <trkpt lat="43.74963" lon="6.95229">
        <ele>1304</ele>
        <time>2018-01-02T12:41:27.552Z</time>
      </trkpt>
      <trkpt lat="43.74959" lon="6.95223">
        <ele>1303</ele>
        <time>2018-01-02T12:41:36.552Z</time>
      </trkpt>
      <trkpt lat="43.74958" lon="6.95218">
        <ele>1303</ele>
        <time>2018-01-02T12:41:43.552Z</time>
      </trkpt>
      <trkpt lat="43.74961" lon="6.95213">
        <ele>1303</ele>
        <time>2018-01-02T12:41:49.552Z</time>
      </trkpt>
      <trkpt lat="43.74964" lon="6.95212">
        <ele>1304</ele>
        <time>2018-01-02T12:41:51.552Z</time>
      </trkpt>
      <trkpt lat="43.74967" lon="6.9521">
        <ele>1304</ele>
        <time>2018-01-02T12:41:53.552Z</time>
      </trkpt>
      <trkpt lat="43.7497" lon="6.95208">
        <ele>1304</ele>
        <time>2018-01-02T12:41:56.552Z</time>
      </trkpt>
      <trkpt lat="43.74973" lon="6.95205">
        <ele>1305</ele>
        <time>2018-01-02T12:41:58.552Z</time>
      </trkpt>
      <trkpt lat="43.74975" lon="6.95202">
        <ele>1305</ele>
        <time>2018-01-02T12:42:00.552Z</time>
      </trkpt>
      <trkpt lat="43.74977" lon="6.95198">
        <ele>1305</ele>
        <time>2018-01-02T12:42:02.552Z</time>
      </trkpt>
      <trkpt lat="43.7498" lon="6.95193">
        <ele>1306</ele>
        <time>2018-01-02T12:42:04.552Z</time>
      </trkpt>
      <trkpt lat="43.74983" lon="6.95189">
        <ele>1307</ele>
        <time>2018-01-02T12:42:06.552Z</time>
      </trkpt>
      <trkpt lat="43.74987" lon="6.95186">
        <ele>1308</ele>
        <time>2018-01-02T12:42:08.552Z</time>
      </trkpt>
      <trkpt lat="43.74992" lon="6.9518">
        <ele>1309</ele>
        <time>2018-01-02T12:42:12.552Z</time>
      </trkpt>
      <trkpt lat="43.74994" lon="6.9517">
        <ele>1312</ele>
        <time>2018-01-02T12:42:16.552Z</time>
      </trkpt>
      <trkpt lat="43.74991" lon="6.9516">
        <ele>1308</ele>
        <time>2018-01-02T12:42:19.552Z</time>
      </trkpt>
      <trkpt lat="43.74989" lon="6.95151">
        <ele>1304</ele>
        <time>2018-01-02T12:42:22.552Z</time>
      </trkpt>
      <trkpt lat="43.74989" lon="6.95144">
        <ele>1302</ele>
        <time>2018-01-02T12:42:24.552Z</time>
      </trkpt>
      <trkpt lat="43.74988" lon="6.95135">
        <ele>1301</ele>
        <time>2018-01-02T12:42:28.552Z</time>
      </trkpt>
      <trkpt lat="43.74984" lon="6.9513">
        <ele>1299</ele>
        <time>2018-01-02T12:42:31.552Z</time>
      </trkpt>
      <trkpt lat="43.7498" lon="6.95125">
        <ele>1298</ele>
        <time>2018-01-02T12:42:34.552Z</time>
      </trkpt>
      <trkpt lat="43.74978" lon="6.95122">
        <ele>1298</ele>
        <time>2018-01-02T12:42:36.552Z</time>
      </trkpt>
      <trkpt lat="43.74975" lon="6.95118">
        <ele>1297</ele>
        <time>2018-01-02T12:42:42.552Z</time>
      </trkpt>
      <trkpt lat="43.74975" lon="6.95112">
        <ele>1297</ele>
        <time>2018-01-02T12:42:58.552Z</time>
      </trkpt>
      <trkpt lat="43.74976" lon="6.95118">
        <ele>1297</ele>
        <time>2018-01-02T12:43:15.552Z</time>
      </trkpt>
      <trkpt lat="43.7498" lon="6.95125">
        <ele>1298</ele>
        <time>2018-01-02T12:43:18.552Z</time>
      </trkpt>
      <trkpt lat="43.74984" lon="6.9513">
        <ele>1299</ele>
        <time>2018-01-02T12:43:20.552Z</time>
      </trkpt>
      <trkpt lat="43.74989" lon="6.95137">
        <ele>1301</ele>
        <time>2018-01-02T12:43:23.552Z</time>
      </trkpt>
      <trkpt lat="43.74995" lon="6.95128">
        <ele>1301</ele>
        <time>2018-01-02T12:43:30.552Z</time>
      </trkpt>
      <trkpt lat="43.74995" lon="6.95117">
        <ele>1300</ele>
        <time>2018-01-02T12:43:33.552Z</time>
      </trkpt>
      <trkpt lat="43.74994" lon="6.95108">
        <ele>1300</ele>
        <time>2018-01-02T12:43:35.552Z</time>
      </trkpt>
      <trkpt lat="43.74994" lon="6.95098">
        <ele>1302</ele>
        <time>2018-01-02T12:43:37.552Z</time>
      </trkpt>
      <trkpt lat="43.74994" lon="6.95089">
        <ele>1304</ele>
        <time>2018-01-02T12:43:39.552Z</time>
      </trkpt>
      <trkpt lat="43.74996" lon="6.95078">
        <ele>1302</ele>
        <time>2018-01-02T12:43:41.552Z</time>
      </trkpt>
      <trkpt lat="43.74997" lon="6.95066">
        <ele>1295</ele>
        <time>2018-01-02T12:43:43.552Z</time>
      </trkpt>
      <trkpt lat="43.74997" lon="6.95055">
        <ele>1292</ele>
        <time>2018-01-02T12:43:45.552Z</time>
      </trkpt>
      <trkpt lat="43.74999" lon="6.95047">
        <ele>1291</ele>
        <time>2018-01-02T12:43:48.552Z</time>
      </trkpt>
      <trkpt lat="43.74999" lon="6.95038">
        <ele>1290</ele>
        <time>2018-01-02T12:43:50.552Z</time>
      </trkpt>
      <trkpt lat="43.75001" lon="6.95026">
        <ele>1302</ele>
        <time>2018-01-02T12:43:52.552Z</time>
      </trkpt>
      <trkpt lat="43.75001" lon="6.95018">
        <ele>1301</ele>
        <time>2018-01-02T12:43:53.552Z</time>
      </trkpt>
      <trkpt lat="43.75001" lon="6.95007">
        <ele>1301</ele>
        <time>2018-01-02T12:43:55.552Z</time>
      </trkpt>
      <trkpt lat="43.75002" lon="6.94996">
        <ele>1299</ele>
        <time>2018-01-02T12:43:57.552Z</time>
      </trkpt>
      <trkpt lat="43.75004" lon="6.94983">
        <ele>1298</ele>
        <time>2018-01-02T12:43:59.552Z</time>
      </trkpt>
      <trkpt lat="43.75005" lon="6.94971">
        <ele>1297</ele>
        <time>2018-01-02T12:44:01.552Z</time>
      </trkpt>
      <trkpt lat="43.75005" lon="6.94954">
        <ele>1296</ele>
        <time>2018-01-02T12:44:04.552Z</time>
      </trkpt>
      <trkpt lat="43.75006" lon="6.9494">
        <ele>1294</ele>
        <time>2018-01-02T12:44:07.552Z</time>
      </trkpt>
      <trkpt lat="43.75009" lon="6.94927">
        <ele>1292</ele>
        <time>2018-01-02T12:44:10.552Z</time>
      </trkpt>
      <trkpt lat="43.75011" lon="6.94919">
        <ele>1291</ele>
        <time>2018-01-02T12:44:12.552Z</time>
      </trkpt>
      <trkpt lat="43.75012" lon="6.94911">
        <ele>1291</ele>
        <time>2018-01-02T12:44:14.552Z</time>
      </trkpt>
      <trkpt lat="43.75014" lon="6.94904">
        <ele>1292</ele>
        <time>2018-01-02T12:44:16.552Z</time>
      </trkpt>
      <trkpt lat="43.75016" lon="6.94899">
        <ele>1292</ele>
        <time>2018-01-02T12:44:18.552Z</time>
      </trkpt>
      <trkpt lat="43.75019" lon="6.94893">
        <ele>1293</ele>
        <time>2018-01-02T12:44:21.552Z</time>
      </trkpt>
      <trkpt lat="43.75024" lon="6.9489">
        <ele>1293</ele>
        <time>2018-01-02T12:44:25.552Z</time>
      </trkpt>
      <trkpt lat="43.75024" lon="6.94885">
        <ele>1293</ele>
        <time>2018-01-02T12:45:15.552Z</time>
      </trkpt>
      <trkpt lat="43.75019" lon="6.94885">
        <ele>1293</ele>
        <time>2018-01-02T12:45:32.552Z</time>
      </trkpt>
      <trkpt lat="43.75023" lon="6.94887">
        <ele>1293</ele>
        <time>2018-01-02T12:45:46.552Z</time>
      </trkpt>
      <trkpt lat="43.75026" lon="6.94888">
        <ele>1293</ele>
        <time>2018-01-02T12:46:37.552Z</time>
      </trkpt>
      <trkpt lat="43.75023" lon="6.94892">
        <ele>1293</ele>
        <time>2018-01-02T12:46:53.552Z</time>
      </trkpt>
      <trkpt lat="43.75022" lon="6.94897">
        <ele>1293</ele>
        <time>2018-01-02T12:46:56.552Z</time>
      </trkpt>
      <trkpt lat="43.75017" lon="6.94899">
        <ele>1292</ele>
        <time>2018-01-02T12:47:12.552Z</time>
      </trkpt>
      <trkpt lat="43.75014" lon="6.94906">
        <ele>1291</ele>
        <time>2018-01-02T12:47:17.552Z</time>
      </trkpt>
      <trkpt lat="43.75013" lon="6.94915">
        <ele>1291</ele>
        <time>2018-01-02T12:47:20.552Z</time>
      </trkpt>
      <trkpt lat="43.75012" lon="6.9492">
        <ele>1292</ele>
        <time>2018-01-02T12:47:23.552Z</time>
      </trkpt>
      <trkpt lat="43.75011" lon="6.94927">
        <ele>1292</ele>
        <time>2018-01-02T12:47:28.552Z</time>
      </trkpt>
      <trkpt lat="43.7501" lon="6.94933">
        <ele>1293</ele>
        <time>2018-01-02T12:47:32.552Z</time>
      </trkpt>
      <trkpt lat="43.75008" lon="6.9494">
        <ele>1294</ele>
        <time>2018-01-02T12:47:36.552Z</time>
      </trkpt>
      <trkpt lat="43.75006" lon="6.94947">
        <ele>1295</ele>
        <time>2018-01-02T12:47:41.552Z</time>
      </trkpt>
      <trkpt lat="43.75004" lon="6.94959">
        <ele>1296</ele>
        <time>2018-01-02T12:47:49.552Z</time>
      </trkpt>
      <trkpt lat="43.75004" lon="6.94965">
        <ele>1297</ele>
        <time>2018-01-02T12:47:57.552Z</time>
      </trkpt>
      <trkpt lat="43.75003" lon="6.94972">
        <ele>1297</ele>
        <time>2018-01-02T12:48:00.552Z</time>
      </trkpt>
      <trkpt lat="43.75002" lon="6.94979">
        <ele>1298</ele>
        <time>2018-01-02T12:48:03.552Z</time>
      </trkpt>
      <trkpt lat="43.75002" lon="6.94985">
        <ele>1298</ele>
        <time>2018-01-02T12:48:05.552Z</time>
      </trkpt>
      <trkpt lat="43.75003" lon="6.9499">
        <ele>1299</ele>
        <time>2018-01-02T12:48:07.552Z</time>
      </trkpt>
      <trkpt lat="43.75003" lon="6.94996">
        <ele>1299</ele>
        <time>2018-01-02T12:48:09.552Z</time>
      </trkpt>
      <trkpt lat="43.75003" lon="6.95002">
        <ele>1300</ele>
        <time>2018-01-02T12:48:11.552Z</time>
      </trkpt>
      <trkpt lat="43.75003" lon="6.95006">
        <ele>1301</ele>
        <time>2018-01-02T12:48:13.552Z</time>
      </trkpt>
      <trkpt lat="43.75006" lon="6.95011">
        <ele>1301</ele>
        <time>2018-01-02T12:48:16.552Z</time>
      </trkpt>
      <trkpt lat="43.75008" lon="6.95016">
        <ele>1301</ele>
        <time>2018-01-02T12:48:19.552Z</time>
      </trkpt>
      <trkpt lat="43.75011" lon="6.95019">
        <ele>1302</ele>
        <time>2018-01-02T12:48:35.552Z</time>
      </trkpt>
      <trkpt lat="43.75016" lon="6.95017">
        <ele>1302</ele>
        <time>2018-01-02T12:48:40.552Z</time>
      </trkpt>
      <trkpt lat="43.75021" lon="6.95019">
        <ele>1302</ele>
        <time>2018-01-02T12:48:43.552Z</time>
      </trkpt>
      <trkpt lat="43.75028" lon="6.95019">
        <ele>1302</ele>
        <time>2018-01-02T12:48:46.552Z</time>
      </trkpt>
      <trkpt lat="43.75038" lon="6.9502">
        <ele>1302</ele>
        <time>2018-01-02T12:48:49.552Z</time>
      </trkpt>
      <trkpt lat="43.75048" lon="6.95016">
        <ele>1301</ele>
        <time>2018-01-02T12:48:52.552Z</time>
      </trkpt>
      <trkpt lat="43.7506" lon="6.95014">
        <ele>1301</ele>
        <time>2018-01-02T12:48:55.552Z</time>
      </trkpt>
      <trkpt lat="43.75072" lon="6.95013">
        <ele>1301</ele>
        <time>2018-01-02T12:48:58.552Z</time>
      </trkpt>
      <trkpt lat="43.75082" lon="6.95017">
        <ele>1300</ele>
        <time>2018-01-02T12:49:02.552Z</time>
      </trkpt>
      <trkpt lat="43.75091" lon="6.95018">
        <ele>1298</ele>
        <time>2018-01-02T12:49:06.552Z</time>
      </trkpt>
      <trkpt lat="43.75102" lon="6.95017">
        <ele>1298</ele>
        <time>2018-01-02T12:49:11.552Z</time>
      </trkpt>
      <trkpt lat="43.75114" lon="6.95017">
        <ele>1297</ele>
        <time>2018-01-02T12:49:15.552Z</time>
      </trkpt>
      <trkpt lat="43.75122" lon="6.95011">
        <ele>1297</ele>
        <time>2018-01-02T12:49:18.552Z</time>
      </trkpt>
      <trkpt lat="43.75124" lon="6.95005">
        <ele>1297</ele>
        <time>2018-01-02T12:49:20.552Z</time>
      </trkpt>
      <trkpt lat="43.75126" lon="6.94994">
        <ele>1299</ele>
        <time>2018-01-02T12:49:23.552Z</time>
      </trkpt>
      <trkpt lat="43.75128" lon="6.94986">
        <ele>1299</ele>
        <time>2018-01-02T12:49:25.552Z</time>
      </trkpt>
      <trkpt lat="43.7513" lon="6.94979">
        <ele>1299</ele>
        <time>2018-01-02T12:49:27.552Z</time>
      </trkpt>
      <trkpt lat="43.75132" lon="6.94973">
        <ele>1299</ele>
        <time>2018-01-02T12:49:29.552Z</time>
      </trkpt>
      <trkpt lat="43.75133" lon="6.94964">
        <ele>1299</ele>
        <time>2018-01-02T12:49:32.552Z</time>
      </trkpt>
      <trkpt lat="43.75133" lon="6.94958">
        <ele>1299</ele>
        <time>2018-01-02T12:49:35.552Z</time>
      </trkpt>
      <trkpt lat="43.75133" lon="6.94951">
        <ele>1300</ele>
        <time>2018-01-02T12:49:45.552Z</time>
      </trkpt>
      <trkpt lat="43.75133" lon="6.94945">
        <ele>1300</ele>
        <time>2018-01-02T12:49:56.552Z</time>
      </trkpt>
      <trkpt lat="43.75133" lon="6.94939">
        <ele>1300</ele>
        <time>2018-01-02T12:50:01.552Z</time>
      </trkpt>
      <trkpt lat="43.75133" lon="6.94932">
        <ele>1300</ele>
        <time>2018-01-02T12:50:07.552Z</time>
      </trkpt>
      <trkpt lat="43.75132" lon="6.94922">
        <ele>1300</ele>
        <time>2018-01-02T12:50:16.552Z</time>
      </trkpt>
      <trkpt lat="43.75133" lon="6.94916">
        <ele>1304</ele>
        <time>2018-01-02T12:50:23.552Z</time>
      </trkpt>
      <trkpt lat="43.75133" lon="6.9491">
        <ele>1304</ele>
        <time>2018-01-02T12:50:29.552Z</time>
      </trkpt>
      <trkpt lat="43.75134" lon="6.94903">
        <ele>1305</ele>
        <time>2018-01-02T12:50:35.552Z</time>
      </trkpt>
      <trkpt lat="43.75136" lon="6.94897">
        <ele>1305</ele>
        <time>2018-01-02T12:50:41.552Z</time>
      </trkpt>
      <trkpt lat="43.75137" lon="6.94891">
        <ele>1305</ele>
        <time>2018-01-02T12:50:46.552Z</time>
      </trkpt>
      <trkpt lat="43.75138" lon="6.94885">
        <ele>1305</ele>
        <time>2018-01-02T12:50:51.552Z</time>
      </trkpt>
      <trkpt lat="43.75139" lon="6.94879">
        <ele>1306</ele>
        <time>2018-01-02T12:50:55.552Z</time>
      </trkpt>
      <trkpt lat="43.7514" lon="6.94874">
        <ele>1306</ele>
        <time>2018-01-02T12:50:59.552Z</time>
      </trkpt>
      <trkpt lat="43.75141" lon="6.94867">
        <ele>1306</ele>
        <time>2018-01-02T12:51:04.552Z</time>
      </trkpt>
      <trkpt lat="43.75142" lon="6.94861">
        <ele>1307</ele>
        <time>2018-01-02T12:51:12.552Z</time>
      </trkpt>
      <trkpt lat="43.75144" lon="6.94856">
        <ele>1307</ele>
        <time>2018-01-02T12:51:15.552Z</time>
      </trkpt>
      <trkpt lat="43.75146" lon="6.94848">
        <ele>1307</ele>
        <time>2018-01-02T12:51:18.552Z</time>
      </trkpt>
      <trkpt lat="43.75146" lon="6.94842">
        <ele>1308</ele>
        <time>2018-01-02T12:51:20.552Z</time>
      </trkpt>
      <trkpt lat="43.75147" lon="6.94837">
        <ele>1308</ele>
        <time>2018-01-02T12:51:22.552Z</time>
      </trkpt>
      <trkpt lat="43.75147" lon="6.94832">
        <ele>1311</ele>
        <time>2018-01-02T12:51:24.552Z</time>
      </trkpt>
      <trkpt lat="43.75147" lon="6.94822">
        <ele>1311</ele>
        <time>2018-01-02T12:51:28.552Z</time>
      </trkpt>
      <trkpt lat="43.75148" lon="6.94815">
        <ele>1312</ele>
        <time>2018-01-02T12:51:31.552Z</time>
      </trkpt>
      <trkpt lat="43.75148" lon="6.94803">
        <ele>1312</ele>
        <time>2018-01-02T12:51:36.552Z</time>
      </trkpt>
      <trkpt lat="43.75148" lon="6.94792">
        <ele>1313</ele>
        <time>2018-01-02T12:51:41.552Z</time>
      </trkpt>
      <trkpt lat="43.75149" lon="6.94781">
        <ele>1313</ele>
        <time>2018-01-02T12:51:45.552Z</time>
      </trkpt>
      <trkpt lat="43.75149" lon="6.94771">
        <ele>1313</ele>
        <time>2018-01-02T12:51:48.552Z</time>
      </trkpt>
      <trkpt lat="43.75149" lon="6.94756">
        <ele>1313</ele>
        <time>2018-01-02T12:51:53.552Z</time>
      </trkpt>
      <trkpt lat="43.75148" lon="6.9475">
        <ele>1313</ele>
        <time>2018-01-02T12:51:55.552Z</time>
      </trkpt>
      <trkpt lat="43.75148" lon="6.94741">
        <ele>1315</ele>
        <time>2018-01-02T12:51:59.552Z</time>
      </trkpt>
      <trkpt lat="43.75148" lon="6.94732">
        <ele>1315</ele>
        <time>2018-01-02T12:52:03.552Z</time>
      </trkpt>
      <trkpt lat="43.75147" lon="6.94722">
        <ele>1315</ele>
        <time>2018-01-02T12:52:08.552Z</time>
      </trkpt>
      <trkpt lat="43.75145" lon="6.94716">
        <ele>1315</ele>
        <time>2018-01-02T12:52:11.552Z</time>
      </trkpt>
      <trkpt lat="43.75145" lon="6.94711">
        <ele>1316</ele>
        <time>2018-01-02T12:52:14.552Z</time>
      </trkpt>
      <trkpt lat="43.75144" lon="6.94702">
        <ele>1316</ele>
        <time>2018-01-02T12:52:18.552Z</time>
      </trkpt>
      <trkpt lat="43.75145" lon="6.94693">
        <ele>1316</ele>
        <time>2018-01-02T12:52:23.552Z</time>
      </trkpt>
      <trkpt lat="43.75145" lon="6.94685">
        <ele>1316</ele>
        <time>2018-01-02T12:52:27.552Z</time>
      </trkpt>
      <trkpt lat="43.75144" lon="6.94679">
        <ele>1316</ele>
        <time>2018-01-02T12:52:36.552Z</time>
      </trkpt>
      <trkpt lat="43.75142" lon="6.94673">
        <ele>1316</ele>
        <time>2018-01-02T12:52:42.552Z</time>
      </trkpt>
      <trkpt lat="43.7514" lon="6.94666">
        <ele>1315</ele>
        <time>2018-01-02T12:52:50.552Z</time>
      </trkpt>
      <trkpt lat="43.7514" lon="6.94662">
        <ele>1315</ele>
        <time>2018-01-02T12:52:56.552Z</time>
      </trkpt>
      <trkpt lat="43.75141" lon="6.94657">
        <ele>1315</ele>
        <time>2018-01-02T12:53:03.552Z</time>
      </trkpt>
      <trkpt lat="43.75142" lon="6.94653">
        <ele>1315</ele>
        <time>2018-01-02T12:53:08.552Z</time>
      </trkpt>
      <trkpt lat="43.7514" lon="6.94646">
        <ele>1315</ele>
        <time>2018-01-02T12:53:16.552Z</time>
      </trkpt>
      <trkpt lat="43.75139" lon="6.94642">
        <ele>1315</ele>
        <time>2018-01-02T12:53:21.552Z</time>
      </trkpt>
      <trkpt lat="43.75137" lon="6.94637">
        <ele>1315</ele>
        <time>2018-01-02T12:53:25.552Z</time>
      </trkpt>
      <trkpt lat="43.75135" lon="6.94632">
        <ele>1314</ele>
        <time>2018-01-02T12:53:37.552Z</time>
      </trkpt>
      <trkpt lat="43.75133" lon="6.94627">
        <ele>1314</ele>
        <time>2018-01-02T12:53:39.552Z</time>
      </trkpt>
      <trkpt lat="43.75129" lon="6.94619">
        <ele>1314</ele>
        <time>2018-01-02T12:53:43.552Z</time>
      </trkpt>
      <trkpt lat="43.75124" lon="6.94612">
        <ele>1314</ele>
        <time>2018-01-02T12:53:48.552Z</time>
      </trkpt>
      <trkpt lat="43.75121" lon="6.94603">
        <ele>1314</ele>
        <time>2018-01-02T12:53:52.552Z</time>
      </trkpt>
      <trkpt lat="43.7512" lon="6.94598">
        <ele>1314</ele>
        <time>2018-01-02T12:53:54.552Z</time>
      </trkpt>
      <trkpt lat="43.75117" lon="6.94592">
        <ele>1314</ele>
        <time>2018-01-02T12:53:56.552Z</time>
      </trkpt>
      <trkpt lat="43.75115" lon="6.94589">
        <ele>1314</ele>
        <time>2018-01-02T12:53:57.552Z</time>
      </trkpt>
      <trkpt lat="43.75113" lon="6.94584">
        <ele>1314</ele>
        <time>2018-01-02T12:53:59.552Z</time>
      </trkpt>
      <trkpt lat="43.7511" lon="6.9458">
        <ele>1312</ele>
        <time>2018-01-02T12:54:01.552Z</time>
      </trkpt>
      <trkpt lat="43.75107" lon="6.94577">
        <ele>1312</ele>
        <time>2018-01-02T12:54:03.552Z</time>
      </trkpt>
      <trkpt lat="43.75104" lon="6.94575">
        <ele>1312</ele>
        <time>2018-01-02T12:54:05.552Z</time>
      </trkpt>
      <trkpt lat="43.75101" lon="6.94573">
        <ele>1312</ele>
        <time>2018-01-02T12:54:07.552Z</time>
      </trkpt>
      <trkpt lat="43.75097" lon="6.94571">
        <ele>1312</ele>
        <time>2018-01-02T12:54:10.552Z</time>
      </trkpt>
      <trkpt lat="43.75097" lon="6.94567">
        <ele>1312</ele>
        <time>2018-01-02T12:54:12.552Z</time>
      </trkpt>
      <trkpt lat="43.75097" lon="6.94563">
        <ele>1312</ele>
        <time>2018-01-02T12:54:13.552Z</time>
      </trkpt>
      <trkpt lat="43.75097" lon="6.94557">
        <ele>1311</ele>
        <time>2018-01-02T12:54:14.552Z</time>
      </trkpt>
      <trkpt lat="43.75098" lon="6.94551">
        <ele>1311</ele>
        <time>2018-01-02T12:54:15.552Z</time>
      </trkpt>
      <trkpt lat="43.75097" lon="6.94544">
        <ele>1311</ele>
        <time>2018-01-02T12:54:16.552Z</time>
      </trkpt>
      <trkpt lat="43.75097" lon="6.94529">
        <ele>1310</ele>
        <time>2018-01-02T12:54:18.552Z</time>
      </trkpt>
      <trkpt lat="43.75096" lon="6.94513">
        <ele>1309</ele>
        <time>2018-01-02T12:54:20.552Z</time>
      </trkpt>
      <trkpt lat="43.75095" lon="6.94498">
        <ele>1308</ele>
        <time>2018-01-02T12:54:22.552Z</time>
      </trkpt>
      <trkpt lat="43.75095" lon="6.9449">
        <ele>1308</ele>
        <time>2018-01-02T12:54:23.552Z</time>
      </trkpt>
      <trkpt lat="43.75095" lon="6.94483">
        <ele>1309</ele>
        <time>2018-01-02T12:54:24.552Z</time>
      </trkpt>
      <trkpt lat="43.75096" lon="6.94473">
        <ele>1309</ele>
        <time>2018-01-02T12:54:26.552Z</time>
      </trkpt>
      <trkpt lat="43.75098" lon="6.94463">
        <ele>1309</ele>
        <time>2018-01-02T12:54:29.552Z</time>
      </trkpt>
      <trkpt lat="43.75099" lon="6.94455">
        <ele>1309</ele>
        <time>2018-01-02T12:54:32.552Z</time>
      </trkpt>
      <trkpt lat="43.75099" lon="6.94448">
        <ele>1310</ele>
        <time>2018-01-02T12:54:35.552Z</time>
      </trkpt>
      <trkpt lat="43.75099" lon="6.94442">
        <ele>1310</ele>
        <time>2018-01-02T12:54:37.552Z</time>
      </trkpt>
      <trkpt lat="43.751" lon="6.94437">
        <ele>1310</ele>
        <time>2018-01-02T12:54:39.552Z</time>
      </trkpt>
      <trkpt lat="43.751" lon="6.94427">
        <ele>1310</ele>
        <time>2018-01-02T12:54:43.552Z</time>
      </trkpt>
      <trkpt lat="43.75099" lon="6.94416">
        <ele>1310</ele>
        <time>2018-01-02T12:54:47.552Z</time>
      </trkpt>
      <trkpt lat="43.751" lon="6.94411">
        <ele>1311</ele>
        <time>2018-01-02T12:54:49.552Z</time>
      </trkpt>
      <trkpt lat="43.75099" lon="6.94401">
        <ele>1311</ele>
        <time>2018-01-02T12:54:53.552Z</time>
      </trkpt>
      <trkpt lat="43.75099" lon="6.94391">
        <ele>1311</ele>
        <time>2018-01-02T12:54:57.552Z</time>
      </trkpt>
      <trkpt lat="43.75101" lon="6.94384">
        <ele>1311</ele>
        <time>2018-01-02T12:55:00.552Z</time>
      </trkpt>
      <trkpt lat="43.75102" lon="6.94378">
        <ele>1312</ele>
        <time>2018-01-02T12:55:02.552Z</time>
      </trkpt>
      <trkpt lat="43.75103" lon="6.94373">
        <ele>1312</ele>
        <time>2018-01-02T12:55:04.552Z</time>
      </trkpt>
      <trkpt lat="43.75103" lon="6.94362">
        <ele>1312</ele>
        <time>2018-01-02T12:55:08.552Z</time>
      </trkpt>
      <trkpt lat="43.75105" lon="6.94354">
        <ele>1312</ele>
        <time>2018-01-02T12:55:12.552Z</time>
      </trkpt>
      <trkpt lat="43.75107" lon="6.94348">
        <ele>1312</ele>
        <time>2018-01-02T12:55:17.552Z</time>
      </trkpt>
      <trkpt lat="43.75111" lon="6.94343">
        <ele>1312</ele>
        <time>2018-01-02T12:55:37.552Z</time>
      </trkpt>
      <trkpt lat="43.75118" lon="6.94334">
        <ele>1312</ele>
        <time>2018-01-02T12:55:40.552Z</time>
      </trkpt>
      <trkpt lat="43.75125" lon="6.94327">
        <ele>1311</ele>
        <time>2018-01-02T12:55:42.552Z</time>
      </trkpt>
      <trkpt lat="43.75133" lon="6.94318">
        <ele>1311</ele>
        <time>2018-01-02T12:55:44.552Z</time>
      </trkpt>
      <trkpt lat="43.75142" lon="6.94308">
        <ele>1311</ele>
        <time>2018-01-02T12:55:46.552Z</time>
      </trkpt>
      <trkpt lat="43.75153" lon="6.94296">
        <ele>1311</ele>
        <time>2018-01-02T12:55:48.552Z</time>
      </trkpt>
      <trkpt lat="43.75164" lon="6.94285">
        <ele>1311</ele>
        <time>2018-01-02T12:55:50.552Z</time>
      </trkpt>
      <trkpt lat="43.75176" lon="6.94273">
        <ele>1307</ele>
        <time>2018-01-02T12:55:52.552Z</time>
      </trkpt>
      <trkpt lat="43.75183" lon="6.94267">
        <ele>1307</ele>
        <time>2018-01-02T12:55:53.552Z</time>
      </trkpt>
      <trkpt lat="43.75188" lon="6.94261">
        <ele>1306</ele>
        <time>2018-01-02T12:55:54.552Z</time>
      </trkpt>
      <trkpt lat="43.75199" lon="6.94249">
        <ele>1304</ele>
        <time>2018-01-02T12:55:56.552Z</time>
      </trkpt>
      <trkpt lat="43.75208" lon="6.94237">
        <ele>1303</ele>
        <time>2018-01-02T12:55:58.552Z</time>
      </trkpt>
      <trkpt lat="43.75213" lon="6.94231">
        <ele>1302</ele>
        <time>2018-01-02T12:55:59.552Z</time>
      </trkpt>
      <trkpt lat="43.75218" lon="6.94225">
        <ele>1302</ele>
        <time>2018-01-02T12:56:00.552Z</time>
      </trkpt>
      <trkpt lat="43.75228" lon="6.94213">
        <ele>1301</ele>
        <time>2018-01-02T12:56:02.552Z</time>
      </trkpt>
      <trkpt lat="43.75237" lon="6.942">
        <ele>1301</ele>
        <time>2018-01-02T12:56:04.552Z</time>
      </trkpt>
      <trkpt lat="43.75246" lon="6.94187">
        <ele>1300</ele>
        <time>2018-01-02T12:56:06.552Z</time>
      </trkpt>
      <trkpt lat="43.75255" lon="6.94174">
        <ele>1295</ele>
        <time>2018-01-02T12:56:08.552Z</time>
      </trkpt>
      <trkpt lat="43.75263" lon="6.94165">
        <ele>1293</ele>
        <time>2018-01-02T12:56:10.552Z</time>
      </trkpt>
      <trkpt lat="43.75271" lon="6.94155">
        <ele>1290</ele>
        <time>2018-01-02T12:56:12.552Z</time>
      </trkpt>
      <trkpt lat="43.7528" lon="6.94143">
        <ele>1289</ele>
        <time>2018-01-02T12:56:14.552Z</time>
      </trkpt>
      <trkpt lat="43.75288" lon="6.94133">
        <ele>1287</ele>
        <time>2018-01-02T12:56:16.552Z</time>
      </trkpt>
      <trkpt lat="43.75297" lon="6.94122">
        <ele>1286</ele>
        <time>2018-01-02T12:56:18.552Z</time>
      </trkpt>
      <trkpt lat="43.75306" lon="6.9411">
        <ele>1285</ele>
        <time>2018-01-02T12:56:20.552Z</time>
      </trkpt>
      <trkpt lat="43.75314" lon="6.94098">
        <ele>1283</ele>
        <time>2018-01-02T12:56:22.552Z</time>
      </trkpt>
      <trkpt lat="43.75321" lon="6.94086">
        <ele>1281</ele>
        <time>2018-01-02T12:56:24.552Z</time>
      </trkpt>
      <trkpt lat="43.75328" lon="6.94075">
        <ele>1280</ele>
        <time>2018-01-02T12:56:26.552Z</time>
      </trkpt>
      <trkpt lat="43.75334" lon="6.94066">
        <ele>1274</ele>
        <time>2018-01-02T12:56:28.552Z</time>
      </trkpt>
      <trkpt lat="43.7534" lon="6.94058">
        <ele>1273</ele>
        <time>2018-01-02T12:56:30.552Z</time>
      </trkpt>
      <trkpt lat="43.75343" lon="6.94041">
        <ele>1272</ele>
        <time>2018-01-02T12:56:33.552Z</time>
      </trkpt>
      <trkpt lat="43.75344" lon="6.94011">
        <ele>1273</ele>
        <time>2018-01-02T12:56:37.552Z</time>
      </trkpt>
      <trkpt lat="43.75347" lon="6.93992">
        <ele>1274</ele>
        <time>2018-01-02T12:56:40.552Z</time>
      </trkpt>
      <trkpt lat="43.75351" lon="6.93981">
        <ele>1273</ele>
        <time>2018-01-02T12:56:42.552Z</time>
      </trkpt>
      <trkpt lat="43.75354" lon="6.93971">
        <ele>1272</ele>
        <time>2018-01-02T12:56:44.552Z</time>
      </trkpt>
      <trkpt lat="43.7536" lon="6.93961">
        <ele>1272</ele>
        <time>2018-01-02T12:56:46.552Z</time>
      </trkpt>
      <trkpt lat="43.75366" lon="6.93949">
        <ele>1271</ele>
        <time>2018-01-02T12:56:48.552Z</time>
      </trkpt>
      <trkpt lat="43.75372" lon="6.93937">
        <ele>1271</ele>
        <time>2018-01-02T12:56:50.552Z</time>
      </trkpt>
      <trkpt lat="43.75377" lon="6.93924">
        <ele>1271</ele>
        <time>2018-01-02T12:56:52.552Z</time>
      </trkpt>
      <trkpt lat="43.7538" lon="6.93911">
        <ele>1272</ele>
        <time>2018-01-02T12:56:55.552Z</time>
      </trkpt>
      <trkpt lat="43.75382" lon="6.93899">
        <ele>1272</ele>
        <time>2018-01-02T12:56:59.552Z</time>
      </trkpt>
      <trkpt lat="43.75382" lon="6.93887">
        <ele>1273</ele>
        <time>2018-01-02T12:57:03.552Z</time>
      </trkpt>
      <trkpt lat="43.75382" lon="6.93876">
        <ele>1273</ele>
        <time>2018-01-02T12:57:07.552Z</time>
      </trkpt>
      <trkpt lat="43.75381" lon="6.93865">
        <ele>1273</ele>
        <time>2018-01-02T12:57:11.552Z</time>
      </trkpt>
      <trkpt lat="43.75381" lon="6.93856">
        <ele>1273</ele>
        <time>2018-01-02T12:57:14.552Z</time>
      </trkpt>
      <trkpt lat="43.75382" lon="6.93844">
        <ele>1273</ele>
        <time>2018-01-02T12:57:18.552Z</time>
      </trkpt>
      <trkpt lat="43.75385" lon="6.93832">
        <ele>1274</ele>
        <time>2018-01-02T12:57:22.552Z</time>
      </trkpt>
      <trkpt lat="43.75387" lon="6.93824">
        <ele>1274</ele>
        <time>2018-01-02T12:57:25.552Z</time>
      </trkpt>
      <trkpt lat="43.75389" lon="6.93814">
        <ele>1274</ele>
        <time>2018-01-02T12:57:28.552Z</time>
      </trkpt>
      <trkpt lat="43.75392" lon="6.93803">
        <ele>1275</ele>
        <time>2018-01-02T12:57:31.552Z</time>
      </trkpt>
      <trkpt lat="43.75395" lon="6.93792">
        <ele>1275</ele>
        <time>2018-01-02T12:57:34.552Z</time>
      </trkpt>
      <trkpt lat="43.75397" lon="6.93782">
        <ele>1275</ele>
        <time>2018-01-02T12:57:37.552Z</time>
      </trkpt>
      <trkpt lat="43.75399" lon="6.93775">
        <ele>1275</ele>
        <time>2018-01-02T12:57:39.552Z</time>
      </trkpt>
      <trkpt lat="43.754" lon="6.93768">
        <ele>1275</ele>
        <time>2018-01-02T12:57:41.552Z</time>
      </trkpt>
      <trkpt lat="43.75402" lon="6.93756">
        <ele>1275</ele>
        <time>2018-01-02T12:57:44.552Z</time>
      </trkpt>
      <trkpt lat="43.75403" lon="6.93749">
        <ele>1276</ele>
        <time>2018-01-02T12:57:46.552Z</time>
      </trkpt>
      <trkpt lat="43.75405" lon="6.9374">
        <ele>1276</ele>
        <time>2018-01-02T12:57:48.552Z</time>
      </trkpt>
      <trkpt lat="43.75408" lon="6.93731">
        <ele>1276</ele>
        <time>2018-01-02T12:57:50.552Z</time>
      </trkpt>
      <trkpt lat="43.75411" lon="6.9372">
        <ele>1276</ele>
        <time>2018-01-02T12:57:52.552Z</time>
      </trkpt>
      <trkpt lat="43.75413" lon="6.93708">
        <ele>1276</ele>
        <time>2018-01-02T12:57:54.552Z</time>
      </trkpt>
      <trkpt lat="43.75414" lon="6.93695">
        <ele>1275</ele>
        <time>2018-01-02T12:57:56.552Z</time>
      </trkpt>
      <trkpt lat="43.75415" lon="6.93682">
        <ele>1275</ele>
        <time>2018-01-02T12:57:58.552Z</time>
      </trkpt>
      <trkpt lat="43.75414" lon="6.9367">
        <ele>1274</ele>
        <time>2018-01-02T12:58:00.552Z</time>
      </trkpt>
      <trkpt lat="43.75414" lon="6.93656">
        <ele>1274</ele>
        <time>2018-01-02T12:58:03.552Z</time>
      </trkpt>
      <trkpt lat="43.75413" lon="6.93644">
        <ele>1275</ele>
        <time>2018-01-02T12:58:06.552Z</time>
      </trkpt>
      <trkpt lat="43.75413" lon="6.93632">
        <ele>1275</ele>
        <time>2018-01-02T12:58:09.552Z</time>
      </trkpt>
      <trkpt lat="43.75412" lon="6.93623">
        <ele>1275</ele>
        <time>2018-01-02T12:58:11.552Z</time>
      </trkpt>
      <trkpt lat="43.75412" lon="6.93614">
        <ele>1275</ele>
        <time>2018-01-02T12:58:13.552Z</time>
      </trkpt>
      <trkpt lat="43.75413" lon="6.93604">
        <ele>1274</ele>
        <time>2018-01-02T12:58:15.552Z</time>
      </trkpt>
      <trkpt lat="43.75414" lon="6.93594">
        <ele>1274</ele>
        <time>2018-01-02T12:58:17.552Z</time>
      </trkpt>
      <trkpt lat="43.75416" lon="6.93583">
        <ele>1273</ele>
        <time>2018-01-02T12:58:19.552Z</time>
      </trkpt>
      <trkpt lat="43.75417" lon="6.93571">
        <ele>1272</ele>
        <time>2018-01-02T12:58:21.552Z</time>
      </trkpt>
      <trkpt lat="43.75419" lon="6.93558">
        <ele>1272</ele>
        <time>2018-01-02T12:58:23.552Z</time>
      </trkpt>
      <trkpt lat="43.7542" lon="6.93543">
        <ele>1271</ele>
        <time>2018-01-02T12:58:25.552Z</time>
      </trkpt>
      <trkpt lat="43.75419" lon="6.9351">
        <ele>1270</ele>
        <time>2018-01-02T12:58:29.552Z</time>
      </trkpt>
      <trkpt lat="43.75416" lon="6.93494">
        <ele>1270</ele>
        <time>2018-01-02T12:58:31.552Z</time>
      </trkpt>
      <trkpt lat="43.75412" lon="6.93479">
        <ele>1270</ele>
        <time>2018-01-02T12:58:33.552Z</time>
      </trkpt>
      <trkpt lat="43.75409" lon="6.93467">
        <ele>1271</ele>
        <time>2018-01-02T12:58:35.552Z</time>
      </trkpt>
      <trkpt lat="43.75407" lon="6.93457">
        <ele>1271</ele>
        <time>2018-01-02T12:58:37.552Z</time>
      </trkpt>
      <trkpt lat="43.75406" lon="6.93447">
        <ele>1271</ele>
        <time>2018-01-02T12:58:39.552Z</time>
      </trkpt>
      <trkpt lat="43.75404" lon="6.93438">
        <ele>1271</ele>
        <time>2018-01-02T12:58:41.552Z</time>
      </trkpt>
      <trkpt lat="43.75403" lon="6.93428">
        <ele>1271</ele>
        <time>2018-01-02T12:58:43.552Z</time>
      </trkpt>
      <trkpt lat="43.75401" lon="6.9342">
        <ele>1271</ele>
        <time>2018-01-02T12:58:45.552Z</time>
      </trkpt>
      <trkpt lat="43.75399" lon="6.93407">
        <ele>1271</ele>
        <time>2018-01-02T12:58:48.552Z</time>
      </trkpt>
      <trkpt lat="43.75397" lon="6.93394">
        <ele>1271</ele>
        <time>2018-01-02T12:58:51.552Z</time>
      </trkpt>
      <trkpt lat="43.75396" lon="6.93385">
        <ele>1271</ele>
        <time>2018-01-02T12:58:53.552Z</time>
      </trkpt>
      <trkpt lat="43.75394" lon="6.93376">
        <ele>1271</ele>
        <time>2018-01-02T12:58:55.552Z</time>
      </trkpt>
      <trkpt lat="43.75393" lon="6.93367">
        <ele>1271</ele>
        <time>2018-01-02T12:58:57.552Z</time>
      </trkpt>
      <trkpt lat="43.75391" lon="6.93356">
        <ele>1271</ele>
        <time>2018-01-02T12:59:00.552Z</time>
      </trkpt>
      <trkpt lat="43.7539" lon="6.93345">
        <ele>1271</ele>
        <time>2018-01-02T12:59:03.552Z</time>
      </trkpt>
      <trkpt lat="43.75387" lon="6.93335">
        <ele>1271</ele>
        <time>2018-01-02T12:59:06.552Z</time>
      </trkpt>
      <trkpt lat="43.75384" lon="6.93326">
        <ele>1272</ele>
        <time>2018-01-02T12:59:09.552Z</time>
      </trkpt>
      <trkpt lat="43.75379" lon="6.93317">
        <ele>1272</ele>
        <time>2018-01-02T12:59:12.552Z</time>
      </trkpt>
      <trkpt lat="43.75376" lon="6.93309">
        <ele>1272</ele>
        <time>2018-01-02T12:59:15.552Z</time>
      </trkpt>
      <trkpt lat="43.75372" lon="6.93301">
        <ele>1272</ele>
        <time>2018-01-02T12:59:18.552Z</time>
      </trkpt>
      <trkpt lat="43.75368" lon="6.93294">
        <ele>1273</ele>
        <time>2018-01-02T12:59:21.552Z</time>
      </trkpt>
      <trkpt lat="43.75364" lon="6.93286">
        <ele>1273</ele>
        <time>2018-01-02T12:59:24.552Z</time>
      </trkpt>
      <trkpt lat="43.7536" lon="6.93279">
        <ele>1273</ele>
        <time>2018-01-02T12:59:27.552Z</time>
      </trkpt>
      <trkpt lat="43.75355" lon="6.93271">
        <ele>1273</ele>
        <time>2018-01-02T12:59:30.552Z</time>
      </trkpt>
      <trkpt lat="43.7535" lon="6.93263">
        <ele>1274</ele>
        <time>2018-01-02T12:59:33.552Z</time>
      </trkpt>
      <trkpt lat="43.75346" lon="6.93257">
        <ele>1274</ele>
        <time>2018-01-02T12:59:35.552Z</time>
      </trkpt>
      <trkpt lat="43.7534" lon="6.93249">
        <ele>1275</ele>
        <time>2018-01-02T12:59:38.552Z</time>
      </trkpt>
      <trkpt lat="43.75337" lon="6.93243">
        <ele>1275</ele>
        <time>2018-01-02T12:59:40.552Z</time>
      </trkpt>
      <trkpt lat="43.75331" lon="6.93232">
        <ele>1275</ele>
        <time>2018-01-02T12:59:43.552Z</time>
      </trkpt>
      <trkpt lat="43.75327" lon="6.93225">
        <ele>1275</ele>
        <time>2018-01-02T12:59:45.552Z</time>
      </trkpt>
      <trkpt lat="43.75324" lon="6.93218">
        <ele>1275</ele>
        <time>2018-01-02T12:59:47.552Z</time>
      </trkpt>
      <trkpt lat="43.7532" lon="6.9321">
        <ele>1275</ele>
        <time>2018-01-02T12:59:49.552Z</time>
      </trkpt>
      <trkpt lat="43.75317" lon="6.93201">
        <ele>1275</ele>
        <time>2018-01-02T12:59:51.552Z</time>
      </trkpt>
      <trkpt lat="43.75314" lon="6.93193">
        <ele>1274</ele>
        <time>2018-01-02T12:59:53.552Z</time>
      </trkpt>
      <trkpt lat="43.75311" lon="6.93184">
        <ele>1274</ele>
        <time>2018-01-02T12:59:55.552Z</time>
      </trkpt>
      <trkpt lat="43.75308" lon="6.93175">
        <ele>1274</ele>
        <time>2018-01-02T12:59:57.552Z</time>
      </trkpt>
      <trkpt lat="43.75305" lon="6.93166">
        <ele>1274</ele>
        <time>2018-01-02T12:59:59.552Z</time>
      </trkpt>
      <trkpt lat="43.75302" lon="6.93157">
        <ele>1273</ele>
        <time>2018-01-02T13:00:01.552Z</time>
      </trkpt>
      <trkpt lat="43.75299" lon="6.93148">
        <ele>1273</ele>
        <time>2018-01-02T13:00:03.552Z</time>
      </trkpt>
      <trkpt lat="43.75296" lon="6.93139">
        <ele>1273</ele>
        <time>2018-01-02T13:00:05.552Z</time>
      </trkpt>
      <trkpt lat="43.75291" lon="6.93132">
        <ele>1273</ele>
        <time>2018-01-02T13:00:07.552Z</time>
      </trkpt>
      <trkpt lat="43.75285" lon="6.93125">
        <ele>1273</ele>
        <time>2018-01-02T13:00:09.552Z</time>
      </trkpt>
      <trkpt lat="43.7528" lon="6.93117">
        <ele>1273</ele>
        <time>2018-01-02T13:00:11.552Z</time>
      </trkpt>
      <trkpt lat="43.75275" lon="6.93108">
        <ele>1273</ele>
        <time>2018-01-02T13:00:13.552Z</time>
      </trkpt>
      <trkpt lat="43.75272" lon="6.93099">
        <ele>1273</ele>
        <time>2018-01-02T13:00:15.552Z</time>
      </trkpt>
      <trkpt lat="43.75269" lon="6.93091">
        <ele>1273</ele>
        <time>2018-01-02T13:00:17.552Z</time>
      </trkpt>
      <trkpt lat="43.75266" lon="6.93081">
        <ele>1272</ele>
        <time>2018-01-02T13:00:19.552Z</time>
      </trkpt>
      <trkpt lat="43.75264" lon="6.93071">
        <ele>1272</ele>
        <time>2018-01-02T13:00:21.552Z</time>
      </trkpt>
      <trkpt lat="43.75261" lon="6.93061">
        <ele>1272</ele>
        <time>2018-01-02T13:00:23.552Z</time>
      </trkpt>
      <trkpt lat="43.75258" lon="6.9305">
        <ele>1272</ele>
        <time>2018-01-02T13:00:25.552Z</time>
      </trkpt>
      <trkpt lat="43.75256" lon="6.93038">
        <ele>1271</ele>
        <time>2018-01-02T13:00:27.552Z</time>
      </trkpt>
      <trkpt lat="43.75253" lon="6.93024">
        <ele>1271</ele>
        <time>2018-01-02T13:00:29.552Z</time>
      </trkpt>
      <trkpt lat="43.7525" lon="6.9301">
        <ele>1268</ele>
        <time>2018-01-02T13:00:31.552Z</time>
      </trkpt>
      <trkpt lat="43.75248" lon="6.93003">
        <ele>1269</ele>
        <time>2018-01-02T13:00:32.552Z</time>
      </trkpt>
      <trkpt lat="43.75244" lon="6.92989">
        <ele>1267</ele>
        <time>2018-01-02T13:00:34.552Z</time>
      </trkpt>
      <trkpt lat="43.75241" lon="6.92975">
        <ele>1266</ele>
        <time>2018-01-02T13:00:36.552Z</time>
      </trkpt>
      <trkpt lat="43.75239" lon="6.92961">
        <ele>1265</ele>
        <time>2018-01-02T13:00:38.552Z</time>
      </trkpt>
      <trkpt lat="43.75239" lon="6.92949">
        <ele>1265</ele>
        <time>2018-01-02T13:00:40.552Z</time>
      </trkpt>
      <trkpt lat="43.75241" lon="6.92937">
        <ele>1266</ele>
        <time>2018-01-02T13:00:42.552Z</time>
      </trkpt>
      <trkpt lat="43.75242" lon="6.92926">
        <ele>1267</ele>
        <time>2018-01-02T13:00:44.552Z</time>
      </trkpt>
      <trkpt lat="43.75242" lon="6.92916">
        <ele>1268</ele>
        <time>2018-01-02T13:00:46.552Z</time>
      </trkpt>
      <trkpt lat="43.75243" lon="6.92903">
        <ele>1267</ele>
        <time>2018-01-02T13:00:49.552Z</time>
      </trkpt>
      <trkpt lat="43.75244" lon="6.92892">
        <ele>1266</ele>
        <time>2018-01-02T13:00:52.552Z</time>
      </trkpt>
      <trkpt lat="43.75244" lon="6.92881">
        <ele>1265</ele>
        <time>2018-01-02T13:00:55.552Z</time>
      </trkpt>
      <trkpt lat="43.75245" lon="6.92871">
        <ele>1265</ele>
        <time>2018-01-02T13:00:58.552Z</time>
      </trkpt>
      <trkpt lat="43.75246" lon="6.9286">
        <ele>1266</ele>
        <time>2018-01-02T13:01:01.552Z</time>
      </trkpt>
      <trkpt lat="43.75246" lon="6.92849">
        <ele>1267</ele>
        <time>2018-01-02T13:01:04.552Z</time>
      </trkpt>
      <trkpt lat="43.75247" lon="6.92839">
        <ele>1268</ele>
        <time>2018-01-02T13:01:07.552Z</time>
      </trkpt>
      <trkpt lat="43.75246" lon="6.92829">
        <ele>1269</ele>
        <time>2018-01-02T13:01:11.552Z</time>
      </trkpt>
      <trkpt lat="43.75244" lon="6.92819">
        <ele>1267</ele>
        <time>2018-01-02T13:01:14.552Z</time>
      </trkpt>
      <trkpt lat="43.75244" lon="6.9281">
        <ele>1267</ele>
        <time>2018-01-02T13:01:17.552Z</time>
      </trkpt>
      <trkpt lat="43.75246" lon="6.9279">
        <ele>1267</ele>
        <time>2018-01-02T13:01:24.552Z</time>
      </trkpt>
      <trkpt lat="43.75246" lon="6.92778">
        <ele>1267</ele>
        <time>2018-01-02T13:01:28.552Z</time>
      </trkpt>
      <trkpt lat="43.75246" lon="6.92759">
        <ele>1269</ele>
        <time>2018-01-02T13:01:34.552Z</time>
      </trkpt>
      <trkpt lat="43.75247" lon="6.9275">
        <ele>1270</ele>
        <time>2018-01-02T13:01:37.552Z</time>
      </trkpt>
      <trkpt lat="43.7525" lon="6.9274">
        <ele>1270</ele>
        <time>2018-01-02T13:01:40.552Z</time>
      </trkpt>
      <trkpt lat="43.75251" lon="6.92732">
        <ele>1270</ele>
        <time>2018-01-02T13:01:43.552Z</time>
      </trkpt>
      <trkpt lat="43.75253" lon="6.92725">
        <ele>1270</ele>
        <time>2018-01-02T13:01:47.552Z</time>
      </trkpt>
      <trkpt lat="43.75254" lon="6.92717">
        <ele>1270</ele>
        <time>2018-01-02T13:01:53.552Z</time>
      </trkpt>
      <trkpt lat="43.75255" lon="6.92708">
        <ele>1270</ele>
        <time>2018-01-02T13:01:58.552Z</time>
      </trkpt>
      <trkpt lat="43.75255" lon="6.92694">
        <ele>1270</ele>
        <time>2018-01-02T13:02:02.552Z</time>
      </trkpt>
      <trkpt lat="43.75255" lon="6.92687">
        <ele>1270</ele>
        <time>2018-01-02T13:02:04.552Z</time>
      </trkpt>
      <trkpt lat="43.75257" lon="6.92675">
        <ele>1269</ele>
        <time>2018-01-02T13:02:07.552Z</time>
      </trkpt>
      <trkpt lat="43.75258" lon="6.92665">
        <ele>1269</ele>
        <time>2018-01-02T13:02:09.552Z</time>
      </trkpt>
      <trkpt lat="43.75259" lon="6.92654">
        <ele>1269</ele>
        <time>2018-01-02T13:02:12.552Z</time>
      </trkpt>
      <trkpt lat="43.75259" lon="6.92631">
        <ele>1269</ele>
        <time>2018-01-02T13:02:18.552Z</time>
      </trkpt>
      <trkpt lat="43.75259" lon="6.9262">
        <ele>1268</ele>
        <time>2018-01-02T13:02:21.552Z</time>
      </trkpt>
      <trkpt lat="43.75257" lon="6.92609">
        <ele>1268</ele>
        <time>2018-01-02T13:02:24.552Z</time>
      </trkpt>
      <trkpt lat="43.75256" lon="6.92599">
        <ele>1268</ele>
        <time>2018-01-02T13:02:27.552Z</time>
      </trkpt>
      <trkpt lat="43.75254" lon="6.92587">
        <ele>1267</ele>
        <time>2018-01-02T13:02:30.552Z</time>
      </trkpt>
      <trkpt lat="43.75254" lon="6.92578">
        <ele>1267</ele>
        <time>2018-01-02T13:02:32.552Z</time>
      </trkpt>
      <trkpt lat="43.75253" lon="6.92568">
        <ele>1267</ele>
        <time>2018-01-02T13:02:34.552Z</time>
      </trkpt>
      <trkpt lat="43.75252" lon="6.92557">
        <ele>1267</ele>
        <time>2018-01-02T13:02:36.552Z</time>
      </trkpt>
      <trkpt lat="43.75251" lon="6.92546">
        <ele>1266</ele>
        <time>2018-01-02T13:02:38.552Z</time>
      </trkpt>
      <trkpt lat="43.75249" lon="6.92535">
        <ele>1266</ele>
        <time>2018-01-02T13:02:40.552Z</time>
      </trkpt>
      <trkpt lat="43.75246" lon="6.92525">
        <ele>1265</ele>
        <time>2018-01-02T13:02:42.552Z</time>
      </trkpt>
      <trkpt lat="43.75243" lon="6.92515">
        <ele>1265</ele>
        <time>2018-01-02T13:02:44.552Z</time>
      </trkpt>
      <trkpt lat="43.75241" lon="6.92506">
        <ele>1265</ele>
        <time>2018-01-02T13:02:46.552Z</time>
      </trkpt>
      <trkpt lat="43.75238" lon="6.92494">
        <ele>1265</ele>
        <time>2018-01-02T13:02:49.552Z</time>
      </trkpt>
      <trkpt lat="43.75236" lon="6.92484">
        <ele>1265</ele>
        <time>2018-01-02T13:02:52.552Z</time>
      </trkpt>
      <trkpt lat="43.75234" lon="6.92475">
        <ele>1265</ele>
        <time>2018-01-02T13:02:55.552Z</time>
      </trkpt>
      <trkpt lat="43.75234" lon="6.92466">
        <ele>1265</ele>
        <time>2018-01-02T13:03:01.552Z</time>
      </trkpt>
      <trkpt lat="43.75239" lon="6.92464">
        <ele>1265</ele>
        <time>2018-01-02T13:03:05.552Z</time>
      </trkpt>
      <trkpt lat="43.75246" lon="6.92459">
        <ele>1265</ele>
        <time>2018-01-02T13:03:09.552Z</time>
      </trkpt>
      <trkpt lat="43.75252" lon="6.92455">
        <ele>1265</ele>
        <time>2018-01-02T13:03:11.552Z</time>
      </trkpt>
      <trkpt lat="43.7526" lon="6.92449">
        <ele>1265</ele>
        <time>2018-01-02T13:03:13.552Z</time>
      </trkpt>
      <trkpt lat="43.75267" lon="6.92442">
        <ele>1265</ele>
        <time>2018-01-02T13:03:15.552Z</time>
      </trkpt>
      <trkpt lat="43.75275" lon="6.92435">
        <ele>1265</ele>
        <time>2018-01-02T13:03:17.552Z</time>
      </trkpt>
      <trkpt lat="43.75283" lon="6.92429">
        <ele>1265</ele>
        <time>2018-01-02T13:03:19.552Z</time>
      </trkpt>
      <trkpt lat="43.7529" lon="6.92423">
        <ele>1265</ele>
        <time>2018-01-02T13:03:21.552Z</time>
      </trkpt>
      <trkpt lat="43.75296" lon="6.92417">
        <ele>1266</ele>
        <time>2018-01-02T13:03:23.552Z</time>
      </trkpt>
      <trkpt lat="43.75302" lon="6.92411">
        <ele>1266</ele>
        <time>2018-01-02T13:03:25.552Z</time>
      </trkpt>
      <trkpt lat="43.75308" lon="6.92404">
        <ele>1266</ele>
        <time>2018-01-02T13:03:27.552Z</time>
      </trkpt>
      <trkpt lat="43.75314" lon="6.92396">
        <ele>1266</ele>
        <time>2018-01-02T13:03:29.552Z</time>
      </trkpt>
      <trkpt lat="43.75319" lon="6.92386">
        <ele>1266</ele>
        <time>2018-01-02T13:03:31.552Z</time>
      </trkpt>
      <trkpt lat="43.75323" lon="6.92373">
        <ele>1266</ele>
        <time>2018-01-02T13:03:33.552Z</time>
      </trkpt>
      <trkpt lat="43.75325" lon="6.9236">
        <ele>1266</ele>
        <time>2018-01-02T13:03:35.552Z</time>
      </trkpt>
      <trkpt lat="43.75326" lon="6.92346">
        <ele>1266</ele>
        <time>2018-01-02T13:03:37.552Z</time>
      </trkpt>
      <trkpt lat="43.75328" lon="6.92332">
        <ele>1266</ele>
        <time>2018-01-02T13:03:39.552Z</time>
      </trkpt>
      <trkpt lat="43.75328" lon="6.92318">
        <ele>1266</ele>
        <time>2018-01-02T13:03:41.552Z</time>
      </trkpt>
      <trkpt lat="43.75328" lon="6.92304">
        <ele>1266</ele>
        <time>2018-01-02T13:03:43.552Z</time>
      </trkpt>
      <trkpt lat="43.75327" lon="6.92291">
        <ele>1266</ele>
        <time>2018-01-02T13:03:45.552Z</time>
      </trkpt>
      <trkpt lat="43.75327" lon="6.92278">
        <ele>1266</ele>
        <time>2018-01-02T13:03:47.552Z</time>
      </trkpt>
      <trkpt lat="43.75327" lon="6.92267">
        <ele>1265</ele>
        <time>2018-01-02T13:03:49.552Z</time>
      </trkpt>
      <trkpt lat="43.75327" lon="6.92256">
        <ele>1265</ele>
        <time>2018-01-02T13:03:51.552Z</time>
      </trkpt>
      <trkpt lat="43.75326" lon="6.92246">
        <ele>1265</ele>
        <time>2018-01-02T13:03:53.552Z</time>
      </trkpt>
      <trkpt lat="43.75327" lon="6.92233">
        <ele>1265</ele>
        <time>2018-01-02T13:03:56.552Z</time>
      </trkpt>
      <trkpt lat="43.7533" lon="6.92224">
        <ele>1265</ele>
        <time>2018-01-02T13:03:59.552Z</time>
      </trkpt>
      <trkpt lat="43.75337" lon="6.92221">
        <ele>1265</ele>
        <time>2018-01-02T13:04:03.552Z</time>
      </trkpt>
      <trkpt lat="43.75343" lon="6.92225">
        <ele>1265</ele>
        <time>2018-01-02T13:04:07.552Z</time>
      </trkpt>
      <trkpt lat="43.75347" lon="6.92229">
        <ele>1265</ele>
        <time>2018-01-02T13:04:09.552Z</time>
      </trkpt>
      <trkpt lat="43.75352" lon="6.92232">
        <ele>1265</ele>
        <time>2018-01-02T13:04:11.552Z</time>
      </trkpt>
      <trkpt lat="43.75357" lon="6.92236">
        <ele>1265</ele>
        <time>2018-01-02T13:04:13.552Z</time>
      </trkpt>
      <trkpt lat="43.75364" lon="6.92241">
        <ele>1265</ele>
        <time>2018-01-02T13:04:16.552Z</time>
      </trkpt>
      <trkpt lat="43.7537" lon="6.92246">
        <ele>1265</ele>
        <time>2018-01-02T13:04:19.552Z</time>
      </trkpt>
      <trkpt lat="43.75374" lon="6.92249">
        <ele>1265</ele>
        <time>2018-01-02T13:04:22.552Z</time>
      </trkpt>
      <trkpt lat="43.7538" lon="6.92251">
        <ele>1265</ele>
        <time>2018-01-02T13:04:25.552Z</time>
      </trkpt>
      <trkpt lat="43.75383" lon="6.92254">
        <ele>1265</ele>
        <time>2018-01-02T13:04:27.552Z</time>
      </trkpt>
      <trkpt lat="43.7539" lon="6.92258">
        <ele>1265</ele>
        <time>2018-01-02T13:04:30.552Z</time>
      </trkpt>
      <trkpt lat="43.75397" lon="6.92258">
        <ele>1265</ele>
        <time>2018-01-02T13:04:33.552Z</time>
      </trkpt>
      <trkpt lat="43.75403" lon="6.92255">
        <ele>1265</ele>
        <time>2018-01-02T13:04:36.552Z</time>
      </trkpt>
      <trkpt lat="43.75411" lon="6.9225">
        <ele>1265</ele>
        <time>2018-01-02T13:04:39.552Z</time>
      </trkpt>
      <trkpt lat="43.75419" lon="6.9224">
        <ele>1265</ele>
        <time>2018-01-02T13:04:42.552Z</time>
      </trkpt>
      <trkpt lat="43.75423" lon="6.92232">
        <ele>1264</ele>
        <time>2018-01-02T13:04:44.552Z</time>
      </trkpt>
      <trkpt lat="43.75425" lon="6.92223">
        <ele>1264</ele>
        <time>2018-01-02T13:04:46.552Z</time>
      </trkpt>
      <trkpt lat="43.75429" lon="6.92208">
        <ele>1264</ele>
        <time>2018-01-02T13:04:49.552Z</time>
      </trkpt>
      <trkpt lat="43.75432" lon="6.92199">
        <ele>1264</ele>
        <time>2018-01-02T13:04:51.552Z</time>
      </trkpt>
      <trkpt lat="43.75436" lon="6.92188">
        <ele>1264</ele>
        <time>2018-01-02T13:04:54.552Z</time>
      </trkpt>
      <trkpt lat="43.75438" lon="6.92182">
        <ele>1264</ele>
        <time>2018-01-02T13:04:56.552Z</time>
      </trkpt>
      <trkpt lat="43.75441" lon="6.92175">
        <ele>1264</ele>
        <time>2018-01-02T13:04:58.552Z</time>
      </trkpt>
      <trkpt lat="43.75445" lon="6.92167">
        <ele>1264</ele>
        <time>2018-01-02T13:05:01.552Z</time>
      </trkpt>
      <trkpt lat="43.7545" lon="6.92157">
        <ele>1264</ele>
        <time>2018-01-02T13:05:05.552Z</time>
      </trkpt>
      <trkpt lat="43.75454" lon="6.92145">
        <ele>1264</ele>
        <time>2018-01-02T13:05:08.552Z</time>
      </trkpt>
      <trkpt lat="43.75457" lon="6.92135">
        <ele>1264</ele>
        <time>2018-01-02T13:05:10.552Z</time>
      </trkpt>
      <trkpt lat="43.75458" lon="6.92125">
        <ele>1264</ele>
        <time>2018-01-02T13:05:12.552Z</time>
      </trkpt>
      <trkpt lat="43.75458" lon="6.92112">
        <ele>1264</ele>
        <time>2018-01-02T13:05:15.552Z</time>
      </trkpt>
      <trkpt lat="43.75457" lon="6.92099">
        <ele>1264</ele>
        <time>2018-01-02T13:05:19.552Z</time>
      </trkpt>
      <trkpt lat="43.75458" lon="6.92087">
        <ele>1264</ele>
        <time>2018-01-02T13:05:24.552Z</time>
      </trkpt>
      <trkpt lat="43.75463" lon="6.92082">
        <ele>1264</ele>
        <time>2018-01-02T13:05:28.552Z</time>
      </trkpt>
      <trkpt lat="43.75468" lon="6.92079">
        <ele>1264</ele>
        <time>2018-01-02T13:05:32.552Z</time>
      </trkpt>
      <trkpt lat="43.75467" lon="6.92085">
        <ele>1264</ele>
        <time>2018-01-02T13:06:34.552Z</time>
      </trkpt>
      <trkpt lat="43.75463" lon="6.92078">
        <ele>1264</ele>
        <time>2018-01-02T13:12:42.552Z</time>
      </trkpt>
      <trkpt lat="43.75467" lon="6.9207">
        <ele>1264</ele>
        <time>2018-01-02T13:12:46.552Z</time>
      </trkpt>
      <trkpt lat="43.75473" lon="6.92067">
        <ele>1264</ele>
        <time>2018-01-02T13:12:48.552Z</time>
      </trkpt>
      <trkpt lat="43.75477" lon="6.92066">
        <ele>1264</ele>
        <time>2018-01-02T13:12:49.552Z</time>
      </trkpt>
      <trkpt lat="43.75481" lon="6.92065">
        <ele>1264</ele>
        <time>2018-01-02T13:12:50.552Z</time>
      </trkpt>
      <trkpt lat="43.75485" lon="6.92064">
        <ele>1264</ele>
        <time>2018-01-02T13:12:51.552Z</time>
      </trkpt>
      <trkpt lat="43.75489" lon="6.92062">
        <ele>1264</ele>
        <time>2018-01-02T13:12:52.552Z</time>
      </trkpt>
      <trkpt lat="43.75497" lon="6.92056">
        <ele>1264</ele>
        <time>2018-01-02T13:12:54.552Z</time>
      </trkpt>
      <trkpt lat="43.75503" lon="6.92045">
        <ele>1262</ele>
        <time>2018-01-02T13:12:56.552Z</time>
      </trkpt>
      <trkpt lat="43.75507" lon="6.92035">
        <ele>1262</ele>
        <time>2018-01-02T13:12:58.552Z</time>
      </trkpt>
      <trkpt lat="43.75515" lon="6.9203">
        <ele>1262</ele>
        <time>2018-01-02T13:13:01.552Z</time>
      </trkpt>
      <trkpt lat="43.75525" lon="6.92029">
        <ele>1262</ele>
        <time>2018-01-02T13:13:04.552Z</time>
      </trkpt>
      <trkpt lat="43.75532" lon="6.9203">
        <ele>1261</ele>
        <time>2018-01-02T13:13:06.552Z</time>
      </trkpt>
      <trkpt lat="43.75539" lon="6.9203">
        <ele>1261</ele>
        <time>2018-01-02T13:13:08.552Z</time>
      </trkpt>
      <trkpt lat="43.75547" lon="6.92031">
        <ele>1261</ele>
        <time>2018-01-02T13:13:10.552Z</time>
      </trkpt>
      <trkpt lat="43.75555" lon="6.9203">
        <ele>1261</ele>
        <time>2018-01-02T13:13:12.552Z</time>
      </trkpt>
      <trkpt lat="43.75563" lon="6.92029">
        <ele>1260</ele>
        <time>2018-01-02T13:13:14.552Z</time>
      </trkpt>
      <trkpt lat="43.75571" lon="6.92031">
        <ele>1260</ele>
        <time>2018-01-02T13:13:16.552Z</time>
      </trkpt>
      <trkpt lat="43.75575" lon="6.92032">
        <ele>1260</ele>
        <time>2018-01-02T13:13:17.552Z</time>
      </trkpt>
      <trkpt lat="43.75583" lon="6.92034">
        <ele>1260</ele>
        <time>2018-01-02T13:13:19.552Z</time>
      </trkpt>
      <trkpt lat="43.7559" lon="6.92035">
        <ele>1255</ele>
        <time>2018-01-02T13:13:21.552Z</time>
      </trkpt>
      <trkpt lat="43.75599" lon="6.92035">
        <ele>1255</ele>
        <time>2018-01-02T13:13:23.552Z</time>
      </trkpt>
      <trkpt lat="43.7561" lon="6.92033">
        <ele>1255</ele>
        <time>2018-01-02T13:13:25.552Z</time>
      </trkpt>
      <trkpt lat="43.75622" lon="6.92033">
        <ele>1254</ele>
        <time>2018-01-02T13:13:27.552Z</time>
      </trkpt>
      <trkpt lat="43.75627" lon="6.92032">
        <ele>1254</ele>
        <time>2018-01-02T13:13:28.552Z</time>
      </trkpt>
      <trkpt lat="43.75634" lon="6.92031">
        <ele>1254</ele>
        <time>2018-01-02T13:13:29.552Z</time>
      </trkpt>
      <trkpt lat="43.75647" lon="6.92028">
        <ele>1253</ele>
        <time>2018-01-02T13:13:31.552Z</time>
      </trkpt>
      <trkpt lat="43.75662" lon="6.92026">
        <ele>1253</ele>
        <time>2018-01-02T13:13:33.552Z</time>
      </trkpt>
      <trkpt lat="43.75677" lon="6.92026">
        <ele>1249</ele>
        <time>2018-01-02T13:13:35.552Z</time>
      </trkpt>
      <trkpt lat="43.75685" lon="6.92028">
        <ele>1248</ele>
        <time>2018-01-02T13:13:36.552Z</time>
      </trkpt>
      <trkpt lat="43.75692" lon="6.92029">
        <ele>1248</ele>
        <time>2018-01-02T13:13:37.552Z</time>
      </trkpt>
      <trkpt lat="43.75698" lon="6.9203">
        <ele>1248</ele>
        <time>2018-01-02T13:13:38.552Z</time>
      </trkpt>
      <trkpt lat="43.75705" lon="6.9203">
        <ele>1247</ele>
        <time>2018-01-02T13:13:39.552Z</time>
      </trkpt>
      <trkpt lat="43.75711" lon="6.9203">
        <ele>1247</ele>
        <time>2018-01-02T13:13:40.552Z</time>
      </trkpt>
      <trkpt lat="43.75717" lon="6.92029">
        <ele>1247</ele>
        <time>2018-01-02T13:13:41.552Z</time>
      </trkpt>
      <trkpt lat="43.75724" lon="6.92028">
        <ele>1247</ele>
        <time>2018-01-02T13:13:42.552Z</time>
      </trkpt>
      <trkpt lat="43.75735" lon="6.92027">
        <ele>1246</ele>
        <time>2018-01-02T13:13:44.552Z</time>
      </trkpt>
      <trkpt lat="43.75746" lon="6.92028">
        <ele>1246</ele>
        <time>2018-01-02T13:13:46.552Z</time>
      </trkpt>
      <trkpt lat="43.75754" lon="6.92032">
        <ele>1244</ele>
        <time>2018-01-02T13:13:48.552Z</time>
      </trkpt>
      <trkpt lat="43.75762" lon="6.92037">
        <ele>1244</ele>
        <time>2018-01-02T13:13:50.552Z</time>
      </trkpt>
      <trkpt lat="43.75767" lon="6.92039">
        <ele>1244</ele>
        <time>2018-01-02T13:13:53.552Z</time>
      </trkpt>
      <trkpt lat="43.75767" lon="6.92038">
        <ele>1244</ele>
        <time>2018-01-02T13:14:07.552Z</time>
      </trkpt>
      <trkpt lat="43.75764" lon="6.92042">
        <ele>1244</ele>
        <time>2018-01-02T13:14:09.552Z</time>
      </trkpt>
      <trkpt lat="43.75764" lon="6.92049">
        <ele>1244</ele>
        <time>2018-01-02T13:14:11.552Z</time>
      </trkpt>
      <trkpt lat="43.75763" lon="6.92063">
        <ele>1244</ele>
        <time>2018-01-02T13:14:14.552Z</time>
      </trkpt>
      <trkpt lat="43.75764" lon="6.92076">
        <ele>1244</ele>
        <time>2018-01-02T13:14:17.552Z</time>
      </trkpt>
      <trkpt lat="43.75765" lon="6.92087">
        <ele>1244</ele>
        <time>2018-01-02T13:14:20.552Z</time>
      </trkpt>
      <trkpt lat="43.75767" lon="6.92096">
        <ele>1244</ele>
        <time>2018-01-02T13:14:23.552Z</time>
      </trkpt>
      <trkpt lat="43.7577" lon="6.92104">
        <ele>1244</ele>
        <time>2018-01-02T13:14:25.552Z</time>
      </trkpt>
      <trkpt lat="43.75772" lon="6.9211">
        <ele>1244</ele>
        <time>2018-01-02T13:14:26.552Z</time>
      </trkpt>
      <trkpt lat="43.75774" lon="6.92116">
        <ele>1244</ele>
        <time>2018-01-02T13:14:27.552Z</time>
      </trkpt>
      <trkpt lat="43.75775" lon="6.92122">
        <ele>1244</ele>
        <time>2018-01-02T13:14:28.552Z</time>
      </trkpt>
      <trkpt lat="43.75776" lon="6.92127">
        <ele>1243</ele>
        <time>2018-01-02T13:14:29.552Z</time>
      </trkpt>
      <trkpt lat="43.75775" lon="6.92136">
        <ele>1243</ele>
        <time>2018-01-02T13:14:31.552Z</time>
      </trkpt>
      <trkpt lat="43.75773" lon="6.92141">
        <ele>1243</ele>
        <time>2018-01-02T13:14:33.552Z</time>
      </trkpt>
      <trkpt lat="43.75771" lon="6.9215">
        <ele>1244</ele>
        <time>2018-01-02T13:14:36.552Z</time>
      </trkpt>
      <trkpt lat="43.75771" lon="6.92162">
        <ele>1244</ele>
        <time>2018-01-02T13:14:39.552Z</time>
      </trkpt>
      <trkpt lat="43.7577" lon="6.92172">
        <ele>1244</ele>
        <time>2018-01-02T13:14:41.552Z</time>
      </trkpt>
      <trkpt lat="43.7577" lon="6.92177">
        <ele>1244</ele>
        <time>2018-01-02T13:14:42.552Z</time>
      </trkpt>
      <trkpt lat="43.75769" lon="6.92182">
        <ele>1244</ele>
        <time>2018-01-02T13:14:43.552Z</time>
      </trkpt>
      <trkpt lat="43.75768" lon="6.9219">
        <ele>1244</ele>
        <time>2018-01-02T13:14:45.552Z</time>
      </trkpt>
      <trkpt lat="43.75768" lon="6.922">
        <ele>1244</ele>
        <time>2018-01-02T13:14:48.552Z</time>
      </trkpt>
      <trkpt lat="43.7577" lon="6.92207">
        <ele>1244</ele>
        <time>2018-01-02T13:14:51.552Z</time>
      </trkpt>
      <trkpt lat="43.75772" lon="6.92212">
        <ele>1244</ele>
        <time>2018-01-02T13:14:53.552Z</time>
      </trkpt>
      <trkpt lat="43.75775" lon="6.92218">
        <ele>1244</ele>
        <time>2018-01-02T13:14:55.552Z</time>
      </trkpt>
      <trkpt lat="43.75778" lon="6.92223">
        <ele>1244</ele>
        <time>2018-01-02T13:14:57.552Z</time>
      </trkpt>
      <trkpt lat="43.75777" lon="6.92234">
        <ele>1244</ele>
        <time>2018-01-02T13:15:00.552Z</time>
      </trkpt>
      <trkpt lat="43.75777" lon="6.92246">
        <ele>1244</ele>
        <time>2018-01-02T13:15:03.552Z</time>
      </trkpt>
      <trkpt lat="43.75776" lon="6.92255">
        <ele>1245</ele>
        <time>2018-01-02T13:15:05.552Z</time>
      </trkpt>
      <trkpt lat="43.75775" lon="6.92263">
        <ele>1245</ele>
        <time>2018-01-02T13:15:07.552Z</time>
      </trkpt>
      <trkpt lat="43.75773" lon="6.92274">
        <ele>1245</ele>
        <time>2018-01-02T13:15:10.552Z</time>
      </trkpt>
      <trkpt lat="43.75771" lon="6.92279">
        <ele>1245</ele>
        <time>2018-01-02T13:15:12.552Z</time>
      </trkpt>
      <trkpt lat="43.75768" lon="6.92284">
        <ele>1245</ele>
        <time>2018-01-02T13:15:14.552Z</time>
      </trkpt>
      <trkpt lat="43.75766" lon="6.92289">
        <ele>1245</ele>
        <time>2018-01-02T13:15:16.552Z</time>
      </trkpt>
      <trkpt lat="43.75764" lon="6.92294">
        <ele>1245</ele>
        <time>2018-01-02T13:15:18.552Z</time>
      </trkpt>
      <trkpt lat="43.7576" lon="6.92302">
        <ele>1246</ele>
        <time>2018-01-02T13:15:22.552Z</time>
      </trkpt>
      <trkpt lat="43.75757" lon="6.92311">
        <ele>1246</ele>
        <time>2018-01-02T13:15:26.552Z</time>
      </trkpt>
      <trkpt lat="43.75754" lon="6.9232">
        <ele>1246</ele>
        <time>2018-01-02T13:15:30.552Z</time>
      </trkpt>
      <trkpt lat="43.75752" lon="6.92326">
        <ele>1246</ele>
        <time>2018-01-02T13:15:33.552Z</time>
      </trkpt>
      <trkpt lat="43.75751" lon="6.92331">
        <ele>1247</ele>
        <time>2018-01-02T13:15:35.552Z</time>
      </trkpt>
      <trkpt lat="43.7575" lon="6.92335">
        <ele>1247</ele>
        <time>2018-01-02T13:15:37.552Z</time>
      </trkpt>
      <trkpt lat="43.75749" lon="6.92339">
        <ele>1248</ele>
        <time>2018-01-02T13:15:39.552Z</time>
      </trkpt>
      <trkpt lat="43.75748" lon="6.92344">
        <ele>1248</ele>
        <time>2018-01-02T13:15:41.552Z</time>
      </trkpt>
      <trkpt lat="43.75747" lon="6.92349">
        <ele>1248</ele>
        <time>2018-01-02T13:15:43.552Z</time>
      </trkpt>
      <trkpt lat="43.75746" lon="6.92354">
        <ele>1249</ele>
        <time>2018-01-02T13:15:45.552Z</time>
      </trkpt>
      <trkpt lat="43.75745" lon="6.92359">
        <ele>1249</ele>
        <time>2018-01-02T13:15:47.552Z</time>
      </trkpt>
      <trkpt lat="43.75745" lon="6.92368">
        <ele>1249</ele>
        <time>2018-01-02T13:15:50.552Z</time>
      </trkpt>
      <trkpt lat="43.75745" lon="6.9238">
        <ele>1249</ele>
        <time>2018-01-02T13:15:53.552Z</time>
      </trkpt>
      <trkpt lat="43.75746" lon="6.92389">
        <ele>1249</ele>
        <time>2018-01-02T13:15:55.552Z</time>
      </trkpt>
      <trkpt lat="43.75746" lon="6.92393">
        <ele>1249</ele>
        <time>2018-01-02T13:15:56.552Z</time>
      </trkpt>
      <trkpt lat="43.75745" lon="6.92397">
        <ele>1249</ele>
        <time>2018-01-02T13:15:57.552Z</time>
      </trkpt>
      <trkpt lat="43.75745" lon="6.92405">
        <ele>1249</ele>
        <time>2018-01-02T13:15:59.552Z</time>
      </trkpt>
      <trkpt lat="43.75744" lon="6.92411">
        <ele>1249</ele>
        <time>2018-01-02T13:16:01.552Z</time>
      </trkpt>
      <trkpt lat="43.75742" lon="6.92417">
        <ele>1250</ele>
        <time>2018-01-02T13:16:03.552Z</time>
      </trkpt>
      <trkpt lat="43.75741" lon="6.92422">
        <ele>1250</ele>
        <time>2018-01-02T13:16:05.552Z</time>
      </trkpt>
      <trkpt lat="43.75738" lon="6.9243">
        <ele>1250</ele>
        <time>2018-01-02T13:16:10.552Z</time>
      </trkpt>
      <trkpt lat="43.75736" lon="6.92435">
        <ele>1251</ele>
        <time>2018-01-02T13:16:13.552Z</time>
      </trkpt>
      <trkpt lat="43.75734" lon="6.9244">
        <ele>1251</ele>
        <time>2018-01-02T13:16:16.552Z</time>
      </trkpt>
      <trkpt lat="43.75731" lon="6.92448">
        <ele>1251</ele>
        <time>2018-01-02T13:16:21.552Z</time>
      </trkpt>
      <trkpt lat="43.75729" lon="6.92452">
        <ele>1251</ele>
        <time>2018-01-02T13:16:24.552Z</time>
      </trkpt>
      <trkpt lat="43.75726" lon="6.92459">
        <ele>1251</ele>
        <time>2018-01-02T13:16:28.552Z</time>
      </trkpt>
      <trkpt lat="43.75725" lon="6.92463">
        <ele>1251</ele>
        <time>2018-01-02T13:16:31.552Z</time>
      </trkpt>
      <trkpt lat="43.75724" lon="6.92469">
        <ele>1251</ele>
        <time>2018-01-02T13:16:34.552Z</time>
      </trkpt>
      <trkpt lat="43.75722" lon="6.92474">
        <ele>1251</ele>
        <time>2018-01-02T13:16:37.552Z</time>
      </trkpt>
      <trkpt lat="43.75721" lon="6.92479">
        <ele>1251</ele>
        <time>2018-01-02T13:16:40.552Z</time>
      </trkpt>
      <trkpt lat="43.75719" lon="6.92484">
        <ele>1252</ele>
        <time>2018-01-02T13:16:43.552Z</time>
      </trkpt>
      <trkpt lat="43.75718" lon="6.92489">
        <ele>1252</ele>
        <time>2018-01-02T13:16:46.552Z</time>
      </trkpt>
      <trkpt lat="43.75716" lon="6.92495">
        <ele>1252</ele>
        <time>2018-01-02T13:16:49.552Z</time>
      </trkpt>
      <trkpt lat="43.75715" lon="6.92499">
        <ele>1252</ele>
        <time>2018-01-02T13:16:51.552Z</time>
      </trkpt>
      <trkpt lat="43.75714" lon="6.92503">
        <ele>1253</ele>
        <time>2018-01-02T13:16:53.552Z</time>
      </trkpt>
      <trkpt lat="43.75713" lon="6.92512">
        <ele>1253</ele>
        <time>2018-01-02T13:16:57.552Z</time>
      </trkpt>
      <trkpt lat="43.75713" lon="6.92516">
        <ele>1253</ele>
        <time>2018-01-02T13:16:59.552Z</time>
      </trkpt>
      <trkpt lat="43.75712" lon="6.92521">
        <ele>1253</ele>
        <time>2018-01-02T13:17:01.552Z</time>
      </trkpt>
      <trkpt lat="43.75711" lon="6.92527">
        <ele>1253</ele>
        <time>2018-01-02T13:17:03.552Z</time>
      </trkpt>
      <trkpt lat="43.75711" lon="6.92533">
        <ele>1253</ele>
        <time>2018-01-02T13:17:05.552Z</time>
      </trkpt>
      <trkpt lat="43.75711" lon="6.92539">
        <ele>1253</ele>
        <time>2018-01-02T13:17:07.552Z</time>
      </trkpt>
      <trkpt lat="43.7571" lon="6.92545">
        <ele>1253</ele>
        <time>2018-01-02T13:17:09.552Z</time>
      </trkpt>
      <trkpt lat="43.75709" lon="6.92552">
        <ele>1253</ele>
        <time>2018-01-02T13:17:11.552Z</time>
      </trkpt>
      <trkpt lat="43.75709" lon="6.92557">
        <ele>1253</ele>
        <time>2018-01-02T13:17:13.552Z</time>
      </trkpt>
      <trkpt lat="43.75708" lon="6.92563">
        <ele>1253</ele>
        <time>2018-01-02T13:17:15.552Z</time>
      </trkpt>
      <trkpt lat="43.75707" lon="6.92572">
        <ele>1254</ele>
        <time>2018-01-02T13:17:18.552Z</time>
      </trkpt>
      <trkpt lat="43.75705" lon="6.9258">
        <ele>1254</ele>
        <time>2018-01-02T13:17:21.552Z</time>
      </trkpt>
      <trkpt lat="43.75704" lon="6.92585">
        <ele>1254</ele>
        <time>2018-01-02T13:17:23.552Z</time>
      </trkpt>
      <trkpt lat="43.75704" lon="6.92593">
        <ele>1254</ele>
        <time>2018-01-02T13:17:26.552Z</time>
      </trkpt>
      <trkpt lat="43.75705" lon="6.92606">
        <ele>1254</ele>
        <time>2018-01-02T13:17:31.552Z</time>
      </trkpt>
      <trkpt lat="43.75707" lon="6.92611">
        <ele>1254</ele>
        <time>2018-01-02T13:17:33.552Z</time>
      </trkpt>
      <trkpt lat="43.75709" lon="6.92621">
        <ele>1254</ele>
        <time>2018-01-02T13:17:37.552Z</time>
      </trkpt>
      <trkpt lat="43.75709" lon="6.92637">
        <ele>1255</ele>
        <time>2018-01-02T13:17:43.552Z</time>
      </trkpt>
      <trkpt lat="43.75707" lon="6.92641">
        <ele>1255</ele>
        <time>2018-01-02T13:17:45.552Z</time>
      </trkpt>
      <trkpt lat="43.75705" lon="6.92647">
        <ele>1255</ele>
        <time>2018-01-02T13:17:48.552Z</time>
      </trkpt>
      <trkpt lat="43.75704" lon="6.92655">
        <ele>1255</ele>
        <time>2018-01-02T13:17:51.552Z</time>
      </trkpt>
      <trkpt lat="43.75704" lon="6.92665">
        <ele>1255</ele>
        <time>2018-01-02T13:17:55.552Z</time>
      </trkpt>
      <trkpt lat="43.75706" lon="6.92671">
        <ele>1255</ele>
        <time>2018-01-02T13:17:58.552Z</time>
      </trkpt>
      <trkpt lat="43.75707" lon="6.92676">
        <ele>1255</ele>
        <time>2018-01-02T13:18:06.552Z</time>
      </trkpt>
      <trkpt lat="43.75709" lon="6.92688">
        <ele>1255</ele>
        <time>2018-01-02T13:18:11.552Z</time>
      </trkpt>
      <trkpt lat="43.7571" lon="6.92698">
        <ele>1255</ele>
        <time>2018-01-02T13:18:14.552Z</time>
      </trkpt>
      <trkpt lat="43.7571" lon="6.92707">
        <ele>1255</ele>
        <time>2018-01-02T13:18:17.552Z</time>
      </trkpt>
      <trkpt lat="43.75711" lon="6.92717">
        <ele>1255</ele>
        <time>2018-01-02T13:18:21.552Z</time>
      </trkpt>
      <trkpt lat="43.75712" lon="6.92726">
        <ele>1255</ele>
        <time>2018-01-02T13:18:24.552Z</time>
      </trkpt>
      <trkpt lat="43.75713" lon="6.92733">
        <ele>1255</ele>
        <time>2018-01-02T13:18:26.552Z</time>
      </trkpt>
      <trkpt lat="43.75716" lon="6.9274">
        <ele>1254</ele>
        <time>2018-01-02T13:18:28.552Z</time>
      </trkpt>
      <trkpt lat="43.7572" lon="6.92747">
        <ele>1254</ele>
        <time>2018-01-02T13:18:30.552Z</time>
      </trkpt>
      <trkpt lat="43.75722" lon="6.92753">
        <ele>1253</ele>
        <time>2018-01-02T13:18:32.552Z</time>
      </trkpt>
      <trkpt lat="43.75724" lon="6.92757">
        <ele>1253</ele>
        <time>2018-01-02T13:18:34.552Z</time>
      </trkpt>
      <trkpt lat="43.75726" lon="6.92763">
        <ele>1253</ele>
        <time>2018-01-02T13:18:36.552Z</time>
      </trkpt>
      <trkpt lat="43.7573" lon="6.9277">
        <ele>1253</ele>
        <time>2018-01-02T13:18:38.552Z</time>
      </trkpt>
      <trkpt lat="43.75733" lon="6.92779">
        <ele>1253</ele>
        <time>2018-01-02T13:18:40.552Z</time>
      </trkpt>
      <trkpt lat="43.75735" lon="6.92782">
        <ele>1253</ele>
        <time>2018-01-02T13:18:41.552Z</time>
      </trkpt>
      <trkpt lat="43.75737" lon="6.92787">
        <ele>1253</ele>
        <time>2018-01-02T13:18:42.552Z</time>
      </trkpt>
      <trkpt lat="43.75738" lon="6.92791">
        <ele>1253</ele>
        <time>2018-01-02T13:18:43.552Z</time>
      </trkpt>
      <trkpt lat="43.75741" lon="6.92802">
        <ele>1253</ele>
        <time>2018-01-02T13:18:46.552Z</time>
      </trkpt>
      <trkpt lat="43.75744" lon="6.92809">
        <ele>1252</ele>
        <time>2018-01-02T13:18:48.552Z</time>
      </trkpt>
      <trkpt lat="43.75747" lon="6.92814">
        <ele>1252</ele>
        <time>2018-01-02T13:18:50.552Z</time>
      </trkpt>
      <trkpt lat="43.7575" lon="6.92821">
        <ele>1252</ele>
        <time>2018-01-02T13:18:52.552Z</time>
      </trkpt>
      <trkpt lat="43.75752" lon="6.92833">
        <ele>1251</ele>
        <time>2018-01-02T13:18:55.552Z</time>
      </trkpt>
      <trkpt lat="43.75753" lon="6.92844">
        <ele>1249</ele>
        <time>2018-01-02T13:18:58.552Z</time>
      </trkpt>
      <trkpt lat="43.75754" lon="6.92851">
        <ele>1248</ele>
        <time>2018-01-02T13:19:00.552Z</time>
      </trkpt>
      <trkpt lat="43.75754" lon="6.92858">
        <ele>1248</ele>
        <time>2018-01-02T13:19:02.552Z</time>
      </trkpt>
      <trkpt lat="43.75755" lon="6.92867">
        <ele>1248</ele>
        <time>2018-01-02T13:19:05.552Z</time>
      </trkpt>
      <trkpt lat="43.75755" lon="6.92876">
        <ele>1247</ele>
        <time>2018-01-02T13:19:08.552Z</time>
      </trkpt>
      <trkpt lat="43.75755" lon="6.92884">
        <ele>1247</ele>
        <time>2018-01-02T13:19:11.552Z</time>
      </trkpt>
      <trkpt lat="43.75756" lon="6.92892">
        <ele>1247</ele>
        <time>2018-01-02T13:19:14.552Z</time>
      </trkpt>
      <trkpt lat="43.75757" lon="6.92898">
        <ele>1248</ele>
        <time>2018-01-02T13:19:17.552Z</time>
      </trkpt>
      <trkpt lat="43.75763" lon="6.92903">
        <ele>1248</ele>
        <time>2018-01-02T13:19:56.552Z</time>
      </trkpt>
      <trkpt lat="43.75771" lon="6.92898">
        <ele>1247</ele>
        <time>2018-01-02T13:19:59.552Z</time>
      </trkpt>
      <trkpt lat="43.75778" lon="6.92896">
        <ele>1247</ele>
        <time>2018-01-02T13:20:02.552Z</time>
      </trkpt>
      <trkpt lat="43.75785" lon="6.929">
        <ele>1246</ele>
        <time>2018-01-02T13:20:13.552Z</time>
      </trkpt>
      <trkpt lat="43.75791" lon="6.92906">
        <ele>1246</ele>
        <time>2018-01-02T13:20:15.552Z</time>
      </trkpt>
      <trkpt lat="43.75796" lon="6.92913">
        <ele>1246</ele>
        <time>2018-01-02T13:20:17.552Z</time>
      </trkpt>
      <trkpt lat="43.75799" lon="6.9292">
        <ele>1246</ele>
        <time>2018-01-02T13:20:19.552Z</time>
      </trkpt>
      <trkpt lat="43.75802" lon="6.92927">
        <ele>1245</ele>
        <time>2018-01-02T13:20:21.552Z</time>
      </trkpt>
      <trkpt lat="43.75804" lon="6.92934">
        <ele>1245</ele>
        <time>2018-01-02T13:20:23.552Z</time>
      </trkpt>
      <trkpt lat="43.75807" lon="6.9294">
        <ele>1245</ele>
        <time>2018-01-02T13:20:25.552Z</time>
      </trkpt>
      <trkpt lat="43.7581" lon="6.92946">
        <ele>1245</ele>
        <time>2018-01-02T13:20:27.552Z</time>
      </trkpt>
      <trkpt lat="43.75813" lon="6.92952">
        <ele>1245</ele>
        <time>2018-01-02T13:20:29.552Z</time>
      </trkpt>
      <trkpt lat="43.75815" lon="6.92956">
        <ele>1245</ele>
        <time>2018-01-02T13:20:30.552Z</time>
      </trkpt>
      <trkpt lat="43.75816" lon="6.92959">
        <ele>1245</ele>
        <time>2018-01-02T13:20:31.552Z</time>
      </trkpt>
      <trkpt lat="43.75817" lon="6.92963">
        <ele>1245</ele>
        <time>2018-01-02T13:20:32.552Z</time>
      </trkpt>
      <trkpt lat="43.75819" lon="6.92972">
        <ele>1245</ele>
        <time>2018-01-02T13:20:34.552Z</time>
      </trkpt>
      <trkpt lat="43.7582" lon="6.92982">
        <ele>1245</ele>
        <time>2018-01-02T13:20:36.552Z</time>
      </trkpt>
      <trkpt lat="43.7582" lon="6.92991">
        <ele>1244</ele>
        <time>2018-01-02T13:20:38.552Z</time>
      </trkpt>
      <trkpt lat="43.75819" lon="6.93001">
        <ele>1244</ele>
        <time>2018-01-02T13:20:40.552Z</time>
      </trkpt>
      <trkpt lat="43.75817" lon="6.9301">
        <ele>1244</ele>
        <time>2018-01-02T13:20:42.552Z</time>
      </trkpt>
      <trkpt lat="43.75816" lon="6.93014">
        <ele>1244</ele>
        <time>2018-01-02T13:20:43.552Z</time>
      </trkpt>
      <trkpt lat="43.75815" lon="6.93018">
        <ele>1244</ele>
        <time>2018-01-02T13:20:44.552Z</time>
      </trkpt>
      <trkpt lat="43.75814" lon="6.93026">
        <ele>1244</ele>
        <time>2018-01-02T13:20:46.552Z</time>
      </trkpt>
      <trkpt lat="43.75814" lon="6.93034">
        <ele>1244</ele>
        <time>2018-01-02T13:20:48.552Z</time>
      </trkpt>
      <trkpt lat="43.75813" lon="6.93042">
        <ele>1244</ele>
        <time>2018-01-02T13:20:50.552Z</time>
      </trkpt>
      <trkpt lat="43.75813" lon="6.93049">
        <ele>1244</ele>
        <time>2018-01-02T13:20:52.552Z</time>
      </trkpt>
      <trkpt lat="43.75812" lon="6.93055">
        <ele>1244</ele>
        <time>2018-01-02T13:20:54.552Z</time>
      </trkpt>
      <trkpt lat="43.7581" lon="6.9306">
        <ele>1244</ele>
        <time>2018-01-02T13:20:56.552Z</time>
      </trkpt>
      <trkpt lat="43.75807" lon="6.93066">
        <ele>1244</ele>
        <time>2018-01-02T13:20:59.552Z</time>
      </trkpt>
      <trkpt lat="43.75803" lon="6.93067">
        <ele>1244</ele>
        <time>2018-01-02T13:21:03.552Z</time>
      </trkpt>
      <trkpt lat="43.75802" lon="6.93072">
        <ele>1244</ele>
        <time>2018-01-02T13:21:07.552Z</time>
      </trkpt>
      <trkpt lat="43.75804" lon="6.93076">
        <ele>1243</ele>
        <time>2018-01-02T13:21:09.552Z</time>
      </trkpt>
      <trkpt lat="43.75807" lon="6.93081">
        <ele>1243</ele>
        <time>2018-01-02T13:21:11.552Z</time>
      </trkpt>
      <trkpt lat="43.75811" lon="6.93088">
        <ele>1241</ele>
        <time>2018-01-02T13:21:13.552Z</time>
      </trkpt>
      <trkpt lat="43.75813" lon="6.93093">
        <ele>1241</ele>
        <time>2018-01-02T13:21:14.552Z</time>
      </trkpt>
      <trkpt lat="43.75815" lon="6.93098">
        <ele>1241</ele>
        <time>2018-01-02T13:21:15.552Z</time>
      </trkpt>
      <trkpt lat="43.75817" lon="6.93103">
        <ele>1240</ele>
        <time>2018-01-02T13:21:16.552Z</time>
      </trkpt>
      <trkpt lat="43.75819" lon="6.93109">
        <ele>1240</ele>
        <time>2018-01-02T13:21:17.552Z</time>
      </trkpt>
      <trkpt lat="43.75822" lon="6.93115">
        <ele>1240</ele>
        <time>2018-01-02T13:21:18.552Z</time>
      </trkpt>
      <trkpt lat="43.75829" lon="6.93127">
        <ele>1239</ele>
        <time>2018-01-02T13:21:20.552Z</time>
      </trkpt>
      <trkpt lat="43.75837" lon="6.93139">
        <ele>1235</ele>
        <time>2018-01-02T13:21:22.552Z</time>
      </trkpt>
      <trkpt lat="43.75845" lon="6.93151">
        <ele>1234</ele>
        <time>2018-01-02T13:21:24.552Z</time>
      </trkpt>
      <trkpt lat="43.75849" lon="6.93158">
        <ele>1234</ele>
        <time>2018-01-02T13:21:25.552Z</time>
      </trkpt>
      <trkpt lat="43.75853" lon="6.93164">
        <ele>1234</ele>
        <time>2018-01-02T13:21:26.552Z</time>
      </trkpt>
      <trkpt lat="43.75857" lon="6.93171">
        <ele>1231</ele>
        <time>2018-01-02T13:21:27.552Z</time>
      </trkpt>
      <trkpt lat="43.75861" lon="6.93176">
        <ele>1230</ele>
        <time>2018-01-02T13:21:28.552Z</time>
      </trkpt>
      <trkpt lat="43.75865" lon="6.9318">
        <ele>1230</ele>
        <time>2018-01-02T13:21:29.552Z</time>
      </trkpt>
      <trkpt lat="43.7587" lon="6.93184">
        <ele>1229</ele>
        <time>2018-01-02T13:21:30.552Z</time>
      </trkpt>
      <trkpt lat="43.75874" lon="6.93187">
        <ele>1229</ele>
        <time>2018-01-02T13:21:31.552Z</time>
      </trkpt>
      <trkpt lat="43.75878" lon="6.9319">
        <ele>1228</ele>
        <time>2018-01-02T13:21:32.552Z</time>
      </trkpt>
      <trkpt lat="43.75882" lon="6.93192">
        <ele>1228</ele>
        <time>2018-01-02T13:21:33.552Z</time>
      </trkpt>
      <trkpt lat="43.75885" lon="6.93194">
        <ele>1228</ele>
        <time>2018-01-02T13:21:34.552Z</time>
      </trkpt>
      <trkpt lat="43.75892" lon="6.932">
        <ele>1227</ele>
        <time>2018-01-02T13:21:36.552Z</time>
      </trkpt>
      <trkpt lat="43.759" lon="6.93205">
        <ele>1227</ele>
        <time>2018-01-02T13:21:38.552Z</time>
      </trkpt>
      <trkpt lat="43.75905" lon="6.93208">
        <ele>1227</ele>
        <time>2018-01-02T13:21:39.552Z</time>
      </trkpt>
      <trkpt lat="43.75909" lon="6.9321">
        <ele>1226</ele>
        <time>2018-01-02T13:21:40.552Z</time>
      </trkpt>
      <trkpt lat="43.75914" lon="6.93212">
        <ele>1226</ele>
        <time>2018-01-02T13:21:41.552Z</time>
      </trkpt>
      <trkpt lat="43.75918" lon="6.93215">
        <ele>1220</ele>
        <time>2018-01-02T13:21:42.552Z</time>
      </trkpt>
      <trkpt lat="43.75922" lon="6.93217">
        <ele>1220</ele>
        <time>2018-01-02T13:21:43.552Z</time>
      </trkpt>
      <trkpt lat="43.75926" lon="6.93219">
        <ele>1220</ele>
        <time>2018-01-02T13:21:44.552Z</time>
      </trkpt>
      <trkpt lat="43.75931" lon="6.93222">
        <ele>1220</ele>
        <time>2018-01-02T13:21:45.552Z</time>
      </trkpt>
      <trkpt lat="43.75938" lon="6.93228">
        <ele>1219</ele>
        <time>2018-01-02T13:21:47.552Z</time>
      </trkpt>
      <trkpt lat="43.75944" lon="6.93236">
        <ele>1219</ele>
        <time>2018-01-02T13:21:49.552Z</time>
      </trkpt>
      <trkpt lat="43.75948" lon="6.93244">
        <ele>1218</ele>
        <time>2018-01-02T13:21:51.552Z</time>
      </trkpt>
      <trkpt lat="43.75952" lon="6.93252">
        <ele>1215</ele>
        <time>2018-01-02T13:21:53.552Z</time>
      </trkpt>
      <trkpt lat="43.75958" lon="6.93258">
        <ele>1214</ele>
        <time>2018-01-02T13:21:55.552Z</time>
      </trkpt>
      <trkpt lat="43.7596" lon="6.93261">
        <ele>1214</ele>
        <time>2018-01-02T13:21:56.552Z</time>
      </trkpt>
      <trkpt lat="43.75966" lon="6.93266">
        <ele>1213</ele>
        <time>2018-01-02T13:21:58.552Z</time>
      </trkpt>
      <trkpt lat="43.75971" lon="6.93272">
        <ele>1213</ele>
        <time>2018-01-02T13:22:00.552Z</time>
      </trkpt>
      <trkpt lat="43.75976" lon="6.93276">
        <ele>1212</ele>
        <time>2018-01-02T13:22:02.552Z</time>
      </trkpt>
      <trkpt lat="43.75983" lon="6.93281">
        <ele>1212</ele>
        <time>2018-01-02T13:22:04.552Z</time>
      </trkpt>
      <trkpt lat="43.75989" lon="6.93286">
        <ele>1211</ele>
        <time>2018-01-02T13:22:06.552Z</time>
      </trkpt>
      <trkpt lat="43.75996" lon="6.9329">
        <ele>1211</ele>
        <time>2018-01-02T13:22:08.552Z</time>
      </trkpt>
      <trkpt lat="43.76003" lon="6.93293">
        <ele>1202</ele>
        <time>2018-01-02T13:22:10.552Z</time>
      </trkpt>
      <trkpt lat="43.76011" lon="6.93298">
        <ele>1201</ele>
        <time>2018-01-02T13:22:12.552Z</time>
      </trkpt>
      <trkpt lat="43.76014" lon="6.933">
        <ele>1201</ele>
        <time>2018-01-02T13:22:13.552Z</time>
      </trkpt>
      <trkpt lat="43.76018" lon="6.93303">
        <ele>1200</ele>
        <time>2018-01-02T13:22:14.552Z</time>
      </trkpt>
      <trkpt lat="43.76021" lon="6.93306">
        <ele>1200</ele>
        <time>2018-01-02T13:22:15.552Z</time>
      </trkpt>
      <trkpt lat="43.76024" lon="6.9331">
        <ele>1200</ele>
        <time>2018-01-02T13:22:16.552Z</time>
      </trkpt>
      <trkpt lat="43.76027" lon="6.93312">
        <ele>1200</ele>
        <time>2018-01-02T13:22:19.552Z</time>
      </trkpt>
      <trkpt lat="43.76021" lon="6.93322">
        <ele>1200</ele>
        <time>2018-01-02T13:22:28.552Z</time>
      </trkpt>
      <trkpt lat="43.7602" lon="6.93336">
        <ele>1195</ele>
        <time>2018-01-02T13:22:35.552Z</time>
      </trkpt>
      <trkpt lat="43.76023" lon="6.93349">
        <ele>1194</ele>
        <time>2018-01-02T13:22:40.552Z</time>
      </trkpt>
      <trkpt lat="43.76025" lon="6.93358">
        <ele>1193</ele>
        <time>2018-01-02T13:22:43.552Z</time>
      </trkpt>
      <trkpt lat="43.76026" lon="6.93368">
        <ele>1192</ele>
        <time>2018-01-02T13:22:46.552Z</time>
      </trkpt>
      <trkpt lat="43.76024" lon="6.93377">
        <ele>1192</ele>
        <time>2018-01-02T13:22:49.552Z</time>
      </trkpt>
      <trkpt lat="43.76026" lon="6.93387">
        <ele>1192</ele>
        <time>2018-01-02T13:22:53.552Z</time>
      </trkpt>
      <trkpt lat="43.76029" lon="6.93397">
        <ele>1191</ele>
        <time>2018-01-02T13:22:56.552Z</time>
      </trkpt>
      <trkpt lat="43.76031" lon="6.93406">
        <ele>1191</ele>
        <time>2018-01-02T13:22:59.552Z</time>
      </trkpt>
      <trkpt lat="43.76034" lon="6.93413">
        <ele>1190</ele>
        <time>2018-01-02T13:23:01.552Z</time>
      </trkpt>
      <trkpt lat="43.76038" lon="6.9342">
        <ele>1187</ele>
        <time>2018-01-02T13:23:05.552Z</time>
      </trkpt>
      <trkpt lat="43.76045" lon="6.9342">
        <ele>1186</ele>
        <time>2018-01-02T13:23:09.552Z</time>
      </trkpt>
      <trkpt lat="43.76053" lon="6.93415">
        <ele>1188</ele>
        <time>2018-01-02T13:23:15.552Z</time>
      </trkpt>
      <trkpt lat="43.76061" lon="6.93409">
        <ele>1186</ele>
        <time>2018-01-02T13:23:19.552Z</time>
      </trkpt>
      <trkpt lat="43.76068" lon="6.93416">
        <ele>1185</ele>
        <time>2018-01-02T13:23:22.552Z</time>
      </trkpt>
      <trkpt lat="43.7607" lon="6.93426">
        <ele>1182</ele>
        <time>2018-01-02T13:23:24.552Z</time>
      </trkpt>
      <trkpt lat="43.76071" lon="6.93435">
        <ele>1183</ele>
        <time>2018-01-02T13:23:26.552Z</time>
      </trkpt>
      <trkpt lat="43.76072" lon="6.93443">
        <ele>1183</ele>
        <time>2018-01-02T13:23:28.552Z</time>
      </trkpt>
      <trkpt lat="43.76071" lon="6.93449">
        <ele>1183</ele>
        <time>2018-01-02T13:23:30.552Z</time>
      </trkpt>
      <trkpt lat="43.7607" lon="6.93457">
        <ele>1183</ele>
        <time>2018-01-02T13:23:33.552Z</time>
      </trkpt>
      <trkpt lat="43.7607" lon="6.93465">
        <ele>1182</ele>
        <time>2018-01-02T13:23:35.552Z</time>
      </trkpt>
      <trkpt lat="43.76069" lon="6.93491">
        <ele>1180</ele>
        <time>2018-01-02T13:23:41.552Z</time>
      </trkpt>
      <trkpt lat="43.76067" lon="6.935">
        <ele>1179</ele>
        <time>2018-01-02T13:23:43.552Z</time>
      </trkpt>
      <trkpt lat="43.76065" lon="6.93509">
        <ele>1179</ele>
        <time>2018-01-02T13:23:46.552Z</time>
      </trkpt>
      <trkpt lat="43.76068" lon="6.93519">
        <ele>1180</ele>
        <time>2018-01-02T13:23:51.552Z</time>
      </trkpt>
      <trkpt lat="43.76071" lon="6.93528">
        <ele>1180</ele>
        <time>2018-01-02T13:23:54.552Z</time>
      </trkpt>
      <trkpt lat="43.76075" lon="6.93539">
        <ele>1180</ele>
        <time>2018-01-02T13:23:57.552Z</time>
      </trkpt>
      <trkpt lat="43.76078" lon="6.93549">
        <ele>1179</ele>
        <time>2018-01-02T13:24:01.552Z</time>
      </trkpt>
      <trkpt lat="43.76079" lon="6.93557">
        <ele>1179</ele>
        <time>2018-01-02T13:24:04.552Z</time>
      </trkpt>
      <trkpt lat="43.76078" lon="6.93563">
        <ele>1178</ele>
        <time>2018-01-02T13:24:06.552Z</time>
      </trkpt>
      <trkpt lat="43.76078" lon="6.93575">
        <ele>1176</ele>
        <time>2018-01-02T13:24:09.552Z</time>
      </trkpt>
      <trkpt lat="43.76079" lon="6.93586">
        <ele>1174</ele>
        <time>2018-01-02T13:24:12.552Z</time>
      </trkpt>
      <trkpt lat="43.76084" lon="6.93598">
        <ele>1169</ele>
        <time>2018-01-02T13:24:16.552Z</time>
      </trkpt>
      <trkpt lat="43.76089" lon="6.93607">
        <ele>1168</ele>
        <time>2018-01-02T13:24:19.552Z</time>
      </trkpt>
      <trkpt lat="43.76097" lon="6.93614">
        <ele>1167</ele>
        <time>2018-01-02T13:24:22.552Z</time>
      </trkpt>
      <trkpt lat="43.76103" lon="6.93621">
        <ele>1166</ele>
        <time>2018-01-02T13:24:24.552Z</time>
      </trkpt>
      <trkpt lat="43.76105" lon="6.93631">
        <ele>1166</ele>
        <time>2018-01-02T13:24:26.552Z</time>
      </trkpt>
      <trkpt lat="43.76108" lon="6.9364">
        <ele>1166</ele>
        <time>2018-01-02T13:24:28.552Z</time>
      </trkpt>
      <trkpt lat="43.76111" lon="6.93651">
        <ele>1166</ele>
        <time>2018-01-02T13:24:31.552Z</time>
      </trkpt>
      <trkpt lat="43.76112" lon="6.9366">
        <ele>1166</ele>
        <time>2018-01-02T13:24:33.552Z</time>
      </trkpt>
      <trkpt lat="43.76114" lon="6.93668">
        <ele>1164</ele>
        <time>2018-01-02T13:24:35.552Z</time>
      </trkpt>
      <trkpt lat="43.76117" lon="6.93678">
        <ele>1164</ele>
        <time>2018-01-02T13:24:38.552Z</time>
      </trkpt>
      <trkpt lat="43.76122" lon="6.93688">
        <ele>1163</ele>
        <time>2018-01-02T13:24:41.552Z</time>
      </trkpt>
      <trkpt lat="43.76124" lon="6.937">
        <ele>1162</ele>
        <time>2018-01-02T13:24:44.552Z</time>
      </trkpt>
      <trkpt lat="43.76124" lon="6.9371">
        <ele>1162</ele>
        <time>2018-01-02T13:24:46.552Z</time>
      </trkpt>
      <trkpt lat="43.76122" lon="6.93718">
        <ele>1162</ele>
        <time>2018-01-02T13:24:48.552Z</time>
      </trkpt>
      <trkpt lat="43.76125" lon="6.93727">
        <ele>1162</ele>
        <time>2018-01-02T13:24:51.552Z</time>
      </trkpt>
      <trkpt lat="43.76128" lon="6.93736">
        <ele>1161</ele>
        <time>2018-01-02T13:24:53.552Z</time>
      </trkpt>
      <trkpt lat="43.7613" lon="6.93748">
        <ele>1161</ele>
        <time>2018-01-02T13:24:55.552Z</time>
      </trkpt>
      <trkpt lat="43.76134" lon="6.93759">
        <ele>1156</ele>
        <time>2018-01-02T13:24:57.552Z</time>
      </trkpt>
      <trkpt lat="43.76142" lon="6.9377">
        <ele>1155</ele>
        <time>2018-01-02T13:25:00.552Z</time>
      </trkpt>
      <trkpt lat="43.76149" lon="6.93783">
        <ele>1154</ele>
        <time>2018-01-02T13:25:03.552Z</time>
      </trkpt>
      <trkpt lat="43.76153" lon="6.93792">
        <ele>1153</ele>
        <time>2018-01-02T13:25:06.552Z</time>
      </trkpt>
      <trkpt lat="43.76156" lon="6.93798">
        <ele>1153</ele>
        <time>2018-01-02T13:25:08.552Z</time>
      </trkpt>
      <trkpt lat="43.76161" lon="6.93805">
        <ele>1152</ele>
        <time>2018-01-02T13:25:11.552Z</time>
      </trkpt>
      <trkpt lat="43.76167" lon="6.93808">
        <ele>1145</ele>
        <time>2018-01-02T13:25:14.552Z</time>
      </trkpt>
      <trkpt lat="43.76174" lon="6.93811">
        <ele>1145</ele>
        <time>2018-01-02T13:25:17.552Z</time>
      </trkpt>
      <trkpt lat="43.76182" lon="6.93813">
        <ele>1144</ele>
        <time>2018-01-02T13:25:20.552Z</time>
      </trkpt>
      <trkpt lat="43.76187" lon="6.93818">
        <ele>1144</ele>
        <time>2018-01-02T13:25:22.552Z</time>
      </trkpt>
      <trkpt lat="43.76189" lon="6.9383">
        <ele>1144</ele>
        <time>2018-01-02T13:25:25.552Z</time>
      </trkpt>
      <trkpt lat="43.76187" lon="6.93837">
        <ele>1140</ele>
        <time>2018-01-02T13:25:28.552Z</time>
      </trkpt>
      <trkpt lat="43.76183" lon="6.9384">
        <ele>1140</ele>
        <time>2018-01-02T13:25:30.552Z</time>
      </trkpt>
      <trkpt lat="43.76177" lon="6.93839">
        <ele>1141</ele>
        <time>2018-01-02T13:25:32.552Z</time>
      </trkpt>
      <trkpt lat="43.76171" lon="6.93836">
        <ele>1143</ele>
        <time>2018-01-02T13:25:34.552Z</time>
      </trkpt>
      <trkpt lat="43.76165" lon="6.93834">
        <ele>1144</ele>
        <time>2018-01-02T13:25:36.552Z</time>
      </trkpt>
      <trkpt lat="43.76161" lon="6.93833">
        <ele>1146</ele>
        <time>2018-01-02T13:25:38.552Z</time>
      </trkpt>
      <trkpt lat="43.76156" lon="6.93832">
        <ele>1148</ele>
        <time>2018-01-02T13:25:40.552Z</time>
      </trkpt>
      <trkpt lat="43.76147" lon="6.93833">
        <ele>1150</ele>
        <time>2018-01-02T13:25:44.552Z</time>
      </trkpt>
      <trkpt lat="43.76139" lon="6.93835">
        <ele>1146</ele>
        <time>2018-01-02T13:25:48.552Z</time>
      </trkpt>
      <trkpt lat="43.76136" lon="6.93837">
        <ele>1146</ele>
        <time>2018-01-02T13:25:50.552Z</time>
      </trkpt>
      <trkpt lat="43.76134" lon="6.93843">
        <ele>1146</ele>
        <time>2018-01-02T13:25:53.552Z</time>
      </trkpt>
      <trkpt lat="43.76142" lon="6.93851">
        <ele>1145</ele>
        <time>2018-01-02T13:26:03.552Z</time>
      </trkpt>
      <trkpt lat="43.76142" lon="6.9386">
        <ele>1144</ele>
        <time>2018-01-02T13:26:06.552Z</time>
      </trkpt>
      <trkpt lat="43.76138" lon="6.93866">
        <ele>1144</ele>
        <time>2018-01-02T13:26:10.552Z</time>
      </trkpt>
      <trkpt lat="43.76137" lon="6.93872">
        <ele>1144</ele>
        <time>2018-01-02T13:26:14.552Z</time>
      </trkpt>
      <trkpt lat="43.7614" lon="6.9388">
        <ele>1143</ele>
        <time>2018-01-02T13:26:17.552Z</time>
      </trkpt>
      <trkpt lat="43.76141" lon="6.93888">
        <ele>1142</ele>
        <time>2018-01-02T13:26:20.552Z</time>
      </trkpt>
      <trkpt lat="43.76148" lon="6.93899">
        <ele>1140</ele>
        <time>2018-01-02T13:26:25.552Z</time>
      </trkpt>
      <trkpt lat="43.76151" lon="6.93908">
        <ele>1139</ele>
        <time>2018-01-02T13:26:29.552Z</time>
      </trkpt>
      <trkpt lat="43.76149" lon="6.93919">
        <ele>1135</ele>
        <time>2018-01-02T13:26:34.552Z</time>
      </trkpt>
      <trkpt lat="43.76151" lon="6.93924">
        <ele>1135</ele>
        <time>2018-01-02T13:27:32.552Z</time>
      </trkpt>
      <trkpt lat="43.7615" lon="6.9393">
        <ele>1136</ele>
        <time>2018-01-02T13:27:34.552Z</time>
      </trkpt>
      <trkpt lat="43.76149" lon="6.93934">
        <ele>1136</ele>
        <time>2018-01-02T13:27:36.552Z</time>
      </trkpt>
      <trkpt lat="43.76147" lon="6.93942">
        <ele>1137</ele>
        <time>2018-01-02T13:27:39.552Z</time>
      </trkpt>
      <trkpt lat="43.76146" lon="6.93947">
        <ele>1137</ele>
        <time>2018-01-02T13:27:43.552Z</time>
      </trkpt>
      <trkpt lat="43.76147" lon="6.93957">
        <ele>1137</ele>
        <time>2018-01-02T13:28:03.552Z</time>
      </trkpt>
      <trkpt lat="43.76148" lon="6.93966">
        <ele>1136</ele>
        <time>2018-01-02T13:28:13.552Z</time>
      </trkpt>
      <trkpt lat="43.7615" lon="6.93972">
        <ele>1136</ele>
        <time>2018-01-02T13:28:18.552Z</time>
      </trkpt>
      <trkpt lat="43.76154" lon="6.9398">
        <ele>1135</ele>
        <time>2018-01-02T13:28:26.552Z</time>
      </trkpt>
      <trkpt lat="43.76159" lon="6.93988">
        <ele>1133</ele>
        <time>2018-01-02T13:28:36.552Z</time>
      </trkpt>
      <trkpt lat="43.76163" lon="6.93995">
        <ele>1131</ele>
        <time>2018-01-02T13:28:41.552Z</time>
      </trkpt>
      <trkpt lat="43.7617" lon="6.94004">
        <ele>1129</ele>
        <time>2018-01-02T13:28:49.552Z</time>
      </trkpt>
      <trkpt lat="43.76174" lon="6.94013">
        <ele>1128</ele>
        <time>2018-01-02T13:28:52.552Z</time>
      </trkpt>
      <trkpt lat="43.76178" lon="6.94026">
        <ele>1128</ele>
        <time>2018-01-02T13:28:56.552Z</time>
      </trkpt>
      <trkpt lat="43.76181" lon="6.94036">
        <ele>1128</ele>
        <time>2018-01-02T13:28:59.552Z</time>
      </trkpt>
      <trkpt lat="43.76186" lon="6.94049">
        <ele>1128</ele>
        <time>2018-01-02T13:29:03.552Z</time>
      </trkpt>
      <trkpt lat="43.76193" lon="6.9406">
        <ele>1128</ele>
        <time>2018-01-02T13:29:08.552Z</time>
      </trkpt>
      <trkpt lat="43.762" lon="6.94071">
        <ele>1128</ele>
        <time>2018-01-02T13:29:22.552Z</time>
      </trkpt>
      <trkpt lat="43.76207" lon="6.94079">
        <ele>1127</ele>
        <time>2018-01-02T13:29:27.552Z</time>
      </trkpt>
      <trkpt lat="43.76214" lon="6.94086">
        <ele>1128</ele>
        <time>2018-01-02T13:29:30.552Z</time>
      </trkpt>
      <trkpt lat="43.76221" lon="6.94098">
        <ele>1127</ele>
        <time>2018-01-02T13:29:34.552Z</time>
      </trkpt>
      <trkpt lat="43.76227" lon="6.94107">
        <ele>1127</ele>
        <time>2018-01-02T13:29:38.552Z</time>
      </trkpt>
      <trkpt lat="43.76235" lon="6.94116">
        <ele>1127</ele>
        <time>2018-01-02T13:29:41.552Z</time>
      </trkpt>
      <trkpt lat="43.76242" lon="6.94122">
        <ele>1126</ele>
        <time>2018-01-02T13:29:44.552Z</time>
      </trkpt>
      <trkpt lat="43.76247" lon="6.94131">
        <ele>1127</ele>
        <time>2018-01-02T13:29:47.552Z</time>
      </trkpt>
      <trkpt lat="43.76254" lon="6.94139">
        <ele>1119</ele>
        <time>2018-01-02T13:29:50.552Z</time>
      </trkpt>
      <trkpt lat="43.7626" lon="6.94148">
        <ele>1120</ele>
        <time>2018-01-02T13:29:53.552Z</time>
      </trkpt>
      <trkpt lat="43.76267" lon="6.94155">
        <ele>1120</ele>
        <time>2018-01-02T13:29:56.552Z</time>
      </trkpt>
      <trkpt lat="43.76272" lon="6.94161">
        <ele>1119</ele>
        <time>2018-01-02T13:29:58.552Z</time>
      </trkpt>
      <trkpt lat="43.76279" lon="6.9417">
        <ele>1120</ele>
        <time>2018-01-02T13:30:01.552Z</time>
      </trkpt>
      <trkpt lat="43.76283" lon="6.94177">
        <ele>1120</ele>
        <time>2018-01-02T13:30:03.552Z</time>
      </trkpt>
      <trkpt lat="43.76287" lon="6.94183">
        <ele>1119</ele>
        <time>2018-01-02T13:30:05.552Z</time>
      </trkpt>
      <trkpt lat="43.7629" lon="6.94188">
        <ele>1119</ele>
        <time>2018-01-02T13:30:07.552Z</time>
      </trkpt>
      <trkpt lat="43.76294" lon="6.94196">
        <ele>1119</ele>
        <time>2018-01-02T13:30:11.552Z</time>
      </trkpt>
      <trkpt lat="43.763" lon="6.94205">
        <ele>1119</ele>
        <time>2018-01-02T13:30:14.552Z</time>
      </trkpt>
      <trkpt lat="43.76305" lon="6.94211">
        <ele>1119</ele>
        <time>2018-01-02T13:30:16.552Z</time>
      </trkpt>
      <trkpt lat="43.76311" lon="6.94217">
        <ele>1118</ele>
        <time>2018-01-02T13:30:18.552Z</time>
      </trkpt>
      <trkpt lat="43.76317" lon="6.94223">
        <ele>1118</ele>
        <time>2018-01-02T13:30:20.552Z</time>
      </trkpt>
      <trkpt lat="43.76323" lon="6.94227">
        <ele>1118</ele>
        <time>2018-01-02T13:30:22.552Z</time>
      </trkpt>
      <trkpt lat="43.7633" lon="6.94232">
        <ele>1117</ele>
        <time>2018-01-02T13:30:25.552Z</time>
      </trkpt>
      <trkpt lat="43.76339" lon="6.94235">
        <ele>1113</ele>
        <time>2018-01-02T13:30:28.552Z</time>
      </trkpt>
      <trkpt lat="43.76347" lon="6.94238">
        <ele>1113</ele>
        <time>2018-01-02T13:30:31.552Z</time>
      </trkpt>
      <trkpt lat="43.76359" lon="6.94243">
        <ele>1112</ele>
        <time>2018-01-02T13:30:35.552Z</time>
      </trkpt>
      <trkpt lat="43.76369" lon="6.94247">
        <ele>1111</ele>
        <time>2018-01-02T13:30:39.552Z</time>
      </trkpt>
      <trkpt lat="43.76378" lon="6.94246">
        <ele>1110</ele>
        <time>2018-01-02T13:30:43.552Z</time>
      </trkpt>
      <trkpt lat="43.76385" lon="6.94245">
        <ele>1110</ele>
        <time>2018-01-02T13:30:46.552Z</time>
      </trkpt>
      <trkpt lat="43.76395" lon="6.94243">
        <ele>1109</ele>
        <time>2018-01-02T13:30:51.552Z</time>
      </trkpt>
      <trkpt lat="43.76404" lon="6.94246">
        <ele>1108</ele>
        <time>2018-01-02T13:30:55.552Z</time>
      </trkpt>
      <trkpt lat="43.76411" lon="6.94254">
        <ele>1107</ele>
        <time>2018-01-02T13:30:59.552Z</time>
      </trkpt>
      <trkpt lat="43.76412" lon="6.94262">
        <ele>1107</ele>
        <time>2018-01-02T13:31:02.552Z</time>
      </trkpt>
      <trkpt lat="43.7641" lon="6.94273">
        <ele>1108</ele>
        <time>2018-01-02T13:31:06.552Z</time>
      </trkpt>
      <trkpt lat="43.76409" lon="6.94282">
        <ele>1108</ele>
        <time>2018-01-02T13:31:10.552Z</time>
      </trkpt>
      <trkpt lat="43.76406" lon="6.94286">
        <ele>1108</ele>
        <time>2018-01-02T13:31:15.552Z</time>
      </trkpt>
      <trkpt lat="43.76404" lon="6.94291">
        <ele>1108</ele>
        <time>2018-01-02T13:31:20.552Z</time>
      </trkpt>
      <trkpt lat="43.764" lon="6.94297">
        <ele>1108</ele>
        <time>2018-01-02T13:31:36.552Z</time>
      </trkpt>
      <trkpt lat="43.76399" lon="6.94304">
        <ele>1108</ele>
        <time>2018-01-02T13:31:48.552Z</time>
      </trkpt>
      <trkpt lat="43.76399" lon="6.94311">
        <ele>1107</ele>
        <time>2018-01-02T13:31:51.552Z</time>
      </trkpt>
      <trkpt lat="43.76401" lon="6.9432">
        <ele>1106</ele>
        <time>2018-01-02T13:31:55.552Z</time>
      </trkpt>
      <trkpt lat="43.76402" lon="6.94328">
        <ele>1106</ele>
        <time>2018-01-02T13:31:58.552Z</time>
      </trkpt>
      <trkpt lat="43.76403" lon="6.94338">
        <ele>1105</ele>
        <time>2018-01-02T13:32:01.552Z</time>
      </trkpt>
      <trkpt lat="43.76404" lon="6.94344">
        <ele>1105</ele>
        <time>2018-01-02T13:32:03.552Z</time>
      </trkpt>
      <trkpt lat="43.76403" lon="6.94351">
        <ele>1106</ele>
        <time>2018-01-02T13:32:05.552Z</time>
      </trkpt>
      <trkpt lat="43.76404" lon="6.9436">
        <ele>1106</ele>
        <time>2018-01-02T13:32:09.552Z</time>
      </trkpt>
      <trkpt lat="43.76405" lon="6.94367">
        <ele>1106</ele>
        <time>2018-01-02T13:32:11.552Z</time>
      </trkpt>
      <trkpt lat="43.76406" lon="6.94374">
        <ele>1106</ele>
        <time>2018-01-02T13:32:15.552Z</time>
      </trkpt>
      <trkpt lat="43.76406" lon="6.94381">
        <ele>1106</ele>
        <time>2018-01-02T13:32:21.552Z</time>
      </trkpt>
      <trkpt lat="43.76408" lon="6.94389">
        <ele>1105</ele>
        <time>2018-01-02T13:32:25.552Z</time>
      </trkpt>
      <trkpt lat="43.7641" lon="6.94396">
        <ele>1105</ele>
        <time>2018-01-02T13:32:28.552Z</time>
      </trkpt>
      <trkpt lat="43.7641" lon="6.94404">
        <ele>1103</ele>
        <time>2018-01-02T13:32:31.552Z</time>
      </trkpt>
      <trkpt lat="43.76411" lon="6.94412">
        <ele>1102</ele>
        <time>2018-01-02T13:32:34.552Z</time>
      </trkpt>
      <trkpt lat="43.76409" lon="6.94419">
        <ele>1103</ele>
        <time>2018-01-02T13:32:37.552Z</time>
      </trkpt>
      <trkpt lat="43.7641" lon="6.94429">
        <ele>1104</ele>
        <time>2018-01-02T13:32:42.552Z</time>
      </trkpt>
      <trkpt lat="43.76415" lon="6.94435">
        <ele>1104</ele>
        <time>2018-01-02T13:32:46.552Z</time>
      </trkpt>
      <trkpt lat="43.76418" lon="6.94442">
        <ele>1100</ele>
        <time>2018-01-02T13:32:50.552Z</time>
      </trkpt>
      <trkpt lat="43.76421" lon="6.94448">
        <ele>1100</ele>
        <time>2018-01-02T13:32:53.552Z</time>
      </trkpt>
      <trkpt lat="43.76424" lon="6.94453">
        <ele>1100</ele>
        <time>2018-01-02T13:32:55.552Z</time>
      </trkpt>
      <trkpt lat="43.76429" lon="6.9446">
        <ele>1100</ele>
        <time>2018-01-02T13:32:58.552Z</time>
      </trkpt>
      <trkpt lat="43.76435" lon="6.94467">
        <ele>1100</ele>
        <time>2018-01-02T13:33:01.552Z</time>
      </trkpt>
      <trkpt lat="43.76441" lon="6.94476">
        <ele>1100</ele>
        <time>2018-01-02T13:33:04.552Z</time>
      </trkpt>
      <trkpt lat="43.76443" lon="6.94483">
        <ele>1100</ele>
        <time>2018-01-02T13:33:06.552Z</time>
      </trkpt>
      <trkpt lat="43.76447" lon="6.9449">
        <ele>1099</ele>
        <time>2018-01-02T13:33:08.552Z</time>
      </trkpt>
      <trkpt lat="43.76453" lon="6.94499">
        <ele>1099</ele>
        <time>2018-01-02T13:33:11.552Z</time>
      </trkpt>
      <trkpt lat="43.7646" lon="6.94505">
        <ele>1098</ele>
        <time>2018-01-02T13:33:14.552Z</time>
      </trkpt>
      <trkpt lat="43.76467" lon="6.94517">
        <ele>1097</ele>
        <time>2018-01-02T13:33:18.552Z</time>
      </trkpt>
      <trkpt lat="43.76472" lon="6.94524">
        <ele>1097</ele>
        <time>2018-01-02T13:33:21.552Z</time>
      </trkpt>
      <trkpt lat="43.76477" lon="6.94532">
        <ele>1096</ele>
        <time>2018-01-02T13:33:24.552Z</time>
      </trkpt>
      <trkpt lat="43.76479" lon="6.94542">
        <ele>1096</ele>
        <time>2018-01-02T13:33:27.552Z</time>
      </trkpt>
      <trkpt lat="43.7648" lon="6.94548">
        <ele>1096</ele>
        <time>2018-01-02T13:33:29.552Z</time>
      </trkpt>
      <trkpt lat="43.76481" lon="6.94556">
        <ele>1096</ele>
        <time>2018-01-02T13:33:31.552Z</time>
      </trkpt>
      <trkpt lat="43.7648" lon="6.94564">
        <ele>1095</ele>
        <time>2018-01-02T13:33:33.552Z</time>
      </trkpt>
      <trkpt lat="43.76479" lon="6.94572">
        <ele>1095</ele>
        <time>2018-01-02T13:33:37.552Z</time>
      </trkpt>
      <trkpt lat="43.76474" lon="6.94582">
        <ele>1095</ele>
        <time>2018-01-02T13:33:42.552Z</time>
      </trkpt>
      <trkpt lat="43.76469" lon="6.94588">
        <ele>1093</ele>
        <time>2018-01-02T13:33:46.552Z</time>
      </trkpt>
      <trkpt lat="43.76468" lon="6.94597">
        <ele>1093</ele>
        <time>2018-01-02T13:33:59.552Z</time>
      </trkpt>
      <trkpt lat="43.76477" lon="6.94592">
        <ele>1092</ele>
        <time>2018-01-02T13:34:10.552Z</time>
      </trkpt>
      <trkpt lat="43.76486" lon="6.94594">
        <ele>1092</ele>
        <time>2018-01-02T13:34:13.552Z</time>
      </trkpt>
      <trkpt lat="43.76491" lon="6.94607">
        <ele>1091</ele>
        <time>2018-01-02T13:34:17.552Z</time>
      </trkpt>
      <trkpt lat="43.76497" lon="6.94615">
        <ele>1091</ele>
        <time>2018-01-02T13:34:21.552Z</time>
      </trkpt>
      <trkpt lat="43.76502" lon="6.94624">
        <ele>1084</ele>
        <time>2018-01-02T13:34:25.552Z</time>
      </trkpt>
      <trkpt lat="43.76507" lon="6.94629">
        <ele>1083</ele>
        <time>2018-01-02T13:34:28.552Z</time>
      </trkpt>
      <trkpt lat="43.76511" lon="6.94633">
        <ele>1083</ele>
        <time>2018-01-02T13:34:32.552Z</time>
      </trkpt>
      <trkpt lat="43.76516" lon="6.94633">
        <ele>1083</ele>
        <time>2018-01-02T13:35:35.552Z</time>
      </trkpt>
      <trkpt lat="43.76521" lon="6.94632">
        <ele>1083</ele>
        <time>2018-01-02T13:35:38.552Z</time>
      </trkpt>
      <trkpt lat="43.76525" lon="6.94635">
        <ele>1082</ele>
        <time>2018-01-02T13:35:40.552Z</time>
      </trkpt>
      <trkpt lat="43.76529" lon="6.94641">
        <ele>1082</ele>
        <time>2018-01-02T13:35:42.552Z</time>
      </trkpt>
      <trkpt lat="43.76536" lon="6.94647">
        <ele>1081</ele>
        <time>2018-01-02T13:35:45.552Z</time>
      </trkpt>
      <trkpt lat="43.76545" lon="6.94648">
        <ele>1081</ele>
        <time>2018-01-02T13:35:48.552Z</time>
      </trkpt>
      <trkpt lat="43.76551" lon="6.94648">
        <ele>1081</ele>
        <time>2018-01-02T13:35:50.552Z</time>
      </trkpt>
      <trkpt lat="43.76559" lon="6.94644">
        <ele>1080</ele>
        <time>2018-01-02T13:35:53.552Z</time>
      </trkpt>
      <trkpt lat="43.76567" lon="6.94637">
        <ele>1081</ele>
        <time>2018-01-02T13:35:57.552Z</time>
      </trkpt>
      <trkpt lat="43.76574" lon="6.94634">
        <ele>1081</ele>
        <time>2018-01-02T13:36:00.552Z</time>
      </trkpt>
      <trkpt lat="43.76581" lon="6.94633">
        <ele>1081</ele>
        <time>2018-01-02T13:36:03.552Z</time>
      </trkpt>
      <trkpt lat="43.76588" lon="6.9463">
        <ele>1075</ele>
        <time>2018-01-02T13:36:06.552Z</time>
      </trkpt>
      <trkpt lat="43.76594" lon="6.94631">
        <ele>1075</ele>
        <time>2018-01-02T13:36:08.552Z</time>
      </trkpt>
      <trkpt lat="43.766" lon="6.94631">
        <ele>1075</ele>
        <time>2018-01-02T13:36:10.552Z</time>
      </trkpt>
      <trkpt lat="43.76607" lon="6.94632">
        <ele>1074</ele>
        <time>2018-01-02T13:36:12.552Z</time>
      </trkpt>
      <trkpt lat="43.76615" lon="6.94633">
        <ele>1073</ele>
        <time>2018-01-02T13:36:15.552Z</time>
      </trkpt>
      <trkpt lat="43.76624" lon="6.94638">
        <ele>1072</ele>
        <time>2018-01-02T13:36:19.552Z</time>
      </trkpt>
      <trkpt lat="43.76632" lon="6.94642">
        <ele>1071</ele>
        <time>2018-01-02T13:36:22.552Z</time>
      </trkpt>
      <trkpt lat="43.76639" lon="6.94643">
        <ele>1069</ele>
        <time>2018-01-02T13:36:25.552Z</time>
      </trkpt>
      <trkpt lat="43.76641" lon="6.94652">
        <ele>1068</ele>
        <time>2018-01-02T13:36:30.552Z</time>
      </trkpt>
      <trkpt lat="43.76653" lon="6.9465">
        <ele>1065</ele>
        <time>2018-01-02T13:36:43.552Z</time>
      </trkpt>
      <trkpt lat="43.76655" lon="6.9466">
        <ele>1062</ele>
        <time>2018-01-02T13:36:49.552Z</time>
      </trkpt>
      <trkpt lat="43.76664" lon="6.94648">
        <ele>1064</ele>
        <time>2018-01-02T13:36:55.552Z</time>
      </trkpt>
      <trkpt lat="43.7667" lon="6.94636">
        <ele>1052</ele>
        <time>2018-01-02T13:36:59.552Z</time>
      </trkpt>
      <trkpt lat="43.76676" lon="6.94644">
        <ele>1051</ele>
        <time>2018-01-02T13:37:06.552Z</time>
      </trkpt>
      <trkpt lat="43.76687" lon="6.94638">
        <ele>1050</ele>
        <time>2018-01-02T13:37:13.552Z</time>
      </trkpt>
      <trkpt lat="43.76697" lon="6.9463">
        <ele>1050</ele>
        <time>2018-01-02T13:37:19.552Z</time>
      </trkpt>
      <trkpt lat="43.76704" lon="6.9462">
        <ele>1049</ele>
        <time>2018-01-02T13:37:24.552Z</time>
      </trkpt>
      <trkpt lat="43.76714" lon="6.94611">
        <ele>1048</ele>
        <time>2018-01-02T13:37:29.552Z</time>
      </trkpt>
      <trkpt lat="43.76723" lon="6.94603">
        <ele>1047</ele>
        <time>2018-01-02T13:37:33.552Z</time>
      </trkpt>
      <trkpt lat="43.76727" lon="6.94598">
        <ele>1046</ele>
        <time>2018-01-02T13:37:47.552Z</time>
      </trkpt>
      <trkpt lat="43.76736" lon="6.94589">
        <ele>1045</ele>
        <time>2018-01-02T13:38:32.552Z</time>
      </trkpt>
      <trkpt lat="43.76746" lon="6.94582">
        <ele>1046</ele>
        <time>2018-01-02T13:38:37.552Z</time>
      </trkpt>
      <trkpt lat="43.76757" lon="6.94573">
        <ele>1038</ele>
        <time>2018-01-02T13:38:42.552Z</time>
      </trkpt>
      <trkpt lat="43.76766" lon="6.94566">
        <ele>1036</ele>
        <time>2018-01-02T13:38:47.552Z</time>
      </trkpt>
      <trkpt lat="43.76765" lon="6.94579">
        <ele>1037</ele>
        <time>2018-01-02T13:38:55.552Z</time>
      </trkpt>
      <trkpt lat="43.76764" lon="6.94585">
        <ele>1029</ele>
        <time>2018-01-02T13:38:57.552Z</time>
      </trkpt>
      <trkpt lat="43.76773" lon="6.94587">
        <ele>1023</ele>
        <time>2018-01-02T13:39:06.552Z</time>
      </trkpt>
      <trkpt lat="43.76783" lon="6.94581">
        <ele>1032</ele>
        <time>2018-01-02T13:39:12.552Z</time>
      </trkpt>
      <trkpt lat="43.76791" lon="6.9457">
        <ele>1030</ele>
        <time>2018-01-02T13:39:36.552Z</time>
      </trkpt>
      <trkpt lat="43.76799" lon="6.94563">
        <ele>1028</ele>
        <time>2018-01-02T13:39:40.552Z</time>
      </trkpt>
      <trkpt lat="43.7681" lon="6.94556">
        <ele>1027</ele>
        <time>2018-01-02T13:39:44.552Z</time>
      </trkpt>
      <trkpt lat="43.76818" lon="6.94547">
        <ele>1027</ele>
        <time>2018-01-02T13:39:47.552Z</time>
      </trkpt>
      <trkpt lat="43.76828" lon="6.94538">
        <ele>1027</ele>
        <time>2018-01-02T13:39:50.552Z</time>
      </trkpt>
      <trkpt lat="43.76837" lon="6.94529">
        <ele>1008</ele>
        <time>2018-01-02T13:39:53.552Z</time>
      </trkpt>
      <trkpt lat="43.76846" lon="6.9452">
        <ele>1009</ele>
        <time>2018-01-02T13:39:57.552Z</time>
      </trkpt>
      <trkpt lat="43.76857" lon="6.94514">
        <ele>1007</ele>
        <time>2018-01-02T13:40:02.552Z</time>
      </trkpt>
      <trkpt lat="43.76868" lon="6.9451">
        <ele>1004</ele>
        <time>2018-01-02T13:40:07.552Z</time>
      </trkpt>
      <trkpt lat="43.76878" lon="6.94507">
        <ele>1002</ele>
        <time>2018-01-02T13:40:11.552Z</time>
      </trkpt>
      <trkpt lat="43.76887" lon="6.94501">
        <ele>1000</ele>
        <time>2018-01-02T13:40:15.552Z</time>
      </trkpt>
      <trkpt lat="43.769" lon="6.94501">
        <ele>997</ele>
        <time>2018-01-02T13:40:20.552Z</time>
      </trkpt>
      <trkpt lat="43.76911" lon="6.94499">
        <ele>1000</ele>
        <time>2018-01-02T13:40:24.552Z</time>
      </trkpt>
      <trkpt lat="43.76921" lon="6.94497">
        <ele>993</ele>
        <time>2018-01-02T13:40:28.552Z</time>
      </trkpt>
      <trkpt lat="43.7693" lon="6.94493">
        <ele>991</ele>
        <time>2018-01-02T13:40:31.552Z</time>
      </trkpt>
      <trkpt lat="43.7694" lon="6.94486">
        <ele>989</ele>
        <time>2018-01-02T13:40:35.552Z</time>
      </trkpt>
      <trkpt lat="43.7695" lon="6.94481">
        <ele>987</ele>
        <time>2018-01-02T13:40:40.552Z</time>
      </trkpt>
      <trkpt lat="43.76961" lon="6.94472">
        <ele>986</ele>
        <time>2018-01-02T13:40:44.552Z</time>
      </trkpt>
      <trkpt lat="43.7697" lon="6.94463">
        <ele>985</ele>
        <time>2018-01-02T13:40:48.552Z</time>
      </trkpt>
      <trkpt lat="43.7698" lon="6.94456">
        <ele>984</ele>
        <time>2018-01-02T13:40:53.552Z</time>
      </trkpt>
      <trkpt lat="43.76989" lon="6.9445">
        <ele>984</ele>
        <time>2018-01-02T13:40:58.552Z</time>
      </trkpt>
      <trkpt lat="43.76999" lon="6.94444">
        <ele>984</ele>
        <time>2018-01-02T13:41:03.552Z</time>
      </trkpt>
      <trkpt lat="43.77009" lon="6.94441">
        <ele>970</ele>
        <time>2018-01-02T13:41:07.552Z</time>
      </trkpt>
      <trkpt lat="43.77019" lon="6.9444">
        <ele>969</ele>
        <time>2018-01-02T13:41:11.552Z</time>
      </trkpt>
      <trkpt lat="43.77028" lon="6.94435">
        <ele>968</ele>
        <time>2018-01-02T13:41:14.552Z</time>
      </trkpt>
      <trkpt lat="43.77039" lon="6.94429">
        <ele>967</ele>
        <time>2018-01-02T13:41:17.552Z</time>
      </trkpt>
      <trkpt lat="43.77049" lon="6.94428">
        <ele>966</ele>
        <time>2018-01-02T13:41:21.552Z</time>
      </trkpt>
      <trkpt lat="43.77059" lon="6.94426">
        <ele>965</ele>
        <time>2018-01-02T13:41:25.552Z</time>
      </trkpt>
      <trkpt lat="43.7707" lon="6.94422">
        <ele>964</ele>
        <time>2018-01-02T13:41:29.552Z</time>
      </trkpt>
      <trkpt lat="43.77079" lon="6.94419">
        <ele>965</ele>
        <time>2018-01-02T13:41:32.552Z</time>
      </trkpt>
      <trkpt lat="43.77089" lon="6.94417">
        <ele>966</ele>
        <time>2018-01-02T13:41:35.552Z</time>
      </trkpt>
      <trkpt lat="43.771" lon="6.94416">
        <ele>966</ele>
        <time>2018-01-02T13:41:39.552Z</time>
      </trkpt>
      <trkpt lat="43.77108" lon="6.94417">
        <ele>966</ele>
        <time>2018-01-02T13:41:42.552Z</time>
      </trkpt>
      <trkpt lat="43.77119" lon="6.94417">
        <ele>957</ele>
        <time>2018-01-02T13:41:46.552Z</time>
      </trkpt>
      <trkpt lat="43.77129" lon="6.94414">
        <ele>965</ele>
        <time>2018-01-02T13:41:51.552Z</time>
      </trkpt>
      <trkpt lat="43.77123" lon="6.94413">
        <ele>966</ele>
        <time>2018-01-02T13:42:21.552Z</time>
      </trkpt>
      <trkpt lat="43.77132" lon="6.94413">
        <ele>965</ele>
        <time>2018-01-02T13:45:09.552Z</time>
      </trkpt>
      <trkpt lat="43.7714" lon="6.94412">
        <ele>964</ele>
        <time>2018-01-02T13:45:13.552Z</time>
      </trkpt>
      <trkpt lat="43.7715" lon="6.94409">
        <ele>963</ele>
        <time>2018-01-02T13:45:16.552Z</time>
      </trkpt>
      <trkpt lat="43.7716" lon="6.94405">
        <ele>962</ele>
        <time>2018-01-02T13:45:19.552Z</time>
      </trkpt>
      <trkpt lat="43.77171" lon="6.94402">
        <ele>959</ele>
        <time>2018-01-02T13:45:22.552Z</time>
      </trkpt>
      <trkpt lat="43.7718" lon="6.94399">
        <ele>960</ele>
        <time>2018-01-02T13:45:24.552Z</time>
      </trkpt>
      <trkpt lat="43.77191" lon="6.944">
        <ele>960</ele>
        <time>2018-01-02T13:45:27.552Z</time>
      </trkpt>
      <trkpt lat="43.77201" lon="6.94411">
        <ele>959</ele>
        <time>2018-01-02T13:45:31.552Z</time>
      </trkpt>
      <trkpt lat="43.77203" lon="6.94423">
        <ele>951</ele>
        <time>2018-01-02T13:45:34.552Z</time>
      </trkpt>
      <trkpt lat="43.7721" lon="6.9443">
        <ele>950</ele>
        <time>2018-01-02T13:45:37.552Z</time>
      </trkpt>
      <trkpt lat="43.77218" lon="6.94435">
        <ele>950</ele>
        <time>2018-01-02T13:45:40.552Z</time>
      </trkpt>
      <trkpt lat="43.77227" lon="6.94444">
        <ele>949</ele>
        <time>2018-01-02T13:45:44.552Z</time>
      </trkpt>
      <trkpt lat="43.77226" lon="6.94454">
        <ele>948</ele>
        <time>2018-01-02T13:45:47.552Z</time>
      </trkpt>
      <trkpt lat="43.77235" lon="6.94459">
        <ele>948</ele>
        <time>2018-01-02T13:45:51.552Z</time>
      </trkpt>
      <trkpt lat="43.77246" lon="6.94459">
        <ele>948</ele>
        <time>2018-01-02T13:45:54.552Z</time>
      </trkpt>
      <trkpt lat="43.77259" lon="6.94458">
        <ele>943</ele>
        <time>2018-01-02T13:45:58.552Z</time>
      </trkpt>
      <trkpt lat="43.77266" lon="6.94457">
        <ele>943</ele>
        <time>2018-01-02T13:46:00.552Z</time>
      </trkpt>
      <trkpt lat="43.77274" lon="6.94456">
        <ele>943</ele>
        <time>2018-01-02T13:46:02.552Z</time>
      </trkpt>
      <trkpt lat="43.7728" lon="6.94453">
        <ele>943</ele>
        <time>2018-01-02T13:46:04.552Z</time>
      </trkpt>
      <trkpt lat="43.77284" lon="6.94458">
        <ele>942</ele>
        <time>2018-01-02T13:46:07.552Z</time>
      </trkpt>
      <trkpt lat="43.77285" lon="6.94466">
        <ele>942</ele>
        <time>2018-01-02T13:46:09.552Z</time>
      </trkpt>
      <trkpt lat="43.77285" lon="6.94474">
        <ele>941</ele>
        <time>2018-01-02T13:46:11.552Z</time>
      </trkpt>
      <trkpt lat="43.77284" lon="6.94484">
        <ele>941</ele>
        <time>2018-01-02T13:46:15.552Z</time>
      </trkpt>
      <trkpt lat="43.77284" lon="6.94489">
        <ele>941</ele>
        <time>2018-01-02T13:46:17.552Z</time>
      </trkpt>
      <trkpt lat="43.77281" lon="6.94494">
        <ele>941</ele>
        <time>2018-01-02T13:46:20.552Z</time>
      </trkpt>
      <trkpt lat="43.77279" lon="6.94499">
        <ele>941</ele>
        <time>2018-01-02T13:46:23.552Z</time>
      </trkpt>
      <trkpt lat="43.77283" lon="6.94501">
        <ele>932</ele>
        <time>2018-01-02T13:46:26.552Z</time>
      </trkpt>
      <trkpt lat="43.77289" lon="6.94505">
        <ele>931</ele>
        <time>2018-01-02T13:46:29.552Z</time>
      </trkpt>
      <trkpt lat="43.77292" lon="6.94509">
        <ele>931</ele>
        <time>2018-01-02T13:46:31.552Z</time>
      </trkpt>
      <trkpt lat="43.77296" lon="6.94512">
        <ele>930</ele>
        <time>2018-01-02T13:46:33.552Z</time>
      </trkpt>
      <trkpt lat="43.773" lon="6.94516">
        <ele>930</ele>
        <time>2018-01-02T13:46:35.552Z</time>
      </trkpt>
      <trkpt lat="43.77311" lon="6.94519">
        <ele>929</ele>
        <time>2018-01-02T13:46:40.552Z</time>
      </trkpt>
      <trkpt lat="43.77321" lon="6.94523">
        <ele>929</ele>
        <time>2018-01-02T13:46:43.552Z</time>
      </trkpt>
      <trkpt lat="43.77333" lon="6.94523">
        <ele>929</ele>
        <time>2018-01-02T13:46:47.552Z</time>
      </trkpt>
      <trkpt lat="43.77344" lon="6.94521">
        <ele>921</ele>
        <time>2018-01-02T13:46:51.552Z</time>
      </trkpt>
      <trkpt lat="43.77353" lon="6.94515">
        <ele>921</ele>
        <time>2018-01-02T13:46:55.552Z</time>
      </trkpt>
      <trkpt lat="43.77363" lon="6.94511">
        <ele>919</ele>
        <time>2018-01-02T13:46:59.552Z</time>
      </trkpt>
      <trkpt lat="43.77372" lon="6.94507">
        <ele>917</ele>
        <time>2018-01-02T13:47:03.552Z</time>
      </trkpt>
      <trkpt lat="43.77383" lon="6.94498">
        <ele>924</ele>
        <time>2018-01-02T13:47:08.552Z</time>
      </trkpt>
      <trkpt lat="43.77392" lon="6.94495">
        <ele>922</ele>
        <time>2018-01-02T13:47:13.552Z</time>
      </trkpt>
      <trkpt lat="43.7739" lon="6.94505">
        <ele>914</ele>
        <time>2018-01-02T13:47:17.552Z</time>
      </trkpt>
      <trkpt lat="43.77389" lon="6.94514">
        <ele>914</ele>
        <time>2018-01-02T13:47:20.552Z</time>
      </trkpt>
      <trkpt lat="43.77397" lon="6.94522">
        <ele>913</ele>
        <time>2018-01-02T13:47:27.552Z</time>
      </trkpt>
      <trkpt lat="43.77405" lon="6.94529">
        <ele>912</ele>
        <time>2018-01-02T13:47:32.552Z</time>
      </trkpt>
      <trkpt lat="43.774" lon="6.94541">
        <ele>911</ele>
        <time>2018-01-02T13:47:36.552Z</time>
      </trkpt>
      <trkpt lat="43.77394" lon="6.94553">
        <ele>910</ele>
        <time>2018-01-02T13:47:41.552Z</time>
      </trkpt>
      <trkpt lat="43.77405" lon="6.94554">
        <ele>908</ele>
        <time>2018-01-02T13:47:48.552Z</time>
      </trkpt>
      <trkpt lat="43.77416" lon="6.94558">
        <ele>906</ele>
        <time>2018-01-02T13:47:54.552Z</time>
      </trkpt>
      <trkpt lat="43.77428" lon="6.94558">
        <ele>896</ele>
        <time>2018-01-02T13:47:59.552Z</time>
      </trkpt>
      <trkpt lat="43.77439" lon="6.94554">
        <ele>896</ele>
        <time>2018-01-02T13:48:04.552Z</time>
      </trkpt>
      <trkpt lat="43.77449" lon="6.9455">
        <ele>896</ele>
        <time>2018-01-02T13:48:09.552Z</time>
      </trkpt>
      <trkpt lat="43.7746" lon="6.94546">
        <ele>895</ele>
        <time>2018-01-02T13:48:14.552Z</time>
      </trkpt>
      <trkpt lat="43.77469" lon="6.94538">
        <ele>895</ele>
        <time>2018-01-02T13:48:19.552Z</time>
      </trkpt>
      <trkpt lat="43.77479" lon="6.9454">
        <ele>894</ele>
        <time>2018-01-02T13:48:25.552Z</time>
      </trkpt>
      <trkpt lat="43.77491" lon="6.94535">
        <ele>894</ele>
        <time>2018-01-02T13:48:37.552Z</time>
      </trkpt>
      <trkpt lat="43.77499" lon="6.94532">
        <ele>895</ele>
        <time>2018-01-02T13:48:41.552Z</time>
      </trkpt>
      <trkpt lat="43.77505" lon="6.94537">
        <ele>887</ele>
        <time>2018-01-02T13:48:45.552Z</time>
      </trkpt>
      <trkpt lat="43.77511" lon="6.94541">
        <ele>886</ele>
        <time>2018-01-02T13:48:50.552Z</time>
      </trkpt>
      <trkpt lat="43.77512" lon="6.94548">
        <ele>884</ele>
        <time>2018-01-02T13:48:54.552Z</time>
      </trkpt>
      <trkpt lat="43.77516" lon="6.94553">
        <ele>883</ele>
        <time>2018-01-02T13:48:58.552Z</time>
      </trkpt>
      <trkpt lat="43.77522" lon="6.94556">
        <ele>883</ele>
        <time>2018-01-02T13:49:14.552Z</time>
      </trkpt>
      <trkpt lat="43.77526" lon="6.94561">
        <ele>882</ele>
        <time>2018-01-02T13:49:18.552Z</time>
      </trkpt>
      <trkpt lat="43.77532" lon="6.94566">
        <ele>882</ele>
        <time>2018-01-02T13:49:21.552Z</time>
      </trkpt>
      <trkpt lat="43.77538" lon="6.9457">
        <ele>881</ele>
        <time>2018-01-02T13:49:24.552Z</time>
      </trkpt>
      <trkpt lat="43.77544" lon="6.94574">
        <ele>881</ele>
        <time>2018-01-02T13:49:27.552Z</time>
      </trkpt>
      <trkpt lat="43.77549" lon="6.94579">
        <ele>880</ele>
        <time>2018-01-02T13:49:30.552Z</time>
      </trkpt>
      <trkpt lat="43.77554" lon="6.94584">
        <ele>869</ele>
        <time>2018-01-02T13:49:33.552Z</time>
      </trkpt>
      <trkpt lat="43.77559" lon="6.9459">
        <ele>868</ele>
        <time>2018-01-02T13:49:36.552Z</time>
      </trkpt>
      <trkpt lat="43.77563" lon="6.94603">
        <ele>868</ele>
        <time>2018-01-02T13:49:41.552Z</time>
      </trkpt>
      <trkpt lat="43.77569" lon="6.94614">
        <ele>867</ele>
        <time>2018-01-02T13:49:46.552Z</time>
      </trkpt>
      <trkpt lat="43.77576" lon="6.94623">
        <ele>866</ele>
        <time>2018-01-02T13:49:51.552Z</time>
      </trkpt>
      <trkpt lat="43.77585" lon="6.94632">
        <ele>866</ele>
        <time>2018-01-02T13:49:56.552Z</time>
      </trkpt>
      <trkpt lat="43.77592" lon="6.94641">
        <ele>865</ele>
        <time>2018-01-02T13:50:00.552Z</time>
      </trkpt>
      <trkpt lat="43.77602" lon="6.94646">
        <ele>865</ele>
        <time>2018-01-02T13:50:04.552Z</time>
      </trkpt>
      <trkpt lat="43.77605" lon="6.94661">
        <ele>864</ele>
        <time>2018-01-02T13:50:08.552Z</time>
      </trkpt>
      <trkpt lat="43.77605" lon="6.94673">
        <ele>859</ele>
        <time>2018-01-02T13:50:12.552Z</time>
      </trkpt>
      <trkpt lat="43.77613" lon="6.94683">
        <ele>859</ele>
        <time>2018-01-02T13:50:16.552Z</time>
      </trkpt>
      <trkpt lat="43.77619" lon="6.94696">
        <ele>859</ele>
        <time>2018-01-02T13:50:20.552Z</time>
      </trkpt>
      <trkpt lat="43.77621" lon="6.94701">
        <ele>859</ele>
        <time>2018-01-02T13:51:10.552Z</time>
      </trkpt>
      <trkpt lat="43.77624" lon="6.94706">
        <ele>859</ele>
        <time>2018-01-02T13:51:32.552Z</time>
      </trkpt>
      <trkpt lat="43.77627" lon="6.94711">
        <ele>859</ele>
        <time>2018-01-02T13:51:34.552Z</time>
      </trkpt>
      <trkpt lat="43.77632" lon="6.94718">
        <ele>859</ele>
        <time>2018-01-02T13:51:37.552Z</time>
      </trkpt>
      <trkpt lat="43.77638" lon="6.94728">
        <ele>858</ele>
        <time>2018-01-02T13:51:41.552Z</time>
      </trkpt>
      <trkpt lat="43.77642" lon="6.94734">
        <ele>858</ele>
        <time>2018-01-02T13:51:43.552Z</time>
      </trkpt>
      <trkpt lat="43.77646" lon="6.94741">
        <ele>858</ele>
        <time>2018-01-02T13:51:45.552Z</time>
      </trkpt>
      <trkpt lat="43.77648" lon="6.94744">
        <ele>858</ele>
        <time>2018-01-02T13:51:46.552Z</time>
      </trkpt>
      <trkpt lat="43.77654" lon="6.9475">
        <ele>858</ele>
        <time>2018-01-02T13:51:48.552Z</time>
      </trkpt>
      <trkpt lat="43.7766" lon="6.94756">
        <ele>855</ele>
        <time>2018-01-02T13:51:50.552Z</time>
      </trkpt>
      <trkpt lat="43.77666" lon="6.94763">
        <ele>854</ele>
        <time>2018-01-02T13:51:52.552Z</time>
      </trkpt>
      <trkpt lat="43.77672" lon="6.94773">
        <ele>860</ele>
        <time>2018-01-02T13:51:54.552Z</time>
      </trkpt>
      <trkpt lat="43.77675" lon="6.94779">
        <ele>860</ele>
        <time>2018-01-02T13:51:55.552Z</time>
      </trkpt>
      <trkpt lat="43.77677" lon="6.94784">
        <ele>860</ele>
        <time>2018-01-02T13:51:56.552Z</time>
      </trkpt>
      <trkpt lat="43.7768" lon="6.94789">
        <ele>860</ele>
        <time>2018-01-02T13:51:57.552Z</time>
      </trkpt>
      <trkpt lat="43.77683" lon="6.94795">
        <ele>860</ele>
        <time>2018-01-02T13:51:58.552Z</time>
      </trkpt>
      <trkpt lat="43.77685" lon="6.948">
        <ele>860</ele>
        <time>2018-01-02T13:51:59.552Z</time>
      </trkpt>
      <trkpt lat="43.77688" lon="6.94806">
        <ele>859</ele>
        <time>2018-01-02T13:52:00.552Z</time>
      </trkpt>
      <trkpt lat="43.77691" lon="6.94812">
        <ele>859</ele>
        <time>2018-01-02T13:52:01.552Z</time>
      </trkpt>
      <trkpt lat="43.77693" lon="6.94818">
        <ele>859</ele>
        <time>2018-01-02T13:52:02.552Z</time>
      </trkpt>
      <trkpt lat="43.77696" lon="6.94824">
        <ele>859</ele>
        <time>2018-01-02T13:52:03.552Z</time>
      </trkpt>
      <trkpt lat="43.77699" lon="6.94831">
        <ele>859</ele>
        <time>2018-01-02T13:52:04.552Z</time>
      </trkpt>
      <trkpt lat="43.77702" lon="6.94837">
        <ele>852</ele>
        <time>2018-01-02T13:52:05.552Z</time>
      </trkpt>
      <trkpt lat="43.77705" lon="6.94844">
        <ele>852</ele>
        <time>2018-01-02T13:52:06.552Z</time>
      </trkpt>
      <trkpt lat="43.77708" lon="6.94851">
        <ele>852</ele>
        <time>2018-01-02T13:52:07.552Z</time>
      </trkpt>
      <trkpt lat="43.77711" lon="6.94858">
        <ele>852</ele>
        <time>2018-01-02T13:52:08.552Z</time>
      </trkpt>
      <trkpt lat="43.77714" lon="6.94864">
        <ele>851</ele>
        <time>2018-01-02T13:52:09.552Z</time>
      </trkpt>
      <trkpt lat="43.77717" lon="6.94871">
        <ele>851</ele>
        <time>2018-01-02T13:52:10.552Z</time>
      </trkpt>
      <trkpt lat="43.77721" lon="6.94877">
        <ele>850</ele>
        <time>2018-01-02T13:52:11.552Z</time>
      </trkpt>
      <trkpt lat="43.77724" lon="6.94883">
        <ele>850</ele>
        <time>2018-01-02T13:52:12.552Z</time>
      </trkpt>
      <trkpt lat="43.77731" lon="6.94892">
        <ele>849</ele>
        <time>2018-01-02T13:52:14.552Z</time>
      </trkpt>
      <trkpt lat="43.77739" lon="6.94898">
        <ele>848</ele>
        <time>2018-01-02T13:52:16.552Z</time>
      </trkpt>
      <trkpt lat="43.77747" lon="6.94902">
        <ele>847</ele>
        <time>2018-01-02T13:52:18.552Z</time>
      </trkpt>
      <trkpt lat="43.77755" lon="6.94906">
        <ele>849</ele>
        <time>2018-01-02T13:52:20.552Z</time>
      </trkpt>
      <trkpt lat="43.77768" lon="6.94911">
        <ele>851</ele>
        <time>2018-01-02T13:52:23.552Z</time>
      </trkpt>
      <trkpt lat="43.77783" lon="6.94909">
        <ele>853</ele>
        <time>2018-01-02T13:52:26.552Z</time>
      </trkpt>
      <trkpt lat="43.77794" lon="6.94908">
        <ele>853</ele>
        <time>2018-01-02T13:52:28.552Z</time>
      </trkpt>
      <trkpt lat="43.77806" lon="6.94909">
        <ele>853</ele>
        <time>2018-01-02T13:52:30.552Z</time>
      </trkpt>
      <trkpt lat="43.77817" lon="6.94914">
        <ele>851</ele>
        <time>2018-01-02T13:52:32.552Z</time>
      </trkpt>
      <trkpt lat="43.7783" lon="6.94922">
        <ele>844</ele>
        <time>2018-01-02T13:52:34.552Z</time>
      </trkpt>
      <trkpt lat="43.77841" lon="6.94931">
        <ele>844</ele>
        <time>2018-01-02T13:52:36.552Z</time>
      </trkpt>
      <trkpt lat="43.77851" lon="6.94943">
        <ele>843</ele>
        <time>2018-01-02T13:52:38.552Z</time>
      </trkpt>
      <trkpt lat="43.77859" lon="6.94957">
        <ele>842</ele>
        <time>2018-01-02T13:52:40.552Z</time>
      </trkpt>
      <trkpt lat="43.77868" lon="6.9497">
        <ele>841</ele>
        <time>2018-01-02T13:52:42.552Z</time>
      </trkpt>
      <trkpt lat="43.77876" lon="6.94983">
        <ele>840</ele>
        <time>2018-01-02T13:52:44.552Z</time>
      </trkpt>
      <trkpt lat="43.77884" lon="6.94996">
        <ele>840</ele>
        <time>2018-01-02T13:52:46.552Z</time>
      </trkpt>
      <trkpt lat="43.7789" lon="6.95008">
        <ele>831</ele>
        <time>2018-01-02T13:52:48.552Z</time>
      </trkpt>
      <trkpt lat="43.77899" lon="6.95022">
        <ele>831</ele>
        <time>2018-01-02T13:52:51.552Z</time>
      </trkpt>
      <trkpt lat="43.77909" lon="6.95034">
        <ele>830</ele>
        <time>2018-01-02T13:52:54.552Z</time>
      </trkpt>
      <trkpt lat="43.77913" lon="6.95049">
        <ele>828</ele>
        <time>2018-01-02T13:52:57.552Z</time>
      </trkpt>
      <trkpt lat="43.77902" lon="6.95058">
        <ele>827</ele>
        <time>2018-01-02T13:53:01.552Z</time>
      </trkpt>
      <trkpt lat="43.77907" lon="6.95071">
        <ele>826</ele>
        <time>2018-01-02T13:53:07.552Z</time>
      </trkpt>
      <trkpt lat="43.77916" lon="6.95074">
        <ele>825</ele>
        <time>2018-01-02T13:53:11.552Z</time>
      </trkpt>
      <trkpt lat="43.77905" lon="6.95078">
        <ele>826</ele>
        <time>2018-01-02T13:53:20.552Z</time>
      </trkpt>
      <trkpt lat="43.77893" lon="6.95077">
        <ele>826</ele>
        <time>2018-01-02T13:53:24.552Z</time>
      </trkpt>
      <trkpt lat="43.77885" lon="6.95075">
        <ele>826</ele>
        <time>2018-01-02T13:53:26.552Z</time>
      </trkpt>
      <trkpt lat="43.77876" lon="6.95074">
        <ele>826</ele>
        <time>2018-01-02T13:53:28.552Z</time>
      </trkpt>
      <trkpt lat="43.77866" lon="6.95073">
        <ele>825</ele>
        <time>2018-01-02T13:53:30.552Z</time>
      </trkpt>
      <trkpt lat="43.77858" lon="6.95074">
        <ele>825</ele>
        <time>2018-01-02T13:53:32.552Z</time>
      </trkpt>
      <trkpt lat="43.77845" lon="6.95081">
        <ele>823</ele>
        <time>2018-01-02T13:53:35.552Z</time>
      </trkpt>
      <trkpt lat="43.77836" lon="6.95086">
        <ele>820</ele>
        <time>2018-01-02T13:53:37.552Z</time>
      </trkpt>
      <trkpt lat="43.77824" lon="6.95089">
        <ele>820</ele>
        <time>2018-01-02T13:53:39.552Z</time>
      </trkpt>
      <trkpt lat="43.77804" lon="6.95091">
        <ele>819</ele>
        <time>2018-01-02T13:53:43.552Z</time>
      </trkpt>
      <trkpt lat="43.77791" lon="6.95094">
        <ele>819</ele>
        <time>2018-01-02T13:53:46.552Z</time>
      </trkpt>
      <trkpt lat="43.77781" lon="6.95096">
        <ele>819</ele>
        <time>2018-01-02T13:53:49.552Z</time>
      </trkpt>
      <trkpt lat="43.77769" lon="6.95099">
        <ele>819</ele>
        <time>2018-01-02T13:53:53.552Z</time>
      </trkpt>
      <trkpt lat="43.77759" lon="6.95101">
        <ele>819</ele>
        <time>2018-01-02T13:53:58.552Z</time>
      </trkpt>
      <trkpt lat="43.77753" lon="6.95099">
        <ele>819</ele>
        <time>2018-01-02T13:54:01.552Z</time>
      </trkpt>
      <trkpt lat="43.77747" lon="6.95098">
        <ele>818</ele>
        <time>2018-01-02T13:54:05.552Z</time>
      </trkpt>
      <trkpt lat="43.77741" lon="6.95096">
        <ele>818</ele>
        <time>2018-01-02T13:54:08.552Z</time>
      </trkpt>
      <trkpt lat="43.77732" lon="6.95094">
        <ele>818</ele>
        <time>2018-01-02T13:54:14.552Z</time>
      </trkpt>
      <trkpt lat="43.77723" lon="6.95092">
        <ele>818</ele>
        <time>2018-01-02T13:54:19.552Z</time>
      </trkpt>
      <trkpt lat="43.77713" lon="6.95089">
        <ele>818</ele>
        <time>2018-01-02T13:54:25.552Z</time>
      </trkpt>
      <trkpt lat="43.77705" lon="6.95087">
        <ele>818</ele>
        <time>2018-01-02T13:54:30.552Z</time>
      </trkpt>
      <trkpt lat="43.77697" lon="6.95084">
        <ele>818</ele>
        <time>2018-01-02T13:54:35.552Z</time>
      </trkpt>
      <trkpt lat="43.7769" lon="6.9508">
        <ele>823</ele>
        <time>2018-01-02T13:54:41.552Z</time>
      </trkpt>
      <trkpt lat="43.77683" lon="6.95077">
        <ele>823</ele>
        <time>2018-01-02T13:54:46.552Z</time>
      </trkpt>
      <trkpt lat="43.77675" lon="6.95076">
        <ele>823</ele>
        <time>2018-01-02T13:54:52.552Z</time>
      </trkpt>
      <trkpt lat="43.77671" lon="6.95075">
        <ele>822</ele>
        <time>2018-01-02T13:54:59.552Z</time>
      </trkpt>
      <trkpt lat="43.77664" lon="6.9508">
        <ele>823</ele>
        <time>2018-01-02T13:55:11.552Z</time>
      </trkpt>
      <trkpt lat="43.77657" lon="6.95082">
        <ele>825</ele>
        <time>2018-01-02T13:55:23.552Z</time>
      </trkpt>
      <trkpt lat="43.7765" lon="6.95072">
        <ele>828</ele>
        <time>2018-01-02T13:55:36.552Z</time>
      </trkpt>
      <trkpt lat="43.77648" lon="6.95062">
        <ele>830</ele>
        <time>2018-01-02T13:55:43.552Z</time>
      </trkpt>
      <trkpt lat="43.77644" lon="6.95053">
        <ele>831</ele>
        <time>2018-01-02T13:55:52.552Z</time>
      </trkpt>
      <trkpt lat="43.77636" lon="6.95043">
        <ele>832</ele>
        <time>2018-01-02T13:55:56.552Z</time>
      </trkpt>
      <trkpt lat="43.77628" lon="6.95029">
        <ele>834</ele>
        <time>2018-01-02T13:56:01.552Z</time>
      </trkpt>
      <trkpt lat="43.77622" lon="6.95016">
        <ele>834</ele>
        <time>2018-01-02T13:56:05.552Z</time>
      </trkpt>
      <trkpt lat="43.77618" lon="6.95003">
        <ele>835</ele>
        <time>2018-01-02T13:56:09.552Z</time>
      </trkpt>
      <trkpt lat="43.77611" lon="6.9499">
        <ele>838</ele>
        <time>2018-01-02T13:56:15.552Z</time>
      </trkpt>
      <trkpt lat="43.77605" lon="6.94978">
        <ele>838</ele>
        <time>2018-01-02T13:56:21.552Z</time>
      </trkpt>
      <trkpt lat="43.776" lon="6.94965">
        <ele>839</ele>
        <time>2018-01-02T13:56:28.552Z</time>
      </trkpt>
      <trkpt lat="43.77595" lon="6.94956">
        <ele>839</ele>
        <time>2018-01-02T13:56:34.552Z</time>
      </trkpt>
      <trkpt lat="43.77586" lon="6.94947">
        <ele>839</ele>
        <time>2018-01-02T13:56:42.552Z</time>
      </trkpt>
      <trkpt lat="43.77578" lon="6.94942">
        <ele>841</ele>
        <time>2018-01-02T13:56:49.552Z</time>
      </trkpt>
      <trkpt lat="43.77571" lon="6.94938">
        <ele>841</ele>
        <time>2018-01-02T13:56:55.552Z</time>
      </trkpt>
      <trkpt lat="43.77564" lon="6.94935">
        <ele>841</ele>
        <time>2018-01-02T13:57:05.552Z</time>
      </trkpt>
      <trkpt lat="43.77556" lon="6.94934">
        <ele>842</ele>
        <time>2018-01-02T13:57:18.552Z</time>
      </trkpt>
      <trkpt lat="43.77548" lon="6.94938">
        <ele>842</ele>
        <time>2018-01-02T13:57:34.552Z</time>
      </trkpt>
      <trkpt lat="43.77542" lon="6.94945">
        <ele>842</ele>
        <time>2018-01-02T13:57:45.552Z</time>
      </trkpt>
      <trkpt lat="43.77535" lon="6.94951">
        <ele>842</ele>
        <time>2018-01-02T13:57:55.552Z</time>
      </trkpt>
      <trkpt lat="43.77528" lon="6.94956">
        <ele>843</ele>
        <time>2018-01-02T13:58:03.552Z</time>
      </trkpt>
      <trkpt lat="43.77521" lon="6.94959">
        <ele>843</ele>
        <time>2018-01-02T13:58:18.552Z</time>
      </trkpt>
      <trkpt lat="43.77514" lon="6.94962">
        <ele>843</ele>
        <time>2018-01-02T13:58:26.552Z</time>
      </trkpt>
      <trkpt lat="43.77504" lon="6.94968">
        <ele>844</ele>
        <time>2018-01-02T13:58:35.552Z</time>
      </trkpt>
      <trkpt lat="43.77495" lon="6.94971">
        <ele>849</ele>
        <time>2018-01-02T13:58:43.552Z</time>
      </trkpt>
      <trkpt lat="43.77486" lon="6.94975">
        <ele>849</ele>
        <time>2018-01-02T13:58:55.552Z</time>
      </trkpt>
      <trkpt lat="43.7748" lon="6.9498">
        <ele>849</ele>
        <time>2018-01-02T13:59:03.552Z</time>
      </trkpt>
      <trkpt lat="43.77474" lon="6.94981">
        <ele>850</ele>
        <time>2018-01-02T13:59:12.552Z</time>
      </trkpt>
      <trkpt lat="43.77467" lon="6.94982">
        <ele>850</ele>
        <time>2018-01-02T13:59:18.552Z</time>
      </trkpt>
      <trkpt lat="43.77457" lon="6.94984">
        <ele>851</ele>
        <time>2018-01-02T13:59:28.552Z</time>
      </trkpt>
      <trkpt lat="43.77451" lon="6.94986">
        <ele>851</ele>
        <time>2018-01-02T13:59:34.552Z</time>
      </trkpt>
      <trkpt lat="43.77445" lon="6.94989">
        <ele>851</ele>
        <time>2018-01-02T13:59:39.552Z</time>
      </trkpt>
      <trkpt lat="43.77439" lon="6.94993">
        <ele>852</ele>
        <time>2018-01-02T13:59:45.552Z</time>
      </trkpt>
      <trkpt lat="43.77433" lon="6.94995">
        <ele>852</ele>
        <time>2018-01-02T13:59:52.552Z</time>
      </trkpt>
      <trkpt lat="43.77425" lon="6.94999">
        <ele>853</ele>
        <time>2018-01-02T14:00:08.552Z</time>
      </trkpt>
      <trkpt lat="43.77416" lon="6.95008">
        <ele>855</ele>
        <time>2018-01-02T14:00:14.552Z</time>
      </trkpt>
      <trkpt lat="43.77409" lon="6.95016">
        <ele>856</ele>
        <time>2018-01-02T14:00:19.552Z</time>
      </trkpt>
      <trkpt lat="43.77402" lon="6.95023">
        <ele>856</ele>
        <time>2018-01-02T14:00:23.552Z</time>
      </trkpt>
      <trkpt lat="43.77396" lon="6.95031">
        <ele>856</ele>
        <time>2018-01-02T14:00:27.552Z</time>
      </trkpt>
      <trkpt lat="43.77387" lon="6.95037">
        <ele>857</ele>
        <time>2018-01-02T14:00:32.552Z</time>
      </trkpt>
      <trkpt lat="43.77379" lon="6.95043">
        <ele>857</ele>
        <time>2018-01-02T14:00:37.552Z</time>
      </trkpt>
      <trkpt lat="43.77371" lon="6.95047">
        <ele>857</ele>
        <time>2018-01-02T14:00:42.552Z</time>
      </trkpt>
      <trkpt lat="43.77364" lon="6.9505">
        <ele>857</ele>
        <time>2018-01-02T14:00:46.552Z</time>
      </trkpt>
      <trkpt lat="43.77356" lon="6.95052">
        <ele>857</ele>
        <time>2018-01-02T14:00:51.552Z</time>
      </trkpt>
      <trkpt lat="43.77349" lon="6.95055">
        <ele>857</ele>
        <time>2018-01-02T14:00:55.552Z</time>
      </trkpt>
      <trkpt lat="43.77341" lon="6.95058">
        <ele>857</ele>
        <time>2018-01-02T14:01:00.552Z</time>
      </trkpt>
      <trkpt lat="43.77333" lon="6.95061">
        <ele>858</ele>
        <time>2018-01-02T14:01:05.552Z</time>
      </trkpt>
      <trkpt lat="43.77323" lon="6.95064">
        <ele>858</ele>
        <time>2018-01-02T14:01:10.552Z</time>
      </trkpt>
      <trkpt lat="43.77315" lon="6.95062">
        <ele>858</ele>
        <time>2018-01-02T14:01:14.552Z</time>
      </trkpt>
      <trkpt lat="43.77307" lon="6.95058">
        <ele>858</ele>
        <time>2018-01-02T14:01:18.552Z</time>
      </trkpt>
      <trkpt lat="43.77301" lon="6.95056">
        <ele>858</ele>
        <time>2018-01-02T14:01:21.552Z</time>
      </trkpt>
      <trkpt lat="43.77295" lon="6.95054">
        <ele>858</ele>
        <time>2018-01-02T14:01:24.552Z</time>
      </trkpt>
      <trkpt lat="43.77289" lon="6.95051">
        <ele>858</ele>
        <time>2018-01-02T14:01:27.552Z</time>
      </trkpt>
      <trkpt lat="43.77284" lon="6.95049">
        <ele>858</ele>
        <time>2018-01-02T14:01:30.552Z</time>
      </trkpt>
      <trkpt lat="43.77276" lon="6.95048">
        <ele>858</ele>
        <time>2018-01-02T14:01:34.552Z</time>
      </trkpt>
      <trkpt lat="43.77272" lon="6.95046">
        <ele>858</ele>
        <time>2018-01-02T14:01:36.552Z</time>
      </trkpt>
      <trkpt lat="43.77266" lon="6.95044">
        <ele>858</ele>
        <time>2018-01-02T14:01:39.552Z</time>
      </trkpt>
      <trkpt lat="43.77262" lon="6.95044">
        <ele>858</ele>
        <time>2018-01-02T14:01:41.552Z</time>
      </trkpt>
      <trkpt lat="43.77257" lon="6.95042">
        <ele>858</ele>
        <time>2018-01-02T14:01:43.552Z</time>
      </trkpt>
      <trkpt lat="43.77254" lon="6.95039">
        <ele>858</ele>
        <time>2018-01-02T14:01:45.552Z</time>
      </trkpt>
      <trkpt lat="43.7725" lon="6.95037">
        <ele>859</ele>
        <time>2018-01-02T14:01:47.552Z</time>
      </trkpt>
      <trkpt lat="43.77246" lon="6.95035">
        <ele>859</ele>
        <time>2018-01-02T14:01:49.552Z</time>
      </trkpt>
      <trkpt lat="43.77241" lon="6.95033">
        <ele>859</ele>
        <time>2018-01-02T14:01:51.552Z</time>
      </trkpt>
      <trkpt lat="43.77237" lon="6.95031">
        <ele>859</ele>
        <time>2018-01-02T14:01:53.552Z</time>
      </trkpt>
      <trkpt lat="43.77233" lon="6.95027">
        <ele>859</ele>
        <time>2018-01-02T14:01:55.552Z</time>
      </trkpt>
      <trkpt lat="43.77228" lon="6.95022">
        <ele>860</ele>
        <time>2018-01-02T14:01:58.552Z</time>
      </trkpt>
      <trkpt lat="43.77222" lon="6.95017">
        <ele>860</ele>
        <time>2018-01-02T14:02:01.552Z</time>
      </trkpt>
      <trkpt lat="43.77217" lon="6.95013">
        <ele>860</ele>
        <time>2018-01-02T14:02:03.552Z</time>
      </trkpt>
      <trkpt lat="43.77209" lon="6.95006">
        <ele>860</ele>
        <time>2018-01-02T14:02:07.552Z</time>
      </trkpt>
      <trkpt lat="43.77202" lon="6.95003">
        <ele>860</ele>
        <time>2018-01-02T14:02:10.552Z</time>
      </trkpt>
      <trkpt lat="43.77198" lon="6.95002">
        <ele>860</ele>
        <time>2018-01-02T14:02:12.552Z</time>
      </trkpt>
      <trkpt lat="43.77192" lon="6.95">
        <ele>866</ele>
        <time>2018-01-02T14:02:15.552Z</time>
      </trkpt>
      <trkpt lat="43.77183" lon="6.94997">
        <ele>865</ele>
        <time>2018-01-02T14:02:20.552Z</time>
      </trkpt>
      <trkpt lat="43.77179" lon="6.94995">
        <ele>864</ele>
        <time>2018-01-02T14:02:22.552Z</time>
      </trkpt>
      <trkpt lat="43.77176" lon="6.94993">
        <ele>864</ele>
        <time>2018-01-02T14:02:24.552Z</time>
      </trkpt>
      <trkpt lat="43.7717" lon="6.94993">
        <ele>863</ele>
        <time>2018-01-02T14:02:27.552Z</time>
      </trkpt>
      <trkpt lat="43.77164" lon="6.94993">
        <ele>864</ele>
        <time>2018-01-02T14:02:30.552Z</time>
      </trkpt>
      <trkpt lat="43.77158" lon="6.94995">
        <ele>865</ele>
        <time>2018-01-02T14:02:33.552Z</time>
      </trkpt>
      <trkpt lat="43.77153" lon="6.94995">
        <ele>866</ele>
        <time>2018-01-02T14:02:36.552Z</time>
      </trkpt>
      <trkpt lat="43.77148" lon="6.94996">
        <ele>867</ele>
        <time>2018-01-02T14:02:39.552Z</time>
      </trkpt>
      <trkpt lat="43.77143" lon="6.94997">
        <ele>868</ele>
        <time>2018-01-02T14:02:42.552Z</time>
      </trkpt>
      <trkpt lat="43.77139" lon="6.94996">
        <ele>869</ele>
        <time>2018-01-02T14:02:51.552Z</time>
      </trkpt>
      <trkpt lat="43.77134" lon="6.94995">
        <ele>869</ele>
        <time>2018-01-02T14:02:59.552Z</time>
      </trkpt>
      <trkpt lat="43.77122" lon="6.94994">
        <ele>871</ele>
        <time>2018-01-02T14:03:14.552Z</time>
      </trkpt>
      <trkpt lat="43.77118" lon="6.94991">
        <ele>871</ele>
        <time>2018-01-02T14:03:19.552Z</time>
      </trkpt>
      <trkpt lat="43.77113" lon="6.94991">
        <ele>871</ele>
        <time>2018-01-02T14:03:25.552Z</time>
      </trkpt>
      <trkpt lat="43.77103" lon="6.94994">
        <ele>872</ele>
        <time>2018-01-02T14:03:40.552Z</time>
      </trkpt>
      <trkpt lat="43.77099" lon="6.94999">
        <ele>872</ele>
        <time>2018-01-02T14:03:48.552Z</time>
      </trkpt>
      <trkpt lat="43.77094" lon="6.95006">
        <ele>871</ele>
        <time>2018-01-02T14:03:58.552Z</time>
      </trkpt>
      <trkpt lat="43.7709" lon="6.95011">
        <ele>871</ele>
        <time>2018-01-02T14:04:06.552Z</time>
      </trkpt>
      <trkpt lat="43.77086" lon="6.95015">
        <ele>870</ele>
        <time>2018-01-02T14:04:12.552Z</time>
      </trkpt>
      <trkpt lat="43.77082" lon="6.95017">
        <ele>875</ele>
        <time>2018-01-02T14:04:19.552Z</time>
      </trkpt>
      <trkpt lat="43.77073" lon="6.95024">
        <ele>875</ele>
        <time>2018-01-02T14:04:31.552Z</time>
      </trkpt>
      <trkpt lat="43.77069" lon="6.9503">
        <ele>875</ele>
        <time>2018-01-02T14:04:37.552Z</time>
      </trkpt>
      <trkpt lat="43.77063" lon="6.95036">
        <ele>875</ele>
        <time>2018-01-02T14:04:43.552Z</time>
      </trkpt>
      <trkpt lat="43.77059" lon="6.9504">
        <ele>876</ele>
        <time>2018-01-02T14:04:49.552Z</time>
      </trkpt>
      <trkpt lat="43.77054" lon="6.95045">
        <ele>876</ele>
        <time>2018-01-02T14:04:54.552Z</time>
      </trkpt>
      <trkpt lat="43.77049" lon="6.95049">
        <ele>876</ele>
        <time>2018-01-02T14:04:58.552Z</time>
      </trkpt>
      <trkpt lat="43.77044" lon="6.95053">
        <ele>876</ele>
        <time>2018-01-02T14:05:03.552Z</time>
      </trkpt>
      <trkpt lat="43.7704" lon="6.95058">
        <ele>876</ele>
        <time>2018-01-02T14:05:08.552Z</time>
      </trkpt>
      <trkpt lat="43.77032" lon="6.95064">
        <ele>876</ele>
        <time>2018-01-02T14:05:18.552Z</time>
      </trkpt>
      <trkpt lat="43.77027" lon="6.95069">
        <ele>876</ele>
        <time>2018-01-02T14:05:21.552Z</time>
      </trkpt>
      <trkpt lat="43.77021" lon="6.95074">
        <ele>877</ele>
        <time>2018-01-02T14:05:24.552Z</time>
      </trkpt>
      <trkpt lat="43.77017" lon="6.95078">
        <ele>877</ele>
        <time>2018-01-02T14:05:27.552Z</time>
      </trkpt>
      <trkpt lat="43.77012" lon="6.95082">
        <ele>877</ele>
        <time>2018-01-02T14:05:30.552Z</time>
      </trkpt>
      <trkpt lat="43.77006" lon="6.95086">
        <ele>877</ele>
        <time>2018-01-02T14:06:47.552Z</time>
      </trkpt>
      <trkpt lat="43.77001" lon="6.95093">
        <ele>876</ele>
        <time>2018-01-02T14:06:52.552Z</time>
      </trkpt>
      <trkpt lat="43.76997" lon="6.95097">
        <ele>876</ele>
        <time>2018-01-02T14:06:55.552Z</time>
      </trkpt>
      <trkpt lat="43.76991" lon="6.95102">
        <ele>876</ele>
        <time>2018-01-02T14:06:59.552Z</time>
      </trkpt>
      <trkpt lat="43.76985" lon="6.95105">
        <ele>876</ele>
        <time>2018-01-02T14:07:02.552Z</time>
      </trkpt>
      <trkpt lat="43.76978" lon="6.95099">
        <ele>876</ele>
        <time>2018-01-02T14:07:06.552Z</time>
      </trkpt>
      <trkpt lat="43.7697" lon="6.95096">
        <ele>876</ele>
        <time>2018-01-02T14:07:10.552Z</time>
      </trkpt>
      <trkpt lat="43.76964" lon="6.95099">
        <ele>876</ele>
        <time>2018-01-02T14:07:13.552Z</time>
      </trkpt>
      <trkpt lat="43.76954" lon="6.95103">
        <ele>875</ele>
        <time>2018-01-02T14:07:17.552Z</time>
      </trkpt>
      <trkpt lat="43.76945" lon="6.95106">
        <ele>875</ele>
        <time>2018-01-02T14:07:21.552Z</time>
      </trkpt>
      <trkpt lat="43.76937" lon="6.95108">
        <ele>875</ele>
        <time>2018-01-02T14:07:24.552Z</time>
      </trkpt>
      <trkpt lat="43.76929" lon="6.95114">
        <ele>875</ele>
        <time>2018-01-02T14:07:27.552Z</time>
      </trkpt>
      <trkpt lat="43.7692" lon="6.95119">
        <ele>875</ele>
        <time>2018-01-02T14:07:30.552Z</time>
      </trkpt>
      <trkpt lat="43.76911" lon="6.95124">
        <ele>875</ele>
        <time>2018-01-02T14:07:33.552Z</time>
      </trkpt>
      <trkpt lat="43.76904" lon="6.95129">
        <ele>875</ele>
        <time>2018-01-02T14:07:35.552Z</time>
      </trkpt>
      <trkpt lat="43.76895" lon="6.95136">
        <ele>875</ele>
        <time>2018-01-02T14:07:38.552Z</time>
      </trkpt>
      <trkpt lat="43.76888" lon="6.95143">
        <ele>874</ele>
        <time>2018-01-02T14:07:41.552Z</time>
      </trkpt>
      <trkpt lat="43.76878" lon="6.95151">
        <ele>874</ele>
        <time>2018-01-02T14:07:45.552Z</time>
      </trkpt>
      <trkpt lat="43.76868" lon="6.95158">
        <ele>874</ele>
        <time>2018-01-02T14:07:49.552Z</time>
      </trkpt>
      <trkpt lat="43.76861" lon="6.95162">
        <ele>873</ele>
        <time>2018-01-02T14:07:51.552Z</time>
      </trkpt>
      <trkpt lat="43.76853" lon="6.95166">
        <ele>873</ele>
        <time>2018-01-02T14:07:53.552Z</time>
      </trkpt>
      <trkpt lat="43.76847" lon="6.95173">
        <ele>868</ele>
        <time>2018-01-02T14:07:55.552Z</time>
      </trkpt>
      <trkpt lat="43.7684" lon="6.9518">
        <ele>868</ele>
        <time>2018-01-02T14:07:57.552Z</time>
      </trkpt>
      <trkpt lat="43.76833" lon="6.95186">
        <ele>869</ele>
        <time>2018-01-02T14:07:59.552Z</time>
      </trkpt>
      <trkpt lat="43.76825" lon="6.95195">
        <ele>869</ele>
        <time>2018-01-02T14:08:03.552Z</time>
      </trkpt>
      <trkpt lat="43.76816" lon="6.95201">
        <ele>869</ele>
        <time>2018-01-02T14:08:08.552Z</time>
      </trkpt>
      <trkpt lat="43.7681" lon="6.9521">
        <ele>869</ele>
        <time>2018-01-02T14:08:12.552Z</time>
      </trkpt>
      <trkpt lat="43.76806" lon="6.95216">
        <ele>869</ele>
        <time>2018-01-02T14:08:15.552Z</time>
      </trkpt>
      <trkpt lat="43.76802" lon="6.95222">
        <ele>869</ele>
        <time>2018-01-02T14:08:20.552Z</time>
      </trkpt>
      <trkpt lat="43.76795" lon="6.95227">
        <ele>869</ele>
        <time>2018-01-02T14:08:23.552Z</time>
      </trkpt>
      <trkpt lat="43.76788" lon="6.95229">
        <ele>869</ele>
        <time>2018-01-02T14:08:26.552Z</time>
      </trkpt>
      <trkpt lat="43.76781" lon="6.9523">
        <ele>869</ele>
        <time>2018-01-02T14:08:29.552Z</time>
      </trkpt>
      <trkpt lat="43.76777" lon="6.95232">
        <ele>869</ele>
        <time>2018-01-02T14:08:33.552Z</time>
      </trkpt>
      <trkpt lat="43.76771" lon="6.95237">
        <ele>868</ele>
        <time>2018-01-02T14:08:37.552Z</time>
      </trkpt>
      <trkpt lat="43.76766" lon="6.95243">
        <ele>868</ele>
        <time>2018-01-02T14:08:40.552Z</time>
      </trkpt>
      <trkpt lat="43.7676" lon="6.95249">
        <ele>867</ele>
        <time>2018-01-02T14:08:43.552Z</time>
      </trkpt>
      <trkpt lat="43.76755" lon="6.95255">
        <ele>865</ele>
        <time>2018-01-02T14:08:46.552Z</time>
      </trkpt>
      <trkpt lat="43.7675" lon="6.9526">
        <ele>867</ele>
        <time>2018-01-02T14:08:50.552Z</time>
      </trkpt>
      <trkpt lat="43.76744" lon="6.95264">
        <ele>867</ele>
        <time>2018-01-02T14:09:00.552Z</time>
      </trkpt>
      <trkpt lat="43.76738" lon="6.95268">
        <ele>867</ele>
        <time>2018-01-02T14:09:08.552Z</time>
      </trkpt>
      <trkpt lat="43.76728" lon="6.95272">
        <ele>868</ele>
        <time>2018-01-02T14:09:17.552Z</time>
      </trkpt>
      <trkpt lat="43.76721" lon="6.95275">
        <ele>868</ele>
        <time>2018-01-02T14:09:26.552Z</time>
      </trkpt>
      <trkpt lat="43.76713" lon="6.95274">
        <ele>868</ele>
        <time>2018-01-02T14:09:35.552Z</time>
      </trkpt>
      <trkpt lat="43.76704" lon="6.95276">
        <ele>869</ele>
        <time>2018-01-02T14:09:44.552Z</time>
      </trkpt>
      <trkpt lat="43.76696" lon="6.95277">
        <ele>870</ele>
        <time>2018-01-02T14:09:52.552Z</time>
      </trkpt>
      <trkpt lat="43.76689" lon="6.95276">
        <ele>870</ele>
        <time>2018-01-02T14:09:59.552Z</time>
      </trkpt>
      <trkpt lat="43.76682" lon="6.95277">
        <ele>871</ele>
        <time>2018-01-02T14:10:09.552Z</time>
      </trkpt>
      <trkpt lat="43.76676" lon="6.95277">
        <ele>871</ele>
        <time>2018-01-02T14:10:18.552Z</time>
      </trkpt>
      <trkpt lat="43.76669" lon="6.95276">
        <ele>872</ele>
        <time>2018-01-02T14:10:26.552Z</time>
      </trkpt>
      <trkpt lat="43.76663" lon="6.95276">
        <ele>879</ele>
        <time>2018-01-02T14:10:34.552Z</time>
      </trkpt>
      <trkpt lat="43.76656" lon="6.95273">
        <ele>879</ele>
        <time>2018-01-02T14:10:42.552Z</time>
      </trkpt>
      <trkpt lat="43.76649" lon="6.95271">
        <ele>879</ele>
        <time>2018-01-02T14:10:49.552Z</time>
      </trkpt>
      <trkpt lat="43.76644" lon="6.95267">
        <ele>880</ele>
        <time>2018-01-02T14:10:55.552Z</time>
      </trkpt>
      <trkpt lat="43.76639" lon="6.95264">
        <ele>881</ele>
        <time>2018-01-02T14:11:06.552Z</time>
      </trkpt>
      <trkpt lat="43.76637" lon="6.95273">
        <ele>880</ele>
        <time>2018-01-02T14:11:13.552Z</time>
      </trkpt>
      <trkpt lat="43.76634" lon="6.95282">
        <ele>880</ele>
        <time>2018-01-02T14:11:20.552Z</time>
      </trkpt>
      <trkpt lat="43.7663" lon="6.95286">
        <ele>880</ele>
        <time>2018-01-02T14:11:26.552Z</time>
      </trkpt>
      <trkpt lat="43.76628" lon="6.95281">
        <ele>881</ele>
        <time>2018-01-02T14:11:31.552Z</time>
      </trkpt>
      <trkpt lat="43.76626" lon="6.95274">
        <ele>881</ele>
        <time>2018-01-02T14:11:39.552Z</time>
      </trkpt>
      <trkpt lat="43.7662" lon="6.95275">
        <ele>882</ele>
        <time>2018-01-02T14:11:46.552Z</time>
      </trkpt>
      <trkpt lat="43.76614" lon="6.95277">
        <ele>882</ele>
        <time>2018-01-02T14:11:52.552Z</time>
      </trkpt>
      <trkpt lat="43.76609" lon="6.95279">
        <ele>883</ele>
        <time>2018-01-02T14:11:57.552Z</time>
      </trkpt>
      <trkpt lat="43.76604" lon="6.9528">
        <ele>883</ele>
        <time>2018-01-02T14:12:08.552Z</time>
      </trkpt>
      <trkpt lat="43.76599" lon="6.95281">
        <ele>884</ele>
        <time>2018-01-02T14:12:11.552Z</time>
      </trkpt>
      <trkpt lat="43.76594" lon="6.95281">
        <ele>884</ele>
        <time>2018-01-02T14:12:14.552Z</time>
      </trkpt>
      <trkpt lat="43.76589" lon="6.95283">
        <ele>884</ele>
        <time>2018-01-02T14:12:17.552Z</time>
      </trkpt>
      <trkpt lat="43.76584" lon="6.95284">
        <ele>884</ele>
        <time>2018-01-02T14:12:20.552Z</time>
      </trkpt>
      <trkpt lat="43.76578" lon="6.95285">
        <ele>898</ele>
        <time>2018-01-02T14:12:24.552Z</time>
      </trkpt>
      <trkpt lat="43.76572" lon="6.95286">
        <ele>899</ele>
        <time>2018-01-02T14:12:28.552Z</time>
      </trkpt>
      <trkpt lat="43.76566" lon="6.95286">
        <ele>899</ele>
        <time>2018-01-02T14:12:32.552Z</time>
      </trkpt>
      <trkpt lat="43.76563" lon="6.95287">
        <ele>900</ele>
        <time>2018-01-02T14:12:38.552Z</time>
      </trkpt>
      <trkpt lat="43.76557" lon="6.95289">
        <ele>900</ele>
        <time>2018-01-02T14:12:59.552Z</time>
      </trkpt>
      <trkpt lat="43.76553" lon="6.95293">
        <ele>901</ele>
        <time>2018-01-02T14:13:05.552Z</time>
      </trkpt>
      <trkpt lat="43.76547" lon="6.95296">
        <ele>901</ele>
        <time>2018-01-02T14:13:12.552Z</time>
      </trkpt>
      <trkpt lat="43.76539" lon="6.953">
        <ele>902</ele>
        <time>2018-01-02T14:13:22.552Z</time>
      </trkpt>
      <trkpt lat="43.76532" lon="6.95306">
        <ele>903</ele>
        <time>2018-01-02T14:13:32.552Z</time>
      </trkpt>
      <trkpt lat="43.76532" lon="6.95315">
        <ele>903</ele>
        <time>2018-01-02T14:13:41.552Z</time>
      </trkpt>
      <trkpt lat="43.76533" lon="6.95324">
        <ele>902</ele>
        <time>2018-01-02T14:13:44.552Z</time>
      </trkpt>
      <trkpt lat="43.76534" lon="6.95331">
        <ele>902</ele>
        <time>2018-01-02T14:13:46.552Z</time>
      </trkpt>
      <trkpt lat="43.76535" lon="6.95342">
        <ele>892</ele>
        <time>2018-01-02T14:13:49.552Z</time>
      </trkpt>
      <trkpt lat="43.76536" lon="6.95351">
        <ele>891</ele>
        <time>2018-01-02T14:13:51.552Z</time>
      </trkpt>
      <trkpt lat="43.76535" lon="6.95363">
        <ele>890</ele>
        <time>2018-01-02T14:13:54.552Z</time>
      </trkpt>
      <trkpt lat="43.76533" lon="6.95372">
        <ele>890</ele>
        <time>2018-01-02T14:13:57.552Z</time>
      </trkpt>
      <trkpt lat="43.7653" lon="6.95379">
        <ele>890</ele>
        <time>2018-01-02T14:14:00.552Z</time>
      </trkpt>
      <trkpt lat="43.76526" lon="6.95386">
        <ele>890</ele>
        <time>2018-01-02T14:14:04.552Z</time>
      </trkpt>
      <trkpt lat="43.76522" lon="6.95393">
        <ele>890</ele>
        <time>2018-01-02T14:14:08.552Z</time>
      </trkpt>
      <trkpt lat="43.76518" lon="6.95402">
        <ele>891</ele>
        <time>2018-01-02T14:14:12.552Z</time>
      </trkpt>
      <trkpt lat="43.76514" lon="6.9541">
        <ele>892</ele>
        <time>2018-01-02T14:14:16.552Z</time>
      </trkpt>
      <trkpt lat="43.7651" lon="6.95416">
        <ele>893</ele>
        <time>2018-01-02T14:14:19.552Z</time>
      </trkpt>
      <trkpt lat="43.76506" lon="6.95423">
        <ele>888</ele>
        <time>2018-01-02T14:14:22.552Z</time>
      </trkpt>
      <trkpt lat="43.76502" lon="6.95428">
        <ele>887</ele>
        <time>2018-01-02T14:14:25.552Z</time>
      </trkpt>
      <trkpt lat="43.76496" lon="6.95431">
        <ele>890</ele>
        <time>2018-01-02T14:14:29.552Z</time>
      </trkpt>
      <trkpt lat="43.7649" lon="6.95436">
        <ele>889</ele>
        <time>2018-01-02T14:14:32.552Z</time>
      </trkpt>
      <trkpt lat="43.76485" lon="6.9544">
        <ele>888</ele>
        <time>2018-01-02T14:14:34.552Z</time>
      </trkpt>
      <trkpt lat="43.7648" lon="6.95442">
        <ele>888</ele>
        <time>2018-01-02T14:14:36.552Z</time>
      </trkpt>
      <trkpt lat="43.76475" lon="6.95444">
        <ele>887</ele>
        <time>2018-01-02T14:14:38.552Z</time>
      </trkpt>
      <trkpt lat="43.7647" lon="6.95447">
        <ele>887</ele>
        <time>2018-01-02T14:14:40.552Z</time>
      </trkpt>
      <trkpt lat="43.76465" lon="6.95447">
        <ele>887</ele>
        <time>2018-01-02T14:14:42.552Z</time>
      </trkpt>
      <trkpt lat="43.76459" lon="6.95446">
        <ele>887</ele>
        <time>2018-01-02T14:14:45.552Z</time>
      </trkpt>
      <trkpt lat="43.7645" lon="6.95449">
        <ele>887</ele>
        <time>2018-01-02T14:14:49.552Z</time>
      </trkpt>
      <trkpt lat="43.76443" lon="6.95447">
        <ele>888</ele>
        <time>2018-01-02T14:14:52.552Z</time>
      </trkpt>
      <trkpt lat="43.76439" lon="6.95447">
        <ele>888</ele>
        <time>2018-01-02T14:14:54.552Z</time>
      </trkpt>
      <trkpt lat="43.76435" lon="6.95447">
        <ele>889</ele>
        <time>2018-01-02T14:14:56.552Z</time>
      </trkpt>
      <trkpt lat="43.76431" lon="6.95446">
        <ele>889</ele>
        <time>2018-01-02T14:14:58.552Z</time>
      </trkpt>
      <trkpt lat="43.76427" lon="6.95446">
        <ele>890</ele>
        <time>2018-01-02T14:15:00.552Z</time>
      </trkpt>
      <trkpt lat="43.76418" lon="6.95445">
        <ele>891</ele>
        <time>2018-01-02T14:15:04.552Z</time>
      </trkpt>
      <trkpt lat="43.76411" lon="6.95442">
        <ele>896</ele>
        <time>2018-01-02T14:15:08.552Z</time>
      </trkpt>
      <trkpt lat="43.76402" lon="6.95436">
        <ele>897</ele>
        <time>2018-01-02T14:15:13.552Z</time>
      </trkpt>
      <trkpt lat="43.76392" lon="6.95434">
        <ele>897</ele>
        <time>2018-01-02T14:15:18.552Z</time>
      </trkpt>
      <trkpt lat="43.76388" lon="6.95435">
        <ele>897</ele>
        <time>2018-01-02T14:15:20.552Z</time>
      </trkpt>
      <trkpt lat="43.76378" lon="6.95436">
        <ele>897</ele>
        <time>2018-01-02T14:15:25.552Z</time>
      </trkpt>
      <trkpt lat="43.76369" lon="6.95441">
        <ele>897</ele>
        <time>2018-01-02T14:15:29.552Z</time>
      </trkpt>
      <trkpt lat="43.76363" lon="6.95444">
        <ele>897</ele>
        <time>2018-01-02T14:15:31.552Z</time>
      </trkpt>
      <trkpt lat="43.76361" lon="6.95444">
        <ele>897</ele>
        <time>2018-01-02T14:15:32.552Z</time>
      </trkpt>
      <trkpt lat="43.76358" lon="6.95444">
        <ele>897</ele>
        <time>2018-01-02T14:15:33.552Z</time>
      </trkpt>
      <trkpt lat="43.76348" lon="6.95441">
        <ele>899</ele>
        <time>2018-01-02T14:15:38.552Z</time>
      </trkpt>
      <trkpt lat="43.76341" lon="6.9544">
        <ele>900</ele>
        <time>2018-01-02T14:15:42.552Z</time>
      </trkpt>
      <trkpt lat="43.76334" lon="6.95439">
        <ele>900</ele>
        <time>2018-01-02T14:15:49.552Z</time>
      </trkpt>
      <trkpt lat="43.76326" lon="6.95446">
        <ele>911</ele>
        <time>2018-01-02T14:16:04.552Z</time>
      </trkpt>
      <trkpt lat="43.76324" lon="6.9546">
        <ele>909</ele>
        <time>2018-01-02T14:16:13.552Z</time>
      </trkpt>
      <trkpt lat="43.76316" lon="6.95468">
        <ele>909</ele>
        <time>2018-01-02T14:16:27.552Z</time>
      </trkpt>
      <trkpt lat="43.76312" lon="6.9547">
        <ele>909</ele>
        <time>2018-01-02T14:16:33.552Z</time>
      </trkpt>
      <trkpt lat="43.76308" lon="6.95472">
        <ele>910</ele>
        <time>2018-01-02T14:16:38.552Z</time>
      </trkpt>
      <trkpt lat="43.76305" lon="6.95475">
        <ele>910</ele>
        <time>2018-01-02T14:16:42.552Z</time>
      </trkpt>
      <trkpt lat="43.76303" lon="6.95478">
        <ele>910</ele>
        <time>2018-01-02T14:16:46.552Z</time>
      </trkpt>
      <trkpt lat="43.76299" lon="6.95485">
        <ele>910</ele>
        <time>2018-01-02T14:16:53.552Z</time>
      </trkpt>
      <trkpt lat="43.76293" lon="6.95489">
        <ele>911</ele>
        <time>2018-01-02T14:17:00.552Z</time>
      </trkpt>
      <trkpt lat="43.76287" lon="6.95494">
        <ele>913</ele>
        <time>2018-01-02T14:17:07.552Z</time>
      </trkpt>
      <trkpt lat="43.7628" lon="6.95499">
        <ele>915</ele>
        <time>2018-01-02T14:17:17.552Z</time>
      </trkpt>
      <trkpt lat="43.76274" lon="6.95504">
        <ele>907</ele>
        <time>2018-01-02T14:17:27.552Z</time>
      </trkpt>
      <trkpt lat="43.76267" lon="6.95511">
        <ele>909</ele>
        <time>2018-01-02T14:17:39.552Z</time>
      </trkpt>
      <trkpt lat="43.76264" lon="6.95518">
        <ele>908</ele>
        <time>2018-01-02T14:17:47.552Z</time>
      </trkpt>
      <trkpt lat="43.7626" lon="6.95525">
        <ele>907</ele>
        <time>2018-01-02T14:18:04.552Z</time>
      </trkpt>
      <trkpt lat="43.76257" lon="6.95532">
        <ele>906</ele>
        <time>2018-01-02T14:18:08.552Z</time>
      </trkpt>
      <trkpt lat="43.76252" lon="6.9554">
        <ele>904</ele>
        <time>2018-01-02T14:18:14.552Z</time>
      </trkpt>
      <trkpt lat="43.76248" lon="6.95549">
        <ele>928</ele>
        <time>2018-01-02T14:18:18.552Z</time>
      </trkpt>
      <trkpt lat="43.76242" lon="6.95556">
        <ele>926</ele>
        <time>2018-01-02T14:18:23.552Z</time>
      </trkpt>
      <trkpt lat="43.76239" lon="6.95561">
        <ele>925</ele>
        <time>2018-01-02T14:18:32.552Z</time>
      </trkpt>
      <trkpt lat="43.76235" lon="6.95565">
        <ele>925</ele>
        <time>2018-01-02T14:18:37.552Z</time>
      </trkpt>
      <trkpt lat="43.76229" lon="6.95571">
        <ele>926</ele>
        <time>2018-01-02T14:18:51.552Z</time>
      </trkpt>
      <trkpt lat="43.76225" lon="6.95577">
        <ele>927</ele>
        <time>2018-01-02T14:19:03.552Z</time>
      </trkpt>
      <trkpt lat="43.76221" lon="6.95584">
        <ele>920</ele>
        <time>2018-01-02T14:19:10.552Z</time>
      </trkpt>
      <trkpt lat="43.76217" lon="6.9559">
        <ele>921</ele>
        <time>2018-01-02T14:19:18.552Z</time>
      </trkpt>
      <trkpt lat="43.76213" lon="6.95596">
        <ele>922</ele>
        <time>2018-01-02T14:19:26.552Z</time>
      </trkpt>
      <trkpt lat="43.76209" lon="6.95599">
        <ele>923</ele>
        <time>2018-01-02T14:19:35.552Z</time>
      </trkpt>
      <trkpt lat="43.76206" lon="6.95603">
        <ele>924</ele>
        <time>2018-01-02T14:19:40.552Z</time>
      </trkpt>
      <trkpt lat="43.76201" lon="6.95607">
        <ele>925</ele>
        <time>2018-01-02T14:19:44.552Z</time>
      </trkpt>
      <trkpt lat="43.76198" lon="6.95612">
        <ele>925</ele>
        <time>2018-01-02T14:19:50.552Z</time>
      </trkpt>
      <trkpt lat="43.76196" lon="6.95619">
        <ele>925</ele>
        <time>2018-01-02T14:20:01.552Z</time>
      </trkpt>
      <trkpt lat="43.76195" lon="6.95625">
        <ele>925</ele>
        <time>2018-01-02T14:20:04.552Z</time>
      </trkpt>
      <trkpt lat="43.76192" lon="6.9563">
        <ele>925</ele>
        <time>2018-01-02T14:20:06.552Z</time>
      </trkpt>
      <trkpt lat="43.76189" lon="6.95635">
        <ele>925</ele>
        <time>2018-01-02T14:20:09.552Z</time>
      </trkpt>
      <trkpt lat="43.76185" lon="6.95639">
        <ele>926</ele>
        <time>2018-01-02T14:20:12.552Z</time>
      </trkpt>
      <trkpt lat="43.76182" lon="6.95644">
        <ele>926</ele>
        <time>2018-01-02T14:20:15.552Z</time>
      </trkpt>
      <trkpt lat="43.76179" lon="6.95649">
        <ele>927</ele>
        <time>2018-01-02T14:20:18.552Z</time>
      </trkpt>
      <trkpt lat="43.76176" lon="6.95655">
        <ele>928</ele>
        <time>2018-01-02T14:20:21.552Z</time>
      </trkpt>
      <trkpt lat="43.76174" lon="6.95658">
        <ele>929</ele>
        <time>2018-01-02T14:20:23.552Z</time>
      </trkpt>
      <trkpt lat="43.76172" lon="6.95662">
        <ele>930</ele>
        <time>2018-01-02T14:20:25.552Z</time>
      </trkpt>
      <trkpt lat="43.76169" lon="6.95667">
        <ele>932</ele>
        <time>2018-01-02T14:20:28.552Z</time>
      </trkpt>
      <trkpt lat="43.76166" lon="6.95672">
        <ele>935</ele>
        <time>2018-01-02T14:20:32.552Z</time>
      </trkpt>
      <trkpt lat="43.76162" lon="6.95676">
        <ele>936</ele>
        <time>2018-01-02T14:20:36.552Z</time>
      </trkpt>
      <trkpt lat="43.76159" lon="6.9568">
        <ele>938</ele>
        <time>2018-01-02T14:20:41.552Z</time>
      </trkpt>
      <trkpt lat="43.76155" lon="6.95686">
        <ele>939</ele>
        <time>2018-01-02T14:20:47.552Z</time>
      </trkpt>
      <trkpt lat="43.7615" lon="6.95689">
        <ele>940</ele>
        <time>2018-01-02T14:20:57.552Z</time>
      </trkpt>
      <trkpt lat="43.76147" lon="6.95695">
        <ele>940</ele>
        <time>2018-01-02T14:21:07.552Z</time>
      </trkpt>
      <trkpt lat="43.76144" lon="6.95701">
        <ele>940</ele>
        <time>2018-01-02T14:21:13.552Z</time>
      </trkpt>
      <trkpt lat="43.7614" lon="6.95705">
        <ele>941</ele>
        <time>2018-01-02T14:21:19.552Z</time>
      </trkpt>
      <trkpt lat="43.76137" lon="6.95711">
        <ele>941</ele>
        <time>2018-01-02T14:21:26.552Z</time>
      </trkpt>
      <trkpt lat="43.76131" lon="6.95716">
        <ele>941</ele>
        <time>2018-01-02T14:21:43.552Z</time>
      </trkpt>
      <trkpt lat="43.76126" lon="6.95721">
        <ele>942</ele>
        <time>2018-01-02T14:21:48.552Z</time>
      </trkpt>
      <trkpt lat="43.76121" lon="6.95724">
        <ele>942</ele>
        <time>2018-01-02T14:21:52.552Z</time>
      </trkpt>
      <trkpt lat="43.76117" lon="6.95729">
        <ele>943</ele>
        <time>2018-01-02T14:21:56.552Z</time>
      </trkpt>
      <trkpt lat="43.76112" lon="6.95736">
        <ele>944</ele>
        <time>2018-01-02T14:22:01.552Z</time>
      </trkpt>
      <trkpt lat="43.76107" lon="6.95741">
        <ele>945</ele>
        <time>2018-01-02T14:22:05.552Z</time>
      </trkpt>
      <trkpt lat="43.76102" lon="6.95746">
        <ele>946</ele>
        <time>2018-01-02T14:22:10.552Z</time>
      </trkpt>
      <trkpt lat="43.76099" lon="6.95752">
        <ele>941</ele>
        <time>2018-01-02T14:22:14.552Z</time>
      </trkpt>
      <trkpt lat="43.76095" lon="6.95758">
        <ele>942</ele>
        <time>2018-01-02T14:22:18.552Z</time>
      </trkpt>
      <trkpt lat="43.7609" lon="6.95761">
        <ele>942</ele>
        <time>2018-01-02T14:22:22.552Z</time>
      </trkpt>
      <trkpt lat="43.76087" lon="6.95765">
        <ele>941</ele>
        <time>2018-01-02T14:22:25.552Z</time>
      </trkpt>
      <trkpt lat="43.76084" lon="6.9577">
        <ele>940</ele>
        <time>2018-01-02T14:22:29.552Z</time>
      </trkpt>
      <trkpt lat="43.7608" lon="6.95775">
        <ele>954</ele>
        <time>2018-01-02T14:22:33.552Z</time>
      </trkpt>
      <trkpt lat="43.76076" lon="6.95779">
        <ele>954</ele>
        <time>2018-01-02T14:22:37.552Z</time>
      </trkpt>
      <trkpt lat="43.76072" lon="6.95784">
        <ele>955</ele>
        <time>2018-01-02T14:22:42.552Z</time>
      </trkpt>
      <trkpt lat="43.76068" lon="6.95789">
        <ele>955</ele>
        <time>2018-01-02T14:22:46.552Z</time>
      </trkpt>
      <trkpt lat="43.76065" lon="6.95794">
        <ele>955</ele>
        <time>2018-01-02T14:22:49.552Z</time>
      </trkpt>
      <trkpt lat="43.76061" lon="6.95798">
        <ele>955</ele>
        <time>2018-01-02T14:22:53.552Z</time>
      </trkpt>
      <trkpt lat="43.76057" lon="6.95804">
        <ele>955</ele>
        <time>2018-01-02T14:22:57.552Z</time>
      </trkpt>
      <trkpt lat="43.76054" lon="6.95807">
        <ele>955</ele>
        <time>2018-01-02T14:23:00.552Z</time>
      </trkpt>
      <trkpt lat="43.7605" lon="6.9581">
        <ele>956</ele>
        <time>2018-01-02T14:23:08.552Z</time>
      </trkpt>
      <trkpt lat="43.76046" lon="6.95811">
        <ele>956</ele>
        <time>2018-01-02T14:23:14.552Z</time>
      </trkpt>
      <trkpt lat="43.7604" lon="6.95811">
        <ele>958</ele>
        <time>2018-01-02T14:23:24.552Z</time>
      </trkpt>
      <trkpt lat="43.76034" lon="6.95811">
        <ele>959</ele>
        <time>2018-01-02T14:23:35.552Z</time>
      </trkpt>
      <trkpt lat="43.76028" lon="6.95815">
        <ele>960</ele>
        <time>2018-01-02T14:23:44.552Z</time>
      </trkpt>
      <trkpt lat="43.76021" lon="6.95818">
        <ele>961</ele>
        <time>2018-01-02T14:23:54.552Z</time>
      </trkpt>
      <trkpt lat="43.76015" lon="6.95823">
        <ele>962</ele>
        <time>2018-01-02T14:24:03.552Z</time>
      </trkpt>
      <trkpt lat="43.76011" lon="6.95826">
        <ele>963</ele>
        <time>2018-01-02T14:24:10.552Z</time>
      </trkpt>
      <trkpt lat="43.76005" lon="6.95829">
        <ele>964</ele>
        <time>2018-01-02T14:24:19.552Z</time>
      </trkpt>
      <trkpt lat="43.75999" lon="6.9583">
        <ele>968</ele>
        <time>2018-01-02T14:24:26.552Z</time>
      </trkpt>
      <trkpt lat="43.75993" lon="6.95831">
        <ele>970</ele>
        <time>2018-01-02T14:24:34.552Z</time>
      </trkpt>
      <trkpt lat="43.75989" lon="6.95832">
        <ele>972</ele>
        <time>2018-01-02T14:24:38.552Z</time>
      </trkpt>
      <trkpt lat="43.75986" lon="6.95835">
        <ele>971</ele>
        <time>2018-01-02T14:24:43.552Z</time>
      </trkpt>
      <trkpt lat="43.75984" lon="6.95836">
        <ele>972</ele>
        <time>2018-01-02T14:24:46.552Z</time>
      </trkpt>
      <trkpt lat="43.75978" lon="6.95837">
        <ele>973</ele>
        <time>2018-01-02T14:24:53.552Z</time>
      </trkpt>
      <trkpt lat="43.75974" lon="6.95838">
        <ele>974</ele>
        <time>2018-01-02T14:24:58.552Z</time>
      </trkpt>
      <trkpt lat="43.7597" lon="6.95839">
        <ele>975</ele>
        <time>2018-01-02T14:25:04.552Z</time>
      </trkpt>
      <trkpt lat="43.75966" lon="6.9584">
        <ele>976</ele>
        <time>2018-01-02T14:25:13.552Z</time>
      </trkpt>
      <trkpt lat="43.75961" lon="6.95841">
        <ele>976</ele>
        <time>2018-01-02T14:25:16.552Z</time>
      </trkpt>
      <trkpt lat="43.75957" lon="6.95842">
        <ele>977</ele>
        <time>2018-01-02T14:25:19.552Z</time>
      </trkpt>
      <trkpt lat="43.75953" lon="6.95843">
        <ele>978</ele>
        <time>2018-01-02T14:25:22.552Z</time>
      </trkpt>
      <trkpt lat="43.7595" lon="6.95844">
        <ele>978</ele>
        <time>2018-01-02T14:25:24.552Z</time>
      </trkpt>
      <trkpt lat="43.75945" lon="6.95844">
        <ele>979</ele>
        <time>2018-01-02T14:25:27.552Z</time>
      </trkpt>
      <trkpt lat="43.75941" lon="6.95843">
        <ele>980</ele>
        <time>2018-01-02T14:25:30.552Z</time>
      </trkpt>
      <trkpt lat="43.75937" lon="6.95842">
        <ele>981</ele>
        <time>2018-01-02T14:25:33.552Z</time>
      </trkpt>
      <trkpt lat="43.75933" lon="6.95841">
        <ele>981</ele>
        <time>2018-01-02T14:25:36.552Z</time>
      </trkpt>
      <trkpt lat="43.75929" lon="6.9584">
        <ele>982</ele>
        <time>2018-01-02T14:25:43.552Z</time>
      </trkpt>
      <trkpt lat="43.75926" lon="6.95839">
        <ele>983</ele>
        <time>2018-01-02T14:25:47.552Z</time>
      </trkpt>
      <trkpt lat="43.75923" lon="6.9584">
        <ele>983</ele>
        <time>2018-01-02T14:25:52.552Z</time>
      </trkpt>
      <trkpt lat="43.75924" lon="6.95845">
        <ele>982</ele>
        <time>2018-01-02T14:25:57.552Z</time>
      </trkpt>
      <trkpt lat="43.75926" lon="6.9585">
        <ele>982</ele>
        <time>2018-01-02T14:26:01.552Z</time>
      </trkpt>
      <trkpt lat="43.75921" lon="6.9585">
        <ele>982</ele>
        <time>2018-01-02T14:26:10.552Z</time>
      </trkpt>
      <trkpt lat="43.75917" lon="6.95846">
        <ele>983</ele>
        <time>2018-01-02T14:26:19.552Z</time>
      </trkpt>
      <trkpt lat="43.75912" lon="6.95842">
        <ele>989</ele>
        <time>2018-01-02T14:26:27.552Z</time>
      </trkpt>
      <trkpt lat="43.75907" lon="6.95839">
        <ele>989</ele>
        <time>2018-01-02T14:26:35.552Z</time>
      </trkpt>
      <trkpt lat="43.75907" lon="6.95848">
        <ele>990</ele>
        <time>2018-01-02T14:26:54.552Z</time>
      </trkpt>
      <trkpt lat="43.75908" lon="6.95857">
        <ele>991</ele>
        <time>2018-01-02T14:27:02.552Z</time>
      </trkpt>
      <trkpt lat="43.75909" lon="6.95866">
        <ele>992</ele>
        <time>2018-01-02T14:27:09.552Z</time>
      </trkpt>
      <trkpt lat="43.75911" lon="6.95874">
        <ele>992</ele>
        <time>2018-01-02T14:27:16.552Z</time>
      </trkpt>
      <trkpt lat="43.75911" lon="6.95881">
        <ele>992</ele>
        <time>2018-01-02T14:27:25.552Z</time>
      </trkpt>
      <trkpt lat="43.75913" lon="6.95887">
        <ele>991</ele>
        <time>2018-01-02T14:27:29.552Z</time>
      </trkpt>
      <trkpt lat="43.75915" lon="6.95893">
        <ele>991</ele>
        <time>2018-01-02T14:27:32.552Z</time>
      </trkpt>
      <trkpt lat="43.75919" lon="6.95901">
        <ele>983</ele>
        <time>2018-01-02T14:27:36.552Z</time>
      </trkpt>
      <trkpt lat="43.75921" lon="6.95908">
        <ele>985</ele>
        <time>2018-01-02T14:27:40.552Z</time>
      </trkpt>
      <trkpt lat="43.75923" lon="6.95914">
        <ele>985</ele>
        <time>2018-01-02T14:27:44.552Z</time>
      </trkpt>
      <trkpt lat="43.75928" lon="6.9592">
        <ele>985</ele>
        <time>2018-01-02T14:27:48.552Z</time>
      </trkpt>
      <trkpt lat="43.75931" lon="6.95925">
        <ele>984</ele>
        <time>2018-01-02T14:27:51.552Z</time>
      </trkpt>
      <trkpt lat="43.75935" lon="6.9593">
        <ele>984</ele>
        <time>2018-01-02T14:27:54.552Z</time>
      </trkpt>
      <trkpt lat="43.75935" lon="6.95937">
        <ele>983</ele>
        <time>2018-01-02T14:27:57.552Z</time>
      </trkpt>
      <trkpt lat="43.75932" lon="6.95944">
        <ele>984</ele>
        <time>2018-01-02T14:28:07.552Z</time>
      </trkpt>
      <trkpt lat="43.75932" lon="6.95952">
        <ele>983</ele>
        <time>2018-01-02T14:28:15.552Z</time>
      </trkpt>
      <trkpt lat="43.75931" lon="6.95961">
        <ele>984</ele>
        <time>2018-01-02T14:28:21.552Z</time>
      </trkpt>
      <trkpt lat="43.7593" lon="6.95969">
        <ele>984</ele>
        <time>2018-01-02T14:28:26.552Z</time>
      </trkpt>
      <trkpt lat="43.75928" lon="6.95978">
        <ele>985</ele>
        <time>2018-01-02T14:28:34.552Z</time>
      </trkpt>
      <trkpt lat="43.75925" lon="6.95985">
        <ele>986</ele>
        <time>2018-01-02T14:28:40.552Z</time>
      </trkpt>
      <trkpt lat="43.75922" lon="6.96001">
        <ele>989</ele>
        <time>2018-01-02T14:28:52.552Z</time>
      </trkpt>
      <trkpt lat="43.75919" lon="6.96008">
        <ele>988</ele>
        <time>2018-01-02T14:28:57.552Z</time>
      </trkpt>
      <trkpt lat="43.75918" lon="6.96015">
        <ele>987</ele>
        <time>2018-01-02T14:29:02.552Z</time>
      </trkpt>
      <trkpt lat="43.75918" lon="6.96022">
        <ele>986</ele>
        <time>2018-01-02T14:30:04.552Z</time>
      </trkpt>
      <trkpt lat="43.75913" lon="6.96028">
        <ele>990</ele>
        <time>2018-01-02T14:30:35.552Z</time>
      </trkpt>
      <trkpt lat="43.75907" lon="6.96038">
        <ele>989</ele>
        <time>2018-01-02T14:30:40.552Z</time>
      </trkpt>
      <trkpt lat="43.75902" lon="6.96046">
        <ele>989</ele>
        <time>2018-01-02T14:30:44.552Z</time>
      </trkpt>
      <trkpt lat="43.75897" lon="6.96052">
        <ele>989</ele>
        <time>2018-01-02T14:30:48.552Z</time>
      </trkpt>
      <trkpt lat="43.75891" lon="6.96058">
        <ele>989</ele>
        <time>2018-01-02T14:30:51.552Z</time>
      </trkpt>
      <trkpt lat="43.75884" lon="6.96064">
        <ele>989</ele>
        <time>2018-01-02T14:30:55.552Z</time>
      </trkpt>
      <trkpt lat="43.75878" lon="6.96071">
        <ele>988</ele>
        <time>2018-01-02T14:30:59.552Z</time>
      </trkpt>
      <trkpt lat="43.75868" lon="6.9608">
        <ele>988</ele>
        <time>2018-01-02T14:31:04.552Z</time>
      </trkpt>
      <trkpt lat="43.7586" lon="6.96086">
        <ele>985</ele>
        <time>2018-01-02T14:31:07.552Z</time>
      </trkpt>
      <trkpt lat="43.75855" lon="6.96091">
        <ele>985</ele>
        <time>2018-01-02T14:31:09.552Z</time>
      </trkpt>
      <trkpt lat="43.7585" lon="6.96099">
        <ele>985</ele>
        <time>2018-01-02T14:31:11.552Z</time>
      </trkpt>
      <trkpt lat="43.75844" lon="6.96107">
        <ele>985</ele>
        <time>2018-01-02T14:31:13.552Z</time>
      </trkpt>
      <trkpt lat="43.75838" lon="6.96113">
        <ele>984</ele>
        <time>2018-01-02T14:31:15.552Z</time>
      </trkpt>
      <trkpt lat="43.75831" lon="6.96122">
        <ele>984</ele>
        <time>2018-01-02T14:31:17.552Z</time>
      </trkpt>
      <trkpt lat="43.75825" lon="6.96131">
        <ele>983</ele>
        <time>2018-01-02T14:31:19.552Z</time>
      </trkpt>
      <trkpt lat="43.75819" lon="6.9614">
        <ele>983</ele>
        <time>2018-01-02T14:31:21.552Z</time>
      </trkpt>
      <trkpt lat="43.75814" lon="6.9615">
        <ele>983</ele>
        <time>2018-01-02T14:31:23.552Z</time>
      </trkpt>
      <trkpt lat="43.75806" lon="6.96159">
        <ele>983</ele>
        <time>2018-01-02T14:31:25.552Z</time>
      </trkpt>
      <trkpt lat="43.75796" lon="6.96164">
        <ele>983</ele>
        <time>2018-01-02T14:31:27.552Z</time>
      </trkpt>
      <trkpt lat="43.75787" lon="6.9617">
        <ele>980</ele>
        <time>2018-01-02T14:31:29.552Z</time>
      </trkpt>
      <trkpt lat="43.75778" lon="6.96174">
        <ele>980</ele>
        <time>2018-01-02T14:31:31.552Z</time>
      </trkpt>
      <trkpt lat="43.7577" lon="6.96179">
        <ele>980</ele>
        <time>2018-01-02T14:31:33.552Z</time>
      </trkpt>
      <trkpt lat="43.75762" lon="6.96187">
        <ele>980</ele>
        <time>2018-01-02T14:31:35.552Z</time>
      </trkpt>
      <trkpt lat="43.75755" lon="6.96199">
        <ele>979</ele>
        <time>2018-01-02T14:31:37.552Z</time>
      </trkpt>
      <trkpt lat="43.75747" lon="6.9621">
        <ele>979</ele>
        <time>2018-01-02T14:31:39.552Z</time>
      </trkpt>
      <trkpt lat="43.7574" lon="6.96218">
        <ele>979</ele>
        <time>2018-01-02T14:31:41.552Z</time>
      </trkpt>
      <trkpt lat="43.75735" lon="6.96225">
        <ele>978</ele>
        <time>2018-01-02T14:31:43.552Z</time>
      </trkpt>
      <trkpt lat="43.75733" lon="6.96233">
        <ele>978</ele>
        <time>2018-01-02T14:31:45.552Z</time>
      </trkpt>
      <trkpt lat="43.75729" lon="6.9624">
        <ele>978</ele>
        <time>2018-01-02T14:31:47.552Z</time>
      </trkpt>
      <trkpt lat="43.75723" lon="6.96245">
        <ele>978</ele>
        <time>2018-01-02T14:31:49.552Z</time>
      </trkpt>
      <trkpt lat="43.75718" lon="6.96252">
        <ele>975</ele>
        <time>2018-01-02T14:31:51.552Z</time>
      </trkpt>
      <trkpt lat="43.75713" lon="6.9626">
        <ele>974</ele>
        <time>2018-01-02T14:31:53.552Z</time>
      </trkpt>
      <trkpt lat="43.75708" lon="6.96269">
        <ele>974</ele>
        <time>2018-01-02T14:31:55.552Z</time>
      </trkpt>
      <trkpt lat="43.75702" lon="6.9628">
        <ele>974</ele>
        <time>2018-01-02T14:31:57.552Z</time>
      </trkpt>
      <trkpt lat="43.75695" lon="6.96291">
        <ele>974</ele>
        <time>2018-01-02T14:31:59.552Z</time>
      </trkpt>
      <trkpt lat="43.75688" lon="6.96301">
        <ele>973</ele>
        <time>2018-01-02T14:32:01.552Z</time>
      </trkpt>
      <trkpt lat="43.7568" lon="6.96312">
        <ele>972</ele>
        <time>2018-01-02T14:32:03.552Z</time>
      </trkpt>
      <trkpt lat="43.75673" lon="6.96323">
        <ele>971</ele>
        <time>2018-01-02T14:32:05.552Z</time>
      </trkpt>
      <trkpt lat="43.75667" lon="6.96335">
        <ele>970</ele>
        <time>2018-01-02T14:32:07.552Z</time>
      </trkpt>
      <trkpt lat="43.75663" lon="6.96342">
        <ele>970</ele>
        <time>2018-01-02T14:32:08.552Z</time>
      </trkpt>
      <trkpt lat="43.7566" lon="6.96349">
        <ele>970</ele>
        <time>2018-01-02T14:32:09.552Z</time>
      </trkpt>
      <trkpt lat="43.75656" lon="6.96356">
        <ele>970</ele>
        <time>2018-01-02T14:32:10.552Z</time>
      </trkpt>
      <trkpt lat="43.75652" lon="6.96362">
        <ele>970</ele>
        <time>2018-01-02T14:32:11.552Z</time>
      </trkpt>
      <trkpt lat="43.75643" lon="6.96373">
        <ele>970</ele>
        <time>2018-01-02T14:32:13.552Z</time>
      </trkpt>
      <trkpt lat="43.75635" lon="6.96383">
        <ele>970</ele>
        <time>2018-01-02T14:32:15.552Z</time>
      </trkpt>
      <trkpt lat="43.75627" lon="6.96395">
        <ele>969</ele>
        <time>2018-01-02T14:32:17.552Z</time>
      </trkpt>
      <trkpt lat="43.7562" lon="6.96406">
        <ele>969</ele>
        <time>2018-01-02T14:32:19.552Z</time>
      </trkpt>
      <trkpt lat="43.75613" lon="6.96417">
        <ele>969</ele>
        <time>2018-01-02T14:32:21.552Z</time>
      </trkpt>
      <trkpt lat="43.75607" lon="6.96428">
        <ele>967</ele>
        <time>2018-01-02T14:32:23.552Z</time>
      </trkpt>
      <trkpt lat="43.75606" lon="6.96441">
        <ele>967</ele>
        <time>2018-01-02T14:32:25.552Z</time>
      </trkpt>
      <trkpt lat="43.75605" lon="6.96452">
        <ele>966</ele>
        <time>2018-01-02T14:32:27.552Z</time>
      </trkpt>
      <trkpt lat="43.75604" lon="6.96462">
        <ele>966</ele>
        <time>2018-01-02T14:32:29.552Z</time>
      </trkpt>
      <trkpt lat="43.75604" lon="6.96472">
        <ele>966</ele>
        <time>2018-01-02T14:32:31.552Z</time>
      </trkpt>
      <trkpt lat="43.75608" lon="6.96487">
        <ele>966</ele>
        <time>2018-01-02T14:32:34.552Z</time>
      </trkpt>
      <trkpt lat="43.75617" lon="6.96496">
        <ele>966</ele>
        <time>2018-01-02T14:32:37.552Z</time>
      </trkpt>
      <trkpt lat="43.75624" lon="6.96503">
        <ele>963</ele>
        <time>2018-01-02T14:32:39.552Z</time>
      </trkpt>
      <trkpt lat="43.75628" lon="6.9651">
        <ele>963</ele>
        <time>2018-01-02T14:32:41.552Z</time>
      </trkpt>
      <trkpt lat="43.75632" lon="6.9652">
        <ele>963</ele>
        <time>2018-01-02T14:32:44.552Z</time>
      </trkpt>
      <trkpt lat="43.75636" lon="6.96524">
        <ele>963</ele>
        <time>2018-01-02T14:32:47.552Z</time>
      </trkpt>
      <trkpt lat="43.75641" lon="6.96522">
        <ele>963</ele>
        <time>2018-01-02T14:32:49.552Z</time>
      </trkpt>
      <trkpt lat="43.75646" lon="6.96518">
        <ele>963</ele>
        <time>2018-01-02T14:32:51.552Z</time>
      </trkpt>
      <trkpt lat="43.75651" lon="6.96514">
        <ele>963</ele>
        <time>2018-01-02T14:32:53.552Z</time>
      </trkpt>
      <trkpt lat="43.75655" lon="6.96508">
        <ele>963</ele>
        <time>2018-01-02T14:32:55.552Z</time>
      </trkpt>
      <trkpt lat="43.75659" lon="6.96502">
        <ele>964</ele>
        <time>2018-01-02T14:32:57.552Z</time>
      </trkpt>
      <trkpt lat="43.75664" lon="6.96497">
        <ele>964</ele>
        <time>2018-01-02T14:32:59.552Z</time>
      </trkpt>
      <trkpt lat="43.75667" lon="6.96494">
        <ele>964</ele>
        <time>2018-01-02T14:33:00.552Z</time>
      </trkpt>
      <trkpt lat="43.7567" lon="6.96491">
        <ele>964</ele>
        <time>2018-01-02T14:33:01.552Z</time>
      </trkpt>
      <trkpt lat="43.75678" lon="6.9649">
        <ele>965</ele>
        <time>2018-01-02T14:33:03.552Z</time>
      </trkpt>
      <trkpt lat="43.75685" lon="6.96498">
        <ele>965</ele>
        <time>2018-01-02T14:33:05.552Z</time>
      </trkpt>
      <trkpt lat="43.75687" lon="6.96503">
        <ele>963</ele>
        <time>2018-01-02T14:33:06.552Z</time>
      </trkpt>
      <trkpt lat="43.75691" lon="6.96512">
        <ele>963</ele>
        <time>2018-01-02T14:33:08.552Z</time>
      </trkpt>
      <trkpt lat="43.75696" lon="6.9652">
        <ele>963</ele>
        <time>2018-01-02T14:33:10.552Z</time>
      </trkpt>
      <trkpt lat="43.75698" lon="6.9653">
        <ele>963</ele>
        <time>2018-01-02T14:33:12.552Z</time>
      </trkpt>
      <trkpt lat="43.75698" lon="6.96541">
        <ele>962</ele>
        <time>2018-01-02T14:33:14.552Z</time>
      </trkpt>
      <trkpt lat="43.75696" lon="6.96551">
        <ele>962</ele>
        <time>2018-01-02T14:33:16.552Z</time>
      </trkpt>
      <trkpt lat="43.75693" lon="6.96562">
        <ele>962</ele>
        <time>2018-01-02T14:33:18.552Z</time>
      </trkpt>
      <trkpt lat="43.75689" lon="6.96574">
        <ele>962</ele>
        <time>2018-01-02T14:33:20.552Z</time>
      </trkpt>
      <trkpt lat="43.75687" lon="6.9658">
        <ele>961</ele>
        <time>2018-01-02T14:33:21.552Z</time>
      </trkpt>
      <trkpt lat="43.75685" lon="6.96586">
        <ele>961</ele>
        <time>2018-01-02T14:33:22.552Z</time>
      </trkpt>
      <trkpt lat="43.75684" lon="6.96597">
        <ele>961</ele>
        <time>2018-01-02T14:33:24.552Z</time>
      </trkpt>
      <trkpt lat="43.75686" lon="6.96608">
        <ele>961</ele>
        <time>2018-01-02T14:33:27.552Z</time>
      </trkpt>
      <trkpt lat="43.75694" lon="6.96615">
        <ele>961</ele>
        <time>2018-01-02T14:33:31.552Z</time>
      </trkpt>
      <trkpt lat="43.757" lon="6.96623">
        <ele>961</ele>
        <time>2018-01-02T14:33:34.552Z</time>
      </trkpt>
      <trkpt lat="43.75706" lon="6.96627">
        <ele>961</ele>
        <time>2018-01-02T14:33:37.552Z</time>
      </trkpt>
      <trkpt lat="43.7571" lon="6.96629">
        <ele>961</ele>
        <time>2018-01-02T14:33:39.552Z</time>
      </trkpt>
      <trkpt lat="43.75713" lon="6.96632">
        <ele>961</ele>
        <time>2018-01-02T14:33:41.552Z</time>
      </trkpt>
      <trkpt lat="43.75715" lon="6.96638">
        <ele>961</ele>
        <time>2018-01-02T14:33:43.552Z</time>
      </trkpt>
      <trkpt lat="43.75715" lon="6.96653">
        <ele>961</ele>
        <time>2018-01-02T14:33:46.552Z</time>
      </trkpt>
      <trkpt lat="43.75715" lon="6.96659">
        <ele>961</ele>
        <time>2018-01-02T14:33:47.552Z</time>
      </trkpt>
      <trkpt lat="43.75715" lon="6.96665">
        <ele>962</ele>
        <time>2018-01-02T14:33:48.552Z</time>
      </trkpt>
      <trkpt lat="43.75714" lon="6.96671">
        <ele>961</ele>
        <time>2018-01-02T14:33:49.552Z</time>
      </trkpt>
      <trkpt lat="43.75713" lon="6.96682">
        <ele>961</ele>
        <time>2018-01-02T14:33:51.552Z</time>
      </trkpt>
      <trkpt lat="43.75711" lon="6.96692">
        <ele>961</ele>
        <time>2018-01-02T14:33:53.552Z</time>
      </trkpt>
      <trkpt lat="43.75709" lon="6.96701">
        <ele>961</ele>
        <time>2018-01-02T14:33:55.552Z</time>
      </trkpt>
      <trkpt lat="43.75708" lon="6.96711">
        <ele>961</ele>
        <time>2018-01-02T14:33:57.552Z</time>
      </trkpt>
      <trkpt lat="43.75705" lon="6.96722">
        <ele>961</ele>
        <time>2018-01-02T14:33:59.552Z</time>
      </trkpt>
      <trkpt lat="43.75702" lon="6.96732">
        <ele>961</ele>
        <time>2018-01-02T14:34:01.552Z</time>
      </trkpt>
      <trkpt lat="43.75698" lon="6.9674">
        <ele>961</ele>
        <time>2018-01-02T14:34:03.552Z</time>
      </trkpt>
      <trkpt lat="43.75695" lon="6.96748">
        <ele>961</ele>
        <time>2018-01-02T14:34:05.552Z</time>
      </trkpt>
      <trkpt lat="43.7569" lon="6.96754">
        <ele>961</ele>
        <time>2018-01-02T14:34:08.552Z</time>
      </trkpt>
      <trkpt lat="43.75693" lon="6.96763">
        <ele>961</ele>
        <time>2018-01-02T14:34:12.552Z</time>
      </trkpt>
      <trkpt lat="43.75698" lon="6.96769">
        <ele>961</ele>
        <time>2018-01-02T14:34:14.552Z</time>
      </trkpt>
      <trkpt lat="43.75702" lon="6.96775">
        <ele>961</ele>
        <time>2018-01-02T14:34:16.552Z</time>
      </trkpt>
      <trkpt lat="43.75707" lon="6.96781">
        <ele>961</ele>
        <time>2018-01-02T14:34:18.552Z</time>
      </trkpt>
      <trkpt lat="43.75711" lon="6.96787">
        <ele>961</ele>
        <time>2018-01-02T14:34:20.552Z</time>
      </trkpt>
      <trkpt lat="43.75715" lon="6.96793">
        <ele>961</ele>
        <time>2018-01-02T14:34:22.552Z</time>
      </trkpt>
      <trkpt lat="43.75718" lon="6.96799">
        <ele>961</ele>
        <time>2018-01-02T14:34:24.552Z</time>
      </trkpt>
      <trkpt lat="43.7572" lon="6.96805">
        <ele>961</ele>
        <time>2018-01-02T14:34:26.552Z</time>
      </trkpt>
      <trkpt lat="43.75721" lon="6.96812">
        <ele>961</ele>
        <time>2018-01-02T14:34:28.552Z</time>
      </trkpt>
      <trkpt lat="43.75721" lon="6.96821">
        <ele>961</ele>
        <time>2018-01-02T14:34:30.552Z</time>
      </trkpt>
      <trkpt lat="43.75721" lon="6.96829">
        <ele>961</ele>
        <time>2018-01-02T14:34:32.552Z</time>
      </trkpt>
      <trkpt lat="43.7572" lon="6.96838">
        <ele>960</ele>
        <time>2018-01-02T14:34:34.552Z</time>
      </trkpt>
      <trkpt lat="43.75718" lon="6.96847">
        <ele>960</ele>
        <time>2018-01-02T14:34:36.552Z</time>
      </trkpt>
      <trkpt lat="43.75715" lon="6.96854">
        <ele>960</ele>
        <time>2018-01-02T14:34:38.552Z</time>
      </trkpt>
      <trkpt lat="43.75711" lon="6.9686">
        <ele>960</ele>
        <time>2018-01-02T14:34:40.552Z</time>
      </trkpt>
      <trkpt lat="43.75706" lon="6.96865">
        <ele>960</ele>
        <time>2018-01-02T14:34:42.552Z</time>
      </trkpt>
      <trkpt lat="43.75702" lon="6.96873">
        <ele>960</ele>
        <time>2018-01-02T14:34:44.552Z</time>
      </trkpt>
      <trkpt lat="43.75698" lon="6.96881">
        <ele>960</ele>
        <time>2018-01-02T14:34:46.552Z</time>
      </trkpt>
      <trkpt lat="43.75694" lon="6.96889">
        <ele>960</ele>
        <time>2018-01-02T14:34:48.552Z</time>
      </trkpt>
      <trkpt lat="43.7569" lon="6.96897">
        <ele>960</ele>
        <time>2018-01-02T14:34:50.552Z</time>
      </trkpt>
      <trkpt lat="43.75685" lon="6.96907">
        <ele>959</ele>
        <time>2018-01-02T14:34:52.552Z</time>
      </trkpt>
      <trkpt lat="43.7568" lon="6.96917">
        <ele>959</ele>
        <time>2018-01-02T14:34:54.552Z</time>
      </trkpt>
      <trkpt lat="43.75674" lon="6.96925">
        <ele>959</ele>
        <time>2018-01-02T14:34:56.552Z</time>
      </trkpt>
      <trkpt lat="43.75667" lon="6.96928">
        <ele>959</ele>
        <time>2018-01-02T14:34:58.552Z</time>
      </trkpt>
      <trkpt lat="43.7566" lon="6.9693">
        <ele>958</ele>
        <time>2018-01-02T14:35:00.552Z</time>
      </trkpt>
      <trkpt lat="43.75655" lon="6.96934">
        <ele>958</ele>
        <time>2018-01-02T14:35:02.552Z</time>
      </trkpt>
      <trkpt lat="43.75649" lon="6.96937">
        <ele>958</ele>
        <time>2018-01-02T14:35:04.552Z</time>
      </trkpt>
      <trkpt lat="43.75643" lon="6.96941">
        <ele>957</ele>
        <time>2018-01-02T14:35:06.552Z</time>
      </trkpt>
      <trkpt lat="43.75637" lon="6.96944">
        <ele>957</ele>
        <time>2018-01-02T14:35:08.552Z</time>
      </trkpt>
      <trkpt lat="43.7563" lon="6.96947">
        <ele>957</ele>
        <time>2018-01-02T14:35:10.552Z</time>
      </trkpt>
      <trkpt lat="43.75624" lon="6.96955">
        <ele>957</ele>
        <time>2018-01-02T14:35:12.552Z</time>
      </trkpt>
      <trkpt lat="43.75618" lon="6.96962">
        <ele>957</ele>
        <time>2018-01-02T14:35:14.552Z</time>
      </trkpt>
      <trkpt lat="43.75612" lon="6.96967">
        <ele>957</ele>
        <time>2018-01-02T14:35:16.552Z</time>
      </trkpt>
      <trkpt lat="43.75607" lon="6.96974">
        <ele>957</ele>
        <time>2018-01-02T14:35:18.552Z</time>
      </trkpt>
      <trkpt lat="43.75605" lon="6.96983">
        <ele>956</ele>
        <time>2018-01-02T14:35:20.552Z</time>
      </trkpt>
      <trkpt lat="43.75604" lon="6.96991">
        <ele>956</ele>
        <time>2018-01-02T14:35:22.552Z</time>
      </trkpt>
      <trkpt lat="43.75605" lon="6.96998">
        <ele>956</ele>
        <time>2018-01-02T14:35:24.552Z</time>
      </trkpt>
      <trkpt lat="43.75609" lon="6.97005">
        <ele>955</ele>
        <time>2018-01-02T14:35:26.552Z</time>
      </trkpt>
      <trkpt lat="43.75614" lon="6.97012">
        <ele>955</ele>
        <time>2018-01-02T14:35:28.552Z</time>
      </trkpt>
      <trkpt lat="43.75619" lon="6.9702">
        <ele>955</ele>
        <time>2018-01-02T14:35:30.552Z</time>
      </trkpt>
      <trkpt lat="43.75623" lon="6.97029">
        <ele>955</ele>
        <time>2018-01-02T14:35:32.552Z</time>
      </trkpt>
      <trkpt lat="43.75626" lon="6.9704">
        <ele>955</ele>
        <time>2018-01-02T14:35:34.552Z</time>
      </trkpt>
      <trkpt lat="43.75627" lon="6.97051">
        <ele>955</ele>
        <time>2018-01-02T14:35:36.552Z</time>
      </trkpt>
      <trkpt lat="43.75624" lon="6.97063">
        <ele>955</ele>
        <time>2018-01-02T14:35:38.552Z</time>
      </trkpt>
      <trkpt lat="43.75615" lon="6.97071">
        <ele>954</ele>
        <time>2018-01-02T14:35:40.552Z</time>
      </trkpt>
      <trkpt lat="43.75604" lon="6.97085">
        <ele>953</ele>
        <time>2018-01-02T14:35:42.552Z</time>
      </trkpt>
      <trkpt lat="43.756" lon="6.97092">
        <ele>953</ele>
        <time>2018-01-02T14:35:43.552Z</time>
      </trkpt>
      <trkpt lat="43.75596" lon="6.97099">
        <ele>953</ele>
        <time>2018-01-02T14:35:44.552Z</time>
      </trkpt>
      <trkpt lat="43.75592" lon="6.97105">
        <ele>953</ele>
        <time>2018-01-02T14:35:45.552Z</time>
      </trkpt>
      <trkpt lat="43.75589" lon="6.9711">
        <ele>953</ele>
        <time>2018-01-02T14:35:46.552Z</time>
      </trkpt>
      <trkpt lat="43.75583" lon="6.9712">
        <ele>952</ele>
        <time>2018-01-02T14:35:48.552Z</time>
      </trkpt>
      <trkpt lat="43.7558" lon="6.97128">
        <ele>952</ele>
        <time>2018-01-02T14:35:50.552Z</time>
      </trkpt>
      <trkpt lat="43.75577" lon="6.97136">
        <ele>952</ele>
        <time>2018-01-02T14:35:52.552Z</time>
      </trkpt>
      <trkpt lat="43.75575" lon="6.97146">
        <ele>952</ele>
        <time>2018-01-02T14:35:54.552Z</time>
      </trkpt>
      <trkpt lat="43.75573" lon="6.97156">
        <ele>952</ele>
        <time>2018-01-02T14:35:56.552Z</time>
      </trkpt>
      <trkpt lat="43.7557" lon="6.97166">
        <ele>952</ele>
        <time>2018-01-02T14:35:58.552Z</time>
      </trkpt>
      <trkpt lat="43.75567" lon="6.97176">
        <ele>951</ele>
        <time>2018-01-02T14:36:00.552Z</time>
      </trkpt>
      <trkpt lat="43.75566" lon="6.97185">
        <ele>951</ele>
        <time>2018-01-02T14:36:02.552Z</time>
      </trkpt>
      <trkpt lat="43.75564" lon="6.97192">
        <ele>951</ele>
        <time>2018-01-02T14:36:04.552Z</time>
      </trkpt>
      <trkpt lat="43.75559" lon="6.97195">
        <ele>951</ele>
        <time>2018-01-02T14:36:08.552Z</time>
      </trkpt>
      <trkpt lat="43.75552" lon="6.97192">
        <ele>951</ele>
        <time>2018-01-02T14:36:11.552Z</time>
      </trkpt>
      <trkpt lat="43.75546" lon="6.97191">
        <ele>951</ele>
        <time>2018-01-02T14:36:13.552Z</time>
      </trkpt>
      <trkpt lat="43.7554" lon="6.97193">
        <ele>951</ele>
        <time>2018-01-02T14:36:15.552Z</time>
      </trkpt>
      <trkpt lat="43.75535" lon="6.97194">
        <ele>951</ele>
        <time>2018-01-02T14:36:17.552Z</time>
      </trkpt>
      <trkpt lat="43.75529" lon="6.97194">
        <ele>951</ele>
        <time>2018-01-02T14:36:19.552Z</time>
      </trkpt>
      <trkpt lat="43.75522" lon="6.97193">
        <ele>951</ele>
        <time>2018-01-02T14:36:21.552Z</time>
      </trkpt>
      <trkpt lat="43.75516" lon="6.97192">
        <ele>952</ele>
        <time>2018-01-02T14:36:23.552Z</time>
      </trkpt>
      <trkpt lat="43.7551" lon="6.97192">
        <ele>952</ele>
        <time>2018-01-02T14:36:25.552Z</time>
      </trkpt>
      <trkpt lat="43.75504" lon="6.97193">
        <ele>952</ele>
        <time>2018-01-02T14:36:27.552Z</time>
      </trkpt>
      <trkpt lat="43.75498" lon="6.97194">
        <ele>952</ele>
        <time>2018-01-02T14:36:29.552Z</time>
      </trkpt>
      <trkpt lat="43.75493" lon="6.97195">
        <ele>952</ele>
        <time>2018-01-02T14:36:31.552Z</time>
      </trkpt>
      <trkpt lat="43.75489" lon="6.97197">
        <ele>952</ele>
        <time>2018-01-02T14:36:33.552Z</time>
      </trkpt>
      <trkpt lat="43.75485" lon="6.97198">
        <ele>952</ele>
        <time>2018-01-02T14:36:35.552Z</time>
      </trkpt>
      <trkpt lat="43.75481" lon="6.97199">
        <ele>952</ele>
        <time>2018-01-02T14:36:37.552Z</time>
      </trkpt>
      <trkpt lat="43.75476" lon="6.97199">
        <ele>952</ele>
        <time>2018-01-02T14:36:39.552Z</time>
      </trkpt>
      <trkpt lat="43.75471" lon="6.97199">
        <ele>952</ele>
        <time>2018-01-02T14:36:41.552Z</time>
      </trkpt>
      <trkpt lat="43.75467" lon="6.972">
        <ele>952</ele>
        <time>2018-01-02T14:36:43.552Z</time>
      </trkpt>
      <trkpt lat="43.75461" lon="6.97202">
        <ele>952</ele>
        <time>2018-01-02T14:36:46.552Z</time>
      </trkpt>
      <trkpt lat="43.75456" lon="6.97203">
        <ele>953</ele>
        <time>2018-01-02T14:36:48.552Z</time>
      </trkpt>
      <trkpt lat="43.75451" lon="6.97204">
        <ele>953</ele>
        <time>2018-01-02T14:36:50.552Z</time>
      </trkpt>
      <trkpt lat="43.75446" lon="6.97205">
        <ele>953</ele>
        <time>2018-01-02T14:36:52.552Z</time>
      </trkpt>
      <trkpt lat="43.7544" lon="6.97207">
        <ele>953</ele>
        <time>2018-01-02T14:36:54.552Z</time>
      </trkpt>
      <trkpt lat="43.75435" lon="6.97208">
        <ele>953</ele>
        <time>2018-01-02T14:36:56.552Z</time>
      </trkpt>
      <trkpt lat="43.75429" lon="6.97211">
        <ele>953</ele>
        <time>2018-01-02T14:36:58.552Z</time>
      </trkpt>
      <trkpt lat="43.75423" lon="6.97212">
        <ele>953</ele>
        <time>2018-01-02T14:37:00.552Z</time>
      </trkpt>
      <trkpt lat="43.75416" lon="6.97214">
        <ele>953</ele>
        <time>2018-01-02T14:37:02.552Z</time>
      </trkpt>
      <trkpt lat="43.75409" lon="6.97216">
        <ele>953</ele>
        <time>2018-01-02T14:37:04.552Z</time>
      </trkpt>
      <trkpt lat="43.75401" lon="6.97218">
        <ele>953</ele>
        <time>2018-01-02T14:37:06.552Z</time>
      </trkpt>
      <trkpt lat="43.75393" lon="6.97221">
        <ele>953</ele>
        <time>2018-01-02T14:37:08.552Z</time>
      </trkpt>
      <trkpt lat="43.75386" lon="6.97224">
        <ele>953</ele>
        <time>2018-01-02T14:37:10.552Z</time>
      </trkpt>
      <trkpt lat="43.75379" lon="6.97227">
        <ele>953</ele>
        <time>2018-01-02T14:37:12.552Z</time>
      </trkpt>
      <trkpt lat="43.75371" lon="6.9723">
        <ele>953</ele>
        <time>2018-01-02T14:37:14.552Z</time>
      </trkpt>
      <trkpt lat="43.75364" lon="6.97233">
        <ele>953</ele>
        <time>2018-01-02T14:37:16.552Z</time>
      </trkpt>
      <trkpt lat="43.75358" lon="6.97238">
        <ele>953</ele>
        <time>2018-01-02T14:37:18.552Z</time>
      </trkpt>
      <trkpt lat="43.75351" lon="6.97244">
        <ele>953</ele>
        <time>2018-01-02T14:37:20.552Z</time>
      </trkpt>
      <trkpt lat="43.75344" lon="6.97248">
        <ele>952</ele>
        <time>2018-01-02T14:37:22.552Z</time>
      </trkpt>
      <trkpt lat="43.75336" lon="6.97252">
        <ele>952</ele>
        <time>2018-01-02T14:37:24.552Z</time>
      </trkpt>
      <trkpt lat="43.7533" lon="6.97255">
        <ele>952</ele>
        <time>2018-01-02T14:37:26.552Z</time>
      </trkpt>
      <trkpt lat="43.75324" lon="6.97258">
        <ele>952</ele>
        <time>2018-01-02T14:37:28.552Z</time>
      </trkpt>
      <trkpt lat="43.75318" lon="6.97261">
        <ele>952</ele>
        <time>2018-01-02T14:37:30.552Z</time>
      </trkpt>
      <trkpt lat="43.75311" lon="6.97262">
        <ele>951</ele>
        <time>2018-01-02T14:37:32.552Z</time>
      </trkpt>
      <trkpt lat="43.75305" lon="6.97261">
        <ele>951</ele>
        <time>2018-01-02T14:37:34.552Z</time>
      </trkpt>
      <trkpt lat="43.75297" lon="6.9726">
        <ele>951</ele>
        <time>2018-01-02T14:37:36.552Z</time>
      </trkpt>
      <trkpt lat="43.7529" lon="6.97259">
        <ele>951</ele>
        <time>2018-01-02T14:37:38.552Z</time>
      </trkpt>
      <trkpt lat="43.75282" lon="6.97258">
        <ele>951</ele>
        <time>2018-01-02T14:37:40.552Z</time>
      </trkpt>
      <trkpt lat="43.75275" lon="6.97258">
        <ele>951</ele>
        <time>2018-01-02T14:37:42.552Z</time>
      </trkpt>
      <trkpt lat="43.75268" lon="6.97259">
        <ele>951</ele>
        <time>2018-01-02T14:37:44.552Z</time>
      </trkpt>
      <trkpt lat="43.75262" lon="6.97261">
        <ele>951</ele>
        <time>2018-01-02T14:37:46.552Z</time>
      </trkpt>
      <trkpt lat="43.75256" lon="6.97262">
        <ele>951</ele>
        <time>2018-01-02T14:37:48.552Z</time>
      </trkpt>
      <trkpt lat="43.7525" lon="6.97262">
        <ele>950</ele>
        <time>2018-01-02T14:37:50.552Z</time>
      </trkpt>
      <trkpt lat="43.75245" lon="6.97263">
        <ele>951</ele>
        <time>2018-01-02T14:37:52.552Z</time>
      </trkpt>
      <trkpt lat="43.75239" lon="6.97265">
        <ele>951</ele>
        <time>2018-01-02T14:37:54.552Z</time>
      </trkpt>
      <trkpt lat="43.75232" lon="6.97265">
        <ele>951</ele>
        <time>2018-01-02T14:37:56.552Z</time>
      </trkpt>
      <trkpt lat="43.75226" lon="6.97265">
        <ele>951</ele>
        <time>2018-01-02T14:37:58.552Z</time>
      </trkpt>
      <trkpt lat="43.7522" lon="6.97264">
        <ele>951</ele>
        <time>2018-01-02T14:38:00.552Z</time>
      </trkpt>
      <trkpt lat="43.75215" lon="6.97264">
        <ele>952</ele>
        <time>2018-01-02T14:38:02.552Z</time>
      </trkpt>
      <trkpt lat="43.75209" lon="6.97265">
        <ele>952</ele>
        <time>2018-01-02T14:38:04.552Z</time>
      </trkpt>
      <trkpt lat="43.75204" lon="6.97266">
        <ele>952</ele>
        <time>2018-01-02T14:38:06.552Z</time>
      </trkpt>
      <trkpt lat="43.75199" lon="6.97266">
        <ele>952</ele>
        <time>2018-01-02T14:38:08.552Z</time>
      </trkpt>
      <trkpt lat="43.75194" lon="6.97266">
        <ele>952</ele>
        <time>2018-01-02T14:38:10.552Z</time>
      </trkpt>
      <trkpt lat="43.75189" lon="6.97266">
        <ele>952</ele>
        <time>2018-01-02T14:38:12.552Z</time>
      </trkpt>
      <trkpt lat="43.75184" lon="6.97267">
        <ele>952</ele>
        <time>2018-01-02T14:38:14.552Z</time>
      </trkpt>
      <trkpt lat="43.7518" lon="6.97267">
        <ele>952</ele>
        <time>2018-01-02T14:38:16.552Z</time>
      </trkpt>
      <trkpt lat="43.75175" lon="6.97267">
        <ele>952</ele>
        <time>2018-01-02T14:38:18.552Z</time>
      </trkpt>
      <trkpt lat="43.75171" lon="6.97269">
        <ele>952</ele>
        <time>2018-01-02T14:38:20.552Z</time>
      </trkpt>
      <trkpt lat="43.75167" lon="6.9727">
        <ele>953</ele>
        <time>2018-01-02T14:38:22.552Z</time>
      </trkpt>
      <trkpt lat="43.75162" lon="6.97271">
        <ele>953</ele>
        <time>2018-01-02T14:38:24.552Z</time>
      </trkpt>
      <trkpt lat="43.75157" lon="6.97272">
        <ele>953</ele>
        <time>2018-01-02T14:38:26.552Z</time>
      </trkpt>
      <trkpt lat="43.75152" lon="6.97273">
        <ele>954</ele>
        <time>2018-01-02T14:38:28.552Z</time>
      </trkpt>
      <trkpt lat="43.75146" lon="6.97274">
        <ele>954</ele>
        <time>2018-01-02T14:38:30.552Z</time>
      </trkpt>
      <trkpt lat="43.7514" lon="6.97273">
        <ele>954</ele>
        <time>2018-01-02T14:38:32.552Z</time>
      </trkpt>
      <trkpt lat="43.75135" lon="6.97273">
        <ele>954</ele>
        <time>2018-01-02T14:38:34.552Z</time>
      </trkpt>
      <trkpt lat="43.75127" lon="6.97274">
        <ele>954</ele>
        <time>2018-01-02T14:38:38.552Z</time>
      </trkpt>
      <trkpt lat="43.75122" lon="6.97276">
        <ele>954</ele>
        <time>2018-01-02T14:38:40.552Z</time>
      </trkpt>
      <trkpt lat="43.75117" lon="6.97278">
        <ele>954</ele>
        <time>2018-01-02T14:38:42.552Z</time>
      </trkpt>
      <trkpt lat="43.75112" lon="6.97279">
        <ele>954</ele>
        <time>2018-01-02T14:38:44.552Z</time>
      </trkpt>
      <trkpt lat="43.75106" lon="6.9728">
        <ele>954</ele>
        <time>2018-01-02T14:38:46.552Z</time>
      </trkpt>
      <trkpt lat="43.75101" lon="6.97279">
        <ele>954</ele>
        <time>2018-01-02T14:38:48.552Z</time>
      </trkpt>
      <trkpt lat="43.75096" lon="6.97277">
        <ele>954</ele>
        <time>2018-01-02T14:38:50.552Z</time>
      </trkpt>
      <trkpt lat="43.75091" lon="6.97274">
        <ele>954</ele>
        <time>2018-01-02T14:38:53.552Z</time>
      </trkpt>
      <trkpt lat="43.75085" lon="6.97271">
        <ele>954</ele>
        <time>2018-01-02T14:38:56.552Z</time>
      </trkpt>
      <trkpt lat="43.75079" lon="6.9727">
        <ele>955</ele>
        <time>2018-01-02T14:38:58.552Z</time>
      </trkpt>
      <trkpt lat="43.75074" lon="6.97269">
        <ele>955</ele>
        <time>2018-01-02T14:39:00.552Z</time>
      </trkpt>
      <trkpt lat="43.75069" lon="6.97269">
        <ele>956</ele>
        <time>2018-01-02T14:39:02.552Z</time>
      </trkpt>
      <trkpt lat="43.75065" lon="6.9727">
        <ele>956</ele>
        <time>2018-01-02T14:39:04.552Z</time>
      </trkpt>
      <trkpt lat="43.7506" lon="6.9727">
        <ele>956</ele>
        <time>2018-01-02T14:39:06.552Z</time>
      </trkpt>
      <trkpt lat="43.75053" lon="6.9727">
        <ele>956</ele>
        <time>2018-01-02T14:39:09.552Z</time>
      </trkpt>
      <trkpt lat="43.75048" lon="6.97271">
        <ele>956</ele>
        <time>2018-01-02T14:39:11.552Z</time>
      </trkpt>
      <trkpt lat="43.75043" lon="6.97271">
        <ele>956</ele>
        <time>2018-01-02T14:39:13.552Z</time>
      </trkpt>
      <trkpt lat="43.75037" lon="6.97272">
        <ele>956</ele>
        <time>2018-01-02T14:39:16.552Z</time>
      </trkpt>
      <trkpt lat="43.75029" lon="6.97271">
        <ele>956</ele>
        <time>2018-01-02T14:39:19.552Z</time>
      </trkpt>
      <trkpt lat="43.75022" lon="6.97272">
        <ele>956</ele>
        <time>2018-01-02T14:39:22.552Z</time>
      </trkpt>
      <trkpt lat="43.75017" lon="6.97272">
        <ele>956</ele>
        <time>2018-01-02T14:39:24.552Z</time>
      </trkpt>
      <trkpt lat="43.75011" lon="6.97273">
        <ele>956</ele>
        <time>2018-01-02T14:39:27.552Z</time>
      </trkpt>
      <trkpt lat="43.75006" lon="6.97275">
        <ele>957</ele>
        <time>2018-01-02T14:39:30.552Z</time>
      </trkpt>
      <trkpt lat="43.75002" lon="6.97275">
        <ele>957</ele>
        <time>2018-01-02T14:39:32.552Z</time>
      </trkpt>
      <trkpt lat="43.74997" lon="6.97275">
        <ele>959</ele>
        <time>2018-01-02T14:39:34.552Z</time>
      </trkpt>
      <trkpt lat="43.74992" lon="6.97275">
        <ele>959</ele>
        <time>2018-01-02T14:39:37.552Z</time>
      </trkpt>
      <trkpt lat="43.74986" lon="6.97275">
        <ele>959</ele>
        <time>2018-01-02T14:39:40.552Z</time>
      </trkpt>
      <trkpt lat="43.74981" lon="6.97276">
        <ele>959</ele>
        <time>2018-01-02T14:39:42.552Z</time>
      </trkpt>
      <trkpt lat="43.74976" lon="6.97275">
        <ele>959</ele>
        <time>2018-01-02T14:39:44.552Z</time>
      </trkpt>
      <trkpt lat="43.74967" lon="6.97275">
        <ele>960</ele>
        <time>2018-01-02T14:39:48.552Z</time>
      </trkpt>
      <trkpt lat="43.74962" lon="6.97276">
        <ele>960</ele>
        <time>2018-01-02T14:39:50.552Z</time>
      </trkpt>
      <trkpt lat="43.74957" lon="6.97275">
        <ele>960</ele>
        <time>2018-01-02T14:39:52.552Z</time>
      </trkpt>
      <trkpt lat="43.74952" lon="6.97275">
        <ele>960</ele>
        <time>2018-01-02T14:39:54.552Z</time>
      </trkpt>
      <trkpt lat="43.74947" lon="6.97276">
        <ele>961</ele>
        <time>2018-01-02T14:39:57.552Z</time>
      </trkpt>
      <trkpt lat="43.74941" lon="6.97276">
        <ele>961</ele>
        <time>2018-01-02T14:40:00.552Z</time>
      </trkpt>
      <trkpt lat="43.74929" lon="6.97275">
        <ele>962</ele>
        <time>2018-01-02T14:40:06.552Z</time>
      </trkpt>
      <trkpt lat="43.74926" lon="6.97275">
        <ele>962</ele>
        <time>2018-01-02T14:40:08.552Z</time>
      </trkpt>
      <trkpt lat="43.74922" lon="6.97274">
        <ele>962</ele>
        <time>2018-01-02T14:40:10.552Z</time>
      </trkpt>
      <trkpt lat="43.74917" lon="6.97275">
        <ele>962</ele>
        <time>2018-01-02T14:40:12.552Z</time>
      </trkpt>
      <trkpt lat="43.74912" lon="6.97277">
        <ele>965</ele>
        <time>2018-01-02T14:40:15.552Z</time>
      </trkpt>
      <trkpt lat="43.74906" lon="6.97277">
        <ele>965</ele>
        <time>2018-01-02T14:40:18.552Z</time>
      </trkpt>
      <trkpt lat="43.749" lon="6.97276">
        <ele>965</ele>
        <time>2018-01-02T14:40:21.552Z</time>
      </trkpt>
      <trkpt lat="43.74893" lon="6.97277">
        <ele>966</ele>
        <time>2018-01-02T14:40:24.552Z</time>
      </trkpt>
      <trkpt lat="43.74886" lon="6.97277">
        <ele>966</ele>
        <time>2018-01-02T14:40:28.552Z</time>
      </trkpt>
      <trkpt lat="43.74878" lon="6.97277">
        <ele>966</ele>
        <time>2018-01-02T14:40:32.552Z</time>
      </trkpt>
      <trkpt lat="43.74871" lon="6.97278">
        <ele>966</ele>
        <time>2018-01-02T14:40:36.552Z</time>
      </trkpt>
      <trkpt lat="43.74864" lon="6.9728">
        <ele>967</ele>
        <time>2018-01-02T14:40:40.552Z</time>
      </trkpt>
      <trkpt lat="43.74857" lon="6.97282">
        <ele>967</ele>
        <time>2018-01-02T14:40:43.552Z</time>
      </trkpt>
      <trkpt lat="43.74851" lon="6.97286">
        <ele>967</ele>
        <time>2018-01-02T14:40:46.552Z</time>
      </trkpt>
      <trkpt lat="43.74846" lon="6.9729">
        <ele>967</ele>
        <time>2018-01-02T14:40:49.552Z</time>
      </trkpt>
      <trkpt lat="43.7484" lon="6.97294">
        <ele>967</ele>
        <time>2018-01-02T14:40:52.552Z</time>
      </trkpt>
      <trkpt lat="43.74834" lon="6.97297">
        <ele>967</ele>
        <time>2018-01-02T14:40:55.552Z</time>
      </trkpt>
      <trkpt lat="43.74828" lon="6.97302">
        <ele>972</ele>
        <time>2018-01-02T14:40:59.552Z</time>
      </trkpt>
      <trkpt lat="43.74821" lon="6.97308">
        <ele>972</ele>
        <time>2018-01-02T14:41:03.552Z</time>
      </trkpt>
      <trkpt lat="43.74815" lon="6.97315">
        <ele>972</ele>
        <time>2018-01-02T14:41:07.552Z</time>
      </trkpt>
      <trkpt lat="43.74809" lon="6.9732">
        <ele>972</ele>
        <time>2018-01-02T14:41:11.552Z</time>
      </trkpt>
      <trkpt lat="43.74804" lon="6.97329">
        <ele>972</ele>
        <time>2018-01-02T14:41:16.552Z</time>
      </trkpt>
      <trkpt lat="43.74799" lon="6.97335">
        <ele>969</ele>
        <time>2018-01-02T14:41:20.552Z</time>
      </trkpt>
      <trkpt lat="43.74793" lon="6.97341">
        <ele>970</ele>
        <time>2018-01-02T14:41:26.552Z</time>
      </trkpt>
      <trkpt lat="43.74789" lon="6.97346">
        <ele>970</ele>
        <time>2018-01-02T14:41:30.552Z</time>
      </trkpt>
      <trkpt lat="43.74785" lon="6.97352">
        <ele>970</ele>
        <time>2018-01-02T14:41:34.552Z</time>
      </trkpt>
      <trkpt lat="43.74782" lon="6.97357">
        <ele>970</ele>
        <time>2018-01-02T14:41:37.552Z</time>
      </trkpt>
      <trkpt lat="43.74778" lon="6.97361">
        <ele>971</ele>
        <time>2018-01-02T14:41:40.552Z</time>
      </trkpt>
      <trkpt lat="43.74773" lon="6.97366">
        <ele>971</ele>
        <time>2018-01-02T14:41:45.552Z</time>
      </trkpt>
      <trkpt lat="43.74769" lon="6.97371">
        <ele>971</ele>
        <time>2018-01-02T14:41:49.552Z</time>
      </trkpt>
      <trkpt lat="43.74764" lon="6.97377">
        <ele>971</ele>
        <time>2018-01-02T14:41:53.552Z</time>
      </trkpt>
      <trkpt lat="43.7476" lon="6.97382">
        <ele>971</ele>
        <time>2018-01-02T14:41:57.552Z</time>
      </trkpt>
      <trkpt lat="43.74756" lon="6.97386">
        <ele>971</ele>
        <time>2018-01-02T14:42:01.552Z</time>
      </trkpt>
      <trkpt lat="43.7475" lon="6.9739">
        <ele>971</ele>
        <time>2018-01-02T14:42:06.552Z</time>
      </trkpt>
      <trkpt lat="43.74746" lon="6.97393">
        <ele>978</ele>
        <time>2018-01-02T14:42:09.552Z</time>
      </trkpt>
      <trkpt lat="43.74742" lon="6.97398">
        <ele>978</ele>
        <time>2018-01-02T14:42:13.552Z</time>
      </trkpt>
      <trkpt lat="43.74736" lon="6.97402">
        <ele>978</ele>
        <time>2018-01-02T14:42:18.552Z</time>
      </trkpt>
      <trkpt lat="43.7473" lon="6.97407">
        <ele>979</ele>
        <time>2018-01-02T14:42:24.552Z</time>
      </trkpt>
      <trkpt lat="43.74725" lon="6.97412">
        <ele>979</ele>
        <time>2018-01-02T14:42:29.552Z</time>
      </trkpt>
      <trkpt lat="43.74719" lon="6.97416">
        <ele>980</ele>
        <time>2018-01-02T14:42:34.552Z</time>
      </trkpt>
      <trkpt lat="43.74715" lon="6.97422">
        <ele>977</ele>
        <time>2018-01-02T14:42:39.552Z</time>
      </trkpt>
      <trkpt lat="43.74709" lon="6.97425">
        <ele>978</ele>
        <time>2018-01-02T14:42:44.552Z</time>
      </trkpt>
      <trkpt lat="43.74703" lon="6.97426">
        <ele>979</ele>
        <time>2018-01-02T14:42:50.552Z</time>
      </trkpt>
      <trkpt lat="43.74696" lon="6.9743">
        <ele>980</ele>
        <time>2018-01-02T14:42:56.552Z</time>
      </trkpt>
      <trkpt lat="43.74689" lon="6.97433">
        <ele>980</ele>
        <time>2018-01-02T14:43:01.552Z</time>
      </trkpt>
      <trkpt lat="43.74683" lon="6.97438">
        <ele>981</ele>
        <time>2018-01-02T14:43:06.552Z</time>
      </trkpt>
      <trkpt lat="43.74676" lon="6.97441">
        <ele>981</ele>
        <time>2018-01-02T14:43:11.552Z</time>
      </trkpt>
      <trkpt lat="43.7467" lon="6.97446">
        <ele>981</ele>
        <time>2018-01-02T14:43:17.552Z</time>
      </trkpt>
      <trkpt lat="43.74664" lon="6.97452">
        <ele>992</ele>
        <time>2018-01-02T14:43:23.552Z</time>
      </trkpt>
      <trkpt lat="43.7466" lon="6.9746">
        <ele>992</ele>
        <time>2018-01-02T14:43:31.552Z</time>
      </trkpt>
      <trkpt lat="43.74654" lon="6.97467">
        <ele>992</ele>
        <time>2018-01-02T14:43:39.552Z</time>
      </trkpt>
      <trkpt lat="43.74648" lon="6.97474">
        <ele>992</ele>
        <time>2018-01-02T14:43:48.552Z</time>
      </trkpt>
      <trkpt lat="43.74643" lon="6.97478">
        <ele>992</ele>
        <time>2018-01-02T14:43:59.552Z</time>
      </trkpt>
      <trkpt lat="43.74638" lon="6.97483">
        <ele>993</ele>
        <time>2018-01-02T14:44:10.552Z</time>
      </trkpt>
      <trkpt lat="43.74633" lon="6.97489">
        <ele>994</ele>
        <time>2018-01-02T14:44:15.552Z</time>
      </trkpt>
      <trkpt lat="43.74628" lon="6.97494">
        <ele>995</ele>
        <time>2018-01-02T14:44:20.552Z</time>
      </trkpt>
      <trkpt lat="43.74624" lon="6.97498">
        <ele>995</ele>
        <time>2018-01-02T14:44:29.552Z</time>
      </trkpt>
      <trkpt lat="43.74627" lon="6.97497">
        <ele>995</ele>
        <time>2018-01-02T14:46:18.552Z</time>
      </trkpt>
      <trkpt lat="43.74623" lon="6.97501">
        <ele>991</ele>
        <time>2018-01-02T14:50:17.552Z</time>
      </trkpt>
      <trkpt lat="43.74619" lon="6.97507">
        <ele>992</ele>
        <time>2018-01-02T14:50:26.552Z</time>
      </trkpt>
      <trkpt lat="43.74615" lon="6.97513">
        <ele>992</ele>
        <time>2018-01-02T14:50:33.552Z</time>
      </trkpt>
      <trkpt lat="43.74611" lon="6.9752">
        <ele>993</ele>
        <time>2018-01-02T14:50:42.552Z</time>
      </trkpt>
      <trkpt lat="43.74608" lon="6.97527">
        <ele>992</ele>
        <time>2018-01-02T14:50:46.552Z</time>
      </trkpt>
      <trkpt lat="43.74606" lon="6.97534">
        <ele>992</ele>
        <time>2018-01-02T14:50:49.552Z</time>
      </trkpt>
      <trkpt lat="43.74603" lon="6.9754">
        <ele>992</ele>
        <time>2018-01-02T14:50:52.552Z</time>
      </trkpt>
      <trkpt lat="43.74601" lon="6.97546">
        <ele>992</ele>
        <time>2018-01-02T14:50:55.552Z</time>
      </trkpt>
      <trkpt lat="43.746" lon="6.97553">
        <ele>992</ele>
        <time>2018-01-02T14:50:59.552Z</time>
      </trkpt>
      <trkpt lat="43.74597" lon="6.97559">
        <ele>992</ele>
        <time>2018-01-02T14:51:02.552Z</time>
      </trkpt>
      <trkpt lat="43.74594" lon="6.97566">
        <ele>992</ele>
        <time>2018-01-02T14:51:06.552Z</time>
      </trkpt>
      <trkpt lat="43.74591" lon="6.97571">
        <ele>993</ele>
        <time>2018-01-02T14:51:09.552Z</time>
      </trkpt>
      <trkpt lat="43.74588" lon="6.97575">
        <ele>993</ele>
        <time>2018-01-02T14:51:12.552Z</time>
      </trkpt>
      <trkpt lat="43.74585" lon="6.9758">
        <ele>994</ele>
        <time>2018-01-02T14:51:15.552Z</time>
      </trkpt>
      <trkpt lat="43.74582" lon="6.97584">
        <ele>996</ele>
        <time>2018-01-02T14:51:18.552Z</time>
      </trkpt>
      <trkpt lat="43.74579" lon="6.97588">
        <ele>998</ele>
        <time>2018-01-02T14:51:21.552Z</time>
      </trkpt>
      <trkpt lat="43.74573" lon="6.97595">
        <ele>1001</ele>
        <time>2018-01-02T14:51:27.552Z</time>
      </trkpt>
      <trkpt lat="43.74568" lon="6.976">
        <ele>1002</ele>
        <time>2018-01-02T14:51:32.552Z</time>
      </trkpt>
      <trkpt lat="43.74561" lon="6.97608">
        <ele>1004</ele>
        <time>2018-01-02T14:51:39.552Z</time>
      </trkpt>
      <trkpt lat="43.74557" lon="6.97612">
        <ele>1005</ele>
        <time>2018-01-02T14:51:43.552Z</time>
      </trkpt>
      <trkpt lat="43.74549" lon="6.97621">
        <ele>1006</ele>
        <time>2018-01-02T14:51:55.552Z</time>
      </trkpt>
      <trkpt lat="43.74541" lon="6.97632">
        <ele>1007</ele>
        <time>2018-01-02T14:52:04.552Z</time>
      </trkpt>
      <trkpt lat="43.74535" lon="6.97638">
        <ele>1008</ele>
        <time>2018-01-02T14:52:14.552Z</time>
      </trkpt>
      <trkpt lat="43.74532" lon="6.97647">
        <ele>1008</ele>
        <time>2018-01-02T14:52:27.552Z</time>
      </trkpt>
      <trkpt lat="43.74531" lon="6.97653">
        <ele>1009</ele>
        <time>2018-01-02T14:52:30.552Z</time>
      </trkpt>
      <trkpt lat="43.7453" lon="6.97661">
        <ele>1009</ele>
        <time>2018-01-02T14:52:35.552Z</time>
      </trkpt>
      <trkpt lat="43.74531" lon="6.97669">
        <ele>1007</ele>
        <time>2018-01-02T14:52:40.552Z</time>
      </trkpt>
      <trkpt lat="43.74529" lon="6.97677">
        <ele>1007</ele>
        <time>2018-01-02T14:52:45.552Z</time>
      </trkpt>
      <trkpt lat="43.74528" lon="6.97684">
        <ele>1007</ele>
        <time>2018-01-02T14:52:49.552Z</time>
      </trkpt>
      <trkpt lat="43.74528" lon="6.97692">
        <ele>1006</ele>
        <time>2018-01-02T14:52:54.552Z</time>
      </trkpt>
      <trkpt lat="43.74526" lon="6.97701">
        <ele>1006</ele>
        <time>2018-01-02T14:52:59.552Z</time>
      </trkpt>
      <trkpt lat="43.74525" lon="6.97713">
        <ele>1006</ele>
        <time>2018-01-02T14:53:06.552Z</time>
      </trkpt>
      <trkpt lat="43.74525" lon="6.97724">
        <ele>1006</ele>
        <time>2018-01-02T14:53:13.552Z</time>
      </trkpt>
      <trkpt lat="43.74522" lon="6.97735">
        <ele>1007</ele>
        <time>2018-01-02T14:53:20.552Z</time>
      </trkpt>
      <trkpt lat="43.7452" lon="6.97744">
        <ele>1008</ele>
        <time>2018-01-02T14:53:26.552Z</time>
      </trkpt>
      <trkpt lat="43.74518" lon="6.97754">
        <ele>1009</ele>
        <time>2018-01-02T14:53:32.552Z</time>
      </trkpt>
      <trkpt lat="43.74516" lon="6.97763">
        <ele>1009</ele>
        <time>2018-01-02T14:53:38.552Z</time>
      </trkpt>
      <trkpt lat="43.74514" lon="6.97767">
        <ele>1009</ele>
        <time>2018-01-02T14:53:41.552Z</time>
      </trkpt>
      <trkpt lat="43.74509" lon="6.97774">
        <ele>1009</ele>
        <time>2018-01-02T14:53:47.552Z</time>
      </trkpt>
      <trkpt lat="43.74506" lon="6.9778">
        <ele>1009</ele>
        <time>2018-01-02T14:53:52.552Z</time>
      </trkpt>
      <trkpt lat="43.74503" lon="6.97784">
        <ele>1010</ele>
        <time>2018-01-02T14:53:56.552Z</time>
      </trkpt>
      <trkpt lat="43.74499" lon="6.97791">
        <ele>1025</ele>
        <time>2018-01-02T14:54:02.552Z</time>
      </trkpt>
      <trkpt lat="43.74494" lon="6.97799">
        <ele>1025</ele>
        <time>2018-01-02T14:54:09.552Z</time>
      </trkpt>
      <trkpt lat="43.7449" lon="6.97804">
        <ele>1026</ele>
        <time>2018-01-02T14:54:14.552Z</time>
      </trkpt>
      <trkpt lat="43.74483" lon="6.97812">
        <ele>1026</ele>
        <time>2018-01-02T14:54:23.552Z</time>
      </trkpt>
      <trkpt lat="43.74478" lon="6.97816">
        <ele>1027</ele>
        <time>2018-01-02T14:54:29.552Z</time>
      </trkpt>
      <trkpt lat="43.74473" lon="6.97811">
        <ele>1027</ele>
        <time>2018-01-02T14:54:36.552Z</time>
      </trkpt>
      <trkpt lat="43.74475" lon="6.97799">
        <ele>1027</ele>
        <time>2018-01-02T14:54:45.552Z</time>
      </trkpt>
      <trkpt lat="43.74473" lon="6.97792">
        <ele>1027</ele>
        <time>2018-01-02T14:54:51.552Z</time>
      </trkpt>
      <trkpt lat="43.74471" lon="6.97783">
        <ele>1027</ele>
        <time>2018-01-02T14:55:03.552Z</time>
      </trkpt>
      <trkpt lat="43.7447" lon="6.97775">
        <ele>1027</ele>
        <time>2018-01-02T14:55:17.552Z</time>
      </trkpt>
      <trkpt lat="43.74468" lon="6.97768">
        <ele>1027</ele>
        <time>2018-01-02T14:55:26.552Z</time>
      </trkpt>
      <trkpt lat="43.74468" lon="6.97759">
        <ele>1027</ele>
        <time>2018-01-02T14:55:33.552Z</time>
      </trkpt>
      <trkpt lat="43.74467" lon="6.97753">
        <ele>1027</ele>
        <time>2018-01-02T14:55:39.552Z</time>
      </trkpt>
      <trkpt lat="43.74465" lon="6.97745">
        <ele>1028</ele>
        <time>2018-01-02T14:55:47.552Z</time>
      </trkpt>
      <trkpt lat="43.74463" lon="6.97738">
        <ele>1029</ele>
        <time>2018-01-02T14:55:53.552Z</time>
      </trkpt>
      <trkpt lat="43.74461" lon="6.97731">
        <ele>1029</ele>
        <time>2018-01-02T14:55:59.552Z</time>
      </trkpt>
      <trkpt lat="43.74457" lon="6.97722">
        <ele>1030</ele>
        <time>2018-01-02T14:56:13.552Z</time>
      </trkpt>
      <trkpt lat="43.74452" lon="6.97728">
        <ele>1031</ele>
        <time>2018-01-02T14:56:25.552Z</time>
      </trkpt>
      <trkpt lat="43.74447" lon="6.97736">
        <ele>1032</ele>
        <time>2018-01-02T14:56:33.552Z</time>
      </trkpt>
      <trkpt lat="43.74444" lon="6.97742">
        <ele>1033</ele>
        <time>2018-01-02T14:56:49.552Z</time>
      </trkpt>
      <trkpt lat="43.74441" lon="6.97748">
        <ele>1034</ele>
        <time>2018-01-02T14:56:57.552Z</time>
      </trkpt>
      <trkpt lat="43.74438" lon="6.97753">
        <ele>1034</ele>
        <time>2018-01-02T14:57:08.552Z</time>
      </trkpt>
      <trkpt lat="43.74434" lon="6.97759">
        <ele>1034</ele>
        <time>2018-01-02T14:57:12.552Z</time>
      </trkpt>
      <trkpt lat="43.7443" lon="6.97766">
        <ele>1034</ele>
        <time>2018-01-02T14:57:16.552Z</time>
      </trkpt>
      <trkpt lat="43.74426" lon="6.97772">
        <ele>1034</ele>
        <time>2018-01-02T14:57:20.552Z</time>
      </trkpt>
      <trkpt lat="43.74421" lon="6.97778">
        <ele>1034</ele>
        <time>2018-01-02T14:57:24.552Z</time>
      </trkpt>
      <trkpt lat="43.74418" lon="6.97786">
        <ele>1034</ele>
        <time>2018-01-02T14:57:29.552Z</time>
      </trkpt>
      <trkpt lat="43.74415" lon="6.97794">
        <ele>1049</ele>
        <time>2018-01-02T14:57:34.552Z</time>
      </trkpt>
      <trkpt lat="43.74412" lon="6.97803">
        <ele>1049</ele>
        <time>2018-01-02T14:57:39.552Z</time>
      </trkpt>
      <trkpt lat="43.74409" lon="6.97809">
        <ele>1049</ele>
        <time>2018-01-02T14:57:44.552Z</time>
      </trkpt>
      <trkpt lat="43.74407" lon="6.97816">
        <ele>1049</ele>
        <time>2018-01-02T14:57:48.552Z</time>
      </trkpt>
      <trkpt lat="43.74405" lon="6.97823">
        <ele>1048</ele>
        <time>2018-01-02T14:57:52.552Z</time>
      </trkpt>
      <trkpt lat="43.74403" lon="6.97829">
        <ele>1048</ele>
        <time>2018-01-02T14:57:56.552Z</time>
      </trkpt>
      <trkpt lat="43.74401" lon="6.97835">
        <ele>1048</ele>
        <time>2018-01-02T14:58:00.552Z</time>
      </trkpt>
      <trkpt lat="43.74398" lon="6.9784">
        <ele>1049</ele>
        <time>2018-01-02T14:58:04.552Z</time>
      </trkpt>
      <trkpt lat="43.74396" lon="6.97847">
        <ele>1050</ele>
        <time>2018-01-02T14:58:08.552Z</time>
      </trkpt>
      <trkpt lat="43.74394" lon="6.97854">
        <ele>1051</ele>
        <time>2018-01-02T14:58:13.552Z</time>
      </trkpt>
      <trkpt lat="43.74392" lon="6.97864">
        <ele>1051</ele>
        <time>2018-01-02T14:58:19.552Z</time>
      </trkpt>
      <trkpt lat="43.74388" lon="6.97871">
        <ele>1052</ele>
        <time>2018-01-02T14:58:24.552Z</time>
      </trkpt>
      <trkpt lat="43.74384" lon="6.97877">
        <ele>1052</ele>
        <time>2018-01-02T14:58:28.552Z</time>
      </trkpt>
      <trkpt lat="43.7438" lon="6.97883">
        <ele>1053</ele>
        <time>2018-01-02T14:58:33.552Z</time>
      </trkpt>
      <trkpt lat="43.74376" lon="6.9789">
        <ele>1053</ele>
        <time>2018-01-02T14:58:38.552Z</time>
      </trkpt>
      <trkpt lat="43.74372" lon="6.97898">
        <ele>1054</ele>
        <time>2018-01-02T14:58:44.552Z</time>
      </trkpt>
      <trkpt lat="43.74368" lon="6.97906">
        <ele>1054</ele>
        <time>2018-01-02T14:58:50.552Z</time>
      </trkpt>
      <trkpt lat="43.74364" lon="6.97914">
        <ele>1055</ele>
        <time>2018-01-02T14:58:56.552Z</time>
      </trkpt>
      <trkpt lat="43.74361" lon="6.97922">
        <ele>1056</ele>
        <time>2018-01-02T14:59:02.552Z</time>
      </trkpt>
      <trkpt lat="43.74354" lon="6.97922">
        <ele>1057</ele>
        <time>2018-01-02T14:59:08.552Z</time>
      </trkpt>
      <trkpt lat="43.74349" lon="6.97919">
        <ele>1057</ele>
        <time>2018-01-02T14:59:16.552Z</time>
      </trkpt>
      <trkpt lat="43.74343" lon="6.97915">
        <ele>1058</ele>
        <time>2018-01-02T14:59:21.552Z</time>
      </trkpt>
      <trkpt lat="43.74337" lon="6.97912">
        <ele>1059</ele>
        <time>2018-01-02T14:59:26.552Z</time>
      </trkpt>
      <trkpt lat="43.74332" lon="6.9791">
        <ele>1060</ele>
        <time>2018-01-02T14:59:30.552Z</time>
      </trkpt>
      <trkpt lat="43.74325" lon="6.97912">
        <ele>1061</ele>
        <time>2018-01-02T14:59:35.552Z</time>
      </trkpt>
      <trkpt lat="43.74321" lon="6.97911">
        <ele>1061</ele>
        <time>2018-01-02T14:59:38.552Z</time>
      </trkpt>
      <trkpt lat="43.74317" lon="6.97905">
        <ele>1061</ele>
        <time>2018-01-02T14:59:42.552Z</time>
      </trkpt>
      <trkpt lat="43.74314" lon="6.97899">
        <ele>1061</ele>
        <time>2018-01-02T14:59:46.552Z</time>
      </trkpt>
      <trkpt lat="43.74312" lon="6.97894">
        <ele>1061</ele>
        <time>2018-01-02T14:59:49.552Z</time>
      </trkpt>
      <trkpt lat="43.7431" lon="6.97888">
        <ele>1062</ele>
        <time>2018-01-02T14:59:52.552Z</time>
      </trkpt>
      <trkpt lat="43.74309" lon="6.97883">
        <ele>1062</ele>
        <time>2018-01-02T14:59:55.552Z</time>
      </trkpt>
      <trkpt lat="43.74307" lon="6.97879">
        <ele>1062</ele>
        <time>2018-01-02T14:59:58.552Z</time>
      </trkpt>
      <trkpt lat="43.74304" lon="6.97875">
        <ele>1062</ele>
        <time>2018-01-02T15:00:00.552Z</time>
      </trkpt>
      <trkpt lat="43.743" lon="6.97865">
        <ele>1062</ele>
        <time>2018-01-02T15:00:05.552Z</time>
      </trkpt>
      <trkpt lat="43.74298" lon="6.97862">
        <ele>1062</ele>
        <time>2018-01-02T15:00:07.552Z</time>
      </trkpt>
      <trkpt lat="43.74297" lon="6.97859">
        <ele>1062</ele>
        <time>2018-01-02T15:00:09.552Z</time>
      </trkpt>
      <trkpt lat="43.74294" lon="6.97852">
        <ele>1063</ele>
        <time>2018-01-02T15:00:13.552Z</time>
      </trkpt>
      <trkpt lat="43.74289" lon="6.97844">
        <ele>1063</ele>
        <time>2018-01-02T15:00:18.552Z</time>
      </trkpt>
      <trkpt lat="43.74285" lon="6.97837">
        <ele>1063</ele>
        <time>2018-01-02T15:00:23.552Z</time>
      </trkpt>
      <trkpt lat="43.74276" lon="6.97834">
        <ele>1063</ele>
        <time>2018-01-02T15:00:28.552Z</time>
      </trkpt>
      <trkpt lat="43.74266" lon="6.97831">
        <ele>1067</ele>
        <time>2018-01-02T15:00:35.552Z</time>
      </trkpt>
      <trkpt lat="43.74256" lon="6.97829">
        <ele>1067</ele>
        <time>2018-01-02T15:00:41.552Z</time>
      </trkpt>
      <trkpt lat="43.74248" lon="6.97825">
        <ele>1068</ele>
        <time>2018-01-02T15:00:46.552Z</time>
      </trkpt>
      <trkpt lat="43.74242" lon="6.97817">
        <ele>1069</ele>
        <time>2018-01-02T15:00:50.552Z</time>
      </trkpt>
      <trkpt lat="43.74238" lon="6.97808">
        <ele>1070</ele>
        <time>2018-01-02T15:00:54.552Z</time>
      </trkpt>
      <trkpt lat="43.74232" lon="6.97799">
        <ele>1071</ele>
        <time>2018-01-02T15:00:59.552Z</time>
      </trkpt>
      <trkpt lat="43.74225" lon="6.97792">
        <ele>1071</ele>
        <time>2018-01-02T15:01:05.552Z</time>
      </trkpt>
      <trkpt lat="43.74218" lon="6.97784">
        <ele>1072</ele>
        <time>2018-01-02T15:01:11.552Z</time>
      </trkpt>
      <trkpt lat="43.74212" lon="6.97776">
        <ele>1072</ele>
        <time>2018-01-02T15:01:16.552Z</time>
      </trkpt>
      <trkpt lat="43.74205" lon="6.97771">
        <ele>1072</ele>
        <time>2018-01-02T15:01:21.552Z</time>
      </trkpt>
      <trkpt lat="43.74194" lon="6.97775">
        <ele>1072</ele>
        <time>2018-01-02T15:01:29.552Z</time>
      </trkpt>
      <trkpt lat="43.74188" lon="6.97786">
        <ele>1071</ele>
        <time>2018-01-02T15:01:36.552Z</time>
      </trkpt>
      <trkpt lat="43.74181" lon="6.97795">
        <ele>1071</ele>
        <time>2018-01-02T15:01:43.552Z</time>
      </trkpt>
      <trkpt lat="43.74172" lon="6.97797">
        <ele>1070</ele>
        <time>2018-01-02T15:01:49.552Z</time>
      </trkpt>
      <trkpt lat="43.74163" lon="6.97793">
        <ele>1066</ele>
        <time>2018-01-02T15:01:55.552Z</time>
      </trkpt>
      <trkpt lat="43.74156" lon="6.9779">
        <ele>1066</ele>
        <time>2018-01-02T15:02:00.552Z</time>
      </trkpt>
      <trkpt lat="43.74149" lon="6.97785">
        <ele>1066</ele>
        <time>2018-01-02T15:02:05.552Z</time>
      </trkpt>
      <trkpt lat="43.74143" lon="6.97779">
        <ele>1066</ele>
        <time>2018-01-02T15:02:09.552Z</time>
      </trkpt>
      <trkpt lat="43.74137" lon="6.97772">
        <ele>1066</ele>
        <time>2018-01-02T15:02:14.552Z</time>
      </trkpt>
      <trkpt lat="43.74135" lon="6.97768">
        <ele>1066</ele>
        <time>2018-01-02T15:02:16.552Z</time>
      </trkpt>
      <trkpt lat="43.74131" lon="6.97759">
        <ele>1066</ele>
        <time>2018-01-02T15:02:20.552Z</time>
      </trkpt>
      <trkpt lat="43.74129" lon="6.97752">
        <ele>1066</ele>
        <time>2018-01-02T15:02:23.552Z</time>
      </trkpt>
      <trkpt lat="43.74128" lon="6.97747">
        <ele>1070</ele>
        <time>2018-01-02T15:02:25.552Z</time>
      </trkpt>
      <trkpt lat="43.74126" lon="6.9774">
        <ele>1070</ele>
        <time>2018-01-02T15:02:28.552Z</time>
      </trkpt>
      <trkpt lat="43.74124" lon="6.97731">
        <ele>1070</ele>
        <time>2018-01-02T15:02:31.552Z</time>
      </trkpt>
      <trkpt lat="43.74122" lon="6.97726">
        <ele>1070</ele>
        <time>2018-01-02T15:02:33.552Z</time>
      </trkpt>
      <trkpt lat="43.7412" lon="6.9772">
        <ele>1070</ele>
        <time>2018-01-02T15:02:35.552Z</time>
      </trkpt>
      <trkpt lat="43.74118" lon="6.97714">
        <ele>1070</ele>
        <time>2018-01-02T15:02:37.552Z</time>
      </trkpt>
      <trkpt lat="43.74115" lon="6.9771">
        <ele>1070</ele>
        <time>2018-01-02T15:02:39.552Z</time>
      </trkpt>
      <trkpt lat="43.7411" lon="6.97705">
        <ele>1070</ele>
        <time>2018-01-02T15:02:41.552Z</time>
      </trkpt>
      <trkpt lat="43.74106" lon="6.97699">
        <ele>1070</ele>
        <time>2018-01-02T15:02:43.552Z</time>
      </trkpt>
      <trkpt lat="43.74101" lon="6.97695">
        <ele>1070</ele>
        <time>2018-01-02T15:02:45.552Z</time>
      </trkpt>
      <trkpt lat="43.74098" lon="6.97693">
        <ele>1070</ele>
        <time>2018-01-02T15:02:46.552Z</time>
      </trkpt>
      <trkpt lat="43.74095" lon="6.97692">
        <ele>1070</ele>
        <time>2018-01-02T15:02:47.552Z</time>
      </trkpt>
      <trkpt lat="43.74091" lon="6.9769">
        <ele>1070</ele>
        <time>2018-01-02T15:02:49.552Z</time>
      </trkpt>
      <trkpt lat="43.74086" lon="6.97687">
        <ele>1069</ele>
        <time>2018-01-02T15:02:51.552Z</time>
      </trkpt>
      <trkpt lat="43.74082" lon="6.97682">
        <ele>1063</ele>
        <time>2018-01-02T15:02:53.552Z</time>
      </trkpt>
      <trkpt lat="43.74077" lon="6.97676">
        <ele>1064</ele>
        <time>2018-01-02T15:02:56.552Z</time>
      </trkpt>
      <trkpt lat="43.74074" lon="6.97671">
        <ele>1064</ele>
        <time>2018-01-02T15:02:58.552Z</time>
      </trkpt>
      <trkpt lat="43.74071" lon="6.97666">
        <ele>1066</ele>
        <time>2018-01-02T15:03:00.552Z</time>
      </trkpt>
      <trkpt lat="43.74068" lon="6.9766">
        <ele>1066</ele>
        <time>2018-01-02T15:03:02.552Z</time>
      </trkpt>
      <trkpt lat="43.74065" lon="6.97654">
        <ele>1065</ele>
        <time>2018-01-02T15:03:04.552Z</time>
      </trkpt>
      <trkpt lat="43.74061" lon="6.97648">
        <ele>1065</ele>
        <time>2018-01-02T15:03:06.552Z</time>
      </trkpt>
      <trkpt lat="43.74057" lon="6.97642">
        <ele>1064</ele>
        <time>2018-01-02T15:03:08.552Z</time>
      </trkpt>
      <trkpt lat="43.74052" lon="6.97637">
        <ele>1064</ele>
        <time>2018-01-02T15:03:10.552Z</time>
      </trkpt>
      <trkpt lat="43.74049" lon="6.97631">
        <ele>1064</ele>
        <time>2018-01-02T15:03:12.552Z</time>
      </trkpt>
      <trkpt lat="43.74044" lon="6.97625">
        <ele>1064</ele>
        <time>2018-01-02T15:03:15.552Z</time>
      </trkpt>
      <trkpt lat="43.74041" lon="6.97619">
        <ele>1064</ele>
        <time>2018-01-02T15:03:17.552Z</time>
      </trkpt>
      <trkpt lat="43.74037" lon="6.97613">
        <ele>1063</ele>
        <time>2018-01-02T15:03:19.552Z</time>
      </trkpt>
      <trkpt lat="43.74034" lon="6.97607">
        <ele>1063</ele>
        <time>2018-01-02T15:03:21.552Z</time>
      </trkpt>
      <trkpt lat="43.74029" lon="6.97601">
        <ele>1063</ele>
        <time>2018-01-02T15:03:23.552Z</time>
      </trkpt>
      <trkpt lat="43.74024" lon="6.97595">
        <ele>1062</ele>
        <time>2018-01-02T15:03:25.552Z</time>
      </trkpt>
      <trkpt lat="43.7402" lon="6.97588">
        <ele>1061</ele>
        <time>2018-01-02T15:03:27.552Z</time>
      </trkpt>
      <trkpt lat="43.74016" lon="6.9758">
        <ele>1063</ele>
        <time>2018-01-02T15:03:29.552Z</time>
      </trkpt>
      <trkpt lat="43.74014" lon="6.97574">
        <ele>1063</ele>
        <time>2018-01-02T15:03:31.552Z</time>
      </trkpt>
      <trkpt lat="43.74011" lon="6.97568">
        <ele>1063</ele>
        <time>2018-01-02T15:03:33.552Z</time>
      </trkpt>
      <trkpt lat="43.74009" lon="6.97559">
        <ele>1064</ele>
        <time>2018-01-02T15:03:36.552Z</time>
      </trkpt>
      <trkpt lat="43.74004" lon="6.97547">
        <ele>1064</ele>
        <time>2018-01-02T15:03:40.552Z</time>
      </trkpt>
      <trkpt lat="43.74" lon="6.97533">
        <ele>1052</ele>
        <time>2018-01-02T15:03:44.552Z</time>
      </trkpt>
      <trkpt lat="43.73995" lon="6.97522">
        <ele>1053</ele>
        <time>2018-01-02T15:03:48.552Z</time>
      </trkpt>
      <trkpt lat="43.73993" lon="6.97515">
        <ele>1054</ele>
        <time>2018-01-02T15:03:50.552Z</time>
      </trkpt>
      <trkpt lat="43.73991" lon="6.97504">
        <ele>1056</ele>
        <time>2018-01-02T15:03:54.552Z</time>
      </trkpt>
      <trkpt lat="43.73989" lon="6.97499">
        <ele>1056</ele>
        <time>2018-01-02T15:03:56.552Z</time>
      </trkpt>
      <trkpt lat="43.73987" lon="6.97491">
        <ele>1055</ele>
        <time>2018-01-02T15:03:58.552Z</time>
      </trkpt>
      <trkpt lat="43.73985" lon="6.97484">
        <ele>1054</ele>
        <time>2018-01-02T15:04:00.552Z</time>
      </trkpt>
      <trkpt lat="43.73983" lon="6.97475">
        <ele>1053</ele>
        <time>2018-01-02T15:04:02.552Z</time>
      </trkpt>
      <trkpt lat="43.7398" lon="6.97467">
        <ele>1052</ele>
        <time>2018-01-02T15:04:04.552Z</time>
      </trkpt>
      <trkpt lat="43.73977" lon="6.97455">
        <ele>1052</ele>
        <time>2018-01-02T15:04:07.552Z</time>
      </trkpt>
      <trkpt lat="43.73974" lon="6.97443">
        <ele>1052</ele>
        <time>2018-01-02T15:04:10.552Z</time>
      </trkpt>
      <trkpt lat="43.73967" lon="6.97432">
        <ele>1051</ele>
        <time>2018-01-02T15:04:13.552Z</time>
      </trkpt>
      <trkpt lat="43.73961" lon="6.97421">
        <ele>1050</ele>
        <time>2018-01-02T15:04:16.552Z</time>
      </trkpt>
      <trkpt lat="43.73956" lon="6.97409">
        <ele>1051</ele>
        <time>2018-01-02T15:04:19.552Z</time>
      </trkpt>
      <trkpt lat="43.73952" lon="6.97397">
        <ele>1051</ele>
        <time>2018-01-02T15:04:22.552Z</time>
      </trkpt>
      <trkpt lat="43.73948" lon="6.97386">
        <ele>1050</ele>
        <time>2018-01-02T15:04:25.552Z</time>
      </trkpt>
      <trkpt lat="43.73944" lon="6.97376">
        <ele>1051</ele>
        <time>2018-01-02T15:04:28.552Z</time>
      </trkpt>
      <trkpt lat="43.7394" lon="6.97365">
        <ele>1051</ele>
        <time>2018-01-02T15:04:31.552Z</time>
      </trkpt>
      <trkpt lat="43.7393" lon="6.97354">
        <ele>1050</ele>
        <time>2018-01-02T15:04:35.552Z</time>
      </trkpt>
      <trkpt lat="43.73919" lon="6.97353">
        <ele>1049</ele>
        <time>2018-01-02T15:04:39.552Z</time>
      </trkpt>
      <trkpt lat="43.73911" lon="6.97363">
        <ele>1042</ele>
        <time>2018-01-02T15:04:42.552Z</time>
      </trkpt>
      <trkpt lat="43.73905" lon="6.97378">
        <ele>1041</ele>
        <time>2018-01-02T15:04:44.552Z</time>
      </trkpt>
      <trkpt lat="43.739" lon="6.9739">
        <ele>1040</ele>
        <time>2018-01-02T15:04:46.552Z</time>
      </trkpt>
      <trkpt lat="43.73893" lon="6.97402">
        <ele>1039</ele>
        <time>2018-01-02T15:04:49.552Z</time>
      </trkpt>
      <trkpt lat="43.73883" lon="6.97401">
        <ele>1039</ele>
        <time>2018-01-02T15:04:54.552Z</time>
      </trkpt>
      <trkpt lat="43.73874" lon="6.97393">
        <ele>1039</ele>
        <time>2018-01-02T15:04:57.552Z</time>
      </trkpt>
      <trkpt lat="43.73865" lon="6.97385">
        <ele>1039</ele>
        <time>2018-01-02T15:05:00.552Z</time>
      </trkpt>
      <trkpt lat="43.73854" lon="6.9738">
        <ele>1039</ele>
        <time>2018-01-02T15:05:03.552Z</time>
      </trkpt>
      <trkpt lat="43.73844" lon="6.97381">
        <ele>1039</ele>
        <time>2018-01-02T15:05:06.552Z</time>
      </trkpt>
      <trkpt lat="43.73834" lon="6.97389">
        <ele>1037</ele>
        <time>2018-01-02T15:05:09.552Z</time>
      </trkpt>
      <trkpt lat="43.73827" lon="6.97401">
        <ele>1035</ele>
        <time>2018-01-02T15:05:12.552Z</time>
      </trkpt>
      <trkpt lat="43.7382" lon="6.97413">
        <ele>1035</ele>
        <time>2018-01-02T15:05:15.552Z</time>
      </trkpt>
      <trkpt lat="43.73809" lon="6.97421">
        <ele>1032</ele>
        <time>2018-01-02T15:05:19.552Z</time>
      </trkpt>
      <trkpt lat="43.73798" lon="6.97427">
        <ele>1032</ele>
        <time>2018-01-02T15:05:23.552Z</time>
      </trkpt>
      <trkpt lat="43.73787" lon="6.97433">
        <ele>1032</ele>
        <time>2018-01-02T15:05:27.552Z</time>
      </trkpt>
      <trkpt lat="43.73775" lon="6.97436">
        <ele>1033</ele>
        <time>2018-01-02T15:05:31.552Z</time>
      </trkpt>
      <trkpt lat="43.73765" lon="6.97437">
        <ele>1033</ele>
        <time>2018-01-02T15:05:35.552Z</time>
      </trkpt>
      <trkpt lat="43.73753" lon="6.97439">
        <ele>1034</ele>
        <time>2018-01-02T15:05:39.552Z</time>
      </trkpt>
      <trkpt lat="43.7374" lon="6.97442">
        <ele>1034</ele>
        <time>2018-01-02T15:05:43.552Z</time>
      </trkpt>
      <trkpt lat="43.73729" lon="6.97446">
        <ele>1034</ele>
        <time>2018-01-02T15:05:46.552Z</time>
      </trkpt>
      <trkpt lat="43.73717" lon="6.97448">
        <ele>1034</ele>
        <time>2018-01-02T15:05:49.552Z</time>
      </trkpt>
      <trkpt lat="43.73706" lon="6.97449">
        <ele>1034</ele>
        <time>2018-01-02T15:05:52.552Z</time>
      </trkpt>
      <trkpt lat="43.73696" lon="6.97452">
        <ele>1033</ele>
        <time>2018-01-02T15:05:55.552Z</time>
      </trkpt>
      <trkpt lat="43.73685" lon="6.97457">
        <ele>1033</ele>
        <time>2018-01-02T15:05:58.552Z</time>
      </trkpt>
      <trkpt lat="43.73676" lon="6.9746">
        <ele>1033</ele>
        <time>2018-01-02T15:06:01.552Z</time>
      </trkpt>
      <trkpt lat="43.73664" lon="6.97465">
        <ele>1031</ele>
        <time>2018-01-02T15:06:05.552Z</time>
      </trkpt>
      <trkpt lat="43.73653" lon="6.97466">
        <ele>1031</ele>
        <time>2018-01-02T15:06:08.552Z</time>
      </trkpt>
      <trkpt lat="43.73642" lon="6.97468">
        <ele>1031</ele>
        <time>2018-01-02T15:06:12.552Z</time>
      </trkpt>
      <trkpt lat="43.73632" lon="6.9747">
        <ele>1030</ele>
        <time>2018-01-02T15:06:17.552Z</time>
      </trkpt>
      <trkpt lat="43.73621" lon="6.97469">
        <ele>1030</ele>
        <time>2018-01-02T15:06:22.552Z</time>
      </trkpt>
      <trkpt lat="43.73613" lon="6.97466">
        <ele>1030</ele>
        <time>2018-01-02T15:06:26.552Z</time>
      </trkpt>
      <trkpt lat="43.73608" lon="6.97465">
        <ele>1030</ele>
        <time>2018-01-02T15:06:29.552Z</time>
      </trkpt>
      <trkpt lat="43.73602" lon="6.97463">
        <ele>1030</ele>
        <time>2018-01-02T15:06:32.552Z</time>
      </trkpt>
      <trkpt lat="43.73597" lon="6.97461">
        <ele>1030</ele>
        <time>2018-01-02T15:06:35.552Z</time>
      </trkpt>
      <trkpt lat="43.73587" lon="6.97457">
        <ele>1030</ele>
        <time>2018-01-02T15:06:41.552Z</time>
      </trkpt>
      <trkpt lat="43.73579" lon="6.97455">
        <ele>1027</ele>
        <time>2018-01-02T15:06:45.552Z</time>
      </trkpt>
      <trkpt lat="43.73571" lon="6.97452">
        <ele>1027</ele>
        <time>2018-01-02T15:06:49.552Z</time>
      </trkpt>
      <trkpt lat="43.73567" lon="6.97448">
        <ele>1027</ele>
        <time>2018-01-02T15:06:51.552Z</time>
      </trkpt>
      <trkpt lat="43.73562" lon="6.97442">
        <ele>1028</ele>
        <time>2018-01-02T15:06:54.552Z</time>
      </trkpt>
      <trkpt lat="43.73557" lon="6.97436">
        <ele>1028</ele>
        <time>2018-01-02T15:06:57.552Z</time>
      </trkpt>
      <trkpt lat="43.73552" lon="6.97431">
        <ele>1027</ele>
        <time>2018-01-02T15:07:00.552Z</time>
      </trkpt>
      <trkpt lat="43.73548" lon="6.97426">
        <ele>1027</ele>
        <time>2018-01-02T15:07:03.552Z</time>
      </trkpt>
      <trkpt lat="43.73542" lon="6.97416">
        <ele>1028</ele>
        <time>2018-01-02T15:07:07.552Z</time>
      </trkpt>
      <trkpt lat="43.73537" lon="6.97402">
        <ele>1028</ele>
        <time>2018-01-02T15:07:11.552Z</time>
      </trkpt>
      <trkpt lat="43.73533" lon="6.97393">
        <ele>1028</ele>
        <time>2018-01-02T15:07:14.552Z</time>
      </trkpt>
      <trkpt lat="43.73528" lon="6.9738">
        <ele>1028</ele>
        <time>2018-01-02T15:07:17.552Z</time>
      </trkpt>
      <trkpt lat="43.73525" lon="6.9737">
        <ele>1028</ele>
        <time>2018-01-02T15:07:19.552Z</time>
      </trkpt>
      <trkpt lat="43.7352" lon="6.97357">
        <ele>1027</ele>
        <time>2018-01-02T15:07:22.552Z</time>
      </trkpt>
      <trkpt lat="43.7351" lon="6.97349">
        <ele>1027</ele>
        <time>2018-01-02T15:07:25.552Z</time>
      </trkpt>
      <trkpt lat="43.73504" lon="6.97345">
        <ele>1026</ele>
        <time>2018-01-02T15:07:27.552Z</time>
      </trkpt>
      <trkpt lat="43.73492" lon="6.9734">
        <ele>1025</ele>
        <time>2018-01-02T15:07:31.552Z</time>
      </trkpt>
      <trkpt lat="43.73487" lon="6.97337">
        <ele>1025</ele>
        <time>2018-01-02T15:07:33.552Z</time>
      </trkpt>
      <trkpt lat="43.73483" lon="6.97336">
        <ele>1025</ele>
        <time>2018-01-02T15:07:35.552Z</time>
      </trkpt>
      <trkpt lat="43.73479" lon="6.97334">
        <ele>1025</ele>
        <time>2018-01-02T15:07:37.552Z</time>
      </trkpt>
      <trkpt lat="43.73473" lon="6.97332">
        <ele>1027</ele>
        <time>2018-01-02T15:07:40.552Z</time>
      </trkpt>
      <trkpt lat="43.73469" lon="6.97331">
        <ele>1027</ele>
        <time>2018-01-02T15:07:42.552Z</time>
      </trkpt>
      <trkpt lat="43.73465" lon="6.9733">
        <ele>1027</ele>
        <time>2018-01-02T15:07:44.552Z</time>
      </trkpt>
      <trkpt lat="43.7346" lon="6.97328">
        <ele>1027</ele>
        <time>2018-01-02T15:07:46.552Z</time>
      </trkpt>
      <trkpt lat="43.73455" lon="6.97326">
        <ele>1027</ele>
        <time>2018-01-02T15:07:48.552Z</time>
      </trkpt>
      <trkpt lat="43.7345" lon="6.97324">
        <ele>1027</ele>
        <time>2018-01-02T15:07:50.552Z</time>
      </trkpt>
      <trkpt lat="43.73445" lon="6.97322">
        <ele>1027</ele>
        <time>2018-01-02T15:07:52.552Z</time>
      </trkpt>
      <trkpt lat="43.7344" lon="6.9732">
        <ele>1027</ele>
        <time>2018-01-02T15:07:54.552Z</time>
      </trkpt>
      <trkpt lat="43.73435" lon="6.97318">
        <ele>1027</ele>
        <time>2018-01-02T15:07:56.552Z</time>
      </trkpt>
      <trkpt lat="43.73431" lon="6.97316">
        <ele>1027</ele>
        <time>2018-01-02T15:07:58.552Z</time>
      </trkpt>
      <trkpt lat="43.73426" lon="6.97313">
        <ele>1027</ele>
        <time>2018-01-02T15:08:01.552Z</time>
      </trkpt>
      <trkpt lat="43.73421" lon="6.97311">
        <ele>1027</ele>
        <time>2018-01-02T15:08:04.552Z</time>
      </trkpt>
      <trkpt lat="43.73413" lon="6.97306">
        <ele>1026</ele>
        <time>2018-01-02T15:08:09.552Z</time>
      </trkpt>
      <trkpt lat="43.73407" lon="6.97305">
        <ele>1026</ele>
        <time>2018-01-02T15:08:12.552Z</time>
      </trkpt>
      <trkpt lat="43.73403" lon="6.97305">
        <ele>1026</ele>
        <time>2018-01-02T15:08:14.552Z</time>
      </trkpt>
      <trkpt lat="43.734" lon="6.97302">
        <ele>1026</ele>
        <time>2018-01-02T15:08:16.552Z</time>
      </trkpt>
      <trkpt lat="43.73396" lon="6.973">
        <ele>1026</ele>
        <time>2018-01-02T15:08:18.552Z</time>
      </trkpt>
      <trkpt lat="43.73392" lon="6.97298">
        <ele>1026</ele>
        <time>2018-01-02T15:08:20.552Z</time>
      </trkpt>
      <trkpt lat="43.73388" lon="6.97297">
        <ele>1026</ele>
        <time>2018-01-02T15:08:22.552Z</time>
      </trkpt>
      <trkpt lat="43.73384" lon="6.97295">
        <ele>1026</ele>
        <time>2018-01-02T15:08:24.552Z</time>
      </trkpt>
      <trkpt lat="43.73376" lon="6.97292">
        <ele>1027</ele>
        <time>2018-01-02T15:08:28.552Z</time>
      </trkpt>
      <trkpt lat="43.7337" lon="6.9729">
        <ele>1027</ele>
        <time>2018-01-02T15:08:31.552Z</time>
      </trkpt>
      <trkpt lat="43.73362" lon="6.97286">
        <ele>1027</ele>
        <time>2018-01-02T15:08:34.552Z</time>
      </trkpt>
      <trkpt lat="43.73354" lon="6.97283">
        <ele>1027</ele>
        <time>2018-01-02T15:08:37.552Z</time>
      </trkpt>
      <trkpt lat="43.73347" lon="6.9728">
        <ele>1027</ele>
        <time>2018-01-02T15:08:40.552Z</time>
      </trkpt>
      <trkpt lat="43.7334" lon="6.97276">
        <ele>1027</ele>
        <time>2018-01-02T15:08:43.552Z</time>
      </trkpt>
      <trkpt lat="43.73335" lon="6.97275">
        <ele>1027</ele>
        <time>2018-01-02T15:08:45.552Z</time>
      </trkpt>
      <trkpt lat="43.73331" lon="6.97272">
        <ele>1028</ele>
        <time>2018-01-02T15:08:47.552Z</time>
      </trkpt>
      <trkpt lat="43.73327" lon="6.9727">
        <ele>1028</ele>
        <time>2018-01-02T15:08:49.552Z</time>
      </trkpt>
      <trkpt lat="43.73323" lon="6.97268">
        <ele>1028</ele>
        <time>2018-01-02T15:08:51.552Z</time>
      </trkpt>
      <trkpt lat="43.73319" lon="6.97266">
        <ele>1028</ele>
        <time>2018-01-02T15:08:53.552Z</time>
      </trkpt>
      <trkpt lat="43.73315" lon="6.97265">
        <ele>1028</ele>
        <time>2018-01-02T15:08:55.552Z</time>
      </trkpt>
      <trkpt lat="43.73312" lon="6.97263">
        <ele>1028</ele>
        <time>2018-01-02T15:08:57.552Z</time>
      </trkpt>
      <trkpt lat="43.73304" lon="6.9726">
        <ele>1028</ele>
        <time>2018-01-02T15:09:02.552Z</time>
      </trkpt>
      <trkpt lat="43.73297" lon="6.97256">
        <ele>1028</ele>
        <time>2018-01-02T15:09:07.552Z</time>
      </trkpt>
      <trkpt lat="43.7329" lon="6.97254">
        <ele>1029</ele>
        <time>2018-01-02T15:09:12.552Z</time>
      </trkpt>
      <trkpt lat="43.73283" lon="6.97251">
        <ele>1029</ele>
        <time>2018-01-02T15:09:17.552Z</time>
      </trkpt>
      <trkpt lat="43.73276" lon="6.97248">
        <ele>1031</ele>
        <time>2018-01-02T15:09:22.552Z</time>
      </trkpt>
      <trkpt lat="43.7327" lon="6.97245">
        <ele>1031</ele>
        <time>2018-01-02T15:09:26.552Z</time>
      </trkpt>
      <trkpt lat="43.73263" lon="6.97243">
        <ele>1031</ele>
        <time>2018-01-02T15:09:30.552Z</time>
      </trkpt>
      <trkpt lat="43.73257" lon="6.9724">
        <ele>1031</ele>
        <time>2018-01-02T15:09:34.552Z</time>
      </trkpt>
      <trkpt lat="43.73251" lon="6.97237">
        <ele>1031</ele>
        <time>2018-01-02T15:09:38.552Z</time>
      </trkpt>
      <trkpt lat="43.73244" lon="6.97234">
        <ele>1032</ele>
        <time>2018-01-02T15:09:42.552Z</time>
      </trkpt>
      <trkpt lat="43.73238" lon="6.97231">
        <ele>1032</ele>
        <time>2018-01-02T15:09:46.552Z</time>
      </trkpt>
      <trkpt lat="43.73232" lon="6.97228">
        <ele>1032</ele>
        <time>2018-01-02T15:09:50.552Z</time>
      </trkpt>
      <trkpt lat="43.73224" lon="6.97225">
        <ele>1032</ele>
        <time>2018-01-02T15:09:55.552Z</time>
      </trkpt>
      <trkpt lat="43.73218" lon="6.97223">
        <ele>1032</ele>
        <time>2018-01-02T15:09:59.552Z</time>
      </trkpt>
      <trkpt lat="43.73212" lon="6.9722">
        <ele>1033</ele>
        <time>2018-01-02T15:10:03.552Z</time>
      </trkpt>
      <trkpt lat="43.73205" lon="6.97217">
        <ele>1033</ele>
        <time>2018-01-02T15:10:07.552Z</time>
      </trkpt>
      <trkpt lat="43.73199" lon="6.97213">
        <ele>1033</ele>
        <time>2018-01-02T15:10:10.552Z</time>
      </trkpt>
      <trkpt lat="43.73192" lon="6.97212">
        <ele>1033</ele>
        <time>2018-01-02T15:10:13.552Z</time>
      </trkpt>
      <trkpt lat="43.73188" lon="6.97211">
        <ele>1033</ele>
        <time>2018-01-02T15:10:15.552Z</time>
      </trkpt>
      <trkpt lat="43.73183" lon="6.97208">
        <ele>1033</ele>
        <time>2018-01-02T15:10:17.552Z</time>
      </trkpt>
      <trkpt lat="43.73177" lon="6.97204">
        <ele>1033</ele>
        <time>2018-01-02T15:10:19.552Z</time>
      </trkpt>
      <trkpt lat="43.73171" lon="6.97201">
        <ele>1033</ele>
        <time>2018-01-02T15:10:21.552Z</time>
      </trkpt>
      <trkpt lat="43.73165" lon="6.97199">
        <ele>1032</ele>
        <time>2018-01-02T15:10:23.552Z</time>
      </trkpt>
      <trkpt lat="43.73156" lon="6.97197">
        <ele>1032</ele>
        <time>2018-01-02T15:10:27.552Z</time>
      </trkpt>
      <trkpt lat="43.73151" lon="6.97196">
        <ele>1032</ele>
        <time>2018-01-02T15:10:58.552Z</time>
      </trkpt>
      <trkpt lat="43.73144" lon="6.97191">
        <ele>1032</ele>
        <time>2018-01-02T15:11:03.552Z</time>
      </trkpt>
      <trkpt lat="43.73138" lon="6.97188">
        <ele>1032</ele>
        <time>2018-01-02T15:11:06.552Z</time>
      </trkpt>
      <trkpt lat="43.73131" lon="6.97185">
        <ele>1032</ele>
        <time>2018-01-02T15:11:10.552Z</time>
      </trkpt>
      <trkpt lat="43.73123" lon="6.97182">
        <ele>1031</ele>
        <time>2018-01-02T15:11:13.552Z</time>
      </trkpt>
      <trkpt lat="43.73118" lon="6.9718">
        <ele>1031</ele>
        <time>2018-01-02T15:11:15.552Z</time>
      </trkpt>
      <trkpt lat="43.73112" lon="6.97177">
        <ele>1031</ele>
        <time>2018-01-02T15:11:17.552Z</time>
      </trkpt>
      <trkpt lat="43.73104" lon="6.97174">
        <ele>1031</ele>
        <time>2018-01-02T15:11:20.552Z</time>
      </trkpt>
      <trkpt lat="43.73096" lon="6.9717">
        <ele>1030</ele>
        <time>2018-01-02T15:11:23.552Z</time>
      </trkpt>
      <trkpt lat="43.73088" lon="6.97168">
        <ele>1030</ele>
        <time>2018-01-02T15:11:26.552Z</time>
      </trkpt>
      <trkpt lat="43.73084" lon="6.97166">
        <ele>1030</ele>
        <time>2018-01-02T15:11:28.552Z</time>
      </trkpt>
      <trkpt lat="43.7308" lon="6.97165">
        <ele>1029</ele>
        <time>2018-01-02T15:11:30.552Z</time>
      </trkpt>
      <trkpt lat="43.73073" lon="6.97161">
        <ele>1028</ele>
        <time>2018-01-02T15:11:34.552Z</time>
      </trkpt>
      <trkpt lat="43.73065" lon="6.97158">
        <ele>1027</ele>
        <time>2018-01-02T15:11:38.552Z</time>
      </trkpt>
      <trkpt lat="43.73058" lon="6.97155">
        <ele>1026</ele>
        <time>2018-01-02T15:11:41.552Z</time>
      </trkpt>
      <trkpt lat="43.73052" lon="6.97152">
        <ele>1025</ele>
        <time>2018-01-02T15:11:44.552Z</time>
      </trkpt>
      <trkpt lat="43.73045" lon="6.97149">
        <ele>1024</ele>
        <time>2018-01-02T15:11:47.552Z</time>
      </trkpt>
      <trkpt lat="43.73038" lon="6.97147">
        <ele>1024</ele>
        <time>2018-01-02T15:11:50.552Z</time>
      </trkpt>
      <trkpt lat="43.73033" lon="6.97144">
        <ele>1023</ele>
        <time>2018-01-02T15:11:53.552Z</time>
      </trkpt>
      <trkpt lat="43.73027" lon="6.97141">
        <ele>1023</ele>
        <time>2018-01-02T15:11:57.552Z</time>
      </trkpt>
      <trkpt lat="43.73022" lon="6.97139">
        <ele>1022</ele>
        <time>2018-01-02T15:12:01.552Z</time>
      </trkpt>
      <trkpt lat="43.73019" lon="6.9714">
        <ele>1022</ele>
        <time>2018-01-02T15:12:09.552Z</time>
      </trkpt>
      <trkpt lat="43.73014" lon="6.97132">
        <ele>1022</ele>
        <time>2018-01-02T15:14:08.552Z</time>
      </trkpt>
      <trkpt lat="43.73009" lon="6.97124">
        <ele>1022</ele>
        <time>2018-01-02T15:14:13.552Z</time>
      </trkpt>
      <trkpt lat="43.73002" lon="6.97116">
        <ele>1023</ele>
        <time>2018-01-02T15:14:17.552Z</time>
      </trkpt>
      <trkpt lat="43.72998" lon="6.97111">
        <ele>1001</ele>
        <time>2018-01-02T15:14:19.552Z</time>
      </trkpt>
      <trkpt lat="43.72991" lon="6.97107">
        <ele>1001</ele>
        <time>2018-01-02T15:14:22.552Z</time>
      </trkpt>
      <trkpt lat="43.72987" lon="6.97108">
        <ele>999</ele>
        <time>2018-01-02T15:14:25.552Z</time>
      </trkpt>
      <trkpt lat="43.72988" lon="6.97115">
        <ele>998</ele>
        <time>2018-01-02T15:14:33.552Z</time>
      </trkpt>
      <trkpt lat="43.72992" lon="6.97119">
        <ele>998</ele>
        <time>2018-01-02T15:14:44.552Z</time>
      </trkpt>
      <trkpt lat="43.72994" lon="6.97125">
        <ele>998</ele>
        <time>2018-01-02T15:14:46.552Z</time>
      </trkpt>
      <trkpt lat="43.72995" lon="6.97136">
        <ele>998</ele>
        <time>2018-01-02T15:14:50.552Z</time>
      </trkpt>
      <trkpt lat="43.7299" lon="6.97132">
        <ele>997</ele>
        <time>2018-01-02T15:14:54.552Z</time>
      </trkpt>
      <trkpt lat="43.72987" lon="6.97126">
        <ele>996</ele>
        <time>2018-01-02T15:14:57.552Z</time>
      </trkpt>
      <trkpt lat="43.72987" lon="6.97141">
        <ele>997</ele>
        <time>2018-01-02T15:15:08.552Z</time>
      </trkpt>
      <trkpt lat="43.7299" lon="6.97157">
        <ele>1001</ele>
        <time>2018-01-02T15:15:14.552Z</time>
      </trkpt>
      <trkpt lat="43.72992" lon="6.9717">
        <ele>1004</ele>
        <time>2018-01-02T15:15:18.552Z</time>
      </trkpt>
      <trkpt lat="43.72993" lon="6.97182">
        <ele>1000</ele>
        <time>2018-01-02T15:15:22.552Z</time>
      </trkpt>
      <trkpt lat="43.72992" lon="6.97194">
        <ele>996</ele>
        <time>2018-01-02T15:15:26.552Z</time>
      </trkpt>
      <trkpt lat="43.72992" lon="6.9721">
        <ele>994</ele>
        <time>2018-01-02T15:15:30.552Z</time>
      </trkpt>
      <trkpt lat="43.72989" lon="6.97227">
        <ele>995</ele>
        <time>2018-01-02T15:15:34.552Z</time>
      </trkpt>
      <trkpt lat="43.72983" lon="6.97233">
        <ele>994</ele>
        <time>2018-01-02T15:15:36.552Z</time>
      </trkpt>
      <trkpt lat="43.72979" lon="6.9724">
        <ele>994</ele>
        <time>2018-01-02T15:15:38.552Z</time>
      </trkpt>
      <trkpt lat="43.72975" lon="6.97248">
        <ele>993</ele>
        <time>2018-01-02T15:15:40.552Z</time>
      </trkpt>
      <trkpt lat="43.72972" lon="6.97255">
        <ele>996</ele>
        <time>2018-01-02T15:15:42.552Z</time>
      </trkpt>
      <trkpt lat="43.72969" lon="6.97262">
        <ele>995</ele>
        <time>2018-01-02T15:15:44.552Z</time>
      </trkpt>
      <trkpt lat="43.72964" lon="6.97273">
        <ele>993</ele>
        <time>2018-01-02T15:15:47.552Z</time>
      </trkpt>
      <trkpt lat="43.72959" lon="6.97282">
        <ele>993</ele>
        <time>2018-01-02T15:15:50.552Z</time>
      </trkpt>
      <trkpt lat="43.72957" lon="6.97273">
        <ele>991</ele>
        <time>2018-01-02T15:15:59.552Z</time>
      </trkpt>
      <trkpt lat="43.72959" lon="6.97257">
        <ele>991</ele>
        <time>2018-01-02T15:16:03.552Z</time>
      </trkpt>
      <trkpt lat="43.72955" lon="6.97262">
        <ele>990</ele>
        <time>2018-01-02T15:16:09.552Z</time>
      </trkpt>
      <trkpt lat="43.72952" lon="6.97269">
        <ele>990</ele>
        <time>2018-01-02T15:16:11.552Z</time>
      </trkpt>
      <trkpt lat="43.72947" lon="6.97279">
        <ele>989</ele>
        <time>2018-01-02T15:16:14.552Z</time>
      </trkpt>
      <trkpt lat="43.72942" lon="6.97289">
        <ele>989</ele>
        <time>2018-01-02T15:16:17.552Z</time>
      </trkpt>
      <trkpt lat="43.72937" lon="6.97299">
        <ele>989</ele>
        <time>2018-01-02T15:16:20.552Z</time>
      </trkpt>
      <trkpt lat="43.72932" lon="6.97307">
        <ele>989</ele>
        <time>2018-01-02T15:16:23.552Z</time>
      </trkpt>
      <trkpt lat="43.72933" lon="6.97292">
        <ele>988</ele>
        <time>2018-01-02T15:16:28.552Z</time>
      </trkpt>
      <trkpt lat="43.72934" lon="6.97275">
        <ele>985</ele>
        <time>2018-01-02T15:16:31.552Z</time>
      </trkpt>
      <trkpt lat="43.72936" lon="6.97258">
        <ele>981</ele>
        <time>2018-01-02T15:16:34.552Z</time>
      </trkpt>
      <trkpt lat="43.72938" lon="6.97244">
        <ele>978</ele>
        <time>2018-01-02T15:16:37.552Z</time>
      </trkpt>
      <trkpt lat="43.72932" lon="6.97258">
        <ele>979</ele>
        <time>2018-01-02T15:16:45.552Z</time>
      </trkpt>
      <trkpt lat="43.72929" lon="6.97267">
        <ele>981</ele>
        <time>2018-01-02T15:16:47.552Z</time>
      </trkpt>
      <trkpt lat="43.72925" lon="6.97275">
        <ele>983</ele>
        <time>2018-01-02T15:16:49.552Z</time>
      </trkpt>
      <trkpt lat="43.72921" lon="6.97283">
        <ele>985</ele>
        <time>2018-01-02T15:16:51.552Z</time>
      </trkpt>
      <trkpt lat="43.72917" lon="6.97291">
        <ele>986</ele>
        <time>2018-01-02T15:16:53.552Z</time>
      </trkpt>
      <trkpt lat="43.72913" lon="6.97299">
        <ele>959</ele>
        <time>2018-01-02T15:16:55.552Z</time>
      </trkpt>
      <trkpt lat="43.72909" lon="6.97307">
        <ele>960</ele>
        <time>2018-01-02T15:16:57.552Z</time>
      </trkpt>
      <trkpt lat="43.72904" lon="6.97316">
        <ele>962</ele>
        <time>2018-01-02T15:16:59.552Z</time>
      </trkpt>
      <trkpt lat="43.72899" lon="6.97326">
        <ele>963</ele>
        <time>2018-01-02T15:17:01.552Z</time>
      </trkpt>
      <trkpt lat="43.72893" lon="6.97334">
        <ele>970</ele>
        <time>2018-01-02T15:17:03.552Z</time>
      </trkpt>
      <trkpt lat="43.72888" lon="6.97342">
        <ele>967</ele>
        <time>2018-01-02T15:17:05.552Z</time>
      </trkpt>
      <trkpt lat="43.72883" lon="6.9735">
        <ele>966</ele>
        <time>2018-01-02T15:17:07.552Z</time>
      </trkpt>
      <trkpt lat="43.72883" lon="6.97332">
        <ele>954</ele>
        <time>2018-01-02T15:17:16.552Z</time>
      </trkpt>
      <trkpt lat="43.72886" lon="6.97322">
        <ele>955</ele>
        <time>2018-01-02T15:17:18.552Z</time>
      </trkpt>
      <trkpt lat="43.7289" lon="6.97308">
        <ele>954</ele>
        <time>2018-01-02T15:17:21.552Z</time>
      </trkpt>
      <trkpt lat="43.72893" lon="6.97295">
        <ele>953</ele>
        <time>2018-01-02T15:17:24.552Z</time>
      </trkpt>
      <trkpt lat="43.72893" lon="6.9728">
        <ele>952</ele>
        <time>2018-01-02T15:17:27.552Z</time>
      </trkpt>
      <trkpt lat="43.72896" lon="6.97264">
        <ele>953</ele>
        <time>2018-01-02T15:17:31.552Z</time>
      </trkpt>
      <trkpt lat="43.7289" lon="6.97267">
        <ele>951</ele>
        <time>2018-01-02T15:17:40.552Z</time>
      </trkpt>
      <trkpt lat="43.72884" lon="6.97276">
        <ele>949</ele>
        <time>2018-01-02T15:17:43.552Z</time>
      </trkpt>
      <trkpt lat="43.72876" lon="6.97289">
        <ele>948</ele>
        <time>2018-01-02T15:17:47.552Z</time>
      </trkpt>
      <trkpt lat="43.72867" lon="6.973">
        <ele>946</ele>
        <time>2018-01-02T15:17:51.552Z</time>
      </trkpt>
      <trkpt lat="43.72866" lon="6.97284">
        <ele>944</ele>
        <time>2018-01-02T15:18:00.552Z</time>
      </trkpt>
      <trkpt lat="43.72869" lon="6.97267">
        <ele>943</ele>
        <time>2018-01-02T15:18:04.552Z</time>
      </trkpt>
      <trkpt lat="43.72872" lon="6.97255">
        <ele>943</ele>
        <time>2018-01-02T15:18:07.552Z</time>
      </trkpt>
      <trkpt lat="43.72864" lon="6.97265">
        <ele>941</ele>
        <time>2018-01-02T15:18:16.552Z</time>
      </trkpt>
      <trkpt lat="43.7286" lon="6.97273">
        <ele>940</ele>
        <time>2018-01-02T15:18:18.552Z</time>
      </trkpt>
      <trkpt lat="43.72856" lon="6.97283">
        <ele>941</ele>
        <time>2018-01-02T15:18:20.552Z</time>
      </trkpt>
      <trkpt lat="43.72847" lon="6.97294">
        <ele>940</ele>
        <time>2018-01-02T15:18:23.552Z</time>
      </trkpt>
      <trkpt lat="43.72839" lon="6.97309">
        <ele>938</ele>
        <time>2018-01-02T15:18:26.552Z</time>
      </trkpt>
      <trkpt lat="43.72831" lon="6.97325">
        <ele>921</ele>
        <time>2018-01-02T15:18:29.552Z</time>
      </trkpt>
      <trkpt lat="43.72827" lon="6.97336">
        <ele>925</ele>
        <time>2018-01-02T15:18:31.552Z</time>
      </trkpt>
      <trkpt lat="43.72824" lon="6.97345">
        <ele>923</ele>
        <time>2018-01-02T15:18:33.552Z</time>
      </trkpt>
      <trkpt lat="43.72818" lon="6.97352">
        <ele>922</ele>
        <time>2018-01-02T15:18:35.552Z</time>
      </trkpt>
      <trkpt lat="43.72811" lon="6.97363">
        <ele>920</ele>
        <time>2018-01-02T15:18:37.552Z</time>
      </trkpt>
      <trkpt lat="43.72805" lon="6.97372">
        <ele>920</ele>
        <time>2018-01-02T15:18:39.552Z</time>
      </trkpt>
      <trkpt lat="43.72795" lon="6.97384">
        <ele>919</ele>
        <time>2018-01-02T15:18:42.552Z</time>
      </trkpt>
      <trkpt lat="43.7279" lon="6.97392">
        <ele>918</ele>
        <time>2018-01-02T15:18:44.552Z</time>
      </trkpt>
      <trkpt lat="43.72785" lon="6.97402">
        <ele>917</ele>
        <time>2018-01-02T15:18:46.552Z</time>
      </trkpt>
      <trkpt lat="43.72783" lon="6.97412">
        <ele>916</ele>
        <time>2018-01-02T15:18:48.552Z</time>
      </trkpt>
      <trkpt lat="43.72773" lon="6.97423">
        <ele>921</ele>
        <time>2018-01-02T15:18:52.552Z</time>
      </trkpt>
      <trkpt lat="43.72761" lon="6.9743">
        <ele>917</ele>
        <time>2018-01-02T15:18:55.552Z</time>
      </trkpt>
      <trkpt lat="43.72758" lon="6.97427">
        <ele>913</ele>
        <time>2018-01-02T15:19:30.552Z</time>
      </trkpt>
      <trkpt lat="43.7276" lon="6.97421">
        <ele>912</ele>
        <time>2018-01-02T15:20:29.552Z</time>
      </trkpt>
      <trkpt lat="43.72764" lon="6.9741">
        <ele>909</ele>
        <time>2018-01-02T15:20:33.552Z</time>
      </trkpt>
      <trkpt lat="43.7277" lon="6.97399">
        <ele>912</ele>
        <time>2018-01-02T15:20:36.552Z</time>
      </trkpt>
      <trkpt lat="43.72772" lon="6.97383">
        <ele>912</ele>
        <time>2018-01-02T15:20:39.552Z</time>
      </trkpt>
      <trkpt lat="43.72773" lon="6.97364">
        <ele>911</ele>
        <time>2018-01-02T15:20:42.552Z</time>
      </trkpt>
      <trkpt lat="43.72775" lon="6.9735">
        <ele>909</ele>
        <time>2018-01-02T15:20:45.552Z</time>
      </trkpt>
      <trkpt lat="43.72774" lon="6.97336">
        <ele>907</ele>
        <time>2018-01-02T15:20:49.552Z</time>
      </trkpt>
      <trkpt lat="43.72775" lon="6.9732">
        <ele>900</ele>
        <time>2018-01-02T15:20:53.552Z</time>
      </trkpt>
      <trkpt lat="43.72776" lon="6.97303">
        <ele>900</ele>
        <time>2018-01-02T15:20:56.552Z</time>
      </trkpt>
      <trkpt lat="43.72777" lon="6.97288">
        <ele>900</ele>
        <time>2018-01-02T15:20:58.552Z</time>
      </trkpt>
      <trkpt lat="43.7278" lon="6.97274">
        <ele>899</ele>
        <time>2018-01-02T15:21:00.552Z</time>
      </trkpt>
      <trkpt lat="43.72783" lon="6.97259">
        <ele>898</ele>
        <time>2018-01-02T15:21:02.552Z</time>
      </trkpt>
      <trkpt lat="43.72785" lon="6.97244">
        <ele>892</ele>
        <time>2018-01-02T15:21:04.552Z</time>
      </trkpt>
      <trkpt lat="43.72787" lon="6.97227">
        <ele>892</ele>
        <time>2018-01-02T15:21:07.552Z</time>
      </trkpt>
      <trkpt lat="43.72789" lon="6.9721">
        <ele>892</ele>
        <time>2018-01-02T15:21:10.552Z</time>
      </trkpt>
      <trkpt lat="43.72788" lon="6.97193">
        <ele>891</ele>
        <time>2018-01-02T15:21:13.552Z</time>
      </trkpt>
      <trkpt lat="43.72786" lon="6.97178">
        <ele>890</ele>
        <time>2018-01-02T15:21:16.552Z</time>
      </trkpt>
      <trkpt lat="43.72786" lon="6.97168">
        <ele>889</ele>
        <time>2018-01-02T15:21:18.552Z</time>
      </trkpt>
      <trkpt lat="43.72785" lon="6.97152">
        <ele>883</ele>
        <time>2018-01-02T15:21:21.552Z</time>
      </trkpt>
      <trkpt lat="43.72784" lon="6.97141">
        <ele>883</ele>
        <time>2018-01-02T15:21:23.552Z</time>
      </trkpt>
      <trkpt lat="43.72784" lon="6.97131">
        <ele>883</ele>
        <time>2018-01-02T15:21:25.552Z</time>
      </trkpt>
      <trkpt lat="43.72783" lon="6.97123">
        <ele>882</ele>
        <time>2018-01-02T15:21:27.552Z</time>
      </trkpt>
      <trkpt lat="43.72782" lon="6.97116">
        <ele>882</ele>
        <time>2018-01-02T15:21:29.552Z</time>
      </trkpt>
      <trkpt lat="43.72781" lon="6.97104">
        <ele>881</ele>
        <time>2018-01-02T15:21:32.552Z</time>
      </trkpt>
      <trkpt lat="43.72782" lon="6.97086">
        <ele>880</ele>
        <time>2018-01-02T15:21:35.552Z</time>
      </trkpt>
      <trkpt lat="43.72782" lon="6.97074">
        <ele>876</ele>
        <time>2018-01-02T15:21:37.552Z</time>
      </trkpt>
      <trkpt lat="43.72782" lon="6.97057">
        <ele>876</ele>
        <time>2018-01-02T15:21:40.552Z</time>
      </trkpt>
      <trkpt lat="43.72781" lon="6.97044">
        <ele>876</ele>
        <time>2018-01-02T15:21:42.552Z</time>
      </trkpt>
      <trkpt lat="43.7278" lon="6.97028">
        <ele>875</ele>
        <time>2018-01-02T15:21:44.552Z</time>
      </trkpt>
      <trkpt lat="43.72779" lon="6.97013">
        <ele>874</ele>
        <time>2018-01-02T15:21:46.552Z</time>
      </trkpt>
      <trkpt lat="43.72777" lon="6.97">
        <ele>871</ele>
        <time>2018-01-02T15:21:48.552Z</time>
      </trkpt>
      <trkpt lat="43.72775" lon="6.96986">
        <ele>871</ele>
        <time>2018-01-02T15:21:50.552Z</time>
      </trkpt>
      <trkpt lat="43.72771" lon="6.96977">
        <ele>871</ele>
        <time>2018-01-02T15:21:52.552Z</time>
      </trkpt>
      <trkpt lat="43.72767" lon="6.96964">
        <ele>870</ele>
        <time>2018-01-02T15:21:55.552Z</time>
      </trkpt>
      <trkpt lat="43.72762" lon="6.96949">
        <ele>869</ele>
        <time>2018-01-02T15:21:58.552Z</time>
      </trkpt>
      <trkpt lat="43.72759" lon="6.96937">
        <ele>867</ele>
        <time>2018-01-02T15:22:00.552Z</time>
      </trkpt>
      <trkpt lat="43.72755" lon="6.96924">
        <ele>862</ele>
        <time>2018-01-02T15:22:02.552Z</time>
      </trkpt>
      <trkpt lat="43.72752" lon="6.96911">
        <ele>861</ele>
        <time>2018-01-02T15:22:04.552Z</time>
      </trkpt>
      <trkpt lat="43.72747" lon="6.96898">
        <ele>853</ele>
        <time>2018-01-02T15:22:06.552Z</time>
      </trkpt>
      <trkpt lat="43.72744" lon="6.96885">
        <ele>852</ele>
        <time>2018-01-02T15:22:08.552Z</time>
      </trkpt>
      <trkpt lat="43.7274" lon="6.96872">
        <ele>851</ele>
        <time>2018-01-02T15:22:10.552Z</time>
      </trkpt>
      <trkpt lat="43.72737" lon="6.96862">
        <ele>851</ele>
        <time>2018-01-02T15:22:12.552Z</time>
      </trkpt>
      <trkpt lat="43.72733" lon="6.96852">
        <ele>852</ele>
        <time>2018-01-02T15:22:15.552Z</time>
      </trkpt>
      <trkpt lat="43.72727" lon="6.96842">
        <ele>851</ele>
        <time>2018-01-02T15:22:18.552Z</time>
      </trkpt>
      <trkpt lat="43.72721" lon="6.96841">
        <ele>850</ele>
        <time>2018-01-02T15:22:20.552Z</time>
      </trkpt>
      <trkpt lat="43.72711" lon="6.96847">
        <ele>849</ele>
        <time>2018-01-02T15:22:23.552Z</time>
      </trkpt>
      <trkpt lat="43.72707" lon="6.96838">
        <ele>848</ele>
        <time>2018-01-02T15:22:26.552Z</time>
      </trkpt>
      <trkpt lat="43.72703" lon="6.96824">
        <ele>847</ele>
        <time>2018-01-02T15:22:29.552Z</time>
      </trkpt>
      <trkpt lat="43.72699" lon="6.96818">
        <ele>846</ele>
        <time>2018-01-02T15:22:31.552Z</time>
      </trkpt>
      <trkpt lat="43.72685" lon="6.96828">
        <ele>843</ele>
        <time>2018-01-02T15:22:36.552Z</time>
      </trkpt>
      <trkpt lat="43.72675" lon="6.96836">
        <ele>841</ele>
        <time>2018-01-02T15:22:39.552Z</time>
      </trkpt>
      <trkpt lat="43.72667" lon="6.9684">
        <ele>840</ele>
        <time>2018-01-02T15:22:41.552Z</time>
      </trkpt>
      <trkpt lat="43.7266" lon="6.96845">
        <ele>836</ele>
        <time>2018-01-02T15:22:43.552Z</time>
      </trkpt>
      <trkpt lat="43.72653" lon="6.96849">
        <ele>835</ele>
        <time>2018-01-02T15:22:45.552Z</time>
      </trkpt>
      <trkpt lat="43.72643" lon="6.96853">
        <ele>834</ele>
        <time>2018-01-02T15:22:48.552Z</time>
      </trkpt>
      <trkpt lat="43.72637" lon="6.96859">
        <ele>834</ele>
        <time>2018-01-02T15:22:50.552Z</time>
      </trkpt>
      <trkpt lat="43.72631" lon="6.96862">
        <ele>833</ele>
        <time>2018-01-02T15:22:52.552Z</time>
      </trkpt>
      <trkpt lat="43.72625" lon="6.96862">
        <ele>833</ele>
        <time>2018-01-02T15:22:54.552Z</time>
      </trkpt>
      <trkpt lat="43.72612" lon="6.96851">
        <ele>831</ele>
        <time>2018-01-02T15:22:57.552Z</time>
      </trkpt>
      <trkpt lat="43.72601" lon="6.96842">
        <ele>830</ele>
        <time>2018-01-02T15:22:59.552Z</time>
      </trkpt>
      <trkpt lat="43.72595" lon="6.96837">
        <ele>829</ele>
        <time>2018-01-02T15:23:00.552Z</time>
      </trkpt>
      <trkpt lat="43.7259" lon="6.96832">
        <ele>828</ele>
        <time>2018-01-02T15:23:01.552Z</time>
      </trkpt>
      <trkpt lat="43.72585" lon="6.96826">
        <ele>828</ele>
        <time>2018-01-02T15:23:02.552Z</time>
      </trkpt>
      <trkpt lat="43.7258" lon="6.9682">
        <ele>823</ele>
        <time>2018-01-02T15:23:03.552Z</time>
      </trkpt>
      <trkpt lat="43.72576" lon="6.96815">
        <ele>822</ele>
        <time>2018-01-02T15:23:04.552Z</time>
      </trkpt>
      <trkpt lat="43.72568" lon="6.96805">
        <ele>820</ele>
        <time>2018-01-02T15:23:06.552Z</time>
      </trkpt>
      <trkpt lat="43.72558" lon="6.96796">
        <ele>819</ele>
        <time>2018-01-02T15:23:08.552Z</time>
      </trkpt>
      <trkpt lat="43.72544" lon="6.96786">
        <ele>818</ele>
        <time>2018-01-02T15:23:10.552Z</time>
      </trkpt>
      <trkpt lat="43.72531" lon="6.96775">
        <ele>817</ele>
        <time>2018-01-02T15:23:12.552Z</time>
      </trkpt>
      <trkpt lat="43.72525" lon="6.9677">
        <ele>816</ele>
        <time>2018-01-02T15:23:13.552Z</time>
      </trkpt>
      <trkpt lat="43.72519" lon="6.96765">
        <ele>815</ele>
        <time>2018-01-02T15:23:14.552Z</time>
      </trkpt>
      <trkpt lat="43.72513" lon="6.96761">
        <ele>814</ele>
        <time>2018-01-02T15:23:15.552Z</time>
      </trkpt>
      <trkpt lat="43.72505" lon="6.96752">
        <ele>812</ele>
        <time>2018-01-02T15:23:17.552Z</time>
      </trkpt>
      <trkpt lat="43.72496" lon="6.96758">
        <ele>808</ele>
        <time>2018-01-02T15:23:21.552Z</time>
      </trkpt>
      <trkpt lat="43.72497" lon="6.96771">
        <ele>805</ele>
        <time>2018-01-02T15:23:24.552Z</time>
      </trkpt>
      <trkpt lat="43.72487" lon="6.96762">
        <ele>805</ele>
        <time>2018-01-02T15:23:28.552Z</time>
      </trkpt>
      <trkpt lat="43.72483" lon="6.96744">
        <ele>807</ele>
        <time>2018-01-02T15:23:31.552Z</time>
      </trkpt>
      <trkpt lat="43.7248" lon="6.96728">
        <ele>806</ele>
        <time>2018-01-02T15:23:34.552Z</time>
      </trkpt>
      <trkpt lat="43.72474" lon="6.96716">
        <ele>805</ele>
        <time>2018-01-02T15:23:38.552Z</time>
      </trkpt>
      <trkpt lat="43.72465" lon="6.96709">
        <ele>804</ele>
        <time>2018-01-02T15:23:41.552Z</time>
      </trkpt>
      <trkpt lat="43.72455" lon="6.96695">
        <ele>803</ele>
        <time>2018-01-02T15:23:44.552Z</time>
      </trkpt>
      <trkpt lat="43.72446" lon="6.96687">
        <ele>802</ele>
        <time>2018-01-02T15:23:46.552Z</time>
      </trkpt>
      <trkpt lat="43.72438" lon="6.96678">
        <ele>800</ele>
        <time>2018-01-02T15:23:48.552Z</time>
      </trkpt>
      <trkpt lat="43.72432" lon="6.96668">
        <ele>798</ele>
        <time>2018-01-02T15:23:50.552Z</time>
      </trkpt>
      <trkpt lat="43.7243" lon="6.96657">
        <ele>798</ele>
        <time>2018-01-02T15:23:52.552Z</time>
      </trkpt>
      <trkpt lat="43.72429" lon="6.96646">
        <ele>799</ele>
        <time>2018-01-02T15:23:54.552Z</time>
      </trkpt>
      <trkpt lat="43.72428" lon="6.9664">
        <ele>799</ele>
        <time>2018-01-02T15:23:55.552Z</time>
      </trkpt>
      <trkpt lat="43.72427" lon="6.96633">
        <ele>800</ele>
        <time>2018-01-02T15:23:56.552Z</time>
      </trkpt>
      <trkpt lat="43.72426" lon="6.96626">
        <ele>800</ele>
        <time>2018-01-02T15:23:57.552Z</time>
      </trkpt>
      <trkpt lat="43.72421" lon="6.96612">
        <ele>798</ele>
        <time>2018-01-02T15:24:00.552Z</time>
      </trkpt>
      <trkpt lat="43.72414" lon="6.96608">
        <ele>787</ele>
        <time>2018-01-02T15:24:05.552Z</time>
      </trkpt>
      <trkpt lat="43.72406" lon="6.96605">
        <ele>786</ele>
        <time>2018-01-02T15:24:10.552Z</time>
      </trkpt>
      <trkpt lat="43.72399" lon="6.96606">
        <ele>786</ele>
        <time>2018-01-02T15:24:13.552Z</time>
      </trkpt>
      <trkpt lat="43.72392" lon="6.96607">
        <ele>785</ele>
        <time>2018-01-02T15:24:16.552Z</time>
      </trkpt>
      <trkpt lat="43.72387" lon="6.96609">
        <ele>784</ele>
        <time>2018-01-02T15:24:18.552Z</time>
      </trkpt>
      <trkpt lat="43.72383" lon="6.96613">
        <ele>784</ele>
        <time>2018-01-02T15:24:20.552Z</time>
      </trkpt>
      <trkpt lat="43.7238" lon="6.96618">
        <ele>784</ele>
        <time>2018-01-02T15:24:22.552Z</time>
      </trkpt>
      <trkpt lat="43.72377" lon="6.96625">
        <ele>784</ele>
        <time>2018-01-02T15:24:24.552Z</time>
      </trkpt>
      <trkpt lat="43.72376" lon="6.96632">
        <ele>784</ele>
        <time>2018-01-02T15:24:26.552Z</time>
      </trkpt>
      <trkpt lat="43.72376" lon="6.9664">
        <ele>784</ele>
        <time>2018-01-02T15:24:33.552Z</time>
      </trkpt>
      <trkpt lat="43.72376" lon="6.96649">
        <ele>784</ele>
        <time>2018-01-02T15:24:35.552Z</time>
      </trkpt>
      <trkpt lat="43.72374" lon="6.96658">
        <ele>784</ele>
        <time>2018-01-02T15:24:37.552Z</time>
      </trkpt>
      <trkpt lat="43.72371" lon="6.96666">
        <ele>784</ele>
        <time>2018-01-02T15:24:39.552Z</time>
      </trkpt>
      <trkpt lat="43.72369" lon="6.96673">
        <ele>786</ele>
        <time>2018-01-02T15:24:41.552Z</time>
      </trkpt>
      <trkpt lat="43.72365" lon="6.9668">
        <ele>785</ele>
        <time>2018-01-02T15:24:43.552Z</time>
      </trkpt>
      <trkpt lat="43.72361" lon="6.96689">
        <ele>785</ele>
        <time>2018-01-02T15:24:45.552Z</time>
      </trkpt>
      <trkpt lat="43.72358" lon="6.96701">
        <ele>786</ele>
        <time>2018-01-02T15:24:48.552Z</time>
      </trkpt>
      <trkpt lat="43.7235" lon="6.96713">
        <ele>786</ele>
        <time>2018-01-02T15:24:52.552Z</time>
      </trkpt>
      <trkpt lat="43.72339" lon="6.96713">
        <ele>786</ele>
        <time>2018-01-02T15:24:56.552Z</time>
      </trkpt>
      <trkpt lat="43.72328" lon="6.9671">
        <ele>777</ele>
        <time>2018-01-02T15:25:00.552Z</time>
      </trkpt>
      <trkpt lat="43.72319" lon="6.96708">
        <ele>777</ele>
        <time>2018-01-02T15:25:03.552Z</time>
      </trkpt>
      <trkpt lat="43.72316" lon="6.96708">
        <ele>776</ele>
        <time>2018-01-02T15:25:04.552Z</time>
      </trkpt>
      <trkpt lat="43.72302" lon="6.9671">
        <ele>775</ele>
        <time>2018-01-02T15:25:09.552Z</time>
      </trkpt>
      <trkpt lat="43.72292" lon="6.96713">
        <ele>775</ele>
        <time>2018-01-02T15:25:13.552Z</time>
      </trkpt>
      <trkpt lat="43.72281" lon="6.96716">
        <ele>774</ele>
        <time>2018-01-02T15:25:17.552Z</time>
      </trkpt>
      <trkpt lat="43.72275" lon="6.96718">
        <ele>773</ele>
        <time>2018-01-02T15:25:19.552Z</time>
      </trkpt>
      <trkpt lat="43.72268" lon="6.9672">
        <ele>773</ele>
        <time>2018-01-02T15:25:21.552Z</time>
      </trkpt>
      <trkpt lat="43.72262" lon="6.9672">
        <ele>772</ele>
        <time>2018-01-02T15:25:23.552Z</time>
      </trkpt>
      <trkpt lat="43.72253" lon="6.96727">
        <ele>772</ele>
        <time>2018-01-02T15:25:26.552Z</time>
      </trkpt>
      <trkpt lat="43.72252" lon="6.96736">
        <ele>771</ele>
        <time>2018-01-02T15:25:28.552Z</time>
      </trkpt>
      <trkpt lat="43.7225" lon="6.96748">
        <ele>769</ele>
        <time>2018-01-02T15:25:31.552Z</time>
      </trkpt>
      <trkpt lat="43.72251" lon="6.96757">
        <ele>771</ele>
        <time>2018-01-02T15:25:33.552Z</time>
      </trkpt>
      <trkpt lat="43.72251" lon="6.96778">
        <ele>776</ele>
        <time>2018-01-02T15:25:37.552Z</time>
      </trkpt>
      <trkpt lat="43.72247" lon="6.96769">
        <ele>759</ele>
        <time>2018-01-02T15:25:46.552Z</time>
      </trkpt>
      <trkpt lat="43.72245" lon="6.96756">
        <ele>763</ele>
        <time>2018-01-02T15:25:49.552Z</time>
      </trkpt>
      <trkpt lat="43.72243" lon="6.96746">
        <ele>763</ele>
        <time>2018-01-02T15:25:51.552Z</time>
      </trkpt>
      <trkpt lat="43.72242" lon="6.96736">
        <ele>760</ele>
        <time>2018-01-02T15:25:53.552Z</time>
      </trkpt>
      <trkpt lat="43.72239" lon="6.96725">
        <ele>758</ele>
        <time>2018-01-02T15:25:55.552Z</time>
      </trkpt>
      <trkpt lat="43.72238" lon="6.96715">
        <ele>757</ele>
        <time>2018-01-02T15:25:57.552Z</time>
      </trkpt>
      <trkpt lat="43.72236" lon="6.96706">
        <ele>757</ele>
        <time>2018-01-02T15:25:59.552Z</time>
      </trkpt>
      <trkpt lat="43.72235" lon="6.96701">
        <ele>757</ele>
        <time>2018-01-02T15:26:00.552Z</time>
      </trkpt>
      <trkpt lat="43.72234" lon="6.96697">
        <ele>757</ele>
        <time>2018-01-02T15:26:01.552Z</time>
      </trkpt>
      <trkpt lat="43.72233" lon="6.96692">
        <ele>757</ele>
        <time>2018-01-02T15:26:02.552Z</time>
      </trkpt>
      <trkpt lat="43.72232" lon="6.96688">
        <ele>757</ele>
        <time>2018-01-02T15:26:03.552Z</time>
      </trkpt>
      <trkpt lat="43.72231" lon="6.96683">
        <ele>758</ele>
        <time>2018-01-02T15:26:04.552Z</time>
      </trkpt>
      <trkpt lat="43.72227" lon="6.9667">
        <ele>758</ele>
        <time>2018-01-02T15:26:07.552Z</time>
      </trkpt>
      <trkpt lat="43.72226" lon="6.96659">
        <ele>760</ele>
        <time>2018-01-02T15:26:09.552Z</time>
      </trkpt>
      <trkpt lat="43.72226" lon="6.96651">
        <ele>760</ele>
        <time>2018-01-02T15:26:10.552Z</time>
      </trkpt>
      <trkpt lat="43.72228" lon="6.96643">
        <ele>760</ele>
        <time>2018-01-02T15:26:11.552Z</time>
      </trkpt>
      <trkpt lat="43.7223" lon="6.96634">
        <ele>760</ele>
        <time>2018-01-02T15:26:12.552Z</time>
      </trkpt>
      <trkpt lat="43.72236" lon="6.96615">
        <ele>760</ele>
        <time>2018-01-02T15:26:14.552Z</time>
      </trkpt>
      <trkpt lat="43.72237" lon="6.96604">
        <ele>760</ele>
        <time>2018-01-02T15:26:15.552Z</time>
      </trkpt>
      <trkpt lat="43.72237" lon="6.96592">
        <ele>761</ele>
        <time>2018-01-02T15:26:16.552Z</time>
      </trkpt>
      <trkpt lat="43.72235" lon="6.9658">
        <ele>762</ele>
        <time>2018-01-02T15:26:17.552Z</time>
      </trkpt>
      <trkpt lat="43.72232" lon="6.96569">
        <ele>761</ele>
        <time>2018-01-02T15:26:18.552Z</time>
      </trkpt>
      <trkpt lat="43.72228" lon="6.96557">
        <ele>761</ele>
        <time>2018-01-02T15:26:19.552Z</time>
      </trkpt>
      <trkpt lat="43.72224" lon="6.96546">
        <ele>761</ele>
        <time>2018-01-02T15:26:20.552Z</time>
      </trkpt>
      <trkpt lat="43.72221" lon="6.96534">
        <ele>761</ele>
        <time>2018-01-02T15:26:21.552Z</time>
      </trkpt>
      <trkpt lat="43.72215" lon="6.96514">
        <ele>761</ele>
        <time>2018-01-02T15:26:23.552Z</time>
      </trkpt>
      <trkpt lat="43.72212" lon="6.96506">
        <ele>761</ele>
        <time>2018-01-02T15:26:24.552Z</time>
      </trkpt>
      <trkpt lat="43.72204" lon="6.96495">
        <ele>762</ele>
        <time>2018-01-02T15:26:26.552Z</time>
      </trkpt>
      <trkpt lat="43.72199" lon="6.96492">
        <ele>762</ele>
        <time>2018-01-02T15:26:27.552Z</time>
      </trkpt>
      <trkpt lat="43.7219" lon="6.9649">
        <ele>762</ele>
        <time>2018-01-02T15:26:29.552Z</time>
      </trkpt>
      <trkpt lat="43.72182" lon="6.96491">
        <ele>762</ele>
        <time>2018-01-02T15:26:31.552Z</time>
      </trkpt>
      <trkpt lat="43.72175" lon="6.96495">
        <ele>761</ele>
        <time>2018-01-02T15:26:33.552Z</time>
      </trkpt>
      <trkpt lat="43.72166" lon="6.96503">
        <ele>760</ele>
        <time>2018-01-02T15:26:36.552Z</time>
      </trkpt>
      <trkpt lat="43.72161" lon="6.96509">
        <ele>759</ele>
        <time>2018-01-02T15:26:38.552Z</time>
      </trkpt>
      <trkpt lat="43.72155" lon="6.96514">
        <ele>758</ele>
        <time>2018-01-02T15:26:40.552Z</time>
      </trkpt>
      <trkpt lat="43.72148" lon="6.96521">
        <ele>758</ele>
        <time>2018-01-02T15:26:43.552Z</time>
      </trkpt>
      <trkpt lat="43.72142" lon="6.96527">
        <ele>758</ele>
        <time>2018-01-02T15:26:46.552Z</time>
      </trkpt>
      <trkpt lat="43.72136" lon="6.96532">
        <ele>757</ele>
        <time>2018-01-02T15:26:49.552Z</time>
      </trkpt>
      <trkpt lat="43.72131" lon="6.96537">
        <ele>757</ele>
        <time>2018-01-02T15:26:51.552Z</time>
      </trkpt>
      <trkpt lat="43.72122" lon="6.96542">
        <ele>757</ele>
        <time>2018-01-02T15:26:54.552Z</time>
      </trkpt>
      <trkpt lat="43.72116" lon="6.96544">
        <ele>757</ele>
        <time>2018-01-02T15:26:56.552Z</time>
      </trkpt>
      <trkpt lat="43.72113" lon="6.96545">
        <ele>757</ele>
        <time>2018-01-02T15:26:57.552Z</time>
      </trkpt>
      <trkpt lat="43.72109" lon="6.96546">
        <ele>757</ele>
        <time>2018-01-02T15:26:58.552Z</time>
      </trkpt>
      <trkpt lat="43.72106" lon="6.96547">
        <ele>757</ele>
        <time>2018-01-02T15:26:59.552Z</time>
      </trkpt>
      <trkpt lat="43.72103" lon="6.96548">
        <ele>757</ele>
        <time>2018-01-02T15:27:00.552Z</time>
      </trkpt>
      <trkpt lat="43.72099" lon="6.96548">
        <ele>757</ele>
        <time>2018-01-02T15:27:01.552Z</time>
      </trkpt>
      <trkpt lat="43.72092" lon="6.9655">
        <ele>757</ele>
        <time>2018-01-02T15:27:03.552Z</time>
      </trkpt>
      <trkpt lat="43.72085" lon="6.96552">
        <ele>757</ele>
        <time>2018-01-02T15:27:05.552Z</time>
      </trkpt>
      <trkpt lat="43.72077" lon="6.96551">
        <ele>748</ele>
        <time>2018-01-02T15:27:07.552Z</time>
      </trkpt>
      <trkpt lat="43.72073" lon="6.96549">
        <ele>748</ele>
        <time>2018-01-02T15:27:08.552Z</time>
      </trkpt>
      <trkpt lat="43.7207" lon="6.96544">
        <ele>748</ele>
        <time>2018-01-02T15:27:09.552Z</time>
      </trkpt>
      <trkpt lat="43.72064" lon="6.96531">
        <ele>747</ele>
        <time>2018-01-02T15:27:11.552Z</time>
      </trkpt>
      <trkpt lat="43.72062" lon="6.96523">
        <ele>747</ele>
        <time>2018-01-02T15:27:12.552Z</time>
      </trkpt>
      <trkpt lat="43.7206" lon="6.96514">
        <ele>748</ele>
        <time>2018-01-02T15:27:13.552Z</time>
      </trkpt>
      <trkpt lat="43.72059" lon="6.96504">
        <ele>748</ele>
        <time>2018-01-02T15:27:14.552Z</time>
      </trkpt>
      <trkpt lat="43.72057" lon="6.96485">
        <ele>749</ele>
        <time>2018-01-02T15:27:16.552Z</time>
      </trkpt>
      <trkpt lat="43.72056" lon="6.96467">
        <ele>748</ele>
        <time>2018-01-02T15:27:18.552Z</time>
      </trkpt>
      <trkpt lat="43.72055" lon="6.9645">
        <ele>749</ele>
        <time>2018-01-02T15:27:20.552Z</time>
      </trkpt>
      <trkpt lat="43.72054" lon="6.96435">
        <ele>749</ele>
        <time>2018-01-02T15:27:22.552Z</time>
      </trkpt>
      <trkpt lat="43.72052" lon="6.96421">
        <ele>749</ele>
        <time>2018-01-02T15:27:24.552Z</time>
      </trkpt>
      <trkpt lat="43.7205" lon="6.96407">
        <ele>752</ele>
        <time>2018-01-02T15:27:26.552Z</time>
      </trkpt>
      <trkpt lat="43.72046" lon="6.96397">
        <ele>752</ele>
        <time>2018-01-02T15:27:28.552Z</time>
      </trkpt>
      <trkpt lat="43.72044" lon="6.96392">
        <ele>752</ele>
        <time>2018-01-02T15:27:29.552Z</time>
      </trkpt>
      <trkpt lat="43.72042" lon="6.96382">
        <ele>752</ele>
        <time>2018-01-02T15:27:31.552Z</time>
      </trkpt>
      <trkpt lat="43.72039" lon="6.96374">
        <ele>752</ele>
        <time>2018-01-02T15:27:33.552Z</time>
      </trkpt>
      <trkpt lat="43.72037" lon="6.96367">
        <ele>752</ele>
        <time>2018-01-02T15:27:35.552Z</time>
      </trkpt>
      <trkpt lat="43.72034" lon="6.96358">
        <ele>752</ele>
        <time>2018-01-02T15:27:38.552Z</time>
      </trkpt>
      <trkpt lat="43.72031" lon="6.96347">
        <ele>752</ele>
        <time>2018-01-02T15:27:42.552Z</time>
      </trkpt>
      <trkpt lat="43.72029" lon="6.96337">
        <ele>751</ele>
        <time>2018-01-02T15:27:46.552Z</time>
      </trkpt>
      <trkpt lat="43.72028" lon="6.96332">
        <ele>757</ele>
        <time>2018-01-02T15:27:48.552Z</time>
      </trkpt>
      <trkpt lat="43.72028" lon="6.96325">
        <ele>757</ele>
        <time>2018-01-02T15:27:51.552Z</time>
      </trkpt>
      <trkpt lat="43.72029" lon="6.96318">
        <ele>758</ele>
        <time>2018-01-02T15:27:54.552Z</time>
      </trkpt>
      <trkpt lat="43.72029" lon="6.96311">
        <ele>758</ele>
        <time>2018-01-02T15:27:57.552Z</time>
      </trkpt>
      <trkpt lat="43.72027" lon="6.96305">
        <ele>759</ele>
        <time>2018-01-02T15:28:00.552Z</time>
      </trkpt>
      <trkpt lat="43.72026" lon="6.96299">
        <ele>759</ele>
        <time>2018-01-02T15:28:03.552Z</time>
      </trkpt>
      <trkpt lat="43.72025" lon="6.96293">
        <ele>759</ele>
        <time>2018-01-02T15:28:06.552Z</time>
      </trkpt>
      <trkpt lat="43.72023" lon="6.96286">
        <ele>760</ele>
        <time>2018-01-02T15:28:09.552Z</time>
      </trkpt>
      <trkpt lat="43.72021" lon="6.96281">
        <ele>760</ele>
        <time>2018-01-02T15:28:12.552Z</time>
      </trkpt>
      <trkpt lat="43.72019" lon="6.96276">
        <ele>760</ele>
        <time>2018-01-02T15:28:15.552Z</time>
      </trkpt>
      <trkpt lat="43.72017" lon="6.9627">
        <ele>760</ele>
        <time>2018-01-02T15:28:18.552Z</time>
      </trkpt>
      <trkpt lat="43.72015" lon="6.96265">
        <ele>760</ele>
        <time>2018-01-02T15:28:21.552Z</time>
      </trkpt>
      <trkpt lat="43.72013" lon="6.96261">
        <ele>760</ele>
        <time>2018-01-02T15:28:23.552Z</time>
      </trkpt>
      <trkpt lat="43.72011" lon="6.96256">
        <ele>760</ele>
        <time>2018-01-02T15:28:26.552Z</time>
      </trkpt>
      <trkpt lat="43.7201" lon="6.96249">
        <ele>764</ele>
        <time>2018-01-02T15:28:29.552Z</time>
      </trkpt>
      <trkpt lat="43.7201" lon="6.96245">
        <ele>764</ele>
        <time>2018-01-02T15:28:31.552Z</time>
      </trkpt>
      <trkpt lat="43.72009" lon="6.96239">
        <ele>765</ele>
        <time>2018-01-02T15:28:34.552Z</time>
      </trkpt>
      <trkpt lat="43.72009" lon="6.96232">
        <ele>767</ele>
        <time>2018-01-02T15:28:37.552Z</time>
      </trkpt>
      <trkpt lat="43.72008" lon="6.96226">
        <ele>768</ele>
        <time>2018-01-02T15:28:40.552Z</time>
      </trkpt>
      <trkpt lat="43.72007" lon="6.96215">
        <ele>770</ele>
        <time>2018-01-02T15:28:47.552Z</time>
      </trkpt>
      <trkpt lat="43.72005" lon="6.96205">
        <ele>771</ele>
        <time>2018-01-02T15:28:52.552Z</time>
      </trkpt>
      <trkpt lat="43.71999" lon="6.96198">
        <ele>767</ele>
        <time>2018-01-02T15:28:58.552Z</time>
      </trkpt>
      <trkpt lat="43.71992" lon="6.96196">
        <ele>767</ele>
        <time>2018-01-02T15:29:02.552Z</time>
      </trkpt>
      <trkpt lat="43.71988" lon="6.96194">
        <ele>767</ele>
        <time>2018-01-02T15:29:04.552Z</time>
      </trkpt>
      <trkpt lat="43.71984" lon="6.96193">
        <ele>767</ele>
        <time>2018-01-02T15:29:07.552Z</time>
      </trkpt>
      <trkpt lat="43.71975" lon="6.96188">
        <ele>767</ele>
        <time>2018-01-02T15:29:12.552Z</time>
      </trkpt>
      <trkpt lat="43.71968" lon="6.96183">
        <ele>767</ele>
        <time>2018-01-02T15:29:15.552Z</time>
      </trkpt>
      <trkpt lat="43.71962" lon="6.96177">
        <ele>767</ele>
        <time>2018-01-02T15:29:17.552Z</time>
      </trkpt>
      <trkpt lat="43.71949" lon="6.96172">
        <ele>767</ele>
        <time>2018-01-02T15:29:20.552Z</time>
      </trkpt>
      <trkpt lat="43.71937" lon="6.96173">
        <ele>767</ele>
        <time>2018-01-02T15:29:23.552Z</time>
      </trkpt>
      <trkpt lat="43.71926" lon="6.96174">
        <ele>768</ele>
        <time>2018-01-02T15:29:26.552Z</time>
      </trkpt>
      <trkpt lat="43.71915" lon="6.96178">
        <ele>769</ele>
        <time>2018-01-02T15:29:30.552Z</time>
      </trkpt>
      <trkpt lat="43.71904" lon="6.96181">
        <ele>768</ele>
        <time>2018-01-02T15:29:34.552Z</time>
      </trkpt>
      <trkpt lat="43.71892" lon="6.96185">
        <ele>768</ele>
        <time>2018-01-02T15:29:39.552Z</time>
      </trkpt>
      <trkpt lat="43.71881" lon="6.96187">
        <ele>768</ele>
        <time>2018-01-02T15:29:44.552Z</time>
      </trkpt>
      <trkpt lat="43.71871" lon="6.96189">
        <ele>769</ele>
        <time>2018-01-02T15:29:49.552Z</time>
      </trkpt>
      <trkpt lat="43.71861" lon="6.96193">
        <ele>769</ele>
        <time>2018-01-02T15:29:54.552Z</time>
      </trkpt>
      <trkpt lat="43.7185" lon="6.96201">
        <ele>769</ele>
        <time>2018-01-02T15:29:59.552Z</time>
      </trkpt>
      <trkpt lat="43.71842" lon="6.96213">
        <ele>767</ele>
        <time>2018-01-02T15:30:03.552Z</time>
      </trkpt>
      <trkpt lat="43.71836" lon="6.96225">
        <ele>766</ele>
        <time>2018-01-02T15:30:07.552Z</time>
      </trkpt>
      <trkpt lat="43.71827" lon="6.96236">
        <ele>769</ele>
        <time>2018-01-02T15:30:12.552Z</time>
      </trkpt>
      <trkpt lat="43.71817" lon="6.96245">
        <ele>769</ele>
        <time>2018-01-02T15:30:16.552Z</time>
      </trkpt>
      <trkpt lat="43.71813" lon="6.96251">
        <ele>766</ele>
        <time>2018-01-02T15:30:18.552Z</time>
      </trkpt>
      <trkpt lat="43.71809" lon="6.96258">
        <ele>767</ele>
        <time>2018-01-02T15:30:20.552Z</time>
      </trkpt>
      <trkpt lat="43.71804" lon="6.9627">
        <ele>767</ele>
        <time>2018-01-02T15:30:23.552Z</time>
      </trkpt>
      <trkpt lat="43.71801" lon="6.96283">
        <ele>767</ele>
        <time>2018-01-02T15:30:26.552Z</time>
      </trkpt>
      <trkpt lat="43.71799" lon="6.96298">
        <ele>767</ele>
        <time>2018-01-02T15:30:30.552Z</time>
      </trkpt>
      <trkpt lat="43.71797" lon="6.96312">
        <ele>767</ele>
        <time>2018-01-02T15:30:34.552Z</time>
      </trkpt>
      <trkpt lat="43.71795" lon="6.96324">
        <ele>767</ele>
        <time>2018-01-02T15:30:38.552Z</time>
      </trkpt>
      <trkpt lat="43.71792" lon="6.96337">
        <ele>766</ele>
        <time>2018-01-02T15:30:42.552Z</time>
      </trkpt>
      <trkpt lat="43.71791" lon="6.96343">
        <ele>766</ele>
        <time>2018-01-02T15:30:44.552Z</time>
      </trkpt>
      <trkpt lat="43.71789" lon="6.9635">
        <ele>766</ele>
        <time>2018-01-02T15:30:47.552Z</time>
      </trkpt>
      <trkpt lat="43.71788" lon="6.96356">
        <ele>766</ele>
        <time>2018-01-02T15:30:49.552Z</time>
      </trkpt>
      <trkpt lat="43.71786" lon="6.96361">
        <ele>766</ele>
        <time>2018-01-02T15:30:51.552Z</time>
      </trkpt>
      <trkpt lat="43.71785" lon="6.9637">
        <ele>766</ele>
        <time>2018-01-02T15:30:55.552Z</time>
      </trkpt>
      <trkpt lat="43.71784" lon="6.96376">
        <ele>766</ele>
        <time>2018-01-02T15:30:58.552Z</time>
      </trkpt>
      <trkpt lat="43.71782" lon="6.96385">
        <ele>766</ele>
        <time>2018-01-02T15:31:02.552Z</time>
      </trkpt>
      <trkpt lat="43.7178" lon="6.96392">
        <ele>767</ele>
        <time>2018-01-02T15:31:05.552Z</time>
      </trkpt>
      <trkpt lat="43.71775" lon="6.96402">
        <ele>767</ele>
        <time>2018-01-02T15:31:09.552Z</time>
      </trkpt>
      <trkpt lat="43.71772" lon="6.96408">
        <ele>768</ele>
        <time>2018-01-02T15:31:12.552Z</time>
      </trkpt>
      <trkpt lat="43.71768" lon="6.96415">
        <ele>769</ele>
        <time>2018-01-02T15:31:15.552Z</time>
      </trkpt>
      <trkpt lat="43.71762" lon="6.96423">
        <ele>770</ele>
        <time>2018-01-02T15:31:19.552Z</time>
      </trkpt>
      <trkpt lat="43.71755" lon="6.96431">
        <ele>770</ele>
        <time>2018-01-02T15:31:23.552Z</time>
      </trkpt>
      <trkpt lat="43.71748" lon="6.96437">
        <ele>777</ele>
        <time>2018-01-02T15:31:27.552Z</time>
      </trkpt>
      <trkpt lat="43.71744" lon="6.96442">
        <ele>777</ele>
        <time>2018-01-02T15:31:30.552Z</time>
      </trkpt>
      <trkpt lat="43.71737" lon="6.96448">
        <ele>778</ele>
        <time>2018-01-02T15:31:34.552Z</time>
      </trkpt>
      <trkpt lat="43.7173" lon="6.96454">
        <ele>778</ele>
        <time>2018-01-02T15:31:39.552Z</time>
      </trkpt>
      <trkpt lat="43.71722" lon="6.96461">
        <ele>779</ele>
        <time>2018-01-02T15:31:45.552Z</time>
      </trkpt>
      <trkpt lat="43.71716" lon="6.96468">
        <ele>779</ele>
        <time>2018-01-02T15:31:49.552Z</time>
      </trkpt>
      <trkpt lat="43.71711" lon="6.96477">
        <ele>779</ele>
        <time>2018-01-02T15:31:53.552Z</time>
      </trkpt>
      <trkpt lat="43.71709" lon="6.96484">
        <ele>779</ele>
        <time>2018-01-02T15:31:56.552Z</time>
      </trkpt>
      <trkpt lat="43.71707" lon="6.9649">
        <ele>779</ele>
        <time>2018-01-02T15:31:59.552Z</time>
      </trkpt>
      <trkpt lat="43.71704" lon="6.96497">
        <ele>779</ele>
        <time>2018-01-02T15:32:02.552Z</time>
      </trkpt>
      <trkpt lat="43.71702" lon="6.96503">
        <ele>777</ele>
        <time>2018-01-02T15:32:05.552Z</time>
      </trkpt>
      <trkpt lat="43.71696" lon="6.96513">
        <ele>777</ele>
        <time>2018-01-02T15:32:11.552Z</time>
      </trkpt>
      <trkpt lat="43.71693" lon="6.96519">
        <ele>777</ele>
        <time>2018-01-02T15:32:14.552Z</time>
      </trkpt>
      <trkpt lat="43.71687" lon="6.96527">
        <ele>777</ele>
        <time>2018-01-02T15:32:18.552Z</time>
      </trkpt>
      <trkpt lat="43.71678" lon="6.96534">
        <ele>777</ele>
        <time>2018-01-02T15:32:21.552Z</time>
      </trkpt>
      <trkpt lat="43.71669" lon="6.96538">
        <ele>776</ele>
        <time>2018-01-02T15:32:23.552Z</time>
      </trkpt>
      <trkpt lat="43.7166" lon="6.96543">
        <ele>782</ele>
        <time>2018-01-02T15:32:25.552Z</time>
      </trkpt>
      <trkpt lat="43.71651" lon="6.96552">
        <ele>782</ele>
        <time>2018-01-02T15:32:27.552Z</time>
      </trkpt>
      <trkpt lat="43.71642" lon="6.96563">
        <ele>782</ele>
        <time>2018-01-02T15:32:29.552Z</time>
      </trkpt>
      <trkpt lat="43.71636" lon="6.96576">
        <ele>782</ele>
        <time>2018-01-02T15:32:31.552Z</time>
      </trkpt>
      <trkpt lat="43.7163" lon="6.96587">
        <ele>779</ele>
        <time>2018-01-02T15:32:33.552Z</time>
      </trkpt>
      <trkpt lat="43.71625" lon="6.96597">
        <ele>779</ele>
        <time>2018-01-02T15:32:35.552Z</time>
      </trkpt>
      <trkpt lat="43.7162" lon="6.96606">
        <ele>780</ele>
        <time>2018-01-02T15:32:37.552Z</time>
      </trkpt>
      <trkpt lat="43.71616" lon="6.96615">
        <ele>780</ele>
        <time>2018-01-02T15:32:39.552Z</time>
      </trkpt>
      <trkpt lat="43.71611" lon="6.96626">
        <ele>779</ele>
        <time>2018-01-02T15:32:42.552Z</time>
      </trkpt>
      <trkpt lat="43.71608" lon="6.96633">
        <ele>779</ele>
        <time>2018-01-02T15:32:44.552Z</time>
      </trkpt>
      <trkpt lat="43.71605" lon="6.96641">
        <ele>779</ele>
        <time>2018-01-02T15:32:46.552Z</time>
      </trkpt>
      <trkpt lat="43.71601" lon="6.96648">
        <ele>779</ele>
        <time>2018-01-02T15:32:48.552Z</time>
      </trkpt>
      <trkpt lat="43.71598" lon="6.96655">
        <ele>779</ele>
        <time>2018-01-02T15:32:50.552Z</time>
      </trkpt>
      <trkpt lat="43.71595" lon="6.96661">
        <ele>779</ele>
        <time>2018-01-02T15:32:52.552Z</time>
      </trkpt>
      <trkpt lat="43.71591" lon="6.96667">
        <ele>778</ele>
        <time>2018-01-02T15:32:54.552Z</time>
      </trkpt>
      <trkpt lat="43.71587" lon="6.96676">
        <ele>778</ele>
        <time>2018-01-02T15:32:57.552Z</time>
      </trkpt>
      <trkpt lat="43.71584" lon="6.96685">
        <ele>778</ele>
        <time>2018-01-02T15:33:00.552Z</time>
      </trkpt>
      <trkpt lat="43.7158" lon="6.96692">
        <ele>781</ele>
        <time>2018-01-02T15:33:03.552Z</time>
      </trkpt>
      <trkpt lat="43.71578" lon="6.96699">
        <ele>781</ele>
        <time>2018-01-02T15:33:06.552Z</time>
      </trkpt>
      <trkpt lat="43.71576" lon="6.96708">
        <ele>781</ele>
        <time>2018-01-02T15:33:10.552Z</time>
      </trkpt>
      <trkpt lat="43.71574" lon="6.96714">
        <ele>781</ele>
        <time>2018-01-02T15:33:13.552Z</time>
      </trkpt>
      <trkpt lat="43.71571" lon="6.96721">
        <ele>781</ele>
        <time>2018-01-02T15:33:16.552Z</time>
      </trkpt>
      <trkpt lat="43.71568" lon="6.96725">
        <ele>781</ele>
        <time>2018-01-02T15:33:18.552Z</time>
      </trkpt>
      <trkpt lat="43.71565" lon="6.9673">
        <ele>781</ele>
        <time>2018-01-02T15:33:20.552Z</time>
      </trkpt>
      <trkpt lat="43.71562" lon="6.96734">
        <ele>781</ele>
        <time>2018-01-02T15:33:22.552Z</time>
      </trkpt>
      <trkpt lat="43.71559" lon="6.96737">
        <ele>781</ele>
        <time>2018-01-02T15:33:24.552Z</time>
      </trkpt>
      <trkpt lat="43.71555" lon="6.9674">
        <ele>782</ele>
        <time>2018-01-02T15:33:26.552Z</time>
      </trkpt>
      <trkpt lat="43.7155" lon="6.96745">
        <ele>782</ele>
        <time>2018-01-02T15:33:29.552Z</time>
      </trkpt>
      <trkpt lat="43.71544" lon="6.96748">
        <ele>782</ele>
        <time>2018-01-02T15:33:32.552Z</time>
      </trkpt>
      <trkpt lat="43.71539" lon="6.9675">
        <ele>783</ele>
        <time>2018-01-02T15:33:35.552Z</time>
      </trkpt>
      <trkpt lat="43.71533" lon="6.96753">
        <ele>782</ele>
        <time>2018-01-02T15:33:38.552Z</time>
      </trkpt>
      <trkpt lat="43.71529" lon="6.96754">
        <ele>783</ele>
        <time>2018-01-02T15:33:40.552Z</time>
      </trkpt>
      <trkpt lat="43.71525" lon="6.96755">
        <ele>783</ele>
        <time>2018-01-02T15:33:42.552Z</time>
      </trkpt>
      <trkpt lat="43.71521" lon="6.96757">
        <ele>783</ele>
        <time>2018-01-02T15:33:44.552Z</time>
      </trkpt>
      <trkpt lat="43.71517" lon="6.96757">
        <ele>784</ele>
        <time>2018-01-02T15:33:46.552Z</time>
      </trkpt>
      <trkpt lat="43.71513" lon="6.96757">
        <ele>784</ele>
        <time>2018-01-02T15:33:48.552Z</time>
      </trkpt>
      <trkpt lat="43.71509" lon="6.96756">
        <ele>784</ele>
        <time>2018-01-02T15:33:50.552Z</time>
      </trkpt>
      <trkpt lat="43.71505" lon="6.96756">
        <ele>785</ele>
        <time>2018-01-02T15:33:52.552Z</time>
      </trkpt>
      <trkpt lat="43.71499" lon="6.96755">
        <ele>785</ele>
        <time>2018-01-02T15:33:55.552Z</time>
      </trkpt>
      <trkpt lat="43.71495" lon="6.96752">
        <ele>785</ele>
        <time>2018-01-02T15:33:58.552Z</time>
      </trkpt>
      <trkpt lat="43.7149" lon="6.96751">
        <ele>785</ele>
        <time>2018-01-02T15:34:01.552Z</time>
      </trkpt>
      <trkpt lat="43.71485" lon="6.96747">
        <ele>785</ele>
        <time>2018-01-02T15:34:05.552Z</time>
      </trkpt>
      <trkpt lat="43.71481" lon="6.96745">
        <ele>785</ele>
        <time>2018-01-02T15:34:39.552Z</time>
      </trkpt>
      <trkpt lat="43.71474" lon="6.9674">
        <ele>785</ele>
        <time>2018-01-02T15:34:42.552Z</time>
      </trkpt>
      <trkpt lat="43.7147" lon="6.96735">
        <ele>785</ele>
        <time>2018-01-02T15:34:44.552Z</time>
      </trkpt>
      <trkpt lat="43.71466" lon="6.96729">
        <ele>785</ele>
        <time>2018-01-02T15:34:46.552Z</time>
      </trkpt>
      <trkpt lat="43.71462" lon="6.96721">
        <ele>785</ele>
        <time>2018-01-02T15:34:48.552Z</time>
      </trkpt>
      <trkpt lat="43.71457" lon="6.96715">
        <ele>785</ele>
        <time>2018-01-02T15:34:50.552Z</time>
      </trkpt>
      <trkpt lat="43.71452" lon="6.96709">
        <ele>785</ele>
        <time>2018-01-02T15:34:52.552Z</time>
      </trkpt>
      <trkpt lat="43.71447" lon="6.96703">
        <ele>785</ele>
        <time>2018-01-02T15:34:54.552Z</time>
      </trkpt>
      <trkpt lat="43.71441" lon="6.96699">
        <ele>785</ele>
        <time>2018-01-02T15:34:56.552Z</time>
      </trkpt>
      <trkpt lat="43.71434" lon="6.96695">
        <ele>785</ele>
        <time>2018-01-02T15:34:58.552Z</time>
      </trkpt>
      <trkpt lat="43.71427" lon="6.96696">
        <ele>784</ele>
        <time>2018-01-02T15:35:00.552Z</time>
      </trkpt>
      <trkpt lat="43.7142" lon="6.967">
        <ele>784</ele>
        <time>2018-01-02T15:35:02.552Z</time>
      </trkpt>
      <trkpt lat="43.71413" lon="6.96703">
        <ele>780</ele>
        <time>2018-01-02T15:35:04.552Z</time>
      </trkpt>
      <trkpt lat="43.71406" lon="6.96707">
        <ele>780</ele>
        <time>2018-01-02T15:35:06.552Z</time>
      </trkpt>
      <trkpt lat="43.71397" lon="6.96711">
        <ele>780</ele>
        <time>2018-01-02T15:35:08.552Z</time>
      </trkpt>
      <trkpt lat="43.71389" lon="6.96714">
        <ele>779</ele>
        <time>2018-01-02T15:35:10.552Z</time>
      </trkpt>
      <trkpt lat="43.71381" lon="6.96716">
        <ele>779</ele>
        <time>2018-01-02T15:35:12.552Z</time>
      </trkpt>
      <trkpt lat="43.71373" lon="6.96719">
        <ele>779</ele>
        <time>2018-01-02T15:35:14.552Z</time>
      </trkpt>
      <trkpt lat="43.71366" lon="6.96723">
        <ele>778</ele>
        <time>2018-01-02T15:35:16.552Z</time>
      </trkpt>
      <trkpt lat="43.7136" lon="6.96725">
        <ele>778</ele>
        <time>2018-01-02T15:35:18.552Z</time>
      </trkpt>
      <trkpt lat="43.71353" lon="6.96722">
        <ele>777</ele>
        <time>2018-01-02T15:35:20.552Z</time>
      </trkpt>
      <trkpt lat="43.71344" lon="6.96721">
        <ele>777</ele>
        <time>2018-01-02T15:35:23.552Z</time>
      </trkpt>
      <trkpt lat="43.71338" lon="6.96728">
        <ele>777</ele>
        <time>2018-01-02T15:35:25.552Z</time>
      </trkpt>
      <trkpt lat="43.7133" lon="6.96739">
        <ele>773</ele>
        <time>2018-01-02T15:35:27.552Z</time>
      </trkpt>
      <trkpt lat="43.71322" lon="6.96749">
        <ele>773</ele>
        <time>2018-01-02T15:35:29.552Z</time>
      </trkpt>
      <trkpt lat="43.71313" lon="6.96759">
        <ele>770</ele>
        <time>2018-01-02T15:35:31.552Z</time>
      </trkpt>
      <trkpt lat="43.71304" lon="6.96771">
        <ele>768</ele>
        <time>2018-01-02T15:35:33.552Z</time>
      </trkpt>
      <trkpt lat="43.71295" lon="6.96785">
        <ele>767</ele>
        <time>2018-01-02T15:35:35.552Z</time>
      </trkpt>
      <trkpt lat="43.71286" lon="6.96795">
        <ele>766</ele>
        <time>2018-01-02T15:35:37.552Z</time>
      </trkpt>
      <trkpt lat="43.7128" lon="6.96805">
        <ele>765</ele>
        <time>2018-01-02T15:35:39.552Z</time>
      </trkpt>
      <trkpt lat="43.71274" lon="6.96813">
        <ele>764</ele>
        <time>2018-01-02T15:35:41.552Z</time>
      </trkpt>
      <trkpt lat="43.71267" lon="6.96822">
        <ele>763</ele>
        <time>2018-01-02T15:35:43.552Z</time>
      </trkpt>
      <trkpt lat="43.71261" lon="6.96829">
        <ele>762</ele>
        <time>2018-01-02T15:35:45.552Z</time>
      </trkpt>
      <trkpt lat="43.71256" lon="6.96835">
        <ele>759</ele>
        <time>2018-01-02T15:35:47.552Z</time>
      </trkpt>
      <trkpt lat="43.71248" lon="6.96841">
        <ele>756</ele>
        <time>2018-01-02T15:35:49.552Z</time>
      </trkpt>
      <trkpt lat="43.7124" lon="6.96842">
        <ele>755</ele>
        <time>2018-01-02T15:35:51.552Z</time>
      </trkpt>
      <trkpt lat="43.71231" lon="6.96841">
        <ele>754</ele>
        <time>2018-01-02T15:35:53.552Z</time>
      </trkpt>
      <trkpt lat="43.71222" lon="6.96842">
        <ele>752</ele>
        <time>2018-01-02T15:35:55.552Z</time>
      </trkpt>
      <trkpt lat="43.71213" lon="6.96843">
        <ele>751</ele>
        <time>2018-01-02T15:35:57.552Z</time>
      </trkpt>
      <trkpt lat="43.71204" lon="6.96843">
        <ele>751</ele>
        <time>2018-01-02T15:35:59.552Z</time>
      </trkpt>
      <trkpt lat="43.71194" lon="6.96844">
        <ele>750</ele>
        <time>2018-01-02T15:36:01.552Z</time>
      </trkpt>
      <trkpt lat="43.71183" lon="6.96843">
        <ele>749</ele>
        <time>2018-01-02T15:36:03.552Z</time>
      </trkpt>
      <trkpt lat="43.71173" lon="6.9684">
        <ele>749</ele>
        <time>2018-01-02T15:36:05.552Z</time>
      </trkpt>
      <trkpt lat="43.71164" lon="6.96838">
        <ele>747</ele>
        <time>2018-01-02T15:36:07.552Z</time>
      </trkpt>
      <trkpt lat="43.71156" lon="6.96835">
        <ele>745</ele>
        <time>2018-01-02T15:36:09.552Z</time>
      </trkpt>
      <trkpt lat="43.71148" lon="6.96832">
        <ele>747</ele>
        <time>2018-01-02T15:36:11.552Z</time>
      </trkpt>
      <trkpt lat="43.71139" lon="6.96828">
        <ele>746</ele>
        <time>2018-01-02T15:36:13.552Z</time>
      </trkpt>
      <trkpt lat="43.71129" lon="6.96827">
        <ele>745</ele>
        <time>2018-01-02T15:36:16.552Z</time>
      </trkpt>
      <trkpt lat="43.71115" lon="6.96824">
        <ele>744</ele>
        <time>2018-01-02T15:36:19.552Z</time>
      </trkpt>
      <trkpt lat="43.71105" lon="6.96821">
        <ele>742</ele>
        <time>2018-01-02T15:36:21.552Z</time>
      </trkpt>
      <trkpt lat="43.71115" lon="6.96821">
        <ele>744</ele>
        <time>2018-01-02T15:36:49.552Z</time>
      </trkpt>
      <trkpt lat="43.71125" lon="6.96822">
        <ele>745</ele>
        <time>2018-01-02T15:36:56.552Z</time>
      </trkpt>
      <trkpt lat="43.71135" lon="6.96823">
        <ele>746</ele>
        <time>2018-01-02T15:37:05.552Z</time>
      </trkpt>
      <trkpt lat="43.71127" lon="6.96829">
        <ele>745</ele>
        <time>2018-01-02T15:38:12.552Z</time>
      </trkpt>
      <trkpt lat="43.71119" lon="6.96823">
        <ele>744</ele>
        <time>2018-01-02T15:38:22.552Z</time>
      </trkpt>
      <trkpt lat="43.71118" lon="6.96817">
        <ele>745</ele>
        <time>2018-01-02T15:39:33.552Z</time>
      </trkpt>
      <trkpt lat="43.71114" lon="6.96826">
        <ele>743</ele>
        <time>2018-01-02T15:40:05.552Z</time>
      </trkpt>
      <trkpt lat="43.71117" lon="6.96822">
        <ele>744</ele>
        <time>2018-01-02T15:42:02.552Z</time>
      </trkpt>
      <trkpt lat="43.71107" lon="6.9682">
        <ele>743</ele>
        <time>2018-01-02T15:42:30.552Z</time>
      </trkpt>
      <trkpt lat="43.71098" lon="6.96819">
        <ele>742</ele>
        <time>2018-01-02T15:42:33.552Z</time>
      </trkpt>
      <trkpt lat="43.71088" lon="6.96815">
        <ele>741</ele>
        <time>2018-01-02T15:42:36.552Z</time>
      </trkpt>
      <trkpt lat="43.71076" lon="6.96809">
        <ele>735</ele>
        <time>2018-01-02T15:42:39.552Z</time>
      </trkpt>
      <trkpt lat="43.71065" lon="6.96806">
        <ele>734</ele>
        <time>2018-01-02T15:42:41.552Z</time>
      </trkpt>
      <trkpt lat="43.71051" lon="6.96798">
        <ele>734</ele>
        <time>2018-01-02T15:42:44.552Z</time>
      </trkpt>
      <trkpt lat="43.71041" lon="6.96789">
        <ele>734</ele>
        <time>2018-01-02T15:42:46.552Z</time>
      </trkpt>
      <trkpt lat="43.71032" lon="6.96781">
        <ele>733</ele>
        <time>2018-01-02T15:42:48.552Z</time>
      </trkpt>
      <trkpt lat="43.71023" lon="6.96776">
        <ele>733</ele>
        <time>2018-01-02T15:42:50.552Z</time>
      </trkpt>
      <trkpt lat="43.71011" lon="6.96774">
        <ele>732</ele>
        <time>2018-01-02T15:42:53.552Z</time>
      </trkpt>
      <trkpt lat="43.71001" lon="6.96779">
        <ele>732</ele>
        <time>2018-01-02T15:42:57.552Z</time>
      </trkpt>
      <trkpt lat="43.70989" lon="6.96785">
        <ele>728</ele>
        <time>2018-01-02T15:43:01.552Z</time>
      </trkpt>
      <trkpt lat="43.70974" lon="6.96789">
        <ele>728</ele>
        <time>2018-01-02T15:43:04.552Z</time>
      </trkpt>
      <trkpt lat="43.70963" lon="6.9679">
        <ele>728</ele>
        <time>2018-01-02T15:43:06.552Z</time>
      </trkpt>
      <trkpt lat="43.70953" lon="6.96787">
        <ele>729</ele>
        <time>2018-01-02T15:43:09.552Z</time>
      </trkpt>
      <trkpt lat="43.70942" lon="6.96784">
        <ele>729</ele>
        <time>2018-01-02T15:43:13.552Z</time>
      </trkpt>
      <trkpt lat="43.70938" lon="6.96793">
        <ele>728</ele>
        <time>2018-01-02T15:43:16.552Z</time>
      </trkpt>
      <trkpt lat="43.70938" lon="6.96802">
        <ele>728</ele>
        <time>2018-01-02T15:43:18.552Z</time>
      </trkpt>
      <trkpt lat="43.7094" lon="6.96812">
        <ele>728</ele>
        <time>2018-01-02T15:43:20.552Z</time>
      </trkpt>
      <trkpt lat="43.70939" lon="6.96836">
        <ele>722</ele>
        <time>2018-01-02T15:43:25.552Z</time>
      </trkpt>
      <trkpt lat="43.70938" lon="6.96846">
        <ele>722</ele>
        <time>2018-01-02T15:43:27.552Z</time>
      </trkpt>
      <trkpt lat="43.70938" lon="6.96855">
        <ele>721</ele>
        <time>2018-01-02T15:43:29.552Z</time>
      </trkpt>
      <trkpt lat="43.70937" lon="6.96864">
        <ele>721</ele>
        <time>2018-01-02T15:43:31.552Z</time>
      </trkpt>
      <trkpt lat="43.70935" lon="6.96876">
        <ele>720</ele>
        <time>2018-01-02T15:43:34.552Z</time>
      </trkpt>
      <trkpt lat="43.70934" lon="6.96886">
        <ele>719</ele>
        <time>2018-01-02T15:43:37.552Z</time>
      </trkpt>
      <trkpt lat="43.70933" lon="6.96897">
        <ele>718</ele>
        <time>2018-01-02T15:43:40.552Z</time>
      </trkpt>
      <trkpt lat="43.7093" lon="6.96907">
        <ele>718</ele>
        <time>2018-01-02T15:43:43.552Z</time>
      </trkpt>
      <trkpt lat="43.7093" lon="6.96921">
        <ele>713</ele>
        <time>2018-01-02T15:43:46.552Z</time>
      </trkpt>
      <trkpt lat="43.70928" lon="6.9693">
        <ele>713</ele>
        <time>2018-01-02T15:43:48.552Z</time>
      </trkpt>
      <trkpt lat="43.70928" lon="6.96943">
        <ele>712</ele>
        <time>2018-01-02T15:43:51.552Z</time>
      </trkpt>
      <trkpt lat="43.70926" lon="6.96957">
        <ele>710</ele>
        <time>2018-01-02T15:43:54.552Z</time>
      </trkpt>
      <trkpt lat="43.70925" lon="6.96967">
        <ele>709</ele>
        <time>2018-01-02T15:43:56.552Z</time>
      </trkpt>
      <trkpt lat="43.70924" lon="6.9698">
        <ele>708</ele>
        <time>2018-01-02T15:43:59.552Z</time>
      </trkpt>
      <trkpt lat="43.70923" lon="6.96996">
        <ele>707</ele>
        <time>2018-01-02T15:44:02.552Z</time>
      </trkpt>
      <trkpt lat="43.70921" lon="6.97004">
        <ele>705</ele>
        <time>2018-01-02T15:44:04.552Z</time>
      </trkpt>
      <trkpt lat="43.70917" lon="6.97013">
        <ele>704</ele>
        <time>2018-01-02T15:44:06.552Z</time>
      </trkpt>
      <trkpt lat="43.70913" lon="6.97021">
        <ele>704</ele>
        <time>2018-01-02T15:44:08.552Z</time>
      </trkpt>
      <trkpt lat="43.70909" lon="6.97029">
        <ele>704</ele>
        <time>2018-01-02T15:44:10.552Z</time>
      </trkpt>
      <trkpt lat="43.70906" lon="6.9704">
        <ele>703</ele>
        <time>2018-01-02T15:44:13.552Z</time>
      </trkpt>
      <trkpt lat="43.70901" lon="6.97049">
        <ele>702</ele>
        <time>2018-01-02T15:44:16.552Z</time>
      </trkpt>
      <trkpt lat="43.70895" lon="6.97059">
        <ele>702</ele>
        <time>2018-01-02T15:44:19.552Z</time>
      </trkpt>
      <trkpt lat="43.7089" lon="6.97067">
        <ele>701</ele>
        <time>2018-01-02T15:44:22.552Z</time>
      </trkpt>
      <trkpt lat="43.70886" lon="6.97075">
        <ele>701</ele>
        <time>2018-01-02T15:44:25.552Z</time>
      </trkpt>
      <trkpt lat="43.70892" lon="6.97083">
        <ele>701</ele>
        <time>2018-01-02T15:44:30.552Z</time>
      </trkpt>
      <trkpt lat="43.70896" lon="6.97095">
        <ele>695</ele>
        <time>2018-01-02T15:44:34.552Z</time>
      </trkpt>
      <trkpt lat="43.70889" lon="6.97103">
        <ele>695</ele>
        <time>2018-01-02T15:44:37.552Z</time>
      </trkpt>
      <trkpt lat="43.70886" lon="6.97115">
        <ele>694</ele>
        <time>2018-01-02T15:44:40.552Z</time>
      </trkpt>
      <trkpt lat="43.70891" lon="6.97127">
        <ele>693</ele>
        <time>2018-01-02T15:44:44.552Z</time>
      </trkpt>
      <trkpt lat="43.70899" lon="6.97134">
        <ele>693</ele>
        <time>2018-01-02T15:44:46.552Z</time>
      </trkpt>
      <trkpt lat="43.70901" lon="6.97147">
        <ele>692</ele>
        <time>2018-01-02T15:44:49.552Z</time>
      </trkpt>
      <trkpt lat="43.70896" lon="6.97158">
        <ele>692</ele>
        <time>2018-01-02T15:44:51.552Z</time>
      </trkpt>
      <trkpt lat="43.70891" lon="6.9717">
        <ele>688</ele>
        <time>2018-01-02T15:44:53.552Z</time>
      </trkpt>
      <trkpt lat="43.70885" lon="6.97185">
        <ele>688</ele>
        <time>2018-01-02T15:44:55.552Z</time>
      </trkpt>
      <trkpt lat="43.7088" lon="6.97198">
        <ele>687</ele>
        <time>2018-01-02T15:44:57.552Z</time>
      </trkpt>
      <trkpt lat="43.70872" lon="6.97209">
        <ele>686</ele>
        <time>2018-01-02T15:44:59.552Z</time>
      </trkpt>
      <trkpt lat="43.70864" lon="6.97217">
        <ele>686</ele>
        <time>2018-01-02T15:45:01.552Z</time>
      </trkpt>
      <trkpt lat="43.70857" lon="6.97224">
        <ele>685</ele>
        <time>2018-01-02T15:45:03.552Z</time>
      </trkpt>
      <trkpt lat="43.70849" lon="6.9723">
        <ele>685</ele>
        <time>2018-01-02T15:45:05.552Z</time>
      </trkpt>
      <trkpt lat="43.70841" lon="6.97241">
        <ele>683</ele>
        <time>2018-01-02T15:45:07.552Z</time>
      </trkpt>
      <trkpt lat="43.70837" lon="6.97246">
        <ele>682</ele>
        <time>2018-01-02T15:45:08.552Z</time>
      </trkpt>
      <trkpt lat="43.70833" lon="6.97251">
        <ele>681</ele>
        <time>2018-01-02T15:45:09.552Z</time>
      </trkpt>
      <trkpt lat="43.70829" lon="6.97256">
        <ele>679</ele>
        <time>2018-01-02T15:45:10.552Z</time>
      </trkpt>
      <trkpt lat="43.70825" lon="6.97262">
        <ele>677</ele>
        <time>2018-01-02T15:45:11.552Z</time>
      </trkpt>
      <trkpt lat="43.70821" lon="6.97268">
        <ele>675</ele>
        <time>2018-01-02T15:45:12.552Z</time>
      </trkpt>
      <trkpt lat="43.70817" lon="6.97274">
        <ele>674</ele>
        <time>2018-01-02T15:45:13.552Z</time>
      </trkpt>
      <trkpt lat="43.70814" lon="6.97282">
        <ele>674</ele>
        <time>2018-01-02T15:45:14.552Z</time>
      </trkpt>
      <trkpt lat="43.70809" lon="6.9729">
        <ele>673</ele>
        <time>2018-01-02T15:45:15.552Z</time>
      </trkpt>
      <trkpt lat="43.70805" lon="6.97299">
        <ele>672</ele>
        <time>2018-01-02T15:45:16.552Z</time>
      </trkpt>
      <trkpt lat="43.70801" lon="6.97308">
        <ele>672</ele>
        <time>2018-01-02T15:45:17.552Z</time>
      </trkpt>
      <trkpt lat="43.70798" lon="6.97318">
        <ele>671</ele>
        <time>2018-01-02T15:45:18.552Z</time>
      </trkpt>
      <trkpt lat="43.70795" lon="6.97327">
        <ele>671</ele>
        <time>2018-01-02T15:45:19.552Z</time>
      </trkpt>
      <trkpt lat="43.70794" lon="6.97336">
        <ele>669</ele>
        <time>2018-01-02T15:45:20.552Z</time>
      </trkpt>
      <trkpt lat="43.7079" lon="6.97349">
        <ele>669</ele>
        <time>2018-01-02T15:45:22.552Z</time>
      </trkpt>
      <trkpt lat="43.70786" lon="6.97356">
        <ele>668</ele>
        <time>2018-01-02T15:45:24.552Z</time>
      </trkpt>
      <trkpt lat="43.70782" lon="6.97366">
        <ele>668</ele>
        <time>2018-01-02T15:45:27.552Z</time>
      </trkpt>
      <trkpt lat="43.70779" lon="6.97372">
        <ele>668</ele>
        <time>2018-01-02T15:45:29.552Z</time>
      </trkpt>
      <trkpt lat="43.70774" lon="6.97377">
        <ele>667</ele>
        <time>2018-01-02T15:45:33.552Z</time>
      </trkpt>
      <trkpt lat="43.70776" lon="6.97369">
        <ele>667</ele>
        <time>2018-01-02T15:45:40.552Z</time>
      </trkpt>
      <trkpt lat="43.70775" lon="6.97358">
        <ele>667</ele>
        <time>2018-01-02T15:45:42.552Z</time>
      </trkpt>
      <trkpt lat="43.70773" lon="6.97348">
        <ele>666</ele>
        <time>2018-01-02T15:45:44.552Z</time>
      </trkpt>
      <trkpt lat="43.70768" lon="6.97342">
        <ele>665</ele>
        <time>2018-01-02T15:45:47.552Z</time>
      </trkpt>
      <trkpt lat="43.70763" lon="6.97352">
        <ele>666</ele>
        <time>2018-01-02T15:45:50.552Z</time>
      </trkpt>
      <trkpt lat="43.70764" lon="6.97361">
        <ele>666</ele>
        <time>2018-01-02T15:45:52.552Z</time>
      </trkpt>
      <trkpt lat="43.70765" lon="6.97369">
        <ele>666</ele>
        <time>2018-01-02T15:45:54.552Z</time>
      </trkpt>
      <trkpt lat="43.70765" lon="6.97378">
        <ele>667</ele>
        <time>2018-01-02T15:45:56.552Z</time>
      </trkpt>
      <trkpt lat="43.70768" lon="6.97387">
        <ele>666</ele>
        <time>2018-01-02T15:45:58.552Z</time>
      </trkpt>
      <trkpt lat="43.70769" lon="6.97399">
        <ele>666</ele>
        <time>2018-01-02T15:46:01.552Z</time>
      </trkpt>
      <trkpt lat="43.7077" lon="6.97411">
        <ele>666</ele>
        <time>2018-01-02T15:46:04.552Z</time>
      </trkpt>
      <trkpt lat="43.70772" lon="6.97423">
        <ele>665</ele>
        <time>2018-01-02T15:46:07.552Z</time>
      </trkpt>
      <trkpt lat="43.70769" lon="6.97432">
        <ele>665</ele>
        <time>2018-01-02T15:46:09.552Z</time>
      </trkpt>
      <trkpt lat="43.70766" lon="6.97439">
        <ele>666</ele>
        <time>2018-01-02T15:46:11.552Z</time>
      </trkpt>
      <trkpt lat="43.70764" lon="6.97444">
        <ele>666</ele>
        <time>2018-01-02T15:46:12.552Z</time>
      </trkpt>
      <trkpt lat="43.70762" lon="6.97449">
        <ele>666</ele>
        <time>2018-01-02T15:46:13.552Z</time>
      </trkpt>
      <trkpt lat="43.70759" lon="6.97455">
        <ele>666</ele>
        <time>2018-01-02T15:46:14.552Z</time>
      </trkpt>
      <trkpt lat="43.70755" lon="6.97461">
        <ele>666</ele>
        <time>2018-01-02T15:46:15.552Z</time>
      </trkpt>
      <trkpt lat="43.70752" lon="6.97467">
        <ele>666</ele>
        <time>2018-01-02T15:46:16.552Z</time>
      </trkpt>
      <trkpt lat="43.70747" lon="6.97473">
        <ele>658</ele>
        <time>2018-01-02T15:46:17.552Z</time>
      </trkpt>
      <trkpt lat="43.70743" lon="6.9748">
        <ele>658</ele>
        <time>2018-01-02T15:46:18.552Z</time>
      </trkpt>
      <trkpt lat="43.70738" lon="6.97487">
        <ele>659</ele>
        <time>2018-01-02T15:46:19.552Z</time>
      </trkpt>
      <trkpt lat="43.70734" lon="6.97494">
        <ele>659</ele>
        <time>2018-01-02T15:46:20.552Z</time>
      </trkpt>
      <trkpt lat="43.7073" lon="6.975">
        <ele>659</ele>
        <time>2018-01-02T15:46:21.552Z</time>
      </trkpt>
      <trkpt lat="43.70725" lon="6.97505">
        <ele>659</ele>
        <time>2018-01-02T15:46:22.552Z</time>
      </trkpt>
      <trkpt lat="43.7072" lon="6.97509">
        <ele>658</ele>
        <time>2018-01-02T15:46:23.552Z</time>
      </trkpt>
      <trkpt lat="43.70714" lon="6.97512">
        <ele>657</ele>
        <time>2018-01-02T15:46:24.552Z</time>
      </trkpt>
      <trkpt lat="43.70704" lon="6.97516">
        <ele>656</ele>
        <time>2018-01-02T15:46:26.552Z</time>
      </trkpt>
      <trkpt lat="43.70693" lon="6.97522">
        <ele>656</ele>
        <time>2018-01-02T15:46:28.552Z</time>
      </trkpt>
      <trkpt lat="43.7068" lon="6.97529">
        <ele>655</ele>
        <time>2018-01-02T15:46:30.552Z</time>
      </trkpt>
      <trkpt lat="43.70669" lon="6.97535">
        <ele>655</ele>
        <time>2018-01-02T15:46:32.552Z</time>
      </trkpt>
      <trkpt lat="43.70658" lon="6.97537">
        <ele>650</ele>
        <time>2018-01-02T15:46:34.552Z</time>
      </trkpt>
      <trkpt lat="43.70647" lon="6.97541">
        <ele>650</ele>
        <time>2018-01-02T15:46:36.552Z</time>
      </trkpt>
      <trkpt lat="43.70639" lon="6.97548">
        <ele>650</ele>
        <time>2018-01-02T15:46:38.552Z</time>
      </trkpt>
      <trkpt lat="43.70632" lon="6.97558">
        <ele>650</ele>
        <time>2018-01-02T15:46:40.552Z</time>
      </trkpt>
      <trkpt lat="43.70623" lon="6.97563">
        <ele>650</ele>
        <time>2018-01-02T15:46:43.552Z</time>
      </trkpt>
      <trkpt lat="43.70606" lon="6.97564">
        <ele>649</ele>
        <time>2018-01-02T15:46:48.552Z</time>
      </trkpt>
      <trkpt lat="43.70597" lon="6.9756">
        <ele>649</ele>
        <time>2018-01-02T15:46:52.552Z</time>
      </trkpt>
      <trkpt lat="43.70592" lon="6.9755">
        <ele>648</ele>
        <time>2018-01-02T15:46:55.552Z</time>
      </trkpt>
      <trkpt lat="43.70584" lon="6.97538">
        <ele>647</ele>
        <time>2018-01-02T15:46:59.552Z</time>
      </trkpt>
      <trkpt lat="43.70589" lon="6.97524">
        <ele>646</ele>
        <time>2018-01-02T15:47:04.552Z</time>
      </trkpt>
      <trkpt lat="43.70589" lon="6.97514">
        <ele>644</ele>
        <time>2018-01-02T15:47:07.552Z</time>
      </trkpt>
      <trkpt lat="43.70581" lon="6.97506">
        <ele>640</ele>
        <time>2018-01-02T15:47:11.552Z</time>
      </trkpt>
      <trkpt lat="43.70577" lon="6.97494">
        <ele>637</ele>
        <time>2018-01-02T15:47:15.552Z</time>
      </trkpt>
      <trkpt lat="43.70572" lon="6.97484">
        <ele>634</ele>
        <time>2018-01-02T15:47:18.552Z</time>
      </trkpt>
      <trkpt lat="43.70569" lon="6.97471">
        <ele>632</ele>
        <time>2018-01-02T15:47:21.552Z</time>
      </trkpt>
      <trkpt lat="43.7056" lon="6.97468">
        <ele>631</ele>
        <time>2018-01-02T15:47:25.552Z</time>
      </trkpt>
      <trkpt lat="43.7055" lon="6.9747">
        <ele>630</ele>
        <time>2018-01-02T15:47:28.552Z</time>
      </trkpt>
      <trkpt lat="43.70541" lon="6.97471">
        <ele>630</ele>
        <time>2018-01-02T15:47:31.552Z</time>
      </trkpt>
      <trkpt lat="43.70532" lon="6.97469">
        <ele>629</ele>
        <time>2018-01-02T15:47:35.552Z</time>
      </trkpt>
      <trkpt lat="43.70526" lon="6.97464">
        <ele>628</ele>
        <time>2018-01-02T15:47:39.552Z</time>
      </trkpt>
      <trkpt lat="43.70515" lon="6.9746">
        <ele>628</ele>
        <time>2018-01-02T15:47:44.552Z</time>
      </trkpt>
      <trkpt lat="43.70503" lon="6.9746">
        <ele>627</ele>
        <time>2018-01-02T15:47:47.552Z</time>
      </trkpt>
      <trkpt lat="43.70495" lon="6.9746">
        <ele>620</ele>
        <time>2018-01-02T15:47:50.552Z</time>
      </trkpt>
      <trkpt lat="43.70485" lon="6.97457">
        <ele>620</ele>
        <time>2018-01-02T15:47:55.552Z</time>
      </trkpt>
      <trkpt lat="43.70475" lon="6.97455">
        <ele>619</ele>
        <time>2018-01-02T15:47:59.552Z</time>
      </trkpt>
      <trkpt lat="43.70464" lon="6.97463">
        <ele>619</ele>
        <time>2018-01-02T15:48:03.552Z</time>
      </trkpt>
      <trkpt lat="43.70456" lon="6.97457">
        <ele>618</ele>
        <time>2018-01-02T15:48:07.552Z</time>
      </trkpt>
      <trkpt lat="43.70447" lon="6.9745">
        <ele>617</ele>
        <time>2018-01-02T15:48:12.552Z</time>
      </trkpt>
      <trkpt lat="43.70454" lon="6.97437">
        <ele>617</ele>
        <time>2018-01-02T15:48:19.552Z</time>
      </trkpt>
      <trkpt lat="43.70451" lon="6.97429">
        <ele>616</ele>
        <time>2018-01-02T15:48:24.552Z</time>
      </trkpt>
      <trkpt lat="43.70445" lon="6.97422">
        <ele>616</ele>
        <time>2018-01-02T15:48:30.552Z</time>
      </trkpt>
      <trkpt lat="43.70447" lon="6.9741">
        <ele>615</ele>
        <time>2018-01-02T15:49:00.552Z</time>
      </trkpt>
      <trkpt lat="43.70442" lon="6.97404">
        <ele>615</ele>
        <time>2018-01-02T15:49:04.552Z</time>
      </trkpt>
      <trkpt lat="43.70437" lon="6.97401">
        <ele>614</ele>
        <time>2018-01-02T15:49:12.552Z</time>
      </trkpt>
      <trkpt lat="43.70438" lon="6.97395">
        <ele>615</ele>
        <time>2018-01-02T15:51:46.552Z</time>
      </trkpt>
      <trkpt lat="43.70438" lon="6.97385">
        <ele>615</ele>
        <time>2018-01-02T15:51:49.552Z</time>
      </trkpt>
      <trkpt lat="43.70434" lon="6.97377">
        <ele>616</ele>
        <time>2018-01-02T15:51:53.552Z</time>
      </trkpt>
      <trkpt lat="43.70428" lon="6.97375">
        <ele>616</ele>
        <time>2018-01-02T15:51:56.552Z</time>
      </trkpt>
      <trkpt lat="43.70422" lon="6.97375">
        <ele>615</ele>
        <time>2018-01-02T15:51:59.552Z</time>
      </trkpt>
      <trkpt lat="43.70418" lon="6.9738">
        <ele>615</ele>
        <time>2018-01-02T15:52:02.552Z</time>
      </trkpt>
      <trkpt lat="43.70422" lon="6.97388">
        <ele>615</ele>
        <time>2018-01-02T15:52:05.552Z</time>
      </trkpt>
      <trkpt lat="43.70429" lon="6.97395">
        <ele>614</ele>
        <time>2018-01-02T15:52:08.552Z</time>
      </trkpt>
      <trkpt lat="43.70423" lon="6.97397">
        <ele>614</ele>
        <time>2018-01-02T15:52:23.552Z</time>
      </trkpt>
      <trkpt lat="43.70416" lon="6.97398">
        <ele>608</ele>
        <time>2018-01-02T15:52:27.552Z</time>
      </trkpt>
      <trkpt lat="43.70414" lon="6.97407">
        <ele>609</ele>
        <time>2018-01-02T15:52:32.552Z</time>
      </trkpt>
      <trkpt lat="43.70408" lon="6.97405">
        <ele>608</ele>
        <time>2018-01-02T15:52:36.552Z</time>
      </trkpt>
      <trkpt lat="43.70402" lon="6.97401">
        <ele>607</ele>
        <time>2018-01-02T15:52:39.552Z</time>
      </trkpt>
      <trkpt lat="43.70395" lon="6.97399">
        <ele>607</ele>
        <time>2018-01-02T15:52:44.552Z</time>
      </trkpt>
      <trkpt lat="43.70389" lon="6.97396">
        <ele>606</ele>
        <time>2018-01-02T15:52:48.552Z</time>
      </trkpt>
      <trkpt lat="43.70383" lon="6.97397">
        <ele>606</ele>
        <time>2018-01-02T15:52:51.552Z</time>
      </trkpt>
      <trkpt lat="43.70376" lon="6.97396">
        <ele>605</ele>
        <time>2018-01-02T15:52:54.552Z</time>
      </trkpt>
      <trkpt lat="43.70372" lon="6.97399">
        <ele>604</ele>
        <time>2018-01-02T15:53:02.552Z</time>
      </trkpt>
      <trkpt lat="43.70368" lon="6.97406">
        <ele>603</ele>
        <time>2018-01-02T15:53:07.552Z</time>
      </trkpt>
      <trkpt lat="43.70363" lon="6.97409">
        <ele>603</ele>
        <time>2018-01-02T15:53:12.552Z</time>
      </trkpt>
      <trkpt lat="43.70357" lon="6.97414">
        <ele>601</ele>
        <time>2018-01-02T15:53:15.552Z</time>
      </trkpt>
      <trkpt lat="43.7035" lon="6.97421">
        <ele>599</ele>
        <time>2018-01-02T15:53:19.552Z</time>
      </trkpt>
      <trkpt lat="43.70344" lon="6.97428">
        <ele>599</ele>
        <time>2018-01-02T15:53:23.552Z</time>
      </trkpt>
      <trkpt lat="43.70339" lon="6.97433">
        <ele>599</ele>
        <time>2018-01-02T15:53:27.552Z</time>
      </trkpt>
      <trkpt lat="43.70333" lon="6.97433">
        <ele>588</ele>
        <time>2018-01-02T15:53:37.552Z</time>
      </trkpt>
      <trkpt lat="43.70327" lon="6.97434">
        <ele>587</ele>
        <time>2018-01-02T15:53:43.552Z</time>
      </trkpt>
      <trkpt lat="43.70324" lon="6.97431">
        <ele>587</ele>
        <time>2018-01-02T15:54:03.552Z</time>
      </trkpt>
      <trkpt lat="43.70321" lon="6.97427">
        <ele>587</ele>
        <time>2018-01-02T15:54:06.552Z</time>
      </trkpt>
      <trkpt lat="43.70315" lon="6.97423">
        <ele>586</ele>
        <time>2018-01-02T15:54:09.552Z</time>
      </trkpt>
      <trkpt lat="43.70311" lon="6.97421">
        <ele>585</ele>
        <time>2018-01-02T15:54:11.552Z</time>
      </trkpt>
      <trkpt lat="43.70307" lon="6.97418">
        <ele>584</ele>
        <time>2018-01-02T15:54:14.552Z</time>
      </trkpt>
      <trkpt lat="43.70302" lon="6.97416">
        <ele>582</ele>
        <time>2018-01-02T15:54:17.552Z</time>
      </trkpt>
      <trkpt lat="43.70296" lon="6.97414">
        <ele>580</ele>
        <time>2018-01-02T15:54:20.552Z</time>
      </trkpt>
      <trkpt lat="43.70291" lon="6.97413">
        <ele>579</ele>
        <time>2018-01-02T15:54:22.552Z</time>
      </trkpt>
      <trkpt lat="43.70286" lon="6.97411">
        <ele>577</ele>
        <time>2018-01-02T15:54:24.552Z</time>
      </trkpt>
      <trkpt lat="43.7028" lon="6.97408">
        <ele>576</ele>
        <time>2018-01-02T15:54:26.552Z</time>
      </trkpt>
      <trkpt lat="43.70274" lon="6.97402">
        <ele>574</ele>
        <time>2018-01-02T15:54:28.552Z</time>
      </trkpt>
      <trkpt lat="43.70269" lon="6.97394">
        <ele>574</ele>
        <time>2018-01-02T15:54:30.552Z</time>
      </trkpt>
      <trkpt lat="43.70266" lon="6.97383">
        <ele>574</ele>
        <time>2018-01-02T15:54:32.552Z</time>
      </trkpt>
      <trkpt lat="43.70265" lon="6.97371">
        <ele>574</ele>
        <time>2018-01-02T15:54:34.552Z</time>
      </trkpt>
      <trkpt lat="43.70265" lon="6.97347">
        <ele>572</ele>
        <time>2018-01-02T15:54:38.552Z</time>
      </trkpt>
      <trkpt lat="43.70267" lon="6.97335">
        <ele>571</ele>
        <time>2018-01-02T15:54:40.552Z</time>
      </trkpt>
      <trkpt lat="43.70269" lon="6.97322">
        <ele>573</ele>
        <time>2018-01-02T15:54:42.552Z</time>
      </trkpt>
      <trkpt lat="43.70269" lon="6.97309">
        <ele>575</ele>
        <time>2018-01-02T15:54:44.552Z</time>
      </trkpt>
      <trkpt lat="43.70269" lon="6.9728">
        <ele>574</ele>
        <time>2018-01-02T15:54:48.552Z</time>
      </trkpt>
      <trkpt lat="43.70269" lon="6.97266">
        <ele>572</ele>
        <time>2018-01-02T15:54:52.552Z</time>
      </trkpt>
      <trkpt lat="43.70268" lon="6.97254">
        <ele>569</ele>
        <time>2018-01-02T15:54:57.552Z</time>
      </trkpt>
      <trkpt lat="43.70266" lon="6.97245">
        <ele>568</ele>
        <time>2018-01-02T15:56:45.552Z</time>
      </trkpt>
      <trkpt lat="43.70265" lon="6.97236">
        <ele>570</ele>
        <time>2018-01-02T15:56:47.552Z</time>
      </trkpt>
      <trkpt lat="43.70264" lon="6.97225">
        <ele>572</ele>
        <time>2018-01-02T15:56:49.552Z</time>
      </trkpt>
      <trkpt lat="43.70264" lon="6.97214">
        <ele>573</ele>
        <time>2018-01-02T15:56:51.552Z</time>
      </trkpt>
      <trkpt lat="43.70262" lon="6.97202">
        <ele>573</ele>
        <time>2018-01-02T15:56:53.552Z</time>
      </trkpt>
      <trkpt lat="43.70259" lon="6.97189">
        <ele>570</ele>
        <time>2018-01-02T15:56:55.552Z</time>
      </trkpt>
      <trkpt lat="43.70255" lon="6.97175">
        <ele>563</ele>
        <time>2018-01-02T15:56:57.552Z</time>
      </trkpt>
      <trkpt lat="43.70253" lon="6.97162">
        <ele>561</ele>
        <time>2018-01-02T15:56:59.552Z</time>
      </trkpt>
      <trkpt lat="43.70249" lon="6.97171">
        <ele>551</ele>
        <time>2018-01-02T15:57:06.552Z</time>
      </trkpt>
      <trkpt lat="43.70248" lon="6.97184">
        <ele>545</ele>
        <time>2018-01-02T15:57:08.552Z</time>
      </trkpt>
      <trkpt lat="43.70246" lon="6.97193">
        <ele>542</ele>
        <time>2018-01-02T15:57:11.552Z</time>
      </trkpt>
      <trkpt lat="43.70243" lon="6.97202">
        <ele>541</ele>
        <time>2018-01-02T15:57:12.552Z</time>
      </trkpt>
      <trkpt lat="43.7024" lon="6.97213">
        <ele>541</ele>
        <time>2018-01-02T15:57:13.552Z</time>
      </trkpt>
      <trkpt lat="43.70238" lon="6.97224">
        <ele>541</ele>
        <time>2018-01-02T15:57:14.552Z</time>
      </trkpt>
      <trkpt lat="43.70237" lon="6.97233">
        <ele>543</ele>
        <time>2018-01-02T15:57:15.552Z</time>
      </trkpt>
      <trkpt lat="43.70235" lon="6.9725">
        <ele>545</ele>
        <time>2018-01-02T15:57:17.552Z</time>
      </trkpt>
      <trkpt lat="43.70233" lon="6.97266">
        <ele>543</ele>
        <time>2018-01-02T15:57:19.552Z</time>
      </trkpt>
      <trkpt lat="43.7023" lon="6.97281">
        <ele>540</ele>
        <time>2018-01-02T15:57:21.552Z</time>
      </trkpt>
      <trkpt lat="43.70227" lon="6.97291">
        <ele>539</ele>
        <time>2018-01-02T15:57:24.552Z</time>
      </trkpt>
      <trkpt lat="43.70226" lon="6.97277">
        <ele>539</ele>
        <time>2018-01-02T15:57:28.552Z</time>
      </trkpt>
      <trkpt lat="43.70227" lon="6.97266">
        <ele>541</ele>
        <time>2018-01-02T15:57:30.552Z</time>
      </trkpt>
      <trkpt lat="43.70226" lon="6.97251">
        <ele>541</ele>
        <time>2018-01-02T15:57:33.552Z</time>
      </trkpt>
      <trkpt lat="43.70226" lon="6.97233">
        <ele>539</ele>
        <time>2018-01-02T15:57:36.552Z</time>
      </trkpt>
      <trkpt lat="43.70225" lon="6.97216">
        <ele>538</ele>
        <time>2018-01-02T15:57:39.552Z</time>
      </trkpt>
      <trkpt lat="43.70222" lon="6.97201">
        <ele>537</ele>
        <time>2018-01-02T15:57:42.552Z</time>
      </trkpt>
      <trkpt lat="43.70219" lon="6.97187">
        <ele>536</ele>
        <time>2018-01-02T15:57:44.552Z</time>
      </trkpt>
      <trkpt lat="43.70217" lon="6.97174">
        <ele>536</ele>
        <time>2018-01-02T15:57:46.552Z</time>
      </trkpt>
      <trkpt lat="43.70212" lon="6.97168">
        <ele>535</ele>
        <time>2018-01-02T15:57:59.552Z</time>
      </trkpt>
      <trkpt lat="43.70216" lon="6.97165">
        <ele>537</ele>
        <time>2018-01-02T15:58:25.552Z</time>
      </trkpt>
      <trkpt lat="43.70217" lon="6.97172">
        <ele>537</ele>
        <time>2018-01-02T15:58:41.552Z</time>
      </trkpt>
      <trkpt lat="43.70216" lon="6.97183">
        <ele>536</ele>
        <time>2018-01-02T15:58:49.552Z</time>
      </trkpt>
      <trkpt lat="43.70217" lon="6.97191">
        <ele>536</ele>
        <time>2018-01-02T15:58:51.552Z</time>
      </trkpt>
      <trkpt lat="43.70217" lon="6.97204">
        <ele>536</ele>
        <time>2018-01-02T15:58:54.552Z</time>
      </trkpt>
      <trkpt lat="43.70216" lon="6.97216">
        <ele>535</ele>
        <time>2018-01-02T15:58:57.552Z</time>
      </trkpt>
      <trkpt lat="43.70215" lon="6.97226">
        <ele>535</ele>
        <time>2018-01-02T15:58:59.552Z</time>
      </trkpt>
      <trkpt lat="43.70215" lon="6.97238">
        <ele>536</ele>
        <time>2018-01-02T15:59:01.552Z</time>
      </trkpt>
      <trkpt lat="43.70213" lon="6.97249">
        <ele>535</ele>
        <time>2018-01-02T15:59:03.552Z</time>
      </trkpt>
      <trkpt lat="43.7021" lon="6.97261">
        <ele>535</ele>
        <time>2018-01-02T15:59:05.552Z</time>
      </trkpt>
      <trkpt lat="43.70204" lon="6.97278">
        <ele>533</ele>
        <time>2018-01-02T15:59:08.552Z</time>
      </trkpt>
      <trkpt lat="43.70199" lon="6.97293">
        <ele>532</ele>
        <time>2018-01-02T15:59:11.552Z</time>
      </trkpt>
      <trkpt lat="43.70192" lon="6.97306">
        <ele>529</ele>
        <time>2018-01-02T15:59:13.552Z</time>
      </trkpt>
      <trkpt lat="43.70184" lon="6.97317">
        <ele>526</ele>
        <time>2018-01-02T15:59:15.552Z</time>
      </trkpt>
      <trkpt lat="43.70177" lon="6.97327">
        <ele>520</ele>
        <time>2018-01-02T15:59:17.552Z</time>
      </trkpt>
      <trkpt lat="43.70171" lon="6.97336">
        <ele>515</ele>
        <time>2018-01-02T15:59:19.552Z</time>
      </trkpt>
      <trkpt lat="43.70164" lon="6.97345">
        <ele>505</ele>
        <time>2018-01-02T15:59:21.552Z</time>
      </trkpt>
      <trkpt lat="43.70158" lon="6.97351">
        <ele>502</ele>
        <time>2018-01-02T15:59:24.552Z</time>
      </trkpt>
      <trkpt lat="43.70157" lon="6.9736">
        <ele>501</ele>
        <time>2018-01-02T15:59:31.552Z</time>
      </trkpt>
      <trkpt lat="43.70157" lon="6.97351">
        <ele>502</ele>
        <time>2018-01-02T15:59:50.552Z</time>
      </trkpt>
      <trkpt lat="43.70157" lon="6.97341">
        <ele>504</ele>
        <time>2018-01-02T15:59:54.552Z</time>
      </trkpt>
      <trkpt lat="43.7016" lon="6.97332">
        <ele>507</ele>
        <time>2018-01-02T15:59:58.552Z</time>
      </trkpt>
      <trkpt lat="43.70162" lon="6.97321">
        <ele>505</ele>
        <time>2018-01-02T16:00:02.552Z</time>
      </trkpt>
      <trkpt lat="43.70163" lon="6.97309">
        <ele>503</ele>
        <time>2018-01-02T16:00:08.552Z</time>
      </trkpt>
      <trkpt lat="43.70161" lon="6.97297">
        <ele>502</ele>
        <time>2018-01-02T16:00:12.552Z</time>
      </trkpt>
      <trkpt lat="43.7016" lon="6.97286">
        <ele>502</ele>
        <time>2018-01-02T16:00:14.552Z</time>
      </trkpt>
      <trkpt lat="43.70161" lon="6.97262">
        <ele>506</ele>
        <time>2018-01-02T16:00:18.552Z</time>
      </trkpt>
      <trkpt lat="43.70161" lon="6.97251">
        <ele>509</ele>
        <time>2018-01-02T16:00:20.552Z</time>
      </trkpt>
      <trkpt lat="43.70161" lon="6.97239">
        <ele>506</ele>
        <time>2018-01-02T16:00:23.552Z</time>
      </trkpt>
      <trkpt lat="43.70155" lon="6.97224">
        <ele>502</ele>
        <time>2018-01-02T16:00:27.552Z</time>
      </trkpt>
      <trkpt lat="43.70148" lon="6.97211">
        <ele>500</ele>
        <time>2018-01-02T16:00:30.552Z</time>
      </trkpt>
      <trkpt lat="43.70142" lon="6.972">
        <ele>499</ele>
        <time>2018-01-02T16:00:34.552Z</time>
      </trkpt>
      <trkpt lat="43.70132" lon="6.97206">
        <ele>497</ele>
        <time>2018-01-02T16:00:55.552Z</time>
      </trkpt>
      <trkpt lat="43.70125" lon="6.97214">
        <ele>496</ele>
        <time>2018-01-02T16:00:58.552Z</time>
      </trkpt>
      <trkpt lat="43.70116" lon="6.97218">
        <ele>495</ele>
        <time>2018-01-02T16:01:02.552Z</time>
      </trkpt>
      <trkpt lat="43.70107" lon="6.97228">
        <ele>493</ele>
        <time>2018-01-02T16:01:06.552Z</time>
      </trkpt>
      <trkpt lat="43.70117" lon="6.97225">
        <ele>495</ele>
        <time>2018-01-02T16:02:28.552Z</time>
      </trkpt>
      <trkpt lat="43.70127" lon="6.97217">
        <ele>497</ele>
        <time>2018-01-02T16:02:33.552Z</time>
      </trkpt>
      <trkpt lat="43.70137" lon="6.97221">
        <ele>499</ele>
        <time>2018-01-02T16:02:36.552Z</time>
      </trkpt>
      <trkpt lat="43.70148" lon="6.97226">
        <ele>501</ele>
        <time>2018-01-02T16:02:40.552Z</time>
      </trkpt>
      <trkpt lat="43.70154" lon="6.97241">
        <ele>505</ele>
        <time>2018-01-02T16:02:46.552Z</time>
      </trkpt>
      <trkpt lat="43.70157" lon="6.97259">
        <ele>506</ele>
        <time>2018-01-02T16:02:50.552Z</time>
      </trkpt>
      <trkpt lat="43.70159" lon="6.97268">
        <ele>504</ele>
        <time>2018-01-02T16:02:52.552Z</time>
      </trkpt>
      <trkpt lat="43.70161" lon="6.9728">
        <ele>503</ele>
        <time>2018-01-02T16:02:55.552Z</time>
      </trkpt>
      <trkpt lat="43.70162" lon="6.97293">
        <ele>502</ele>
        <time>2018-01-02T16:02:58.552Z</time>
      </trkpt>
      <trkpt lat="43.70161" lon="6.97308">
        <ele>503</ele>
        <time>2018-01-02T16:03:01.552Z</time>
      </trkpt>
      <trkpt lat="43.7016" lon="6.97318">
        <ele>504</ele>
        <time>2018-01-02T16:03:03.552Z</time>
      </trkpt>
      <trkpt lat="43.70159" lon="6.97328">
        <ele>506</ele>
        <time>2018-01-02T16:03:05.552Z</time>
      </trkpt>
      <trkpt lat="43.70158" lon="6.97338">
        <ele>505</ele>
        <time>2018-01-02T16:03:07.552Z</time>
      </trkpt>
      <trkpt lat="43.70157" lon="6.97348">
        <ele>503</ele>
        <time>2018-01-02T16:03:09.552Z</time>
      </trkpt>
      <trkpt lat="43.70158" lon="6.97359">
        <ele>501</ele>
        <time>2018-01-02T16:03:12.552Z</time>
      </trkpt>
      <trkpt lat="43.70157" lon="6.9737">
        <ele>500</ele>
        <time>2018-01-02T16:03:33.552Z</time>
      </trkpt>
      <trkpt lat="43.7015" lon="6.97374">
        <ele>499</ele>
        <time>2018-01-02T16:03:36.552Z</time>
      </trkpt>
      <trkpt lat="43.70143" lon="6.97387">
        <ele>498</ele>
        <time>2018-01-02T16:03:40.552Z</time>
      </trkpt>
      <trkpt lat="43.70139" lon="6.97403">
        <ele>498</ele>
        <time>2018-01-02T16:03:44.552Z</time>
      </trkpt>
      <trkpt lat="43.70136" lon="6.9742">
        <ele>497</ele>
        <time>2018-01-02T16:03:48.552Z</time>
      </trkpt>
      <trkpt lat="43.70133" lon="6.97436">
        <ele>496</ele>
        <time>2018-01-02T16:03:52.552Z</time>
      </trkpt>
      <trkpt lat="43.70125" lon="6.97447">
        <ele>493</ele>
        <time>2018-01-02T16:03:56.552Z</time>
      </trkpt>
      <trkpt lat="43.70115" lon="6.97456">
        <ele>491</ele>
        <time>2018-01-02T16:04:01.552Z</time>
      </trkpt>
      <trkpt lat="43.70107" lon="6.9747">
        <ele>489</ele>
        <time>2018-01-02T16:04:05.552Z</time>
      </trkpt>
      <trkpt lat="43.70101" lon="6.9748">
        <ele>486</ele>
        <time>2018-01-02T16:04:09.552Z</time>
      </trkpt>
      <trkpt lat="43.70096" lon="6.97493">
        <ele>482</ele>
        <time>2018-01-02T16:04:13.552Z</time>
      </trkpt>
      <trkpt lat="43.70087" lon="6.97487">
        <ele>481</ele>
        <time>2018-01-02T16:04:20.552Z</time>
      </trkpt>
      <trkpt lat="43.70083" lon="6.97474">
        <ele>464</ele>
        <time>2018-01-02T16:04:24.552Z</time>
      </trkpt>
      <trkpt lat="43.70077" lon="6.9746">
        <ele>463</ele>
        <time>2018-01-02T16:04:29.552Z</time>
      </trkpt>
      <trkpt lat="43.70067" lon="6.97469">
        <ele>462</ele>
        <time>2018-01-02T16:04:36.552Z</time>
      </trkpt>
      <trkpt lat="43.70061" lon="6.97482">
        <ele>461</ele>
        <time>2018-01-02T16:04:40.552Z</time>
      </trkpt>
      <trkpt lat="43.70055" lon="6.97493">
        <ele>460</ele>
        <time>2018-01-02T16:04:46.552Z</time>
      </trkpt>
      <trkpt lat="43.70061" lon="6.97488">
        <ele>461</ele>
        <time>2018-01-02T16:05:51.552Z</time>
      </trkpt>
      <trkpt lat="43.7006" lon="6.975">
        <ele>462</ele>
        <time>2018-01-02T16:06:15.552Z</time>
      </trkpt>
      <trkpt lat="43.70061" lon="6.97511">
        <ele>458</ele>
        <time>2018-01-02T16:06:31.552Z</time>
      </trkpt>
      <trkpt lat="43.70059" lon="6.97526">
        <ele>456</ele>
        <time>2018-01-02T16:06:37.552Z</time>
      </trkpt>
      <trkpt lat="43.70056" lon="6.9754">
        <ele>454</ele>
        <time>2018-01-02T16:06:41.552Z</time>
      </trkpt>
      <trkpt lat="43.7005" lon="6.97553">
        <ele>453</ele>
        <time>2018-01-02T16:06:44.552Z</time>
      </trkpt>
      <trkpt lat="43.70045" lon="6.97566">
        <ele>451</ele>
        <time>2018-01-02T16:06:47.552Z</time>
      </trkpt>
      <trkpt lat="43.70039" lon="6.97579">
        <ele>449</ele>
        <time>2018-01-02T16:06:53.552Z</time>
      </trkpt>
      <trkpt lat="43.70038" lon="6.97594">
        <ele>443</ele>
        <time>2018-01-02T16:07:07.552Z</time>
      </trkpt>
      <trkpt lat="43.70036" lon="6.97606">
        <ele>442</ele>
        <time>2018-01-02T16:07:10.552Z</time>
      </trkpt>
      <trkpt lat="43.70034" lon="6.9762">
        <ele>441</ele>
        <time>2018-01-02T16:07:14.552Z</time>
      </trkpt>
      <trkpt lat="43.7003" lon="6.97635">
        <ele>439</ele>
        <time>2018-01-02T16:07:19.552Z</time>
      </trkpt>
      <trkpt lat="43.70025" lon="6.97647">
        <ele>436</ele>
        <time>2018-01-02T16:07:23.552Z</time>
      </trkpt>
      <trkpt lat="43.70022" lon="6.97659">
        <ele>433</ele>
        <time>2018-01-02T16:07:27.552Z</time>
      </trkpt>
      <trkpt lat="43.70028" lon="6.97672">
        <ele>429</ele>
        <time>2018-01-02T16:07:39.552Z</time>
      </trkpt>
      <trkpt lat="43.7003" lon="6.97686">
        <ele>430</ele>
        <time>2018-01-02T16:07:42.552Z</time>
      </trkpt>
      <trkpt lat="43.70032" lon="6.97698">
        <ele>431</ele>
        <time>2018-01-02T16:07:44.552Z</time>
      </trkpt>
      <trkpt lat="43.70033" lon="6.97711">
        <ele>430</ele>
        <time>2018-01-02T16:07:46.552Z</time>
      </trkpt>
      <trkpt lat="43.70034" lon="6.97726">
        <ele>430</ele>
        <time>2018-01-02T16:07:49.552Z</time>
      </trkpt>
      <trkpt lat="43.70039" lon="6.97737">
        <ele>430</ele>
        <time>2018-01-02T16:07:52.552Z</time>
      </trkpt>
      <trkpt lat="43.70041" lon="6.9775">
        <ele>430</ele>
        <time>2018-01-02T16:07:55.552Z</time>
      </trkpt>
      <trkpt lat="43.7004" lon="6.97762">
        <ele>425</ele>
        <time>2018-01-02T16:07:58.552Z</time>
      </trkpt>
      <trkpt lat="43.70039" lon="6.97775">
        <ele>424</ele>
        <time>2018-01-02T16:08:02.552Z</time>
      </trkpt>
      <trkpt lat="43.70032" lon="6.97783">
        <ele>422</ele>
        <time>2018-01-02T16:08:08.552Z</time>
      </trkpt>
      <trkpt lat="43.70028" lon="6.9778">
        <ele>422</ele>
        <time>2018-01-02T16:08:38.552Z</time>
      </trkpt>
      <trkpt lat="43.70029" lon="6.9777">
        <ele>422</ele>
        <time>2018-01-02T16:08:56.552Z</time>
      </trkpt>
      <trkpt lat="43.70028" lon="6.97758">
        <ele>421</ele>
        <time>2018-01-02T16:09:00.552Z</time>
      </trkpt>
      <trkpt lat="43.70026" lon="6.97747">
        <ele>425</ele>
        <time>2018-01-02T16:09:03.552Z</time>
      </trkpt>
      <trkpt lat="43.70022" lon="6.97732">
        <ele>425</ele>
        <time>2018-01-02T16:09:07.552Z</time>
      </trkpt>
      <trkpt lat="43.70016" lon="6.97717">
        <ele>426</ele>
        <time>2018-01-02T16:09:11.552Z</time>
      </trkpt>
      <trkpt lat="43.70012" lon="6.97704">
        <ele>427</ele>
        <time>2018-01-02T16:09:14.552Z</time>
      </trkpt>
      <trkpt lat="43.7001" lon="6.97689">
        <ele>426</ele>
        <time>2018-01-02T16:09:17.552Z</time>
      </trkpt>
      <trkpt lat="43.70007" lon="6.97675">
        <ele>423</ele>
        <time>2018-01-02T16:09:20.552Z</time>
      </trkpt>
      <trkpt lat="43.70004" lon="6.97661">
        <ele>423</ele>
        <time>2018-01-02T16:09:23.552Z</time>
      </trkpt>
      <trkpt lat="43.70001" lon="6.97647">
        <ele>430</ele>
        <time>2018-01-02T16:09:26.552Z</time>
      </trkpt>
      <trkpt lat="43.69998" lon="6.97634">
        <ele>411</ele>
        <time>2018-01-02T16:09:29.552Z</time>
      </trkpt>
      <trkpt lat="43.69994" lon="6.9762">
        <ele>412</ele>
        <time>2018-01-02T16:09:32.552Z</time>
      </trkpt>
      <trkpt lat="43.6999" lon="6.97607">
        <ele>414</ele>
        <time>2018-01-02T16:09:35.552Z</time>
      </trkpt>
      <trkpt lat="43.69985" lon="6.97594">
        <ele>416</ele>
        <time>2018-01-02T16:09:38.552Z</time>
      </trkpt>
      <trkpt lat="43.6998" lon="6.97581">
        <ele>420</ele>
        <time>2018-01-02T16:09:41.552Z</time>
      </trkpt>
      <trkpt lat="43.69975" lon="6.97567">
        <ele>418</ele>
        <time>2018-01-02T16:09:44.552Z</time>
      </trkpt>
      <trkpt lat="43.6997" lon="6.97554">
        <ele>417</ele>
        <time>2018-01-02T16:09:47.552Z</time>
      </trkpt>
      <trkpt lat="43.69967" lon="6.97542">
        <ele>417</ele>
        <time>2018-01-02T16:09:50.552Z</time>
      </trkpt>
      <trkpt lat="43.69962" lon="6.97529">
        <ele>417</ele>
        <time>2018-01-02T16:09:53.552Z</time>
      </trkpt>
      <trkpt lat="43.69957" lon="6.97517">
        <ele>416</ele>
        <time>2018-01-02T16:09:56.552Z</time>
      </trkpt>
      <trkpt lat="43.69952" lon="6.97505">
        <ele>415</ele>
        <time>2018-01-02T16:09:59.552Z</time>
      </trkpt>
      <trkpt lat="43.69948" lon="6.9749">
        <ele>419</ele>
        <time>2018-01-02T16:10:02.552Z</time>
      </trkpt>
      <trkpt lat="43.69947" lon="6.97474">
        <ele>419</ele>
        <time>2018-01-02T16:10:05.552Z</time>
      </trkpt>
      <trkpt lat="43.69949" lon="6.97461">
        <ele>421</ele>
        <time>2018-01-02T16:10:08.552Z</time>
      </trkpt>
      <trkpt lat="43.69954" lon="6.97446">
        <ele>422</ele>
        <time>2018-01-02T16:10:11.552Z</time>
      </trkpt>
      <trkpt lat="43.69955" lon="6.97434">
        <ele>422</ele>
        <time>2018-01-02T16:10:13.552Z</time>
      </trkpt>
      <trkpt lat="43.69954" lon="6.97422">
        <ele>422</ele>
        <time>2018-01-02T16:10:15.552Z</time>
      </trkpt>
      <trkpt lat="43.69952" lon="6.97411">
        <ele>424</ele>
        <time>2018-01-02T16:10:17.552Z</time>
      </trkpt>
      <trkpt lat="43.69948" lon="6.97401">
        <ele>423</ele>
        <time>2018-01-02T16:10:19.552Z</time>
      </trkpt>
      <trkpt lat="43.69941" lon="6.97388">
        <ele>422</ele>
        <time>2018-01-02T16:10:22.552Z</time>
      </trkpt>
      <trkpt lat="43.69935" lon="6.97374">
        <ele>422</ele>
        <time>2018-01-02T16:10:25.552Z</time>
      </trkpt>
      <trkpt lat="43.69935" lon="6.97358">
        <ele>421</ele>
        <time>2018-01-02T16:10:28.552Z</time>
      </trkpt>
      <trkpt lat="43.69942" lon="6.97343">
        <ele>422</ele>
        <time>2018-01-02T16:10:31.552Z</time>
      </trkpt>
      <trkpt lat="43.69945" lon="6.97329">
        <ele>422</ele>
        <time>2018-01-02T16:10:34.552Z</time>
      </trkpt>
      <trkpt lat="43.69947" lon="6.97315">
        <ele>423</ele>
        <time>2018-01-02T16:10:37.552Z</time>
      </trkpt>
      <trkpt lat="43.69951" lon="6.973">
        <ele>424</ele>
        <time>2018-01-02T16:10:40.552Z</time>
      </trkpt>
      <trkpt lat="43.69956" lon="6.97287">
        <ele>425</ele>
        <time>2018-01-02T16:10:43.552Z</time>
      </trkpt>
      <trkpt lat="43.69962" lon="6.97273">
        <ele>426</ele>
        <time>2018-01-02T16:10:46.552Z</time>
      </trkpt>
      <trkpt lat="43.69966" lon="6.97258">
        <ele>427</ele>
        <time>2018-01-02T16:10:49.552Z</time>
      </trkpt>
      <trkpt lat="43.69966" lon="6.97242">
        <ele>428</ele>
        <time>2018-01-02T16:10:52.552Z</time>
      </trkpt>
      <trkpt lat="43.69965" lon="6.97226">
        <ele>428</ele>
        <time>2018-01-02T16:10:55.552Z</time>
      </trkpt>
      <trkpt lat="43.69964" lon="6.97199">
        <ele>428</ele>
        <time>2018-01-02T16:11:00.552Z</time>
      </trkpt>
      <trkpt lat="43.69962" lon="6.97183">
        <ele>428</ele>
        <time>2018-01-02T16:11:03.552Z</time>
      </trkpt>
      <trkpt lat="43.69952" lon="6.97175">
        <ele>427</ele>
        <time>2018-01-02T16:11:06.552Z</time>
      </trkpt>
      <trkpt lat="43.69942" lon="6.97175">
        <ele>426</ele>
        <time>2018-01-02T16:11:10.552Z</time>
      </trkpt>
      <trkpt lat="43.69934" lon="6.97174">
        <ele>425</ele>
        <time>2018-01-02T16:11:17.552Z</time>
      </trkpt>
      <trkpt lat="43.69926" lon="6.9717">
        <ele>423</ele>
        <time>2018-01-02T16:11:22.552Z</time>
      </trkpt>
      <trkpt lat="43.69929" lon="6.97156">
        <ele>429</ele>
        <time>2018-01-02T16:11:26.552Z</time>
      </trkpt>
      <trkpt lat="43.69936" lon="6.97147">
        <ele>431</ele>
        <time>2018-01-02T16:11:29.552Z</time>
      </trkpt>
      <trkpt lat="43.69943" lon="6.97136">
        <ele>433</ele>
        <time>2018-01-02T16:11:32.552Z</time>
      </trkpt>
      <trkpt lat="43.69952" lon="6.97124">
        <ele>435</ele>
        <time>2018-01-02T16:11:35.552Z</time>
      </trkpt>
      <trkpt lat="43.69957" lon="6.97109">
        <ele>436</ele>
        <time>2018-01-02T16:11:38.552Z</time>
      </trkpt>
      <trkpt lat="43.69963" lon="6.97095">
        <ele>437</ele>
        <time>2018-01-02T16:11:41.552Z</time>
      </trkpt>
      <trkpt lat="43.69952" lon="6.97096">
        <ele>436</ele>
        <time>2018-01-02T16:11:47.552Z</time>
      </trkpt>
      <trkpt lat="43.69945" lon="6.97107">
        <ele>435</ele>
        <time>2018-01-02T16:11:51.552Z</time>
      </trkpt>
      <trkpt lat="43.69938" lon="6.97117">
        <ele>435</ele>
        <time>2018-01-02T16:11:54.552Z</time>
      </trkpt>
      <trkpt lat="43.69928" lon="6.97127">
        <ele>433</ele>
        <time>2018-01-02T16:11:58.552Z</time>
      </trkpt>
      <trkpt lat="43.69919" lon="6.97136">
        <ele>432</ele>
        <time>2018-01-02T16:12:01.552Z</time>
      </trkpt>
      <trkpt lat="43.69912" lon="6.97142">
        <ele>428</ele>
        <time>2018-01-02T16:12:04.552Z</time>
      </trkpt>
      <trkpt lat="43.69903" lon="6.97152">
        <ele>427</ele>
        <time>2018-01-02T16:12:07.552Z</time>
      </trkpt>
      <trkpt lat="43.69895" lon="6.9716">
        <ele>427</ele>
        <time>2018-01-02T16:12:10.552Z</time>
      </trkpt>
      <trkpt lat="43.6989" lon="6.97167">
        <ele>419</ele>
        <time>2018-01-02T16:12:29.552Z</time>
      </trkpt>
      <trkpt lat="43.6988" lon="6.97173">
        <ele>418</ele>
        <time>2018-01-02T16:12:53.552Z</time>
      </trkpt>
      <trkpt lat="43.6987" lon="6.97173">
        <ele>418</ele>
        <time>2018-01-02T16:13:03.552Z</time>
      </trkpt>
      <trkpt lat="43.69858" lon="6.97174">
        <ele>419</ele>
        <time>2018-01-02T16:13:17.552Z</time>
      </trkpt>
      <trkpt lat="43.69849" lon="6.97174">
        <ele>420</ele>
        <time>2018-01-02T16:13:23.552Z</time>
      </trkpt>
      <trkpt lat="43.6984" lon="6.97178">
        <ele>421</ele>
        <time>2018-01-02T16:13:29.552Z</time>
      </trkpt>
      <trkpt lat="43.69832" lon="6.97176">
        <ele>423</ele>
        <time>2018-01-02T16:13:34.552Z</time>
      </trkpt>
      <trkpt lat="43.69826" lon="6.97171">
        <ele>423</ele>
        <time>2018-01-02T16:13:38.552Z</time>
      </trkpt>
      <trkpt lat="43.69822" lon="6.97164">
        <ele>429</ele>
        <time>2018-01-02T16:13:42.552Z</time>
      </trkpt>
      <trkpt lat="43.69819" lon="6.97156">
        <ele>431</ele>
        <time>2018-01-02T16:13:46.552Z</time>
      </trkpt>
      <trkpt lat="43.69816" lon="6.97148">
        <ele>432</ele>
        <time>2018-01-02T16:13:49.552Z</time>
      </trkpt>
      <trkpt lat="43.69811" lon="6.97141">
        <ele>433</ele>
        <time>2018-01-02T16:13:54.552Z</time>
      </trkpt>
      <trkpt lat="43.69806" lon="6.9715">
        <ele>433</ele>
        <time>2018-01-02T16:13:59.552Z</time>
      </trkpt>
      <trkpt lat="43.69802" lon="6.97162">
        <ele>432</ele>
        <time>2018-01-02T16:14:02.552Z</time>
      </trkpt>
      <trkpt lat="43.69797" lon="6.97176">
        <ele>422</ele>
        <time>2018-01-02T16:14:06.552Z</time>
      </trkpt>
      <trkpt lat="43.69789" lon="6.97173">
        <ele>422</ele>
        <time>2018-01-02T16:14:10.552Z</time>
      </trkpt>
      <trkpt lat="43.69782" lon="6.97164">
        <ele>433</ele>
        <time>2018-01-02T16:14:16.552Z</time>
      </trkpt>
      <trkpt lat="43.69772" lon="6.97163">
        <ele>433</ele>
        <time>2018-01-02T16:14:33.552Z</time>
      </trkpt>
      <trkpt lat="43.69766" lon="6.97171">
        <ele>425</ele>
        <time>2018-01-02T16:14:40.552Z</time>
      </trkpt>
      <trkpt lat="43.69761" lon="6.97184">
        <ele>424</ele>
        <time>2018-01-02T16:14:48.552Z</time>
      </trkpt>
      <trkpt lat="43.69755" lon="6.97198">
        <ele>422</ele>
        <time>2018-01-02T16:14:53.552Z</time>
      </trkpt>
      <trkpt lat="43.69751" lon="6.97211">
        <ele>419</ele>
        <time>2018-01-02T16:14:57.552Z</time>
      </trkpt>
      <trkpt lat="43.69744" lon="6.9722">
        <ele>426</ele>
        <time>2018-01-02T16:15:01.552Z</time>
      </trkpt>
      <trkpt lat="43.69735" lon="6.97225">
        <ele>426</ele>
        <time>2018-01-02T16:15:06.552Z</time>
      </trkpt>
      <trkpt lat="43.69726" lon="6.97224">
        <ele>427</ele>
        <time>2018-01-02T16:15:10.552Z</time>
      </trkpt>
      <trkpt lat="43.69716" lon="6.97231">
        <ele>428</ele>
        <time>2018-01-02T16:15:17.552Z</time>
      </trkpt>
      <trkpt lat="43.6971" lon="6.97242">
        <ele>428</ele>
        <time>2018-01-02T16:15:22.552Z</time>
      </trkpt>
      <trkpt lat="43.69702" lon="6.97249">
        <ele>429</ele>
        <time>2018-01-02T16:15:29.552Z</time>
      </trkpt>
      <trkpt lat="43.69697" lon="6.97257">
        <ele>419</ele>
        <time>2018-01-02T16:15:41.552Z</time>
      </trkpt>
      <trkpt lat="43.6969" lon="6.97265">
        <ele>419</ele>
        <time>2018-01-02T16:15:51.552Z</time>
      </trkpt>
      <trkpt lat="43.69684" lon="6.97275">
        <ele>419</ele>
        <time>2018-01-02T16:16:00.552Z</time>
      </trkpt>
      <trkpt lat="43.69679" lon="6.97281">
        <ele>418</ele>
        <time>2018-01-02T16:16:09.552Z</time>
      </trkpt>
      <trkpt lat="43.69673" lon="6.97283">
        <ele>418</ele>
        <time>2018-01-02T16:16:22.552Z</time>
      </trkpt>
      <trkpt lat="43.69664" lon="6.9728">
        <ele>433</ele>
        <time>2018-01-02T16:16:50.552Z</time>
      </trkpt>
      <trkpt lat="43.69657" lon="6.97291">
        <ele>432</ele>
        <time>2018-01-02T16:16:59.552Z</time>
      </trkpt>
      <trkpt lat="43.6966" lon="6.97302">
        <ele>430</ele>
        <time>2018-01-02T16:17:04.552Z</time>
      </trkpt>
      <trkpt lat="43.69664" lon="6.97312">
        <ele>427</ele>
        <time>2018-01-02T16:17:09.552Z</time>
      </trkpt>
      <trkpt lat="43.69665" lon="6.97324">
        <ele>422</ele>
        <time>2018-01-02T16:17:13.552Z</time>
      </trkpt>
      <trkpt lat="43.69662" lon="6.97337">
        <ele>416</ele>
        <time>2018-01-02T16:17:16.552Z</time>
      </trkpt>
      <trkpt lat="43.69657" lon="6.97354">
        <ele>416</ele>
        <time>2018-01-02T16:17:18.552Z</time>
      </trkpt>
      <trkpt lat="43.69648" lon="6.97368">
        <ele>415</ele>
        <time>2018-01-02T16:17:20.552Z</time>
      </trkpt>
      <trkpt lat="43.6964" lon="6.9738">
        <ele>414</ele>
        <time>2018-01-02T16:17:22.552Z</time>
      </trkpt>
      <trkpt lat="43.69632" lon="6.97391">
        <ele>414</ele>
        <time>2018-01-02T16:17:24.552Z</time>
      </trkpt>
      <trkpt lat="43.69625" lon="6.97402">
        <ele>414</ele>
        <time>2018-01-02T16:17:26.552Z</time>
      </trkpt>
      <trkpt lat="43.69619" lon="6.97411">
        <ele>415</ele>
        <time>2018-01-02T16:17:28.552Z</time>
      </trkpt>
      <trkpt lat="43.69608" lon="6.97414">
        <ele>416</ele>
        <time>2018-01-02T16:17:31.552Z</time>
      </trkpt>
      <trkpt lat="43.696" lon="6.97413">
        <ele>417</ele>
        <time>2018-01-02T16:17:34.552Z</time>
      </trkpt>
      <trkpt lat="43.69593" lon="6.97413">
        <ele>418</ele>
        <time>2018-01-02T16:17:38.552Z</time>
      </trkpt>
      <trkpt lat="43.69583" lon="6.97414">
        <ele>420</ele>
        <time>2018-01-02T16:17:42.552Z</time>
      </trkpt>
      <trkpt lat="43.69578" lon="6.97415">
        <ele>422</ele>
        <time>2018-01-02T16:17:44.552Z</time>
      </trkpt>
      <trkpt lat="43.69572" lon="6.97417">
        <ele>417</ele>
        <time>2018-01-02T16:17:46.552Z</time>
      </trkpt>
      <trkpt lat="43.69566" lon="6.9742">
        <ele>417</ele>
        <time>2018-01-02T16:17:48.552Z</time>
      </trkpt>
      <trkpt lat="43.69561" lon="6.97423">
        <ele>417</ele>
        <time>2018-01-02T16:17:50.552Z</time>
      </trkpt>
      <trkpt lat="43.69556" lon="6.97425">
        <ele>417</ele>
        <time>2018-01-02T16:17:52.552Z</time>
      </trkpt>
      <trkpt lat="43.6955" lon="6.97428">
        <ele>417</ele>
        <time>2018-01-02T16:17:55.552Z</time>
      </trkpt>
      <trkpt lat="43.69543" lon="6.97433">
        <ele>418</ele>
        <time>2018-01-02T16:17:58.552Z</time>
      </trkpt>
      <trkpt lat="43.69535" lon="6.97441">
        <ele>418</ele>
        <time>2018-01-02T16:18:01.552Z</time>
      </trkpt>
      <trkpt lat="43.69527" lon="6.97448">
        <ele>418</ele>
        <time>2018-01-02T16:18:04.552Z</time>
      </trkpt>
      <trkpt lat="43.69521" lon="6.97455">
        <ele>417</ele>
        <time>2018-01-02T16:18:07.552Z</time>
      </trkpt>
      <trkpt lat="43.69513" lon="6.97461">
        <ele>417</ele>
        <time>2018-01-02T16:18:10.552Z</time>
      </trkpt>
      <trkpt lat="43.69504" lon="6.97468">
        <ele>416</ele>
        <time>2018-01-02T16:18:13.552Z</time>
      </trkpt>
      <trkpt lat="43.69493" lon="6.97475">
        <ele>426</ele>
        <time>2018-01-02T16:18:16.552Z</time>
      </trkpt>
      <trkpt lat="43.69481" lon="6.97481">
        <ele>426</ele>
        <time>2018-01-02T16:18:19.552Z</time>
      </trkpt>
      <trkpt lat="43.69467" lon="6.97488">
        <ele>427</ele>
        <time>2018-01-02T16:18:22.552Z</time>
      </trkpt>
      <trkpt lat="43.69458" lon="6.97497">
        <ele>428</ele>
        <time>2018-01-02T16:18:25.552Z</time>
      </trkpt>
      <trkpt lat="43.69448" lon="6.97507">
        <ele>414</ele>
        <time>2018-01-02T16:18:29.552Z</time>
      </trkpt>
      <trkpt lat="43.69437" lon="6.97513">
        <ele>415</ele>
        <time>2018-01-02T16:18:32.552Z</time>
      </trkpt>
      <trkpt lat="43.69426" lon="6.97515">
        <ele>418</ele>
        <time>2018-01-02T16:18:35.552Z</time>
      </trkpt>
      <trkpt lat="43.69419" lon="6.97516">
        <ele>418</ele>
        <time>2018-01-02T16:18:37.552Z</time>
      </trkpt>
      <trkpt lat="43.69409" lon="6.9752">
        <ele>424</ele>
        <time>2018-01-02T16:18:40.552Z</time>
      </trkpt>
      <trkpt lat="43.69401" lon="6.97523">
        <ele>424</ele>
        <time>2018-01-02T16:18:43.552Z</time>
      </trkpt>
      <trkpt lat="43.69393" lon="6.97527">
        <ele>423</ele>
        <time>2018-01-02T16:18:46.552Z</time>
      </trkpt>
      <trkpt lat="43.69384" lon="6.97531">
        <ele>423</ele>
        <time>2018-01-02T16:18:49.552Z</time>
      </trkpt>
      <trkpt lat="43.69374" lon="6.97534">
        <ele>424</ele>
        <time>2018-01-02T16:18:52.552Z</time>
      </trkpt>
      <trkpt lat="43.69364" lon="6.97538">
        <ele>424</ele>
        <time>2018-01-02T16:18:55.552Z</time>
      </trkpt>
      <trkpt lat="43.69356" lon="6.97542">
        <ele>424</ele>
        <time>2018-01-02T16:18:58.552Z</time>
      </trkpt>
      <trkpt lat="43.69347" lon="6.97548">
        <ele>424</ele>
        <time>2018-01-02T16:19:01.552Z</time>
      </trkpt>
      <trkpt lat="43.69335" lon="6.97557">
        <ele>423</ele>
        <time>2018-01-02T16:19:05.552Z</time>
      </trkpt>
      <trkpt lat="43.69323" lon="6.97566">
        <ele>431</ele>
        <time>2018-01-02T16:19:08.552Z</time>
      </trkpt>
      <trkpt lat="43.69316" lon="6.97577">
        <ele>430</ele>
        <time>2018-01-02T16:19:11.552Z</time>
      </trkpt>
      <trkpt lat="43.69311" lon="6.9759">
        <ele>420</ele>
        <time>2018-01-02T16:19:14.552Z</time>
      </trkpt>
      <trkpt lat="43.69305" lon="6.97603">
        <ele>420</ele>
        <time>2018-01-02T16:19:17.552Z</time>
      </trkpt>
      <trkpt lat="43.69296" lon="6.97614">
        <ele>420</ele>
        <time>2018-01-02T16:19:20.552Z</time>
      </trkpt>
      <trkpt lat="43.69289" lon="6.97627">
        <ele>419</ele>
        <time>2018-01-02T16:19:23.552Z</time>
      </trkpt>
      <trkpt lat="43.69282" lon="6.97638">
        <ele>419</ele>
        <time>2018-01-02T16:19:26.552Z</time>
      </trkpt>
      <trkpt lat="43.69273" lon="6.97646">
        <ele>419</ele>
        <time>2018-01-02T16:19:29.552Z</time>
      </trkpt>
      <trkpt lat="43.69261" lon="6.97653">
        <ele>419</ele>
        <time>2018-01-02T16:19:32.552Z</time>
      </trkpt>
      <trkpt lat="43.6925" lon="6.97655">
        <ele>419</ele>
        <time>2018-01-02T16:19:35.552Z</time>
      </trkpt>
      <trkpt lat="43.6924" lon="6.97659">
        <ele>424</ele>
        <time>2018-01-02T16:19:38.552Z</time>
      </trkpt>
      <trkpt lat="43.6923" lon="6.97663">
        <ele>426</ele>
        <time>2018-01-02T16:19:41.552Z</time>
      </trkpt>
      <trkpt lat="43.6922" lon="6.97667">
        <ele>417</ele>
        <time>2018-01-02T16:19:44.552Z</time>
      </trkpt>
      <trkpt lat="43.69211" lon="6.97672">
        <ele>417</ele>
        <time>2018-01-02T16:19:47.552Z</time>
      </trkpt>
      <trkpt lat="43.69202" lon="6.97677">
        <ele>418</ele>
        <time>2018-01-02T16:19:50.552Z</time>
      </trkpt>
      <trkpt lat="43.69198" lon="6.97687">
        <ele>417</ele>
        <time>2018-01-02T16:19:53.552Z</time>
      </trkpt>
      <trkpt lat="43.69194" lon="6.97695">
        <ele>417</ele>
        <time>2018-01-02T16:19:55.552Z</time>
      </trkpt>
      <trkpt lat="43.69189" lon="6.97703">
        <ele>416</ele>
        <time>2018-01-02T16:19:57.552Z</time>
      </trkpt>
      <trkpt lat="43.69184" lon="6.97708">
        <ele>416</ele>
        <time>2018-01-02T16:19:59.552Z</time>
      </trkpt>
      <trkpt lat="43.69176" lon="6.97716">
        <ele>415</ele>
        <time>2018-01-02T16:20:02.552Z</time>
      </trkpt>
      <trkpt lat="43.69169" lon="6.97721">
        <ele>415</ele>
        <time>2018-01-02T16:20:04.552Z</time>
      </trkpt>
      <trkpt lat="43.69161" lon="6.9773">
        <ele>421</ele>
        <time>2018-01-02T16:20:07.552Z</time>
      </trkpt>
      <trkpt lat="43.69154" lon="6.97738">
        <ele>420</ele>
        <time>2018-01-02T16:20:10.552Z</time>
      </trkpt>
      <trkpt lat="43.69147" lon="6.97748">
        <ele>421</ele>
        <time>2018-01-02T16:20:14.552Z</time>
      </trkpt>
      <trkpt lat="43.69143" lon="6.97759">
        <ele>413</ele>
        <time>2018-01-02T16:20:17.552Z</time>
      </trkpt>
      <trkpt lat="43.69138" lon="6.9777">
        <ele>412</ele>
        <time>2018-01-02T16:20:20.552Z</time>
      </trkpt>
      <trkpt lat="43.69129" lon="6.97782">
        <ele>412</ele>
        <time>2018-01-02T16:20:24.552Z</time>
      </trkpt>
      <trkpt lat="43.69122" lon="6.97788">
        <ele>411</ele>
        <time>2018-01-02T16:20:27.552Z</time>
      </trkpt>
      <trkpt lat="43.69113" lon="6.97793">
        <ele>411</ele>
        <time>2018-01-02T16:20:31.552Z</time>
      </trkpt>
      <trkpt lat="43.69105" lon="6.97794">
        <ele>412</ele>
        <time>2018-01-02T16:20:34.552Z</time>
      </trkpt>
      <trkpt lat="43.69098" lon="6.97796">
        <ele>412</ele>
        <time>2018-01-02T16:20:37.552Z</time>
      </trkpt>
      <trkpt lat="43.69089" lon="6.97797">
        <ele>412</ele>
        <time>2018-01-02T16:20:40.552Z</time>
      </trkpt>
      <trkpt lat="43.69081" lon="6.97799">
        <ele>411</ele>
        <time>2018-01-02T16:20:43.552Z</time>
      </trkpt>
      <trkpt lat="43.69072" lon="6.97801">
        <ele>411</ele>
        <time>2018-01-02T16:20:46.552Z</time>
      </trkpt>
      <trkpt lat="43.69066" lon="6.97802">
        <ele>411</ele>
        <time>2018-01-02T16:20:49.552Z</time>
      </trkpt>
      <trkpt lat="43.6906" lon="6.97797">
        <ele>411</ele>
        <time>2018-01-02T16:20:54.552Z</time>
      </trkpt>
      <trkpt lat="43.69056" lon="6.97789">
        <ele>412</ele>
        <time>2018-01-02T16:20:57.552Z</time>
      </trkpt>
      <trkpt lat="43.69052" lon="6.97784">
        <ele>412</ele>
        <time>2018-01-02T16:20:59.552Z</time>
      </trkpt>
      <trkpt lat="43.69049" lon="6.97779">
        <ele>412</ele>
        <time>2018-01-02T16:21:01.552Z</time>
      </trkpt>
      <trkpt lat="43.69046" lon="6.97774">
        <ele>412</ele>
        <time>2018-01-02T16:21:03.552Z</time>
      </trkpt>
      <trkpt lat="43.69042" lon="6.9777">
        <ele>412</ele>
        <time>2018-01-02T16:21:05.552Z</time>
      </trkpt>
      <trkpt lat="43.69037" lon="6.97765">
        <ele>412</ele>
        <time>2018-01-02T16:21:07.552Z</time>
      </trkpt>
      <trkpt lat="43.69033" lon="6.9776">
        <ele>412</ele>
        <time>2018-01-02T16:21:09.552Z</time>
      </trkpt>
      <trkpt lat="43.69027" lon="6.97752">
        <ele>412</ele>
        <time>2018-01-02T16:21:12.552Z</time>
      </trkpt>
      <trkpt lat="43.69023" lon="6.97745">
        <ele>421</ele>
        <time>2018-01-02T16:21:15.552Z</time>
      </trkpt>
      <trkpt lat="43.69019" lon="6.97737">
        <ele>421</ele>
        <time>2018-01-02T16:21:18.552Z</time>
      </trkpt>
      <trkpt lat="43.6901" lon="6.97727">
        <ele>422</ele>
        <time>2018-01-02T16:21:22.552Z</time>
      </trkpt>
      <trkpt lat="43.69005" lon="6.97722">
        <ele>423</ele>
        <time>2018-01-02T16:21:24.552Z</time>
      </trkpt>
      <trkpt lat="43.68999" lon="6.97719">
        <ele>419</ele>
        <time>2018-01-02T16:21:26.552Z</time>
      </trkpt>
      <trkpt lat="43.6899" lon="6.97712">
        <ele>420</ele>
        <time>2018-01-02T16:21:29.552Z</time>
      </trkpt>
      <trkpt lat="43.6898" lon="6.97703">
        <ele>421</ele>
        <time>2018-01-02T16:21:33.552Z</time>
      </trkpt>
      <trkpt lat="43.68969" lon="6.97699">
        <ele>421</ele>
        <time>2018-01-02T16:21:52.552Z</time>
      </trkpt>
      <trkpt lat="43.68963" lon="6.97691">
        <ele>422</ele>
        <time>2018-01-02T16:22:10.552Z</time>
      </trkpt>
      <trkpt lat="43.68966" lon="6.97698">
        <ele>421</ele>
        <time>2018-01-02T16:22:35.552Z</time>
      </trkpt>
      <trkpt lat="43.68963" lon="6.97689">
        <ele>422</ele>
        <time>2018-01-02T16:23:25.552Z</time>
      </trkpt>
      <trkpt lat="43.68962" lon="6.97676">
        <ele>423</ele>
        <time>2018-01-02T16:23:51.552Z</time>
      </trkpt>
      <trkpt lat="43.68963" lon="6.97662">
        <ele>436</ele>
        <time>2018-01-02T16:24:08.552Z</time>
      </trkpt>
      <trkpt lat="43.68962" lon="6.97647">
        <ele>437</ele>
        <time>2018-01-02T16:24:19.552Z</time>
      </trkpt>
      <trkpt lat="43.68964" lon="6.97661">
        <ele>436</ele>
        <time>2018-01-02T16:24:30.552Z</time>
      </trkpt>
      <trkpt lat="43.68961" lon="6.97676">
        <ele>423</ele>
        <time>2018-01-02T16:24:37.552Z</time>
      </trkpt>
      <trkpt lat="43.6896" lon="6.97686">
        <ele>422</ele>
        <time>2018-01-02T16:24:44.552Z</time>
      </trkpt>
      <trkpt lat="43.68963" lon="6.97675">
        <ele>423</ele>
        <time>2018-01-02T16:25:21.552Z</time>
      </trkpt>
      <trkpt lat="43.6896" lon="6.97662">
        <ele>436</ele>
        <time>2018-01-02T16:25:34.552Z</time>
      </trkpt>
      <trkpt lat="43.6896" lon="6.9765">
        <ele>437</ele>
        <time>2018-01-02T16:25:45.552Z</time>
      </trkpt>
      <trkpt lat="43.6895" lon="6.97649">
        <ele>436</ele>
        <time>2018-01-02T16:26:00.552Z</time>
      </trkpt>
      <trkpt lat="43.68943" lon="6.97652">
        <ele>435</ele>
        <time>2018-01-02T16:26:03.552Z</time>
      </trkpt>
      <trkpt lat="43.68936" lon="6.97656">
        <ele>434</ele>
        <time>2018-01-02T16:26:06.552Z</time>
      </trkpt>
      <trkpt lat="43.68929" lon="6.97661">
        <ele>432</ele>
        <time>2018-01-02T16:26:09.552Z</time>
      </trkpt>
      <trkpt lat="43.68922" lon="6.97666">
        <ele>429</ele>
        <time>2018-01-02T16:26:12.552Z</time>
      </trkpt>
      <trkpt lat="43.68914" lon="6.97672">
        <ele>425</ele>
        <time>2018-01-02T16:26:16.552Z</time>
      </trkpt>
      <trkpt lat="43.68906" lon="6.9768">
        <ele>423</ele>
        <time>2018-01-02T16:26:20.552Z</time>
      </trkpt>
      <trkpt lat="43.68901" lon="6.97682">
        <ele>422</ele>
        <time>2018-01-02T16:26:24.552Z</time>
      </trkpt>
      <trkpt lat="43.68899" lon="6.97691">
        <ele>420</ele>
        <time>2018-01-02T16:27:17.552Z</time>
      </trkpt>
      <trkpt lat="43.68897" lon="6.97699">
        <ele>419</ele>
        <time>2018-01-02T16:27:21.552Z</time>
      </trkpt>
      <trkpt lat="43.68893" lon="6.97708">
        <ele>418</ele>
        <time>2018-01-02T16:27:27.552Z</time>
      </trkpt>
      <trkpt lat="43.6889" lon="6.97716">
        <ele>417</ele>
        <time>2018-01-02T16:27:32.552Z</time>
      </trkpt>
      <trkpt lat="43.68889" lon="6.97726">
        <ele>416</ele>
        <time>2018-01-02T16:27:35.552Z</time>
      </trkpt>
      <trkpt lat="43.68888" lon="6.97734">
        <ele>415</ele>
        <time>2018-01-02T16:27:38.552Z</time>
      </trkpt>
      <trkpt lat="43.68889" lon="6.9774">
        <ele>414</ele>
        <time>2018-01-02T16:27:42.552Z</time>
      </trkpt>
      <trkpt lat="43.68885" lon="6.97741">
        <ele>415</ele>
        <time>2018-01-02T16:27:55.552Z</time>
      </trkpt>
      <trkpt lat="43.6888" lon="6.97745">
        <ele>415</ele>
        <time>2018-01-02T16:27:57.552Z</time>
      </trkpt>
      <trkpt lat="43.68876" lon="6.97747">
        <ele>415</ele>
        <time>2018-01-02T16:27:58.552Z</time>
      </trkpt>
      <trkpt lat="43.6887" lon="6.97749">
        <ele>415</ele>
        <time>2018-01-02T16:28:00.552Z</time>
      </trkpt>
      <trkpt lat="43.68864" lon="6.97747">
        <ele>415</ele>
        <time>2018-01-02T16:28:02.552Z</time>
      </trkpt>
      <trkpt lat="43.68857" lon="6.9775">
        <ele>405</ele>
        <time>2018-01-02T16:28:06.552Z</time>
      </trkpt>
      <trkpt lat="43.68862" lon="6.97759">
        <ele>404</ele>
        <time>2018-01-02T16:28:12.552Z</time>
      </trkpt>
      <trkpt lat="43.68868" lon="6.9776">
        <ele>403</ele>
        <time>2018-01-02T16:28:15.552Z</time>
      </trkpt>
      <trkpt lat="43.68876" lon="6.9776">
        <ele>403</ele>
        <time>2018-01-02T16:28:17.552Z</time>
      </trkpt>
      <trkpt lat="43.68884" lon="6.9776">
        <ele>403</ele>
        <time>2018-01-02T16:28:19.552Z</time>
      </trkpt>
      <trkpt lat="43.68894" lon="6.97762">
        <ele>403</ele>
        <time>2018-01-02T16:28:22.552Z</time>
      </trkpt>
      <trkpt lat="43.68902" lon="6.97766">
        <ele>403</ele>
        <time>2018-01-02T16:28:25.552Z</time>
      </trkpt>
      <trkpt lat="43.6891" lon="6.97771">
        <ele>403</ele>
        <time>2018-01-02T16:28:30.552Z</time>
      </trkpt>
      <trkpt lat="43.68919" lon="6.97778">
        <ele>402</ele>
        <time>2018-01-02T16:28:34.552Z</time>
      </trkpt>
      <trkpt lat="43.68927" lon="6.97783">
        <ele>402</ele>
        <time>2018-01-02T16:28:37.552Z</time>
      </trkpt>
      <trkpt lat="43.68926" lon="6.97791">
        <ele>401</ele>
        <time>2018-01-02T16:28:40.552Z</time>
      </trkpt>
      <trkpt lat="43.6892" lon="6.97788">
        <ele>401</ele>
        <time>2018-01-02T16:28:43.552Z</time>
      </trkpt>
      <trkpt lat="43.68912" lon="6.97791">
        <ele>400</ele>
        <time>2018-01-02T16:28:47.552Z</time>
      </trkpt>
      <trkpt lat="43.68906" lon="6.97796">
        <ele>399</ele>
        <time>2018-01-02T16:28:50.552Z</time>
      </trkpt>
      <trkpt lat="43.68898" lon="6.978">
        <ele>399</ele>
        <time>2018-01-02T16:28:53.552Z</time>
      </trkpt>
      <trkpt lat="43.68892" lon="6.97802">
        <ele>399</ele>
        <time>2018-01-02T16:28:55.552Z</time>
      </trkpt>
      <trkpt lat="43.68885" lon="6.97802">
        <ele>399</ele>
        <time>2018-01-02T16:28:57.552Z</time>
      </trkpt>
      <trkpt lat="43.68879" lon="6.97801">
        <ele>399</ele>
        <time>2018-01-02T16:28:59.552Z</time>
      </trkpt>
      <trkpt lat="43.68871" lon="6.978">
        <ele>399</ele>
        <time>2018-01-02T16:29:01.552Z</time>
      </trkpt>
      <trkpt lat="43.68864" lon="6.97798">
        <ele>400</ele>
        <time>2018-01-02T16:29:03.552Z</time>
      </trkpt>
      <trkpt lat="43.68856" lon="6.97796">
        <ele>400</ele>
        <time>2018-01-02T16:29:05.552Z</time>
      </trkpt>
      <trkpt lat="43.68848" lon="6.97793">
        <ele>400</ele>
        <time>2018-01-02T16:29:07.552Z</time>
      </trkpt>
      <trkpt lat="43.68839" lon="6.97789">
        <ele>401</ele>
        <time>2018-01-02T16:29:09.552Z</time>
      </trkpt>
      <trkpt lat="43.6883" lon="6.97785">
        <ele>402</ele>
        <time>2018-01-02T16:29:11.552Z</time>
      </trkpt>
      <trkpt lat="43.68821" lon="6.97783">
        <ele>402</ele>
        <time>2018-01-02T16:29:13.552Z</time>
      </trkpt>
      <trkpt lat="43.68811" lon="6.97783">
        <ele>402</ele>
        <time>2018-01-02T16:29:15.552Z</time>
      </trkpt>
      <trkpt lat="43.68803" lon="6.97783">
        <ele>402</ele>
        <time>2018-01-02T16:29:17.552Z</time>
      </trkpt>
      <trkpt lat="43.68795" lon="6.97783">
        <ele>402</ele>
        <time>2018-01-02T16:29:19.552Z</time>
      </trkpt>
      <trkpt lat="43.68787" lon="6.97781">
        <ele>402</ele>
        <time>2018-01-02T16:29:21.552Z</time>
      </trkpt>
      <trkpt lat="43.68779" lon="6.97779">
        <ele>402</ele>
        <time>2018-01-02T16:29:23.552Z</time>
      </trkpt>
      <trkpt lat="43.68769" lon="6.9778">
        <ele>402</ele>
        <time>2018-01-02T16:29:25.552Z</time>
      </trkpt>
      <trkpt lat="43.6876" lon="6.97781">
        <ele>402</ele>
        <time>2018-01-02T16:29:27.552Z</time>
      </trkpt>
      <trkpt lat="43.68751" lon="6.97781">
        <ele>402</ele>
        <time>2018-01-02T16:29:29.552Z</time>
      </trkpt>
      <trkpt lat="43.68743" lon="6.97782">
        <ele>402</ele>
        <time>2018-01-02T16:29:31.552Z</time>
      </trkpt>
      <trkpt lat="43.68735" lon="6.97785">
        <ele>402</ele>
        <time>2018-01-02T16:29:33.552Z</time>
      </trkpt>
      <trkpt lat="43.68726" lon="6.9779">
        <ele>401</ele>
        <time>2018-01-02T16:29:35.552Z</time>
      </trkpt>
      <trkpt lat="43.68718" lon="6.97795">
        <ele>400</ele>
        <time>2018-01-02T16:29:37.552Z</time>
      </trkpt>
      <trkpt lat="43.68711" lon="6.97799">
        <ele>400</ele>
        <time>2018-01-02T16:29:39.552Z</time>
      </trkpt>
      <trkpt lat="43.68704" lon="6.97801">
        <ele>400</ele>
        <time>2018-01-02T16:29:41.552Z</time>
      </trkpt>
      <trkpt lat="43.68698" lon="6.97802">
        <ele>400</ele>
        <time>2018-01-02T16:29:43.552Z</time>
      </trkpt>
      <trkpt lat="43.68692" lon="6.97802">
        <ele>399</ele>
        <time>2018-01-02T16:29:45.552Z</time>
      </trkpt>
      <trkpt lat="43.68684" lon="6.978">
        <ele>400</ele>
        <time>2018-01-02T16:29:48.552Z</time>
      </trkpt>
      <trkpt lat="43.68677" lon="6.97797">
        <ele>400</ele>
        <time>2018-01-02T16:29:51.552Z</time>
      </trkpt>
      <trkpt lat="43.68671" lon="6.97792">
        <ele>401</ele>
        <time>2018-01-02T16:29:54.552Z</time>
      </trkpt>
      <trkpt lat="43.68666" lon="6.97786">
        <ele>399</ele>
        <time>2018-01-02T16:29:57.552Z</time>
      </trkpt>
      <trkpt lat="43.68661" lon="6.97781">
        <ele>400</ele>
        <time>2018-01-02T16:30:00.552Z</time>
      </trkpt>
      <trkpt lat="43.68657" lon="6.97775">
        <ele>401</ele>
        <time>2018-01-02T16:30:03.552Z</time>
      </trkpt>
      <trkpt lat="43.68653" lon="6.9777">
        <ele>402</ele>
        <time>2018-01-02T16:30:06.552Z</time>
      </trkpt>
      <trkpt lat="43.68648" lon="6.97764">
        <ele>402</ele>
        <time>2018-01-02T16:30:09.552Z</time>
      </trkpt>
      <trkpt lat="43.68643" lon="6.97758">
        <ele>402</ele>
        <time>2018-01-02T16:30:12.552Z</time>
      </trkpt>
      <trkpt lat="43.68639" lon="6.97752">
        <ele>402</ele>
        <time>2018-01-02T16:30:15.552Z</time>
      </trkpt>
      <trkpt lat="43.68635" lon="6.97745">
        <ele>414</ele>
        <time>2018-01-02T16:30:18.552Z</time>
      </trkpt>
      <trkpt lat="43.68632" lon="6.97739">
        <ele>414</ele>
        <time>2018-01-02T16:30:21.552Z</time>
      </trkpt>
      <trkpt lat="43.68629" lon="6.97733">
        <ele>415</ele>
        <time>2018-01-02T16:30:24.552Z</time>
      </trkpt>
      <trkpt lat="43.68625" lon="6.97726">
        <ele>415</ele>
        <time>2018-01-02T16:30:27.552Z</time>
      </trkpt>
      <trkpt lat="43.68622" lon="6.97716">
        <ele>416</ele>
        <time>2018-01-02T16:30:31.552Z</time>
      </trkpt>
      <trkpt lat="43.68616" lon="6.97711">
        <ele>416</ele>
        <time>2018-01-02T16:30:34.552Z</time>
      </trkpt>
      <trkpt lat="43.6861" lon="6.97705">
        <ele>417</ele>
        <time>2018-01-02T16:30:37.552Z</time>
      </trkpt>
      <trkpt lat="43.68603" lon="6.977">
        <ele>417</ele>
        <time>2018-01-02T16:30:41.552Z</time>
      </trkpt>
      <trkpt lat="43.68597" lon="6.97696">
        <ele>417</ele>
        <time>2018-01-02T16:30:44.552Z</time>
      </trkpt>
      <trkpt lat="43.68591" lon="6.97692">
        <ele>418</ele>
        <time>2018-01-02T16:30:47.552Z</time>
      </trkpt>
      <trkpt lat="43.68586" lon="6.97685">
        <ele>418</ele>
        <time>2018-01-02T16:30:51.552Z</time>
      </trkpt>
      <trkpt lat="43.68579" lon="6.97678">
        <ele>414</ele>
        <time>2018-01-02T16:30:55.552Z</time>
      </trkpt>
      <trkpt lat="43.68572" lon="6.97672">
        <ele>414</ele>
        <time>2018-01-02T16:30:58.552Z</time>
      </trkpt>
      <trkpt lat="43.68564" lon="6.9767">
        <ele>412</ele>
        <time>2018-01-02T16:31:01.552Z</time>
      </trkpt>
      <trkpt lat="43.68557" lon="6.97666">
        <ele>423</ele>
        <time>2018-01-02T16:31:03.552Z</time>
      </trkpt>
      <trkpt lat="43.68549" lon="6.97661">
        <ele>422</ele>
        <time>2018-01-02T16:31:05.552Z</time>
      </trkpt>
      <trkpt lat="43.68539" lon="6.97656">
        <ele>422</ele>
        <time>2018-01-02T16:31:07.552Z</time>
      </trkpt>
      <trkpt lat="43.68529" lon="6.97653">
        <ele>421</ele>
        <time>2018-01-02T16:31:09.552Z</time>
      </trkpt>
      <trkpt lat="43.6852" lon="6.97651">
        <ele>420</ele>
        <time>2018-01-02T16:31:11.552Z</time>
      </trkpt>
      <trkpt lat="43.68513" lon="6.97648">
        <ele>419</ele>
        <time>2018-01-02T16:31:13.552Z</time>
      </trkpt>
      <trkpt lat="43.68507" lon="6.97642">
        <ele>420</ele>
        <time>2018-01-02T16:31:15.552Z</time>
      </trkpt>
      <trkpt lat="43.685" lon="6.97636">
        <ele>421</ele>
        <time>2018-01-02T16:31:17.552Z</time>
      </trkpt>
      <trkpt lat="43.68494" lon="6.97628">
        <ele>413</ele>
        <time>2018-01-02T16:31:19.552Z</time>
      </trkpt>
      <trkpt lat="43.68489" lon="6.97621">
        <ele>414</ele>
        <time>2018-01-02T16:31:21.552Z</time>
      </trkpt>
      <trkpt lat="43.68482" lon="6.97613">
        <ele>415</ele>
        <time>2018-01-02T16:31:23.552Z</time>
      </trkpt>
      <trkpt lat="43.68476" lon="6.97606">
        <ele>415</ele>
        <time>2018-01-02T16:31:25.552Z</time>
      </trkpt>
      <trkpt lat="43.68471" lon="6.97599">
        <ele>415</ele>
        <time>2018-01-02T16:31:27.552Z</time>
      </trkpt>
      <trkpt lat="43.68465" lon="6.97593">
        <ele>415</ele>
        <time>2018-01-02T16:31:29.552Z</time>
      </trkpt>
      <trkpt lat="43.6846" lon="6.97588">
        <ele>415</ele>
        <time>2018-01-02T16:31:31.552Z</time>
      </trkpt>
      <trkpt lat="43.68455" lon="6.97582">
        <ele>428</ele>
        <time>2018-01-02T16:31:33.552Z</time>
      </trkpt>
      <trkpt lat="43.68448" lon="6.97576">
        <ele>427</ele>
        <time>2018-01-02T16:31:36.552Z</time>
      </trkpt>
      <trkpt lat="43.68441" lon="6.97567">
        <ele>427</ele>
        <time>2018-01-02T16:31:40.552Z</time>
      </trkpt>
      <trkpt lat="43.68433" lon="6.97557">
        <ele>427</ele>
        <time>2018-01-02T16:31:44.552Z</time>
      </trkpt>
      <trkpt lat="43.68427" lon="6.97545">
        <ele>430</ele>
        <time>2018-01-02T16:31:48.552Z</time>
      </trkpt>
      <trkpt lat="43.68422" lon="6.97535">
        <ele>431</ele>
        <time>2018-01-02T16:31:52.552Z</time>
      </trkpt>
      <trkpt lat="43.68414" lon="6.97527">
        <ele>422</ele>
        <time>2018-01-02T16:31:56.552Z</time>
      </trkpt>
      <trkpt lat="43.68404" lon="6.97523">
        <ele>422</ele>
        <time>2018-01-02T16:32:00.552Z</time>
      </trkpt>
      <trkpt lat="43.68395" lon="6.9752">
        <ele>420</ele>
        <time>2018-01-02T16:32:04.552Z</time>
      </trkpt>
      <trkpt lat="43.68386" lon="6.97516">
        <ele>419</ele>
        <time>2018-01-02T16:32:08.552Z</time>
      </trkpt>
      <trkpt lat="43.68381" lon="6.97511">
        <ele>419</ele>
        <time>2018-01-02T16:32:11.552Z</time>
      </trkpt>
      <trkpt lat="43.68376" lon="6.97506">
        <ele>418</ele>
        <time>2018-01-02T16:32:13.552Z</time>
      </trkpt>
      <trkpt lat="43.68372" lon="6.97501">
        <ele>418</ele>
        <time>2018-01-02T16:32:15.552Z</time>
      </trkpt>
      <trkpt lat="43.68367" lon="6.97494">
        <ele>428</ele>
        <time>2018-01-02T16:32:18.552Z</time>
      </trkpt>
      <trkpt lat="43.68363" lon="6.97489">
        <ele>427</ele>
        <time>2018-01-02T16:32:20.552Z</time>
      </trkpt>
      <trkpt lat="43.68358" lon="6.97485">
        <ele>427</ele>
        <time>2018-01-02T16:32:22.552Z</time>
      </trkpt>
      <trkpt lat="43.68353" lon="6.9748">
        <ele>426</ele>
        <time>2018-01-02T16:32:24.552Z</time>
      </trkpt>
      <trkpt lat="43.68349" lon="6.97475">
        <ele>426</ele>
        <time>2018-01-02T16:32:26.552Z</time>
      </trkpt>
      <trkpt lat="43.68345" lon="6.9747">
        <ele>427</ele>
        <time>2018-01-02T16:32:28.552Z</time>
      </trkpt>
      <trkpt lat="43.68341" lon="6.97464">
        <ele>427</ele>
        <time>2018-01-02T16:32:30.552Z</time>
      </trkpt>
      <trkpt lat="43.68337" lon="6.97453">
        <ele>428</ele>
        <time>2018-01-02T16:32:33.552Z</time>
      </trkpt>
      <trkpt lat="43.68333" lon="6.97442">
        <ele>416</ele>
        <time>2018-01-02T16:32:36.552Z</time>
      </trkpt>
      <trkpt lat="43.68331" lon="6.97435">
        <ele>417</ele>
        <time>2018-01-02T16:32:38.552Z</time>
      </trkpt>
      <trkpt lat="43.68329" lon="6.97428">
        <ele>419</ele>
        <time>2018-01-02T16:32:40.552Z</time>
      </trkpt>
      <trkpt lat="43.68326" lon="6.97422">
        <ele>421</ele>
        <time>2018-01-02T16:32:42.552Z</time>
      </trkpt>
      <trkpt lat="43.68322" lon="6.97414">
        <ele>423</ele>
        <time>2018-01-02T16:32:44.552Z</time>
      </trkpt>
      <trkpt lat="43.68319" lon="6.97407">
        <ele>422</ele>
        <time>2018-01-02T16:32:46.552Z</time>
      </trkpt>
      <trkpt lat="43.68317" lon="6.97402">
        <ele>422</ele>
        <time>2018-01-02T16:32:48.552Z</time>
      </trkpt>
      <trkpt lat="43.68314" lon="6.97396">
        <ele>421</ele>
        <time>2018-01-02T16:32:50.552Z</time>
      </trkpt>
      <trkpt lat="43.68312" lon="6.9739">
        <ele>421</ele>
        <time>2018-01-02T16:32:52.552Z</time>
      </trkpt>
      <trkpt lat="43.6831" lon="6.97383">
        <ele>421</ele>
        <time>2018-01-02T16:32:54.552Z</time>
      </trkpt>
      <trkpt lat="43.68309" lon="6.97372">
        <ele>422</ele>
        <time>2018-01-02T16:32:57.552Z</time>
      </trkpt>
      <trkpt lat="43.68309" lon="6.97364">
        <ele>422</ele>
        <time>2018-01-02T16:33:00.552Z</time>
      </trkpt>
      <trkpt lat="43.68308" lon="6.97355">
        <ele>423</ele>
        <time>2018-01-02T16:33:03.552Z</time>
      </trkpt>
      <trkpt lat="43.68304" lon="6.97334">
        <ele>424</ele>
        <time>2018-01-02T16:33:10.552Z</time>
      </trkpt>
      <trkpt lat="43.68297" lon="6.97326">
        <ele>429</ele>
        <time>2018-01-02T16:33:13.552Z</time>
      </trkpt>
      <trkpt lat="43.6829" lon="6.9732">
        <ele>428</ele>
        <time>2018-01-02T16:33:16.552Z</time>
      </trkpt>
      <trkpt lat="43.68286" lon="6.97316">
        <ele>427</ele>
        <time>2018-01-02T16:33:18.552Z</time>
      </trkpt>
      <trkpt lat="43.68281" lon="6.9731">
        <ele>427</ele>
        <time>2018-01-02T16:33:20.552Z</time>
      </trkpt>
      <trkpt lat="43.68276" lon="6.97305">
        <ele>426</ele>
        <time>2018-01-02T16:33:22.552Z</time>
      </trkpt>
      <trkpt lat="43.68272" lon="6.973">
        <ele>426</ele>
        <time>2018-01-02T16:33:24.552Z</time>
      </trkpt>
      <trkpt lat="43.68269" lon="6.97294">
        <ele>427</ele>
        <time>2018-01-02T16:33:26.552Z</time>
      </trkpt>
      <trkpt lat="43.68264" lon="6.97287">
        <ele>427</ele>
        <time>2018-01-02T16:33:29.552Z</time>
      </trkpt>
      <trkpt lat="43.6826" lon="6.97281">
        <ele>427</ele>
        <time>2018-01-02T16:33:31.552Z</time>
      </trkpt>
      <trkpt lat="43.68255" lon="6.97275">
        <ele>427</ele>
        <time>2018-01-02T16:33:33.552Z</time>
      </trkpt>
      <trkpt lat="43.6825" lon="6.9727">
        <ele>426</ele>
        <time>2018-01-02T16:33:35.552Z</time>
      </trkpt>
      <trkpt lat="43.68246" lon="6.97264">
        <ele>419</ele>
        <time>2018-01-02T16:33:37.552Z</time>
      </trkpt>
      <trkpt lat="43.68241" lon="6.97258">
        <ele>419</ele>
        <time>2018-01-02T16:33:39.552Z</time>
      </trkpt>
      <trkpt lat="43.68236" lon="6.97252">
        <ele>419</ele>
        <time>2018-01-02T16:33:41.552Z</time>
      </trkpt>
      <trkpt lat="43.68234" lon="6.97243">
        <ele>422</ele>
        <time>2018-01-02T16:33:43.552Z</time>
      </trkpt>
      <trkpt lat="43.68232" lon="6.9723">
        <ele>422</ele>
        <time>2018-01-02T16:33:46.552Z</time>
      </trkpt>
      <trkpt lat="43.68229" lon="6.97219">
        <ele>422</ele>
        <time>2018-01-02T16:33:49.552Z</time>
      </trkpt>
      <trkpt lat="43.68222" lon="6.97209">
        <ele>421</ele>
        <time>2018-01-02T16:33:52.552Z</time>
      </trkpt>
      <trkpt lat="43.68219" lon="6.972">
        <ele>422</ele>
        <time>2018-01-02T16:33:54.552Z</time>
      </trkpt>
      <trkpt lat="43.68215" lon="6.97188">
        <ele>422</ele>
        <time>2018-01-02T16:33:56.552Z</time>
      </trkpt>
      <trkpt lat="43.68215" lon="6.97176">
        <ele>422</ele>
        <time>2018-01-02T16:33:58.552Z</time>
      </trkpt>
      <trkpt lat="43.68216" lon="6.97164">
        <ele>428</ele>
        <time>2018-01-02T16:34:00.552Z</time>
      </trkpt>
      <trkpt lat="43.68216" lon="6.97153">
        <ele>428</ele>
        <time>2018-01-02T16:34:02.552Z</time>
      </trkpt>
      <trkpt lat="43.68215" lon="6.97142">
        <ele>429</ele>
        <time>2018-01-02T16:34:04.552Z</time>
      </trkpt>
      <trkpt lat="43.6821" lon="6.97134">
        <ele>429</ele>
        <time>2018-01-02T16:34:06.552Z</time>
      </trkpt>
      <trkpt lat="43.68204" lon="6.9713">
        <ele>428</ele>
        <time>2018-01-02T16:34:08.552Z</time>
      </trkpt>
      <trkpt lat="43.68195" lon="6.97127">
        <ele>428</ele>
        <time>2018-01-02T16:34:11.552Z</time>
      </trkpt>
      <trkpt lat="43.68187" lon="6.97126">
        <ele>427</ele>
        <time>2018-01-02T16:34:13.552Z</time>
      </trkpt>
      <trkpt lat="43.6818" lon="6.97128">
        <ele>426</ele>
        <time>2018-01-02T16:34:15.552Z</time>
      </trkpt>
      <trkpt lat="43.68173" lon="6.9713">
        <ele>425</ele>
        <time>2018-01-02T16:34:17.552Z</time>
      </trkpt>
      <trkpt lat="43.68166" lon="6.97132">
        <ele>418</ele>
        <time>2018-01-02T16:34:19.552Z</time>
      </trkpt>
      <trkpt lat="43.68161" lon="6.97132">
        <ele>418</ele>
        <time>2018-01-02T16:34:22.552Z</time>
      </trkpt>
      <trkpt lat="43.68155" lon="6.97132">
        <ele>418</ele>
        <time>2018-01-02T16:34:25.552Z</time>
      </trkpt>
      <trkpt lat="43.68149" lon="6.97136">
        <ele>418</ele>
        <time>2018-01-02T16:34:27.552Z</time>
      </trkpt>
      <trkpt lat="43.68145" lon="6.97139">
        <ele>418</ele>
        <time>2018-01-02T16:34:28.552Z</time>
      </trkpt>
      <trkpt lat="43.68141" lon="6.97143">
        <ele>418</ele>
        <time>2018-01-02T16:34:29.552Z</time>
      </trkpt>
      <trkpt lat="43.68136" lon="6.97147">
        <ele>417</ele>
        <time>2018-01-02T16:34:30.552Z</time>
      </trkpt>
      <trkpt lat="43.68132" lon="6.97152">
        <ele>417</ele>
        <time>2018-01-02T16:34:31.552Z</time>
      </trkpt>
      <trkpt lat="43.68126" lon="6.97157">
        <ele>417</ele>
        <time>2018-01-02T16:34:32.552Z</time>
      </trkpt>
      <trkpt lat="43.68121" lon="6.97162">
        <ele>417</ele>
        <time>2018-01-02T16:34:33.552Z</time>
      </trkpt>
      <trkpt lat="43.68115" lon="6.97167">
        <ele>417</ele>
        <time>2018-01-02T16:34:34.552Z</time>
      </trkpt>
      <trkpt lat="43.6811" lon="6.97171">
        <ele>414</ele>
        <time>2018-01-02T16:34:35.552Z</time>
      </trkpt>
      <trkpt lat="43.68106" lon="6.97174">
        <ele>414</ele>
        <time>2018-01-02T16:34:36.552Z</time>
      </trkpt>
      <trkpt lat="43.68098" lon="6.97177">
        <ele>414</ele>
        <time>2018-01-02T16:34:38.552Z</time>
      </trkpt>
      <trkpt lat="43.68092" lon="6.97178">
        <ele>415</ele>
        <time>2018-01-02T16:34:40.552Z</time>
      </trkpt>
      <trkpt lat="43.68086" lon="6.97178">
        <ele>415</ele>
        <time>2018-01-02T16:34:43.552Z</time>
      </trkpt>
      <trkpt lat="43.68081" lon="6.97181">
        <ele>414</ele>
        <time>2018-01-02T16:34:46.552Z</time>
      </trkpt>
      <trkpt lat="43.68079" lon="6.97187">
        <ele>414</ele>
        <time>2018-01-02T16:34:48.552Z</time>
      </trkpt>
      <trkpt lat="43.68081" lon="6.97194">
        <ele>414</ele>
        <time>2018-01-02T16:34:50.552Z</time>
      </trkpt>
      <trkpt lat="43.68084" lon="6.97201">
        <ele>414</ele>
        <time>2018-01-02T16:34:52.552Z</time>
      </trkpt>
      <trkpt lat="43.68088" lon="6.97209">
        <ele>414</ele>
        <time>2018-01-02T16:34:55.552Z</time>
      </trkpt>
      <trkpt lat="43.68089" lon="6.97218">
        <ele>414</ele>
        <time>2018-01-02T16:34:59.552Z</time>
      </trkpt>
      <trkpt lat="43.68092" lon="6.97222">
        <ele>414</ele>
        <time>2018-01-02T16:35:04.552Z</time>
      </trkpt>
      <trkpt lat="43.6809" lon="6.97216">
        <ele>414</ele>
        <time>2018-01-02T16:35:23.552Z</time>
      </trkpt>
      <trkpt lat="43.68089" lon="6.9722">
        <ele>414</ele>
        <time>2018-01-02T16:36:00.552Z</time>
      </trkpt>
    </trkseg>
  </trk>
</gpx>